# Wetter Temperatur Luftdruck Luftfeuchtigkeit Sichtweite Windgeschwindigkeit Windrichtung Zeit
1 Clouds -2 986 80 10000 3.1 50 21:42 28.01.2020
2 Clear -3 987 73 10000 2.1 60 21:22 28.01.2020
3 Clouds -3 986 74 10000 3.1 40 20:58 28.01.2020
4 Clouds -3 986 74 10000 3.1 40 20:40 28.01.2020
5 Clouds -3 986 73 10000 1 110 20:21 28.01.2020
6 Clouds -2 986 74 10000 3.1 50 19:39 28.01.2020
7 Clouds -2 986 68 10000 2.18 55 19:20 28.01.2020
8 Clouds -2 986 71 10000 3.6 60 18:58 28.01.2020
9 Clouds -2 986 71 10000 3.6 60 18:58 28.01.2020
10 Clouds -2 986 71 10000 3.6 60 18:39 28.01.2020
11 Clouds -2 985 71 10000 0.5 0 18:21 28.01.2020
12 Clouds -2 985 71 10000 0.5 0 18:21 28.01.2020
13 Clouds -2 985 74 10000 4.1 80 17:57 28.01.2020
14 Clouds -1 985 74 10000 4.1 80 17:37 28.01.2020
15 Clouds -1 985 59 10000 4.6 90 17:19 28.01.2020
16 Clouds -1 985 65 10000 4.1 60 16:54 28.01.2020
17 Clouds -1 985 65 10000 4.1 60 16:36 28.01.2020
18 Clouds 0 985 64 10000 3.6 100 16:18 28.01.2020
19 Clouds 0 984 74 10000 3.1 60 15:42 28.01.2020
20 Clouds 0 984 64 10000 5.7 80 15:19 28.01.2020
21 Rain 0 984 80 10000 5.7 100 14:54 28.01.2020
22 Rain 0 984 80 10000 5.7 100 14:36 28.01.2020
23 Clouds 0 983 64 10000 5.1 90 14:18 28.01.2020
24 Rain 0 983 86 10000 4.6 90 13:39 28.01.2020
25 Clouds 0 983 74 10000 3.6 90 13:21 28.01.2020
26 Rain 0 982 80 10000 5.1 90 12:42 28.01.2020
27 Clouds 1 982 74 10000 5.7 90 12:23 28.01.2020
28 Rain 1 982 75 10000 6.2 100 11:48 28.01.2020
29 Clouds 1 982 80 10000 4.6 90 11:23 28.01.2020
30 Rain 0 981 86 10000 7.7 110 10:59 28.01.2020
31 Rain 0 981 86 10000 7.7 110 10:40 28.01.2020
32 Rain 0 981 75 10000 5.1 70 10:20 28.01.2020
33 Rain 1 980 75 10000 6.7 100 09:55 28.01.2020
34 Rain 0 980 75 10000 6.7 100 09:36 28.01.2020
35 Rain 0 980 75 10000 4.6 70 09:18 28.01.2020
36 Rain 0 979 75 10000 6.2 100 08:40 28.01.2020
37 Rain 0 979 78 10000 6.7 80 08:19 28.01.2020
38 Drizzle 1 979 86 10000 8.2 110 07:38 28.01.2020
39 Rain 1 977 78 10000 4.1 110 06:51 28.01.2020
40 Snow 0 978 78 10000 6.2 110 06:28 28.01.2020
41 Rain 0 977 78 10000 5.7 100 05:55 28.01.2020
42 Clouds 0 977 78 10000 5.7 90 05:27 28.01.2020
43 Snow 0 976 87 2900 7.2 90 04:30 28.01.2020
44 Rain 1 975 87 10000 7.2 90 02:58 28.01.2020
45 Rain 0 976 87 10000 7.2 80 02:25 28.01.2020
46 Rain 0 976 87 10000 7.2 80 02:25 28.01.2020
47 Rain 0 976 87 10000 7.2 80 02:25 28.01.2020
48 Rain 0 974 77 10000 2.1 130 01:57 28.01.2020
49 Rain 0 975 77 10000 5.7 70 01:32 28.01.2020
50 Clouds 0 973 76 10000 2.6 180 00:51 28.01.2020
51 Snow 0 974 76 5000 5.1 110 00:29 28.01.2020
52 Snow 0 973 76 10000 3.6 110 23:51 27.01.2020
53 Rain 0 973 76 10000 6.7 100 23:30 27.01.2020
54 Snow -1 972 95 6000 8.7 170 22:59 27.01.2020
55 Snow 0 972 95 6000 8.7 170 22:40 27.01.2020
56 Snow 0 973 95 3900 6.7 100 22:19 27.01.2020
57 Clouds 0 971 100 9000 6.7 130 21:55 27.01.2020
58 Clouds 0 971 100 9000 6.7 130 21:37 27.01.2020
59 Rain 0 972 95 10000 3.1 120 21:18 27.01.2020
60 Snow 0 970 95 4000 6.2 120 20:54 27.01.2020
61 Snow 0 970 95 4000 6.2 120 20:36 27.01.2020
62 Snow 0 971 84 8000 5.7 100 20:18 27.01.2020
63 Snow 0 970 84 1500 6.7 100 19:41 27.01.2020
64 Snow 0 970 84 10000 5.7 100 19:22 27.01.2020
65 Snow 0 969 84 8000 8.7 90 18:56 27.01.2020
66 Snow 0 969 84 8000 8.7 90 18:38 27.01.2020
67 Snow 1 969 74 2000 9.3 90 18:19 27.01.2020
68 Rain 1 968 84 10000 6.2 80 17:39 27.01.2020
69 Snow 1 969 80 10000 5.7 90 17:21 27.01.2020
70 Snow 1 968 78 9000 4.6 80 16:59 27.01.2020
71 Snow 1 968 78 9000 4.6 80 16:41 27.01.2020
72 Rain 1 968 64 10000 4.1 140 16:23 27.01.2020
73 Rain 0 968 92 10000 2.6 70 15:55 27.01.2020
74 Rain 0 968 92 10000 2.6 70 15:37 27.01.2020
75 Rain 0 968 92 10000 2.6 70 15:37 27.01.2020
76 Clouds 0 968 80 10000 2.6 90 15:18 27.01.2020
77 Clouds 0 967 78 10000 3.1 100 14:42 27.01.2020
78 Clouds 0 967 74 10000 5.1 80 14:22 27.01.2020
79 Clouds 0 967 74 10000 6.2 80 13:58 27.01.2020
80 Clouds 0 967 74 10000 6.2 80 13:39 27.01.2020
81 Clouds 0 967 74 10000 7.7 80 13:19 27.01.2020
82 Clouds 1 966 74 10000 6.7 70 12:54 27.01.2020
83 Clouds 1 966 74 10000 6.7 70 12:36 27.01.2020
84 Clouds 0 966 69 10000 7.2 80 12:18 27.01.2020
85 Clouds 0 966 75 10000 7.2 70 11:41 27.01.2020
86 Clouds 0 966 75 10000 7.2 70 11:41 27.01.2020
87 Clouds 0 967 69 10000 6.2 80 11:20 27.01.2020
88 Clouds 1 966 74 10000 8.7 80 10:43 27.01.2020
89 Clouds 1 966 64 10000 6.7 70 10:24 27.01.2020
90 Clouds 1 966 74 10000 8.2 70 09:56 27.01.2020
91 Clouds 1 966 74 10000 8.2 70 09:38 27.01.2020
92 Clouds 1 967 59 10000 5.7 60 09:18 27.01.2020
93 Clear 0 966 70 10000 7.7 70 08:42 27.01.2020
94 Clouds 0 966 59 10000 4.6 20 08:20 27.01.2020
95 Clouds 0 966 74 10000 8.7 80 07:54 27.01.2020
96 Clouds 0 966 74 10000 8.7 80 07:54 27.01.2020
97 Clouds 0 966 74 10000 8.7 80 07:33 27.01.2020
98 Clouds -1 966 79 10000 8.2 80 06:52 27.01.2020
99 Clouds -1 966 75 10000 5.7 80 06:24 27.01.2020
100 Clouds -1 967 63 10000 4.1 70 05:22 27.01.2020
101 Clouds -1 966 70 10000 4.1 80 03:43 27.01.2020
102 Clouds -1 967 70 10000 4.1 60 02:36 27.01.2020
103 Clouds 0 967 55 10000 2.1 90 01:29 27.01.2020
104 Clouds 1 965 64 10000 7.2 160 00:43 27.01.2020
105 Clouds 1 966 55 10000 5.7 130 00:23 27.01.2020
106 Clouds 1 965 74 10000 8.2 170 23:59 26.01.2020
107 Clouds 1 965 74 10000 8.2 170 23:41 26.01.2020
108 Clouds 1 965 74 10000 8.2 170 23:41 26.01.2020
109 Clouds 1 965 64 10000 7.2 160 23:19 26.01.2020
110 Clouds 1 964 80 10000 7.7 180 22:54 26.01.2020
111 Clouds 1 964 80 10000 7.7 180 22:36 26.01.2020
112 Clouds 1 965 74 10000 6.2 180 22:18 26.01.2020
113 Rain 1 964 80 10000 8.2 190 21:55 26.01.2020
114 Rain 1 964 80 10000 8.2 190 21:37 26.01.2020
115 Clouds 2 964 74 10000 6.7 190 21:18 26.01.2020
116 Rain 2 962 93 9000 11.8 220 20:55 26.01.2020
117 Rain 1 963 80 10000 12.9 190 20:36 26.01.2020
118 Rain 1 963 80 10000 12.9 190 20:18 26.01.2020
119 Clouds 1 962 92 10000 3.6 190 19:41 26.01.2020
120 Rain 1 962 80 10000 5.7 170 19:21 26.01.2020
121 Clouds 1 961 92 10000 3.1 70 18:59 26.01.2020
122 Clouds 1 961 92 10000 3.1 70 18:40 26.01.2020
123 Clouds 1 961 80 10000 5.7 70 18:22 26.01.2020
124 Rain 2 961 80 10000 5.1 60 17:58 26.01.2020
125 Rain 2 961 80 10000 5.1 60 17:58 26.01.2020
126 Rain 1 961 80 10000 5.1 60 17:38 26.01.2020
127 Snow 1 961 69 10000 4.6 60 17:19 26.01.2020
128 Rain 1 961 80 10000 5.1 50 16:58 26.01.2020
129 Rain 2 961 80 10000 5.1 50 16:39 26.01.2020
130 Clouds 2 962 69 10000 6.7 70 16:20 26.01.2020
131 Rain 2 962 80 10000 5.1 60 15:55 26.01.2020
132 Rain 2 962 80 10000 5.1 60 15:37 26.01.2020
133 Clouds 2 963 80 10000 6.2 50 15:18 26.01.2020
134 Clouds 1 964 80 10000 8.2 40 14:40 26.01.2020
135 Clouds 1 964 86 10000 8.2 40 14:19 26.01.2020
136 Clouds 1 964 86 10000 8.2 40 14:19 26.01.2020
137 Clouds 1 965 74 10000 3.6 20 13:42 26.01.2020
138 Clouds 1 965 74 10000 3.6 20 13:20 26.01.2020
139 Clouds 0 966 80 10000 4.1 10 12:58 26.01.2020
140 Clouds 0 966 80 10000 4.1 10 12:39 26.01.2020
141 Snow 0 966 73 2500 8.2 40 12:21 26.01.2020
142 Clouds 0 966 80 10000 4.1 10 12:21 26.01.2020
143 Snow 0 966 73 2500 8.2 40 11:57 26.01.2020
144 Snow 0 966 73 2500 8.2 40 11:57 26.01.2020
145 Snow 0 967 86 6000 4.6 50 11:38 26.01.2020
146 Snow 0 967 86 6000 4.6 50 11:18 26.01.2020
147 Snow 0 967 77 3500 8.2 40 10:58 26.01.2020
148 Snow 0 968 80 7000 4.6 80 10:38 26.01.2020
149 Snow 0 968 80 7000 4.6 80 10:38 26.01.2020
150 Snow 0 968 80 7000 4.6 80 10:38 26.01.2020
151 Snow 0 968 80 7000 4.6 80 10:20 26.01.2020
152 Drizzle 0 968 77 10000 8.2 50 09:56 26.01.2020
153 Drizzle 0 968 77 10000 8.2 50 09:38 26.01.2020
154 Clouds 1 969 80 10000 7.7 80 09:20 26.01.2020
155 Clouds 1 969 80 10000 8.7 50 08:42 26.01.2020
156 Snow 1 970 74 10000 8.2 60 08:22 26.01.2020
157 Clouds 1 969 80 10000 8.2 50 07:56 26.01.2020
158 Clouds 1 969 80 10000 8.2 50 07:38 26.01.2020
159 Clouds 1 970 80 10000 8.2 60 07:19 26.01.2020
160 Clouds 2 972 74 10000 6.7 60 06:29 26.01.2020
161 Clouds 2 973 69 10000 6.2 60 05:30 26.01.2020
162 Clouds 2 973 81 10000 7.7 20 04:44 26.01.2020
163 Clouds 1 976 81 10000 5.1 50 02:41 26.01.2020
164 Clouds 1 977 84 10000 3.6 90 01:47 26.01.2020
165 Clouds 1 978 80 10000 2.6 50 01:24 26.01.2020
166 Clouds 2 978 80 10000 3.6 50 00:44 26.01.2020
167 Clouds 2 979 80 10000 4.1 90 00:26 26.01.2020
168 Rain 2 979 74 10000 4.6 90 23:40 25.01.2020
169 Clouds 1 977 71 10000 4.6 180 23:21 25.01.2020
170 Clouds 1 977 71 10000 4.6 180 22:58 25.01.2020
171 Clouds 2 978 74 10000 3.6 120 22:40 25.01.2020
172 Clouds 2 978 74 10000 3.6 120 22:18 25.01.2020
173 Clouds 2 977 74 10000 5.7 150 21:57 25.01.2020
174 Clouds 2 978 80 10000 3.1 80 21:38 25.01.2020
175 Clouds 2 978 80 10000 3.1 80 21:19 25.01.2020
176 Snow 0 979 71 0 4.62 153 20:44 25.01.2020
177 Snow 0 979 71 0 4.62 153 20:25 25.01.2020
178 Snow 2 977 74 0 6 166 19:55 25.01.2020
179 Snow 2 977 74 0 6 166 19:37 25.01.2020
180 Rain 2 977 80 10000 5.1 140 19:18 25.01.2020
181 Rain 2 976 80 10000 5.7 180 18:41 25.01.2020
182 Rain 2 976 80 10000 5.7 180 18:21 25.01.2020
183 Rain 2 976 80 10000 5.7 180 17:57 25.01.2020
184 Rain 3 975 74 10000 5.7 180 17:37 25.01.2020
185 Rain 3 975 74 10000 5.7 180 17:37 25.01.2020
186 Rain 3 975 81 10000 5.7 180 17:18 25.01.2020
187 Rain 3 973 86 10000 9.3 180 16:42 25.01.2020
188 Rain 2 972 93 10000 7.2 170 16:23 25.01.2020
189 Rain 3 972 93 10000 7.2 170 15:57 25.01.2020
190 Drizzle 3 974 81 7000 6.7 100 15:39 25.01.2020
191 Snow 2 973 81 6000 12.3 110 15:20 25.01.2020
192 Drizzle 2 974 81 7000 6.7 100 15:20 25.01.2020
193 Snow 2 973 81 6000 12.3 110 14:42 25.01.2020
194 Snow 2 973 93 6000 12.3 110 14:19 25.01.2020
195 Rain 2 971 93 8000 10.8 130 13:45 25.01.2020
196 Snow 2 972 80 6000 11.3 80 13:27 25.01.2020
197 Rain 2 970 86 10000 12.9 100 12:58 25.01.2020
198 Rain 2 970 86 10000 12.9 100 12:38 25.01.2020
199 Clouds 2 971 92 10000 11.8 100 12:19 25.01.2020
200 Clouds 2 971 92 10000 11.8 100 11:40 25.01.2020
201 Clouds 2 972 69 10000 12.3 90 11:20 25.01.2020
202 Clouds 2 971 82 10000 9.3 80 10:56 25.01.2020
203 Clouds 2 971 82 10000 9.3 80 10:38 25.01.2020
204 Clouds 2 972 69 10000 13.4 80 10:18 25.01.2020
205 Clouds 2 972 82 10000 10.3 70 09:40 25.01.2020
206 Clouds 2 973 69 10000 11.8 80 09:19 25.01.2020
207 Clouds 2 973 82 10000 9.8 60 08:43 25.01.2020
208 Snow 1 973 76 4000 10.8 60 07:58 25.01.2020
209 Snow 1 973 76 4000 10.8 60 07:36 25.01.2020
210 Snow 1 973 76 4000 10.8 60 07:36 25.01.2020
211 Snow 1 973 100 10000 11.8 60 06:41 25.01.2020
212 Clouds 1 974 80 10000 12.9 80 06:22 25.01.2020
213 Snow 1 974 76 3000 13.9 60 05:43 25.01.2020
214 Rain 0 976 86 8000 13.9 80 04:19 25.01.2020
215 Snow 0 976 85 1000 12.3 60 03:49 25.01.2020
216 Snow 0 978 85 1000 12.9 60 02:37 25.01.2020
217 Snow 0 980 91 700 12.3 60 01:57 25.01.2020
218 Snow -1 983 91 5000 9.3 60 01:23 25.01.2020
219 Snow -1 983 100 1100 11.8 50 00:41 25.01.2020
220 Clouds -1 986 90 8000 7.7 60 00:22 25.01.2020
221 Snow -1 986 100 1400 12.9 70 23:42 24.01.2020
222 Snow -1 988 86 8000 7.7 70 23:24 24.01.2020
223 Snow -1 988 92 3000 12.3 70 22:47 24.01.2020
224 Snow -1 990 80 10000 8.2 70 22:28 24.01.2020
225 Snow 0 990 80 10000 10.3 70 21:59 24.01.2020
226 Snow 0 990 80 10000 10.3 70 21:40 24.01.2020
227 Clouds 0 992 64 10000 9.3 80 21:19 24.01.2020
228 Rain 0 991 80 10000 9.3 70 20:44 24.01.2020
229 Clouds 0 993 85 10000 7.7 80 20:22 24.01.2020
230 Rain 0 993 85 10000 8.2 80 19:58 24.01.2020
231 Rain 0 993 85 10000 8.2 80 19:58 24.01.2020
232 Rain 0 993 85 10000 8.2 80 19:40 24.01.2020
233 Clouds 0 994 85 10000 6.7 80 19:22 24.01.2020
234 Clouds 0 994 85 10000 6.2 80 18:56 24.01.2020
235 Clouds 0 994 85 10000 6.2 80 18:37 24.01.2020
236 Clouds 0 996 85 10000 6.2 70 18:19 24.01.2020
237 Clouds 0 995 85 10000 5.1 90 17:42 24.01.2020
238 Clouds 0 997 88 10000 5.7 70 17:21 24.01.2020
239 Clouds 0 997 88 10000 5.7 70 17:21 24.01.2020
240 Clouds 0 996 88 10000 5.1 110 16:55 24.01.2020
241 Clouds 0 996 88 10000 5.1 110 16:36 24.01.2020
242 Clouds 0 998 88 10000 4.1 80 16:18 24.01.2020
243 Clouds 0 998 88 10000 4.1 80 16:18 24.01.2020
244 Clouds 0 998 88 10000 4.1 130 15:40 24.01.2020
245 Clouds -1 999 88 10000 3.6 90 15:20 24.01.2020
246 Clouds -1 999 100 10000 4.1 120 14:42 24.01.2020
247 Clouds -1 1000 80 10000 2.6 140 14:23 24.01.2020
248 Clouds -1 1000 92 10000 4.1 120 13:57 24.01.2020
249 Clouds -1 1000 92 10000 4.1 120 13:39 24.01.2020
250 Clouds -1 1000 79 10000 2.6 110 13:19 24.01.2020
251 Clouds -1 1000 79 10000 2.6 110 13:19 24.01.2020
252 Snow -1 1000 92 5000 3.1 140 12:41 24.01.2020
253 Rain -1 1001 79 10000 4.1 160 12:19 24.01.2020
254 Rain -1 1000 92 10000 1.5 150 11:43 24.01.2020
255 Clouds -1 1001 78 10000 3.1 130 11:19 24.01.2020
256 Snow -1 1001 78 10000 3.1 240 10:43 24.01.2020
257 Snow 0 1001 69 10000 3.1 210 10:23 24.01.2020
258 Snow 0 1001 69 10000 4.1 260 09:57 24.01.2020
259 Snow 0 1001 69 10000 4.1 260 09:57 24.01.2020
260 Snow 0 1001 69 10000 4.1 260 09:39 24.01.2020
261 Rain 0 1001 64 10000 6.7 240 09:21 24.01.2020
262 Clouds 1 1001 69 10000 4.1 270 08:41 24.01.2020
263 Rain 1 1001 55 10000 7.7 250 08:20 24.01.2020
264 Clouds 0 1001 64 10000 7.2 250 07:52 24.01.2020
265 Rain 0 1000 64 10000 9.8 250 07:34 24.01.2020
266 Clouds 0 1000 64 10000 11.3 270 06:48 24.01.2020
267 Snow 0 1001 64 10000 10.3 250 06:29 24.01.2020
268 Clouds 0 1000 73 10000 12.3 260 05:59 24.01.2020
269 Clouds 0 1000 69 10000 13.4 260 04:57 24.01.2020
270 Clouds 0 999 69 10000 14.4 260 02:53 24.01.2020
271 Rain 0 999 59 10000 12.3 260 02:26 24.01.2020
272 Clouds -1 997 69 10000 17 260 01:46 24.01.2020
273 Clouds -1 997 67 9000 12.9 260 01:28 24.01.2020
274 Rain -1 997 67 10000 13.9 250 00:25 24.01.2020
275 Clouds -1 996 67 10000 19 250 23:49 23.01.2020
276 Snow -2 996 80 7000 14.4 250 23:31 23.01.2020
277 Clouds -1 995 65 10000 19.5 250 22:59 23.01.2020
278 Clouds -1 995 65 10000 19.5 250 22:38 23.01.2020
279 Rain -1 995 65 10000 16.5 250 22:19 23.01.2020
280 Snow -1 995 63 8000 19.5 260 21:57 23.01.2020
281 Snow -1 995 63 8000 19.5 260 21:39 23.01.2020
282 Snow -2 995 65 10000 16.5 240 21:20 23.01.2020
283 Snow -2 995 63 10000 20.6 250 20:59 23.01.2020
284 Snow -2 995 63 10000 20.6 250 20:38 23.01.2020
285 Snow -2 995 74 6000 14.9 260 20:20 23.01.2020
286 Clouds -1 994 65 10000 19.5 250 19:56 23.01.2020
287 Clouds -1 994 65 10000 19.5 250 19:38 23.01.2020
288 Rain -1 994 65 5200 19 250 19:19 23.01.2020
289 Snow -2 995 86 3400 17 250 18:43 23.01.2020
290 Rain -2 994 79 8000 17.5 240 18:21 23.01.2020
291 Snow -2 994 68 10000 17 250 17:58 23.01.2020
292 Snow -1 994 68 10000 17 250 17:40 23.01.2020
293 Rain -1 994 62 10000 16.5 250 17:20 23.01.2020
294 Clouds -2 994 79 2000 18 260 16:56 23.01.2020
295 Clouds -2 994 79 2000 18 260 16:37 23.01.2020
296 Snow -2 995 80 1500 16.5 240 16:18 23.01.2020
297 Snow -2 994 92 1500 20.6 240 15:55 23.01.2020
298 Snow -2 994 92 1500 20.6 240 15:37 23.01.2020
299 Snow -1 995 80 1000 20.1 240 15:18 23.01.2020
300 Snow -1 995 80 1000 20.1 240 15:18 23.01.2020
301 Snow -1 995 80 3000 16.5 250 14:55 23.01.2020
302 Snow -1 995 80 3000 16.5 250 14:55 23.01.2020
303 Snow -1 995 80 3000 16.5 250 14:37 23.01.2020
304 Rain -2 995 80 7000 14.9 250 14:19 23.01.2020
305 Clouds -1 995 80 2000 19.5 250 13:40 23.01.2020
306 Rain -1 996 80 10000 17 250 13:20 23.01.2020
307 Snow -1 996 80 1500 15.4 250 12:47 23.01.2020
308 Snow -1 996 65 9000 16.5 250 12:26 23.01.2020
309 Rain -1 995 70 10000 20.1 240 11:59 23.01.2020
310 Rain -1 995 65 10000 20.1 240 11:59 23.01.2020
311 Rain -1 995 65 10000 20.1 240 11:39 23.01.2020
312 Rain -1 996 58 9000 13.9 260 11:20 23.01.2020
313 Rain -1 996 62 9000 13.9 260 11:20 23.01.2020
314 Rain -1 995 62 10000 20.1 250 10:55 23.01.2020
315 Snow -1 997 86 650 18 260 10:36 23.01.2020
316 Snow -1 997 86 650 18 260 10:18 23.01.2020
317 Snow -1 997 86 1200 17.5 240 09:39 23.01.2020
318 Snow -1 996 80 4000 18.5 240 09:20 23.01.2020
319 Snow -2 996 86 1300 17 260 08:43 23.01.2020
320 Clouds -2 996 86 1500 20.1 250 08:24 23.01.2020
321 Snow -1 996 86 5000 16.5 240 07:49 23.01.2020
322 Snow -2 996 80 1500 19.5 250 07:27 23.01.2020
323 Snow -1 996 86 2000 16.5 250 06:54 23.01.2020
324 Rain -1 995 51 6000 13.9 230 06:24 23.01.2020
325 Rain -1 995 92 10000 11.8 230 05:59 23.01.2020
326 Rain -1 995 80 10000 15.9 220 04:24 23.01.2020
327 Snow -1 997 86 1600 19 240 02:48 23.01.2020
328 Rain -1 997 59 10000 16.5 240 01:50 23.01.2020
329 Rain -1 999 71 10000 10.8 220 00:29 23.01.2020
330 Rain 0 998 74 10000 14.9 230 23:57 22.01.2020
331 Rain 0 998 74 10000 14.9 230 23:39 22.01.2020
332 Clouds 0 1000 69 10000 13.9 230 23:20 22.01.2020
333 Clouds 1 999 65 10000 14.4 230 22:42 22.01.2020
334 Clouds 1 1000 59 10000 14.9 230 22:23 22.01.2020
335 Clouds 1 999 64 10000 15.9 230 21:56 22.01.2020
336 Clouds 1 999 64 10000 15.9 230 21:36 22.01.2020
337 Clouds 1 1001 74 10000 12.3 220 21:18 22.01.2020
338 Clouds 2 999 69 10000 15.4 230 20:41 22.01.2020
339 Rain 2 1000 74 10000 10.3 210 20:23 22.01.2020
340 Clouds 2 999 64 10000 15.9 230 19:58 22.01.2020
341 Clouds 2 999 64 10000 15.9 230 19:39 22.01.2020
342 Clouds 2 1001 80 10000 11.3 210 19:20 22.01.2020
343 Rain 2 1000 93 10000 14.4 230 18:57 22.01.2020
344 Rain 2 1000 93 10000 14.4 230 18:38 22.01.2020
345 Rain 2 1001 74 10000 8.2 200 18:20 22.01.2020
346 Rain 3 1001 69 10000 10.3 220 17:55 22.01.2020
347 Rain 3 1001 69 10000 10.3 220 17:37 22.01.2020
348 Rain 3 1002 83 10000 8.7 210 17:19 22.01.2020
349 Rain 3 1001 86 10000 10.3 220 16:44 22.01.2020
350 Rain 3 1002 83 10000 8.2 220 16:23 22.01.2020
351 Rain 4 1001 80 10000 10.8 230 15:59 22.01.2020
352 Rain 4 1001 80 10000 10.8 230 15:41 22.01.2020
353 Rain 4 1002 80 10000 10.3 220 15:23 22.01.2020
354 Rain 4 1001 86 10000 14.9 230 14:58 22.01.2020
355 Rain 4 1001 86 10000 14.9 230 14:37 22.01.2020
356 Rain 5 1002 75 10000 11.8 220 14:19 22.01.2020
357 Rain 5 1001 86 10000 13.4 230 13:55 22.01.2020
358 Rain 5 1001 86 10000 13.4 230 13:36 22.01.2020
359 Rain 6 1001 81 10000 12.9 220 13:18 22.01.2020
360 Rain 6 1000 93 10000 14.9 220 12:56 22.01.2020
361 Rain 6 1000 93 10000 14.9 220 12:37 22.01.2020
362 Rain 7 1000 87 7000 15.4 200 12:18 22.01.2020
363 Drizzle 7 999 93 4000 15.9 200 11:56 22.01.2020
364 Drizzle 7 999 93 4000 15.9 200 11:38 22.01.2020
365 Rain 7 1001 87 9000 14.9 190 11:18 22.01.2020
366 Rain 7 1000 93 9000 16.5 190 10:44 22.01.2020
367 Rain 7 1001 87 8000 13.4 190 10:21 22.01.2020
368 Rain 7 1001 100 5000 15.9 190 09:45 22.01.2020
369 Rain 7 1003 87 7000 12.3 180 09:26 22.01.2020
370 Rain 7 1002 93 10000 15.4 180 08:59 22.01.2020
371 Rain 7 1002 93 10000 15.4 180 08:40 22.01.2020
372 Rain 7 1004 81 10000 12.9 170 08:21 22.01.2020
373 Rain 7 1003 100 8000 14.9 180 07:59 22.01.2020
374 Rain 7 1003 100 8000 14.9 180 07:40 22.01.2020
375 Rain 7 1006 81 10000 10.3 170 07:21 22.01.2020
376 Rain 7 1008 75 10000 10.3 150 06:31 22.01.2020
377 Rain 6 1007 100 3000 11.8 160 05:42 22.01.2020
378 Rain 6 1007 100 3000 11.8 160 05:42 22.01.2020
379 Drizzle 6 1010 100 10000 12.3 170 04:24 22.01.2020
380 Rain 6 1012 81 10000 9.3 150 03:26 22.01.2020
381 Rain 5 1011 100 4000 11.8 160 02:38 22.01.2020
382 Rain 5 1014 100 3000 10.8 150 00:46 22.01.2020
383 Rain 5 1016 75 10000 5.1 130 00:27 22.01.2020
384 Rain 5 1015 100 4000 9.8 150 23:55 21.01.2020
385 Rain 5 1015 100 4000 9.8 150 23:36 21.01.2020
386 Drizzle 5 1017 80 10000 6.7 110 23:18 21.01.2020
387 Drizzle 5 1017 80 10000 6.7 110 23:18 21.01.2020
388 Drizzle 5 1017 80 10000 6.7 110 23:18 21.01.2020
389 Drizzle 4 1016 100 3000 8.7 150 22:40 21.01.2020
390 Drizzle 4 1018 80 10000 5.7 110 22:20 21.01.2020
391 Rain 4 1017 100 9000 7.7 150 21:57 21.01.2020
392 Rain 4 1017 100 9000 7.7 150 21:38 21.01.2020
393 Clouds 4 1018 80 10000 5.1 110 21:20 21.01.2020
394 Rain 3 1017 100 10000 6.7 150 20:56 21.01.2020
395 Rain 3 1017 100 10000 6.7 150 20:37 21.01.2020
396 Clouds 3 1018 80 10000 6.7 120 20:19 21.01.2020
397 Rain 3 1017 93 10000 5.7 140 19:56 21.01.2020
398 Rain 3 1017 93 10000 5.7 140 19:56 21.01.2020
399 Rain 3 1017 93 10000 5.7 140 19:38 21.01.2020
400 Clouds 3 1019 89 10000 5.1 110 19:20 21.01.2020
401 Rain 2 1018 100 10000 5.7 140 18:55 21.01.2020
402 Rain 3 1018 100 10000 5.7 140 18:37 21.01.2020
403 Drizzle 2 1019 89 10000 4.1 110 18:18 21.01.2020
404 Rain 2 1018 93 10000 5.7 140 17:45 21.01.2020
405 Clouds 2 1019 91 10000 4.1 130 17:20 21.01.2020
406 Rain 2 1018 93 10000 5.7 140 16:59 21.01.2020
407 Rain 2 1018 93 10000 5.7 140 16:37 21.01.2020
408 Clouds 2 1020 91 10000 3.6 100 16:19 21.01.2020
409 Rain 2 1019 100 10000 5.7 140 15:42 21.01.2020
410 Drizzle 2 1020 91 10000 3.6 120 15:21 21.01.2020
411 Drizzle 2 1020 93 10000 4.1 150 14:59 21.01.2020
412 Drizzle 2 1020 93 10000 4.1 150 14:38 21.01.2020
413 Drizzle 2 1021 97 10000 2.6 120 14:19 21.01.2020
414 Drizzle 2 1020 100 10000 5.7 160 13:40 21.01.2020
415 Drizzle 2 1020 96 10000 2.6 120 13:19 21.01.2020
416 Rain 1 1020 100 10000 5.1 150 12:44 21.01.2020
417 Clouds 1 1020 86 10000 3.1 130 12:25 21.01.2020
418 Rain 1 1020 100 10000 4.6 150 11:57 21.01.2020
419 Rain 1 1020 100 10000 4.6 150 11:39 21.01.2020
420 Clouds 1 1020 86 10000 2.6 150 11:21 21.01.2020
421 Rain 1 1019 100 10000 4.1 160 10:55 21.01.2020
422 Rain 1 1019 100 10000 4.1 160 10:37 21.01.2020
423 Snow 1 1020 86 10000 3.1 150 10:18 21.01.2020
424 Drizzle 1 1019 100 10000 3.6 170 09:41 21.01.2020
425 Clouds 1 1020 86 10000 3.6 170 09:22 21.01.2020
426 Rain 1 1019 100 10000 4.1 220 08:49 21.01.2020
427 Clouds 1 1020 86 10000 4.6 190 08:29 21.01.2020
428 Rain 1 1019 89 10000 6.7 230 07:59 21.01.2020
429 Rain 1 1019 89 10000 6.7 230 07:39 21.01.2020
430 Clouds 1 1020 86 6000 9.3 230 07:21 21.01.2020
431 Snow 1 1019 89 7000 10.3 240 06:48 21.01.2020
432 Clouds 1 1020 86 6000 8.7 240 06:26 21.01.2020
433 Snow 1 1019 89 10000 12.3 240 05:42 21.01.2020
434 Snow 1 1019 91 10000 11.8 240 04:39 21.01.2020
435 Clouds 2 1018 80 2000 8.2 230 02:56 21.01.2020
436 Rain 1 1017 80 10000 9.3 240 01:53 21.01.2020
437 Rain 1 1018 86 10000 10.3 250 01:18 21.01.2020
438 Rain 1 1018 74 10000 9.8 220 00:36 21.01.2020
439 Rain 2 1016 74 10000 14.9 240 23:58 20.01.2020
440 Rain 2 1016 74 10000 14.9 240 23:38 20.01.2020
441 Snow 1 1016 74 5000 9.8 240 23:19 20.01.2020
442 Snow 1 1016 74 5000 9.8 240 23:19 20.01.2020
443 Snow 0 1015 68 9000 16.5 240 22:56 20.01.2020
444 Snow 0 1015 68 9000 16.5 240 22:37 20.01.2020
445 Rain 1 1016 74 10000 10.8 250 22:19 20.01.2020
446 Snow 0 1015 68 2000 12.3 250 21:57 20.01.2020
447 Snow 0 1015 68 2000 12.3 250 21:37 20.01.2020
448 Snow 0 1015 68 2000 12.3 250 21:37 20.01.2020
449 Clouds 1 1015 74 10000 11.8 240 21:18 20.01.2020
450 Rain 1 1014 68 10000 13.4 240 20:55 20.01.2020
451 Rain 0 1014 68 10000 13.4 240 20:36 20.01.2020
452 Rain 0 1014 74 10000 12.9 220 20:18 20.01.2020
453 Rain 0 1014 74 10000 12.9 220 20:18 20.01.2020
454 Rain 1 1012 74 10000 15.9 240 19:56 20.01.2020
455 Rain 2 1013 64 10000 12.3 240 19:37 20.01.2020
456 Rain 2 1013 64 10000 12.3 240 19:18 20.01.2020
457 Rain 1 1011 69 10000 14.4 240 18:42 20.01.2020
458 Rain 1 1012 64 10000 13.9 250 18:21 20.01.2020
459 Rain 2 1010 59 10000 15.9 240 17:40 20.01.2020
460 Rain 2 1010 59 10000 15.9 240 17:19 20.01.2020
461 Rain 1 1009 55 10000 19 240 16:58 20.01.2020
462 Rain 1 1009 55 10000 19 240 16:37 20.01.2020
463 Rain 1 1008 80 10000 17 250 16:18 20.01.2020
464 Rain 1 1008 80 10000 17 250 15:54 20.01.2020
465 Rain 1 1009 80 10000 12.3 230 15:36 20.01.2020
466 Rain 1 1009 80 10000 12.3 230 15:18 20.01.2020
467 Rain 1 1008 69 10000 18 240 14:41 20.01.2020
468 Clouds 0 1008 86 1500 17 250 14:22 20.01.2020
469 Snow 0 1008 69 1200 18.5 230 13:57 20.01.2020
470 Snow 0 1008 69 1200 18.5 230 13:39 20.01.2020
471 Clouds 1 1007 69 3500 12.9 240 13:20 20.01.2020
472 Rain 0 1006 66 6000 14.9 230 12:45 20.01.2020
473 Rain 0 1006 66 6000 14.9 230 12:26 20.01.2020
474 Clouds 0 1005 66 1900 15.9 240 11:57 20.01.2020
475 Clouds 0 1005 66 1900 15.9 240 11:38 20.01.2020
476 Rain 0 1004 63 10000 11.3 220 11:19 20.01.2020
477 Rain 1 1003 69 10000 19 240 10:47 20.01.2020
478 Rain 1 1003 59 10000 12.3 220 10:21 20.01.2020
479 Rain 1 1003 59 10000 12.3 220 10:21 20.01.2020
480 Rain 1 1002 59 10000 17.5 230 09:54 20.01.2020
481 Rain 1 1002 59 10000 17.5 230 09:36 20.01.2020
482 Snow 1 1002 63 10000 14.4 230 09:18 20.01.2020
483 Snow 1 1001 63 4000 17 250 08:42 20.01.2020
484 Clouds 1 1001 64 10000 12.9 220 08:24 20.01.2020
485 Rain 2 1000 64 10000 17 230 07:42 20.01.2020
486 Rain 1 1000 80 10000 10.3 220 07:23 20.01.2020
487 Rain 1 999 69 10000 14.4 230 06:45 20.01.2020
488 Snow 1 1000 86 5000 7.2 220 06:25 20.01.2020
489 Rain 2 999 80 10000 12.9 240 05:41 20.01.2020
490 Clouds 2 999 80 10000 11.8 210 05:21 20.01.2020
491 Snow 2 999 100 9000 11.8 220 04:33 20.01.2020
492 Rain 2 999 86 10000 9.8 230 02:55 20.01.2020
493 Rain 3 999 86 10000 9.3 200 01:42 20.01.2020
494 Rain 3 1000 92 10000 7.2 200 01:23 20.01.2020
495 Rain 2 1000 93 10000 11.3 240 00:43 20.01.2020
496 Snow 3 1000 92 10000 11.3 210 00:22 20.01.2020
497 Clouds 3 1000 92 5000 11.8 210 23:39 19.01.2020
498 Clouds 4 1000 76 10000 8.7 200 23:20 19.01.2020
499 Rain 4 999 80 10000 10.8 210 22:56 19.01.2020
500 Rain 4 999 80 10000 10.8 210 22:38 19.01.2020
501 Clouds 4 1000 76 10000 6.7 220 22:20 19.01.2020
502 Rain 4 998 75 10000 12.9 220 21:56 19.01.2020
503 Rain 4 998 75 10000 12.9 220 21:56 19.01.2020
504 Rain 4 998 75 10000 12.9 220 21:38 19.01.2020
505 Clouds 4 999 80 10000 9.3 210 21:20 19.01.2020
506 Rain 5 998 86 9000 12.3 230 20:57 19.01.2020
507 Rain 5 998 86 9000 12.3 230 20:38 19.01.2020
508 Clouds 5 997 75 10000 10.8 220 20:20 19.01.2020
509 Rain 5 996 80 10000 15.9 230 19:56 19.01.2020
510 Rain 5 996 80 10000 15.9 230 19:38 19.01.2020
511 Rain 5 996 80 10000 11.3 210 19:20 19.01.2020
512 Rain 5 994 87 9000 13.4 220 18:56 19.01.2020
513 Rain 5 994 87 9000 13.4 220 18:37 19.01.2020
514 Rain 5 994 80 10000 12.9 200 18:19 19.01.2020
515 Rain 5 993 81 10000 17 210 17:58 19.01.2020
516 Rain 5 993 81 10000 17 210 17:58 19.01.2020
517 Rain 5 993 81 10000 17 210 17:39 19.01.2020
518 Rain 5 994 80 10000 13.9 210 17:20 19.01.2020
519 Rain 5 992 81 9000 17 220 16:58 19.01.2020
520 Rain 5 992 81 9000 17 220 16:38 19.01.2020
521 Rain 5 993 70 10000 14.4 200 16:20 19.01.2020
522 Drizzle 5 991 87 4000 15.4 210 15:58 19.01.2020
523 Drizzle 5 991 87 4000 15.4 210 15:38 19.01.2020
524 Rain 5 991 80 9000 13.4 210 15:20 19.01.2020
525 Rain 5 990 86 8000 15.4 210 14:57 19.01.2020
526 Rain 5 990 86 8000 15.4 210 14:38 19.01.2020
527 Rain 5 990 75 9000 15.9 200 14:18 19.01.2020
528 Rain 5 989 75 8000 17.5 200 13:57 19.01.2020
529 Rain 5 989 75 8000 17.5 200 13:38 19.01.2020
530 Rain 5 989 70 10000 14.9 200 13:19 19.01.2020
531 Rain 5 988 93 4000 18 210 12:55 19.01.2020
532 Rain 5 988 93 4000 18 210 12:36 19.01.2020
533 Clouds 5 989 70 10000 13.4 200 12:18 19.01.2020
534 Mist 5 987 75 8000 14.9 200 11:42 19.01.2020
535 Clouds 6 988 75 10000 13.4 200 11:20 19.01.2020
536 Rain 6 987 81 8000 15.9 200 10:56 19.01.2020
537 Rain 6 987 81 8000 15.9 200 10:38 19.01.2020
538 Clouds 6 988 75 10000 14.9 190 10:19 19.01.2020
539 Rain 7 986 87 10000 15.9 190 09:55 19.01.2020
540 Rain 7 986 87 10000 15.9 190 09:55 19.01.2020
541 Rain 7 988 81 10000 15.4 180 09:36 19.01.2020
542 Rain 7 988 81 10000 15.4 180 09:18 19.01.2020
543 Drizzle 7 986 93 9000 15.9 180 08:44 19.01.2020
544 Clouds 7 987 81 10000 13.9 170 08:26 19.01.2020
545 Rain 6 987 93 10000 16.5 180 07:42 19.01.2020
546 Clouds 6 988 87 10000 12.3 160 07:22 19.01.2020
547 Rain 6 987 100 10000 14.4 170 06:53 19.01.2020
548 Rain 6 990 81 10000 12.9 160 06:21 19.01.2020
549 Rain 4 996 93 4000 18.5 140 02:47 19.01.2020
550 Rain 4 1000 80 8000 15.9 130 02:24 19.01.2020
551 Rain 4 1003 93 10000 11.8 130 01:28 19.01.2020
552 Rain 4 1001 86 9000 15.4 140 00:54 19.01.2020
553 Rain 3 1006 93 10000 9.8 130 00:29 19.01.2020
554 Clouds 3 1005 80 10000 11.8 150 23:59 18.01.2020
555 Clouds 3 1005 80 10000 11.8 150 23:41 18.01.2020
556 Clouds 3 1009 86 10000 11.3 130 23:23 18.01.2020
557 Clouds 2 1008 86 10000 10.3 130 22:55 18.01.2020
558 Clouds 2 1008 86 10000 10.3 130 22:37 18.01.2020
559 Clouds 2 1010 74 10000 7.2 90 22:19 18.01.2020
560 Clouds 1 1009 93 10000 11.8 130 21:57 18.01.2020
561 Clouds 1 1009 93 10000 11.8 130 21:38 18.01.2020
562 Clouds 1 1012 80 10000 5.7 110 21:20 18.01.2020
563 Clouds 0 1011 86 10000 7.7 140 20:44 18.01.2020
564 Clouds 0 1013 88 10000 3.6 80 20:21 18.01.2020
565 Clouds 0 1012 88 10000 7.2 120 19:59 18.01.2020
566 Clouds -1 1012 88 10000 7.2 120 19:41 18.01.2020
567 Clouds -1 1013 88 10000 4.6 90 19:22 18.01.2020
568 Clouds -1 1013 88 10000 5.7 130 18:42 18.01.2020
569 Clouds -2 1014 80 10000 4.6 80 18:22 18.01.2020
570 Clouds -2 1013 92 10000 5.7 140 17:56 18.01.2020
571 Clouds -2 1013 92 10000 5.7 140 17:37 18.01.2020
572 Clouds -2 1014 86 10000 4.6 80 17:19 18.01.2020
573 Clouds -2 1014 92 10000 3.6 150 16:55 18.01.2020
574 Clouds -2 1014 92 10000 3.6 150 16:55 18.01.2020
575 Clouds -2 1014 92 10000 3.6 150 16:36 18.01.2020
576 Clouds -2 1015 89 10000 4.6 90 16:18 18.01.2020
577 Clouds -2 1015 92 10000 4.1 140 15:41 18.01.2020
578 Clouds -1 1015 86 10000 3.6 90 15:23 18.01.2020
579 Clouds -2 1014 100 10000 2.1 140 14:57 18.01.2020
580 Clouds -2 1014 86 10000 3.1 90 14:39 18.01.2020
581 Snow -2 1014 86 10000 3.1 90 14:18 18.01.2020
582 Clouds -2 1014 100 10000 3.1 130 13:43 18.01.2020
583 Clouds -2 1014 86 10000 2.6 110 13:24 18.01.2020
584 Clouds -2 1013 100 10000 2.1 110 12:58 18.01.2020
585 Clouds -2 1013 100 10000 2.1 110 12:39 18.01.2020
586 Clouds -2 1014 86 10000 2.1 100 12:20 18.01.2020
587 Clouds -2 1013 83 10000 1.5 100 11:44 18.01.2020
588 Clouds -2 1013 86 10000 0.5 120 11:22 18.01.2020
589 Snow -2 1013 74 4000 1.51 141 10:57 18.01.2020
590 Snow -2 1013 74 4000 1.51 141 10:38 18.01.2020
591 Clouds -2 1013 86 10000 0.5 0 10:20 18.01.2020
592 Snow -2 1012 74 4000 2.6 190 09:46 18.01.2020
593 Clouds -2 1012 86 10000 1 0 09:28 18.01.2020
594 Snow -2 1011 69 10000 1.5 240 08:56 18.01.2020
595 Snow -2 1011 69 10000 1.5 240 08:38 18.01.2020
596 Clouds -2 1011 86 10000 2.1 110 08:19 18.01.2020
597 Rain -3 1011 74 10000 1 0 07:47 18.01.2020
598 Clouds -2 1011 86 10000 2.1 120 07:29 18.01.2020
599 Rain -3 1010 70 10000 1 240 06:47 18.01.2020
600 Rain -4 1010 74 10000 3.1 250 05:59 18.01.2020
601 Clouds -3 1010 92 10000 2.6 140 05:21 18.01.2020
602 Snow -2 1009 69 10000 7.7 240 02:55 18.01.2020
603 Rain -2 1008 76 10000 5.7 260 01:54 18.01.2020
604 Clouds -3 1008 92 10000 2.6 140 01:30 18.01.2020
605 Rain -2 1008 80 10000 5.7 240 00:37 18.01.2020
606 Rain -2 1008 80 10000 5.7 240 00:37 18.01.2020
607 Clouds -2 1008 86 10000 1.5 140 00:18 18.01.2020
608 Clouds -2 1008 86 10000 1.5 140 00:18 18.01.2020
609 Snow -2 1007 76 10000 7.2 250 23:41 17.01.2020
610 Clouds -3 1007 92 10000 1.5 140 23:20 17.01.2020
611 Clouds -2 1007 86 10000 2.1 130 22:46 17.01.2020
612 Snow -2 1007 92 2300 1.5 150 22:22 17.01.2020
613 Clouds -2 1006 86 10000 2.1 290 21:59 17.01.2020
614 Clouds -2 1006 86 10000 2.1 290 21:41 17.01.2020
615 Clouds -2 1006 92 10000 2.1 140 21:22 17.01.2020
616 Clouds -2 1005 92 10000 5.1 260 20:58 17.01.2020
617 Clouds -2 1005 92 10000 5.1 260 20:38 17.01.2020
618 Clouds -2 1006 86 10000 1.5 180 20:20 17.01.2020
619 Rain -2 1005 86 10000 3.1 280 19:55 17.01.2020
620 Rain -2 1005 86 10000 3.1 280 19:55 17.01.2020
621 Rain -2 1005 86 10000 3.1 280 19:37 17.01.2020
622 Clouds -2 1005 86 10000 1.5 190 19:19 17.01.2020
623 Rain -2 1004 92 10000 1 180 18:56 17.01.2020
624 Rain -1 1004 92 10000 1 180 18:36 17.01.2020
625 Rain -1 1004 76 10000 4.6 300 18:18 17.01.2020
626 Clouds -1 1004 92 10000 1 310 17:39 17.01.2020
627 Clouds -1 1004 86 10000 1.5 0 17:20 17.01.2020
628 Clouds -1 1003 92 10000 2.6 260 16:44 17.01.2020
629 Clouds -1 1003 86 10000 2.1 150 16:21 17.01.2020
630 Clouds -2 1003 86 10000 4.1 260 15:58 17.01.2020
631 Clouds -2 1003 86 10000 4.1 260 15:39 17.01.2020
632 Clouds -1 1002 86 10000 2.6 170 15:20 17.01.2020
633 Clouds -1 1002 75 10000 4.6 260 14:43 17.01.2020
634 Clouds -1 1002 86 10000 2.1 190 14:24 17.01.2020
635 Snow -1 1001 86 10000 4.6 280 13:43 17.01.2020
636 Clouds -1 1001 92 10000 1.5 150 13:23 17.01.2020
637 Clouds 0 1001 70 10000 2.6 270 12:47 17.01.2020
638 Clouds -1 1000 86 10000 4.13 276 12:23 17.01.2020
639 Clouds -1 1000 68 10000 4.6 300 11:43 17.01.2020
640 Clouds 0 1000 72 10000 2.1 340 11:20 17.01.2020
641 Clouds 0 999 72 10000 3.1 300 10:57 17.01.2020
642 Clouds 0 999 72 10000 3.1 300 10:57 17.01.2020
643 Clouds 0 999 72 10000 3.1 300 10:57 17.01.2020
644 Clouds 0 999 72 10000 3.1 300 10:39 17.01.2020
645 Clouds 0 999 72 10000 3.6 310 10:20 17.01.2020
646 Clouds 0 999 72 10000 7.7 310 09:56 17.01.2020
647 Clouds 0 999 72 10000 7.7 310 09:37 17.01.2020
648 Snow 0 998 72 8000 3.1 310 09:18 17.01.2020
649 Clouds 0 998 72 10000 5.7 310 08:42 17.01.2020
650 Rain 0 997 77 10000 7.2 290 08:23 17.01.2020
651 Clouds 0 997 77 10000 5.7 300 07:49 17.01.2020
652 Snow 0 996 77 8000 6.7 280 07:30 17.01.2020
653 Clouds 0 996 77 10000 6.2 310 06:56 17.01.2020
654 Clouds 0 996 77 10000 6.2 310 06:37 17.01.2020
655 Clouds 0 994 86 10000 4.6 250 05:22 17.01.2020
656 Snow 1 993 86 10000 4.6 250 03:38 17.01.2020
657 Clouds 1 992 80 10000 3.1 260 02:43 17.01.2020
658 Snow 1 992 84 10000 8.2 270 01:45 17.01.2020
659 Clouds 2 991 74 10000 3.6 270 01:27 17.01.2020
660 Clouds 1 991 74 10000 4.6 260 00:43 17.01.2020
661 Clouds 1 991 74 10000 4.6 260 00:20 17.01.2020
662 Clouds 1 990 80 10000 6.7 260 23:42 16.01.2020
663 Rain 2 990 80 10000 2.6 240 23:24 16.01.2020
664 Clouds 2 989 74 10000 7.7 260 22:43 16.01.2020
665 Clouds 2 989 88 10000 3.1 180 22:22 16.01.2020
666 Clouds 1 988 74 10000 7.2 270 21:57 16.01.2020
667 Clouds 1 988 74 10000 7.2 270 21:39 16.01.2020
668 Clouds 1 988 86 10000 3.1 200 21:19 16.01.2020
669 Clouds 2 987 80 10000 7.7 270 20:59 16.01.2020
670 Clouds 2 987 80 10000 7.7 270 20:39 16.01.2020
671 Clouds 2 987 80 10000 2.1 190 20:20 16.01.2020
672 Clouds 2 986 93 10000 4.1 260 19:56 16.01.2020
673 Clouds 2 986 93 10000 4.1 260 19:38 16.01.2020
674 Rain 1 986 80 10000 2.1 180 19:20 16.01.2020
675 Rain 1 986 100 10000 3.1 260 18:56 16.01.2020
676 Rain 1 986 100 10000 3.1 260 18:37 16.01.2020
677 Rain 2 985 80 10000 3.6 110 18:18 16.01.2020
678 Rain 2 985 80 10000 3.6 110 18:18 16.01.2020
679 Rain 2 985 93 10000 2.6 200 17:55 16.01.2020
680 Rain 2 985 93 10000 2.6 200 17:37 16.01.2020
681 Rain 2 985 80 10000 5.1 130 17:18 16.01.2020
682 Rain 2 984 87 10000 3.1 180 16:40 16.01.2020
683 Rain 2 985 69 10000 4.1 130 16:21 16.01.2020
684 Rain 2 984 87 10000 4.6 150 15:55 16.01.2020
685 Rain 2 984 87 10000 4.6 150 15:37 16.01.2020
686 Rain 2 985 74 10000 4.6 140 15:18 16.01.2020
687 Rain 2 984 87 10000 5.1 170 14:41 16.01.2020
688 Rain 2 985 74 10000 3.6 140 14:23 16.01.2020
689 Clouds 2 984 79 10000 6.2 180 13:47 16.01.2020
690 Clouds 2 984 74 10000 5.7 160 13:28 16.01.2020
691 Clouds 2 983 80 10000 6.7 170 12:57 16.01.2020
692 Clouds 2 983 80 10000 6.7 170 12:39 16.01.2020
693 Rain 2 984 80 10000 7.7 180 12:20 16.01.2020
694 Clouds 2 982 93 10000 7.7 200 11:42 16.01.2020
695 Clouds 2 983 80 10000 5.7 190 11:23 16.01.2020
696 Clouds 2 981 93 10000 8.2 200 10:56 16.01.2020
697 Clouds 2 981 93 10000 8.2 200 10:37 16.01.2020
698 Clouds 2 981 90 10000 7.2 160 10:19 16.01.2020
699 Clouds 2 980 100 10000 6.2 200 09:43 16.01.2020
700 Clouds 2 981 90 10000 5.7 120 09:24 16.01.2020
701 Clouds 2 979 100 10000 5.1 100 08:58 16.01.2020
702 Clouds 2 979 100 10000 5.1 100 08:40 16.01.2020
703 Clouds 2 980 80 10000 6.2 80 08:20 16.01.2020
704 Clouds 2 979 94 10000 6.7 80 07:42 16.01.2020
705 Rain 2 980 74 10000 7.2 70 07:24 16.01.2020
706 Rain 2 979 94 10000 6.7 80 06:54 16.01.2020
707 Clouds 2 980 69 10000 7.2 80 06:34 16.01.2020
708 Clouds 2 979 80 10000 6.7 70 05:49 16.01.2020
709 Clouds 2 979 86 10000 7.7 70 04:51 16.01.2020
710 Rain 3 980 55 10000 5.1 100 04:21 16.01.2020
711 Clouds 3 980 55 10000 5.7 70 03:27 16.01.2020
712 Clouds 3 980 59 10000 5.1 80 02:21 16.01.2020
713 Clouds 2 979 55 10000 4.1 80 00:43 16.01.2020
714 Clouds 2 979 55 10000 4.1 80 00:23 16.01.2020
715 Clouds 1 979 86 10000 5.7 40 23:45 15.01.2020
716 Clouds 1 979 59 10000 3.6 60 23:22 15.01.2020
717 Clouds 1 979 80 10000 5.1 40 22:57 15.01.2020
718 Clouds 1 979 80 10000 5.1 40 22:38 15.01.2020
719 Clouds 1 979 69 10000 2.6 60 22:18 15.01.2020
720 Clouds 0 979 92 10000 4.6 20 21:56 15.01.2020
721 Clouds 0 979 92 10000 4.6 20 21:56 15.01.2020
722 Clouds 0 979 92 10000 4.6 20 21:37 15.01.2020
723 Clouds 0 979 55 10000 3.6 70 21:19 15.01.2020
724 Clouds -1 978 86 10000 2.6 20 20:56 15.01.2020
725 Clouds -1 978 86 10000 2.6 20 20:38 15.01.2020
726 Clouds -1 978 80 10000 2.6 100 20:19 15.01.2020
727 Clouds 0 978 88 10000 3.1 90 19:54 15.01.2020
728 Clouds 0 978 88 10000 3.1 90 19:36 15.01.2020
729 Clouds 0 977 88 10000 2.6 60 19:18 15.01.2020
730 Clouds -1 977 86 10000 8.7 40 18:56 15.01.2020
731 Clouds -1 977 86 10000 8.7 40 18:37 15.01.2020
732 Clouds -1 977 86 10000 8.7 40 18:37 15.01.2020
733 Clouds -1 977 86 10000 5.59 39 18:19 15.01.2020
734 Clouds -1 976 86 10000 8.2 30 17:55 15.01.2020
735 Clouds -1 976 79 10000 2.1 170 17:36 15.01.2020
736 Clouds -1 976 79 10000 2.1 170 17:18 15.01.2020
737 Clouds 0 976 86 10000 7.7 30 16:40 15.01.2020
738 Clouds -1 976 79 10000 1.5 170 16:21 15.01.2020
739 Clouds 0 975 86 10000 8.2 30 15:56 15.01.2020
740 Clouds 0 975 86 10000 8.2 30 15:38 15.01.2020
741 Clouds 0 975 80 10000 0.5 0 15:18 15.01.2020
742 Clouds 0 975 86 10000 9.3 30 14:42 15.01.2020
743 Clouds 0 975 84 10000 0.5 0 14:19 15.01.2020
744 Clouds 0 975 86 10000 9.8 30 13:46 15.01.2020
745 Clouds 0 974 80 10000 2.1 160 13:26 15.01.2020
746 Clouds 1 974 86 10000 9.3 20 12:59 15.01.2020
747 Clouds 0 974 86 10000 9.3 20 12:39 15.01.2020
748 Clouds 0 973 86 10000 2.6 120 12:19 15.01.2020
749 Clouds 1 973 86 10000 10.3 20 11:57 15.01.2020
750 Clouds 1 973 86 10000 10.3 20 11:37 15.01.2020
751 Clouds 1 972 69 10000 8.2 20 11:19 15.01.2020
752 Clouds 1 972 86 10000 10.3 20 10:43 15.01.2020
753 Clouds 1 971 69 10000 12.3 20 10:25 15.01.2020
754 Clouds 1 972 86 10000 11.3 20 09:45 15.01.2020
755 Clouds 1 971 69 10000 10.8 20 09:26 15.01.2020
756 Clouds 1 970 80 10000 12.9 30 08:58 15.01.2020
757 Clouds 1 970 80 10000 12.9 30 08:39 15.01.2020
758 Clouds 1 970 69 10000 7.2 30 08:21 15.01.2020
759 Clouds 1 970 80 10000 12.9 20 07:51 15.01.2020
760 Clouds 1 969 69 10000 12.3 20 07:31 15.01.2020
761 Clouds 1 969 80 10000 15.4 20 06:46 15.01.2020
762 Clouds 1 969 80 10000 15.9 20 06:20 15.01.2020
763 Clouds 1 968 80 10000 15.9 20 04:44 15.01.2020
764 Clouds 1 967 80 10000 15.4 20 02:38 15.01.2020
765 Clouds 1 966 64 10000 5.1 0 01:28 15.01.2020
766 Clouds 1 967 80 10000 15.9 10 00:47 15.01.2020
767 Clouds 1 966 69 10000 14.9 360 00:27 15.01.2020
768 Clouds 1 966 80 10000 16.5 20 23:57 14.01.2020
769 Clouds 1 966 80 10000 16.5 20 23:38 14.01.2020
770 Clouds 1 966 69 10000 14.4 360 23:19 14.01.2020
771 Clouds 1 967 80 10000 14.9 20 22:41 14.01.2020
772 Clouds 1 965 69 10000 12.9 20 22:19 14.01.2020
773 Clouds 1 967 80 10000 14.4 10 21:59 14.01.2020
774 Clouds 1 967 80 10000 14.4 10 21:40 14.01.2020
775 Clouds 1 964 69 10000 13.9 20 21:21 14.01.2020
776 Clouds 2 966 80 10000 11.3 10 20:59 14.01.2020
777 Clouds 2 966 80 10000 11.3 10 20:40 14.01.2020
778 Clouds 2 966 80 10000 11.3 10 20:40 14.01.2020
779 Clouds 2 964 69 10000 12.3 10 20:20 14.01.2020
780 Clouds 2 964 69 10000 12.3 10 20:20 14.01.2020
781 Clouds 2 965 80 10000 11.8 10 19:56 14.01.2020
782 Clouds 2 965 80 10000 11.8 10 19:38 14.01.2020
783 Clouds 1 964 69 10000 9.8 30 19:19 14.01.2020
784 Clouds 2 965 80 10000 15.4 20 18:56 14.01.2020
785 Clouds 1 965 80 10000 15.4 20 18:37 14.01.2020
786 Clouds 1 964 69 10000 11.3 360 18:19 14.01.2020
787 Clouds 1 965 80 10000 13.4 10 17:39 14.01.2020
788 Clouds 1 963 69 10000 14.9 10 17:19 14.01.2020
789 Clouds 1 965 86 10000 12.9 20 16:55 14.01.2020
790 Clouds 1 965 86 10000 12.9 20 16:37 14.01.2020
791 Clouds 1 964 74 10000 14.9 10 16:19 14.01.2020
792 Clouds 1 965 80 10000 11.3 10 15:43 14.01.2020
793 Clouds 1 964 64 10000 15.9 10 15:19 14.01.2020
794 Clouds 1 965 80 10000 12.3 20 14:57 14.01.2020
795 Clouds 1 965 80 10000 12.3 20 14:39 14.01.2020
796 Clouds 1 964 69 10000 17 10 14:18 14.01.2020
797 Clouds 1 965 74 10000 14.4 20 13:42 14.01.2020
798 Clouds 1 963 64 10000 13.9 10 13:20 14.01.2020
799 Clouds 1 964 74 10000 17 30 12:56 14.01.2020
800 Clouds 1 964 74 10000 17 30 12:38 14.01.2020
801 Clouds 1 963 64 10000 15.9 10 12:20 14.01.2020
802 Clouds 1 964 74 10000 17 20 11:41 14.01.2020
803 Clouds 1 963 64 10000 13.9 20 11:22 14.01.2020
804 Clouds 1 963 74 10000 17 30 10:56 14.01.2020
805 Clouds 1 963 74 10000 17 30 10:38 14.01.2020
806 Clouds 1 963 59 10000 11.8 30 10:19 14.01.2020
807 Clouds 1 964 74 10000 14.9 30 09:55 14.01.2020
808 Clouds 1 964 74 10000 14.9 30 09:37 14.01.2020
809 Clouds 1 963 55 10000 8.2 30 09:19 14.01.2020
810 Clouds 1 963 74 10000 14.9 30 08:41 14.01.2020
811 Clouds 1 963 55 10000 9.3 50 08:22 14.01.2020
812 Clouds 1 963 74 10000 15.4 30 07:51 14.01.2020
813 Clouds 1 964 55 10000 7.7 40 07:25 14.01.2020
814 Clouds 1 963 74 10000 13.4 30 06:44 14.01.2020
815 Clouds 1 963 74 10000 13.4 30 05:59 14.01.2020
816 Clouds 1 962 80 10000 14.9 40 04:51 14.01.2020
817 Clouds 1 962 69 10000 16.5 40 03:47 14.01.2020
818 Clouds 1 962 74 10000 17.5 40 02:39 14.01.2020
819 Clouds 1 962 64 10000 15.4 40 01:31 14.01.2020
820 Clouds 0 963 74 10000 15.9 40 00:48 14.01.2020
821 Clouds 1 963 59 10000 13.9 30 00:22 14.01.2020
822 Drizzle 0 963 71 10000 16.5 40 23:47 13.01.2020
823 Snow 0 964 64 10000 12.9 40 23:19 13.01.2020
824 Clouds 0 963 64 10000 18 40 22:58 13.01.2020
825 Clouds 0 963 64 10000 18 40 22:39 13.01.2020
826 Snow 0 965 59 10000 14.9 40 22:20 13.01.2020
827 Clouds 0 964 64 10000 19.5 40 21:56 13.01.2020
828 Clouds 0 964 64 10000 19.5 40 21:37 13.01.2020
829 Rain 0 965 59 10000 11.3 40 21:18 13.01.2020
830 Clouds 0 964 64 7000 18 40 20:56 13.01.2020
831 Clouds 0 964 64 7000 18 40 20:38 13.01.2020
832 Clouds 0 966 59 10000 11.8 40 20:19 13.01.2020
833 Clouds 0 965 60 1500 18 40 19:42 13.01.2020
834 Clouds 0 966 55 10000 11.3 40 19:22 13.01.2020
835 Clouds -1 966 60 1200 15.4 40 18:59 13.01.2020
836 Clouds -1 966 60 1200 15.4 40 18:40 13.01.2020
837 Clouds -1 967 60 10000 7.2 20 18:20 13.01.2020
838 Clouds -1 967 60 10000 7.2 20 18:20 13.01.2020
839 Snow -1 967 80 10000 13.4 40 17:59 13.01.2020
840 Snow -1 967 80 10000 13.4 40 17:40 13.01.2020
841 Clouds -1 968 50 10000 3.6 30 17:21 13.01.2020
842 Clouds -1 968 50 10000 3.6 30 17:21 13.01.2020
843 Clouds -1 968 74 10000 10.3 30 16:55 13.01.2020
844 Clouds -1 969 40 10000 5.1 40 16:36 13.01.2020
845 Clouds -1 969 40 10000 5.1 40 16:18 13.01.2020
846 Clouds -2 970 84 0 11.18 80 15:42 13.01.2020
847 Clouds -2 970 83 0 8.05 81 15:22 13.01.2020
848 Clouds -2 970 82 0 7.15 84 14:56 13.01.2020
849 Clouds -2 972 81 0 5.36 81 14:36 13.01.2020
850 Clouds -4 973 78 0 5.9 63 14:18 13.01.2020
851 Clouds -4 973 78 0 5.9 63 13:40 13.01.2020
852 Clouds -2 973 85 0 6.26 103 13:22 13.01.2020
853 Clouds -1 973 80 10000 8.2 80 12:58 13.01.2020
854 Clouds -2 973 80 10000 8.2 80 12:40 13.01.2020
855 Clouds -2 973 80 10000 8.2 80 12:21 13.01.2020
856 Clouds -2 973 80 10000 8.2 80 11:56 13.01.2020
857 Clouds -2 973 80 10000 8.2 80 11:36 13.01.2020
858 Clouds -2 974 74 10000 6.2 70 11:18 13.01.2020
859 Rain -1 973 89 10000 5.1 70 10:55 13.01.2020
860 Rain -1 973 89 10000 5.1 70 10:36 13.01.2020
861 Rain -2 974 86 10000 6.7 80 10:18 13.01.2020
862 Rain -1 973 92 10000 4.1 120 09:40 13.01.2020
863 Clouds -1 974 86 10000 4.1 60 09:22 13.01.2020
864 Clouds -1 972 100 10000 5.7 160 08:42 13.01.2020
865 Clouds -1 973 92 10000 5.1 100 08:21 13.01.2020
866 Snow -1 970 93 5000 10.3 190 07:54 13.01.2020
867 Snow -1 970 93 5000 10.3 190 07:35 13.01.2020
868 Rain 0 969 93 10000 3.6 260 06:51 13.01.2020
869 Snow 0 971 93 10000 9.3 110 06:22 13.01.2020
870 Rain 0 970 93 10000 9.3 100 05:36 13.01.2020
871 Rain -1 970 96 10000 10.8 90 04:25 13.01.2020
872 Snow -1 971 92 7000 10.3 70 03:26 13.01.2020
873 Snow -2 970 92 3500 13.9 30 02:47 13.01.2020
874 Snow -2 972 86 7000 9.3 60 02:29 13.01.2020
875 Snow -3 972 86 10000 9.3 70 01:22 13.01.2020
876 Snow -3 972 86 10000 9.3 70 01:22 13.01.2020
877 Snow -3 970 86 2500 15.9 30 00:42 13.01.2020
878 Snow -3 972 86 8000 9.8 70 00:24 13.01.2020
879 Snow -3 970 92 1500 17.5 30 23:55 12.01.2020
880 Snow -3 970 92 1500 17.5 30 23:36 12.01.2020
881 Snow -3 972 86 3700 10.3 70 23:18 12.01.2020
882 Snow -3 972 86 3700 10.3 70 23:18 12.01.2020
883 Snow -3 969 92 400 19.5 30 22:42 12.01.2020
884 Snow -3 972 92 3100 9.8 60 22:24 12.01.2020
885 Snow -3 968 92 300 18.5 40 21:57 12.01.2020
886 Snow -3 968 92 300 18.5 40 21:38 12.01.2020
887 Snow -3 972 92 2500 9.8 60 21:19 12.01.2020
888 Snow -3 967 100 300 21.6 30 20:57 12.01.2020
889 Snow -3 967 100 300 21.6 30 20:38 12.01.2020
890 Snow -3 971 92 2600 10.3 70 20:20 12.01.2020
891 Snow -2 966 100 400 17.5 40 19:56 12.01.2020
892 Snow -2 966 100 400 17.5 40 19:38 12.01.2020
893 Snow -2 971 92 1600 10.3 70 19:19 12.01.2020
894 Mist -2 965 80 2000 10.3 50 18:57 12.01.2020
895 Mist -1 965 80 2000 10.3 50 18:39 12.01.2020
896 Snow -1 970 92 3000 11.3 80 18:21 12.01.2020
897 Rain -1 964 100 8000 6.7 40 17:55 12.01.2020
898 Snow -1 969 92 2100 11.8 80 17:37 12.01.2020
899 Snow -1 969 92 2100 11.8 80 17:18 12.01.2020
900 Drizzle -1 964 93 10000 16.5 40 16:54 12.01.2020
901 Drizzle 0 964 93 10000 16.5 40 16:36 12.01.2020
902 Snow -1 970 92 1300 11.3 80 16:18 12.01.2020
903 Rain -1 964 93 10000 13.4 40 15:42 12.01.2020
904 Snow -1 970 86 1900 9.8 70 15:23 12.01.2020
905 Snow -1 965 87 300 17 60 14:56 12.01.2020
906 Snow -1 965 87 300 17 60 14:37 12.01.2020
907 Snow 0 971 80 7000 9.8 80 14:18 12.01.2020
908 Snow -2 965 82 1200 17.5 70 13:42 12.01.2020
909 Clouds -2 971 86 10000 11.3 60 13:23 12.01.2020
910 Snow -2 966 77 1500 16.5 70 12:58 12.01.2020
911 Snow -2 966 77 1500 16.5 70 12:38 12.01.2020
912 Clouds -3 971 86 10000 11.8 70 12:20 12.01.2020
913 Snow -3 967 92 1000 17 70 11:57 12.01.2020
914 Snow -3 967 92 1000 17 70 11:38 12.01.2020
915 Snow -3 971 86 2300 9.3 80 11:19 12.01.2020
916 Snow -4 968 100 500 14.9 80 10:41 12.01.2020
917 Snow -4 971 92 10000 11.3 70 10:22 12.01.2020
918 Snow -4 969 100 600 14.4 80 09:57 12.01.2020
919 Snow -4 969 100 600 14.4 80 09:38 12.01.2020
920 Snow -4 972 92 6000 8.7 80 09:18 12.01.2020
921 Snow -4 970 92 900 13.4 70 08:44 12.01.2020
922 Snow -3 973 92 2000 7.2 90 08:20 12.01.2020
923 Snow -4 971 92 300 11.3 80 07:40 12.01.2020
924 Snow -4 974 79 2000 5.7 80 07:22 12.01.2020
925 Snow -4 972 92 2000 7.2 90 06:48 12.01.2020
926 Snow -4 974 79 10000 5.1 70 06:29 12.01.2020
927 Snow -5 974 79 10000 4.6 80 05:24 12.01.2020
928 Clouds -5 974 79 10000 5.1 100 04:27 12.01.2020
929 Clouds -4 973 85 10000 4.6 100 03:23 12.01.2020
930 Rain -4 972 79 10000 1.5 140 02:33 12.01.2020
931 Rain -4 972 92 10000 1.5 90 01:44 12.01.2020
932 Clouds -4 972 85 10000 6.2 90 01:22 12.01.2020
933 Rain -4 972 92 10000 2.1 70 00:41 12.01.2020
934 Clouds -5 972 85 10000 4.6 90 00:20 12.01.2020
935 Clouds -5 972 85 10000 4.6 90 00:20 12.01.2020
936 Rain -5 971 85 10000 4.1 100 23:42 11.01.2020
937 Rain -5 972 92 10000 3.6 100 23:20 11.01.2020
938 Rain -5 971 92 10000 4.1 100 22:59 11.01.2020
939 Rain -4 971 92 10000 4.1 100 22:41 11.01.2020
940 Clouds -4 972 92 10000 2.1 80 22:20 11.01.2020
941 Rain -4 971 92 10000 3.6 130 21:58 11.01.2020
942 Rain -4 971 92 10000 3.6 130 21:40 11.01.2020
943 Snow -4 973 85 2000 4.6 190 21:18 11.01.2020
944 Snow -3 971 92 4000 5.7 190 20:42 11.01.2020
945 Clouds -3 972 73 10000 4.1 80 20:22 11.01.2020
946 Clouds -3 971 68 10000 3.6 170 19:59 11.01.2020
947 Clouds -3 971 68 10000 3.6 170 19:40 11.01.2020
948 Clouds -3 971 68 10000 3.6 170 19:40 11.01.2020
949 Clouds -4 973 73 10000 2.1 180 19:22 11.01.2020
950 Clouds -3 971 68 10000 4.1 180 18:59 11.01.2020
951 Clouds -3 971 68 10000 4.1 180 18:39 11.01.2020
952 Rain -3 973 68 10000 3.1 130 18:20 11.01.2020
953 Snow -3 972 92 3000 10.8 200 17:58 11.01.2020
954 Snow -4 972 92 3000 10.8 200 17:40 11.01.2020
955 Clouds -3 973 74 10000 5.7 190 17:20 11.01.2020
956 Rain -2 972 58 10000 7.7 210 16:55 11.01.2020
957 Rain -2 972 58 10000 7.7 210 16:55 11.01.2020
958 Rain -2 972 58 10000 7.7 210 16:36 11.01.2020
959 Rain -3 973 79 10000 5.1 210 16:36 11.01.2020
960 Rain -3 973 79 10000 5.1 210 16:18 11.01.2020
961 Rain -2 973 79 10000 7.7 210 15:41 11.01.2020
962 Rain -2 973 74 10000 9.3 220 15:22 11.01.2020
963 Snow -2 971 79 2000 17 230 14:58 11.01.2020
964 Snow -2 971 79 2000 17 230 14:40 11.01.2020
965 Rain -2 972 86 10000 10.8 220 14:21 11.01.2020
966 Snow -2 972 74 1000 12.3 210 13:55 11.01.2020
967 Snow -1 972 74 1000 12.3 210 13:36 11.01.2020
968 Rain 0 971 70 10000 13.9 220 13:18 11.01.2020
969 Rain 0 969 70 10000 19 230 12:41 11.01.2020
970 Rain 0 970 70 10000 14.9 220 12:23 11.01.2020
971 Snow 0 968 70 10000 19.5 230 11:48 11.01.2020
972 Rain 0 968 70 9000 17 230 11:27 11.01.2020
973 Snow 0 966 90 10000 21.1 230 10:59 11.01.2020
974 Snow 0 966 90 10000 21.1 230 10:40 11.01.2020
975 Snow 0 966 90 10000 21.1 230 10:40 11.01.2020
976 Rain 0 966 74 8000 15.9 220 10:22 11.01.2020
977 Snow 1 964 80 10000 21.1 240 09:39 11.01.2020
978 Rain 2 964 74 10000 14.9 220 09:21 11.01.2020
979 Snow 2 962 74 10000 19 240 08:43 11.01.2020
980 Rain 2 962 69 10000 13.4 220 08:22 11.01.2020
981 Clouds 3 961 69 10000 19.5 240 07:44 11.01.2020
982 Clouds 2 961 64 10000 14.9 230 07:26 11.01.2020
983 Clouds 3 959 64 10000 20.6 240 06:55 11.01.2020
984 Clouds 3 959 74 10000 16.5 230 06:19 11.01.2020
985 Clouds 3 955 86 10000 18.5 250 04:48 11.01.2020
986 Clouds 3 955 78 10000 11.3 230 04:29 11.01.2020
987 Rain 3 953 86 10000 14.9 250 03:49 11.01.2020
988 Drizzle 3 952 86 10000 12.3 250 02:41 11.01.2020
989 Rain 3 950 86 10000 13.4 250 01:44 11.01.2020
990 Rain 2 948 87 10000 10.8 200 01:20 11.01.2020
991 Clouds 3 948 93 10000 11.3 240 00:44 11.01.2020
992 Drizzle 3 949 87 10000 8.7 180 00:20 11.01.2020
993 Clouds 3 947 86 10000 10.3 230 23:41 10.01.2020
994 Rain 3 947 80 10000 9.3 190 23:22 10.01.2020
995 Drizzle 3 946 100 5000 8.7 210 22:59 10.01.2020
996 Drizzle 4 946 100 5000 8.7 210 22:40 10.01.2020
997 Drizzle 3 946 80 8000 11.3 170 22:21 10.01.2020
998 Drizzle 3 944 100 4000 8.2 210 21:58 10.01.2020
999 Drizzle 3 944 100 4000 8.2 210 21:39 10.01.2020
1000 Rain 3 945 80 10000 11.8 170 21:19 10.01.2020
1001 Drizzle 4 942 100 250 7.7 210 20:55 10.01.2020
1002 Drizzle 4 942 100 250 7.7 210 20:37 10.01.2020
1003 Rain 4 944 80 10000 9.8 160 20:18 10.01.2020
1004 Mist 4 941 100 3000 4.6 160 19:39 10.01.2020
1005 Rain 4 944 80 10000 9.3 150 19:20 10.01.2020
1006 Drizzle 3 941 100 2000 8.2 60 18:44 10.01.2020
1007 Rain 3 945 80 10000 10.8 80 18:20 10.01.2020
1008 Drizzle 3 943 100 3000 13.4 60 17:58 10.01.2020
1009 Drizzle 2 943 100 3000 13.4 60 17:40 10.01.2020
1010 Snow 2 947 95 7000 13.9 80 17:21 10.01.2020
1011 Snow 2 946 100 3000 16.5 60 16:59 10.01.2020
1012 Snow 2 946 100 3000 16.5 60 16:41 10.01.2020
1013 Clouds 2 950 95 6000 14.9 80 16:21 10.01.2020
1014 Rain 2 950 86 10000 18 70 15:56 10.01.2020
1015 Rain 2 950 86 10000 18 70 15:37 10.01.2020
1016 Snow 2 954 95 9000 14.9 80 15:19 10.01.2020
1017 Snow 2 956 100 3000 15.4 60 14:56 10.01.2020
1018 Snow 2 956 100 3000 15.4 60 14:38 10.01.2020
1019 Snow 2 960 93 6000 14.4 70 14:19 10.01.2020
1020 Snow 1 965 86 2300 14.9 80 13:45 10.01.2020
1021 Snow 1 966 74 9000 13.4 70 13:27 10.01.2020
1022 Clouds 1 966 86 10000 14.9 70 12:59 10.01.2020
1023 Clouds 2 966 86 10000 14.9 70 12:40 10.01.2020
1024 Snow 1 971 74 10000 9.8 70 12:21 10.01.2020
1025 Rain 1 971 93 10000 12.3 80 11:57 10.01.2020
1026 Rain 1 971 93 10000 12.3 80 11:39 10.01.2020
1027 Snow 1 975 86 5000 9.8 90 11:19 10.01.2020
1028 Rain 1 975 94 10000 8.7 90 10:58 10.01.2020
1029 Rain 0 975 94 10000 8.7 90 10:38 10.01.2020
1030 Clouds 1 979 94 10000 10.3 90 10:18 10.01.2020
1031 Rain 0 978 94 10000 6.7 100 09:45 10.01.2020
1032 Snow 0 981 94 10000 5.7 80 09:26 10.01.2020
1033 Clouds 0 980 94 10000 4.6 70 08:56 10.01.2020
1034 Clouds 0 980 94 10000 4.6 70 08:37 10.01.2020
1035 Snow 0 984 98 9000 4.1 90 08:18 10.01.2020
1036 Rain -1 984 92 8000 3.1 90 07:41 10.01.2020
1037 Snow 0 986 98 3500 5.7 120 07:19 10.01.2020
1038 Rain 0 985 98 10000 4.1 130 06:41 10.01.2020
1039 Clouds 0 987 98 10000 4.6 120 06:23 10.01.2020
1040 Clouds -1 988 86 9000 3.6 100 05:25 10.01.2020
1041 Clouds -1 988 86 10000 5.1 190 03:32 10.01.2020
1042 Rain -2 987 86 10000 11.3 240 02:53 10.01.2020
1043 Rain -2 987 92 10000 7.7 220 02:33 10.01.2020
1044 Snow -2 986 92 2000 14.4 240 01:33 10.01.2020
1045 Rain -2 985 86 7000 13.4 240 00:53 10.01.2020
1046 Rain -2 985 86 7000 13.4 240 00:35 10.01.2020
1047 Snow -3 984 86 600 17.5 240 23:57 09.01.2020
1048 Snow -3 984 86 600 17.5 240 23:37 09.01.2020
1049 Clouds -3 985 86 10000 5.1 190 23:19 09.01.2020
1050 Clouds -3 985 92 10000 9.3 230 22:56 09.01.2020
1051 Clouds -3 985 92 10000 9.3 230 22:37 09.01.2020
1052 Snow -4 985 92 300 11.3 220 22:18 09.01.2020
1053 Snow -4 984 100 800 13.4 250 21:55 09.01.2020
1054 Snow -4 984 100 800 13.4 250 21:37 09.01.2020
1055 Snow -3 985 86 4000 9.8 210 21:18 09.01.2020
1056 Snow -4 984 92 7000 13.9 250 20:55 09.01.2020
1057 Snow -4 984 92 7000 13.9 250 20:37 09.01.2020
1058 Rain -4 984 86 5000 11.8 220 20:18 09.01.2020
1059 Rain -4 984 86 8000 9.3 210 19:39 09.01.2020
1060 Rain -4 984 86 2000 9.8 220 19:21 09.01.2020
1061 Snow -4 983 79 1000 11.8 220 18:59 09.01.2020
1062 Snow -4 983 79 1000 11.8 220 18:40 09.01.2020
1063 Rain -4 982 79 10000 9.8 230 18:21 09.01.2020
1064 Snow -4 982 86 2000 12.3 240 17:58 09.01.2020
1065 Snow -4 982 86 2000 12.3 240 17:40 09.01.2020
1066 Snow -4 982 92 100 12.3 240 17:18 09.01.2020
1067 Rain -4 981 86 8000 10.3 230 16:46 09.01.2020
1068 Snow -4 981 86 1000 9.8 230 16:22 09.01.2020
1069 Snow -4 981 86 100 10.8 250 15:44 09.01.2020
1070 Snow -4 981 86 50 10.3 220 15:25 09.01.2020
1071 Snow -3 980 86 80 12.9 240 14:59 09.01.2020
1072 Snow -3 980 86 80 12.9 240 14:41 09.01.2020
1073 Snow -4 980 92 150 14.9 230 14:19 09.01.2020
1074 Snow -3 980 86 2000 12.3 230 13:57 09.01.2020
1075 Snow -3 980 86 2000 12.3 230 13:38 09.01.2020
1076 Snow -3 980 86 40 15.9 220 13:19 09.01.2020
1077 Snow -3 980 86 50 18 230 12:57 09.01.2020
1078 Snow -3 980 86 50 18 230 12:38 09.01.2020
1079 Snow -3 979 86 500 15.4 230 12:18 09.01.2020
1080 Snow -3 978 92 200 21.6 240 11:43 09.01.2020
1081 Snow -3 979 79 8000 15.4 230 11:25 09.01.2020
1082 Snow -3 979 79 8000 15.4 230 11:25 09.01.2020
1083 Snow -3 979 79 2500 17 230 10:59 09.01.2020
1084 Snow -3 979 79 2500 17 230 10:41 09.01.2020
1085 Rain -2 979 63 10000 16.5 230 10:22 09.01.2020
1086 Clouds -2 977 74 10000 20.1 230 09:49 09.01.2020
1087 Snow -2 979 58 9000 15.4 230 09:26 09.01.2020
1088 Rain -2 977 58 10000 20.1 240 08:59 09.01.2020
1089 Rain -1 977 58 10000 20.1 240 08:40 09.01.2020
1090 Clouds -1 979 74 10000 13.9 220 08:22 09.01.2020
1091 Clouds -2 980 74 10000 14.4 230 07:57 09.01.2020
1092 Clouds -2 980 74 10000 14.4 230 07:38 09.01.2020
1093 Rain -2 980 68 10000 14.9 220 07:19 09.01.2020
1094 Rain -1 978 58 10000 19.5 230 06:38 09.01.2020
1095 Rain -1 981 74 7000 17 240 06:18 09.01.2020
1096 Rain -1 981 58 10000 15.4 230 05:40 09.01.2020
1097 Clouds -1 981 80 700 14.9 240 04:42 09.01.2020
1098 Snow -1 981 86 800 13.4 240 03:28 09.01.2020
1099 Snow -2 981 86 500 14.4 230 02:47 09.01.2020
1100 Snow -2 981 86 500 14.4 230 02:47 09.01.2020
1101 Snow -1 982 64 1000 10.3 220 01:53 09.01.2020
1102 Snow 0 982 71 1000 10.3 220 01:33 09.01.2020
1103 Snow 0 982 71 1000 10.3 220 00:40 09.01.2020
1104 Clouds 0 981 71 10000 8.7 230 00:19 09.01.2020
1105 Clouds -1 981 71 8000 7.7 200 23:41 08.01.2020
1106 Clouds -1 981 70 1800 9.8 230 23:23 08.01.2020
1107 Rain 0 981 86 10000 12.3 220 22:58 08.01.2020
1108 Rain 0 981 86 10000 12.3 220 22:38 08.01.2020
1109 Clouds -1 982 70 10000 9.8 230 22:20 08.01.2020
1110 Snow 0 982 70 600 10.3 220 21:56 08.01.2020
1111 Snow 0 982 70 600 10.3 220 21:37 08.01.2020
1112 Clouds -1 982 70 10000 6.7 210 21:18 08.01.2020
1113 Rain -1 981 70 10000 8.7 220 20:57 08.01.2020
1114 Rain -1 981 70 10000 8.7 220 20:38 08.01.2020
1115 Clouds -1 982 80 10000 5.7 170 20:19 08.01.2020
1116 Rain -1 982 62 10000 8.7 230 19:55 08.01.2020
1117 Rain -1 982 62 10000 8.7 230 19:55 08.01.2020
1118 Rain -1 982 62 10000 8.7 230 19:36 08.01.2020
1119 Rain -1 983 62 10000 7.2 240 19:18 08.01.2020
1120 Rain -1 982 62 10000 9.8 250 18:54 08.01.2020
1121 Rain -1 982 62 10000 9.8 250 18:36 08.01.2020
1122 Snow -1 983 86 10000 8.2 210 18:18 08.01.2020
1123 Snow 0 983 62 10000 9.8 230 17:42 08.01.2020
1124 Snow -1 984 80 1500 13.4 250 17:23 08.01.2020
1125 Rain -1 983 58 10000 13.9 250 16:57 08.01.2020
1126 Rain -1 983 58 10000 13.9 250 16:39 08.01.2020
1127 Rain -1 984 74 10000 8.7 260 16:19 08.01.2020
1128 Rain -1 984 74 10000 8.7 260 16:19 08.01.2020
1129 Rain -1 983 58 10000 10.3 270 15:56 08.01.2020
1130 Rain -1 983 58 10000 10.3 270 15:38 08.01.2020
1131 Rain -1 983 58 10000 11.3 260 15:18 08.01.2020
1132 Rain -2 983 58 10000 12.9 240 14:41 08.01.2020
1133 Clouds -1 983 80 1400 13.9 250 14:21 08.01.2020
1134 Rain -1 982 68 10000 13.9 250 13:56 08.01.2020
1135 Rain -1 982 68 10000 13.9 250 13:37 08.01.2020
1136 Snow -1 982 52 10000 14.4 270 13:18 08.01.2020
1137 Snow -2 982 68 10000 14.9 260 12:40 08.01.2020
1138 Snow -2 981 63 1500 13.9 270 12:18 08.01.2020
1139 Rain -1 980 58 10000 19.5 270 11:49 08.01.2020
1140 Rain -1 979 61 10000 17.5 260 11:20 08.01.2020
1141 Clouds -1 977 54 10000 22.6 270 10:59 08.01.2020
1142 Clouds -1 977 54 10000 22.6 270 10:41 08.01.2020
1143 Clouds -1 977 61 10000 17.5 270 10:22 08.01.2020
1144 Snow -1 975 54 10000 23.1 260 09:58 08.01.2020
1145 Snow -1 975 54 10000 23.1 260 09:38 08.01.2020
1146 Clouds -1 975 58 10000 18 260 09:18 08.01.2020
1147 Clouds -2 973 50 10000 24.7 270 08:42 08.01.2020
1148 Clouds -2 972 79 9000 20.6 250 08:23 08.01.2020
1149 Snow -2 971 79 6000 23.1 260 07:59 08.01.2020
1150 Snow -2 971 79 6000 23.1 260 07:59 08.01.2020
1151 Snow -2 971 79 6000 23.1 260 07:59 08.01.2020
1152 Snow -2 971 79 6000 23.1 260 07:41 08.01.2020
1153 Clouds -2 969 74 9000 18 250 07:20 08.01.2020
1154 Clouds -2 969 79 10000 23.7 250 06:42 08.01.2020
1155 Clouds -2 967 74 10000 23.7 250 05:57 08.01.2020
1156 Snow -2 966 86 1000 19 250 05:27 08.01.2020
1157 Clouds -2 965 80 9000 17.5 250 04:39 08.01.2020
1158 Clouds -2 964 80 10000 16.5 250 03:31 08.01.2020
1159 Snow -3 963 92 600 17 240 02:36 08.01.2020
1160 Snow -3 963 92 600 17 240 02:18 08.01.2020
1161 Snow -3 963 86 300 15.9 240 01:39 08.01.2020
1162 Snow -3 961 92 6000 17.5 240 00:52 08.01.2020
1163 Clouds -3 961 79 10000 16.5 250 00:24 08.01.2020
1164 Snow -2 960 58 10000 18.5 250 23:46 07.01.2020
1165 Clouds -3 960 79 10000 19 240 23:21 07.01.2020
1166 Snow -3 959 79 10000 21.1 240 22:58 07.01.2020
1167 Snow -3 959 79 10000 21.1 240 22:38 07.01.2020
1168 Snow -2 958 86 700 14.4 240 22:19 07.01.2020
1169 Snow -2 958 86 700 14.4 240 22:19 07.01.2020
1170 Snow -2 958 86 800 14.4 250 21:42 07.01.2020
1171 Clouds -2 958 80 4000 15.4 240 21:23 07.01.2020
1172 Snow -2 956 63 10000 19.5 250 20:59 07.01.2020
1173 Snow -2 956 63 10000 19.5 250 20:41 07.01.2020
1174 Snow -2 955 92 4000 19.5 240 20:22 07.01.2020
1175 Snow -2 954 86 1700 22.1 250 19:59 07.01.2020
1176 Snow -2 954 86 1700 22.1 250 19:38 07.01.2020
1177 Snow -1 952 92 1000 19 240 19:19 07.01.2020
1178 Snow -1 952 92 1000 19 240 19:19 07.01.2020
1179 Snow -1 952 70 1000 18.5 240 18:57 07.01.2020
1180 Snow -1 952 70 1000 18.5 240 18:38 07.01.2020
1181 Clouds 0 951 80 10000 15.4 230 18:18 07.01.2020
1182 Clouds 0 951 80 10000 15.4 230 18:18 07.01.2020
1183 Rain 0 950 70 9000 18.5 250 17:57 07.01.2020
1184 Rain 0 950 70 9000 18.5 250 17:37 07.01.2020
1185 Clouds 0 950 88 5000 19.5 230 17:19 07.01.2020
1186 Rain 0 948 88 9000 21.6 250 16:55 07.01.2020
1187 Rain 0 948 88 9000 21.6 250 16:37 07.01.2020
1188 Clouds 0 948 88 4500 19.5 240 16:18 07.01.2020
1189 Clouds 0 947 86 2000 19.5 240 15:43 07.01.2020
1190 Rain 1 944 88 10000 16.5 220 15:24 07.01.2020
1191 Rain 1 944 88 10000 16.5 220 15:24 07.01.2020
1192 Rain 1 944 88 10000 16.5 220 15:24 07.01.2020
1193 Rain 3 943 93 10000 18 250 14:59 07.01.2020
1194 Rain 2 943 93 10000 18 250 14:41 07.01.2020
1195 Rain 3 942 86 8000 11.8 200 14:22 07.01.2020
1196 Rain 3 942 86 8000 11.8 200 14:22 07.01.2020
1197 Rain 3 941 86 10000 12.3 230 13:55 07.01.2020
1198 Rain 3 941 86 10000 12.3 230 13:37 07.01.2020
1199 Clouds 3 943 80 10000 6.2 90 13:18 07.01.2020
1200 Rain 3 942 93 10000 6.2 120 12:40 07.01.2020
1201 Clouds 3 943 95 10000 7.2 80 12:19 07.01.2020
1202 Clouds 3 942 93 10000 5.1 90 11:42 07.01.2020
1203 Clouds 3 943 74 10000 8.2 90 11:23 07.01.2020
1204 Rain 2 943 93 10000 7.7 80 10:58 07.01.2020
1205 Rain 2 943 93 10000 7.7 80 10:39 07.01.2020
1206 Clouds 2 943 74 10000 10.8 80 10:21 07.01.2020
1207 Rain 1 943 100 10000 9.3 60 09:56 07.01.2020
1208 Rain 1 943 100 10000 9.3 60 09:37 07.01.2020
1209 Snow 1 945 80 7000 12.9 80 09:19 07.01.2020
1210 Rain 1 945 97 10000 13.4 60 08:41 07.01.2020
1211 Snow 1 947 74 10000 13.9 80 08:20 07.01.2020
1212 Snow 0 948 94 7000 13.4 60 07:49 07.01.2020
1213 Snow 0 948 94 7000 13.4 60 07:49 07.01.2020
1214 Snow 0 950 94 7000 10.8 70 07:23 07.01.2020
1215 Snow 0 951 94 2100 13.9 60 06:52 07.01.2020
1216 Snow 0 955 94 7000 11.3 70 06:32 07.01.2020
1217 Snow 0 956 94 2700 11.3 70 05:42 07.01.2020
1218 Rain 1 963 93 10000 6.2 90 03:52 07.01.2020
1219 Clouds 1 966 64 10000 6.2 90 03:25 07.01.2020
1220 Clouds 1 970 59 10000 5.7 90 02:20 07.01.2020
1221 Clouds 1 969 86 10000 3.6 120 01:40 07.01.2020
1222 Clouds 1 969 86 10000 3.6 120 01:40 07.01.2020
1223 Clouds 1 972 69 10000 5.1 100 01:18 07.01.2020
1224 Clouds 1 973 69 10000 3.6 130 00:21 07.01.2020
1225 Clouds 0 973 80 10000 3.6 170 23:58 06.01.2020
1226 Clouds 0 973 80 10000 3.6 170 23:38 06.01.2020
1227 Clouds 0 975 69 10000 3.1 140 23:20 06.01.2020
1228 Clouds 1 974 69 10000 4.6 220 22:56 06.01.2020
1229 Clouds 1 974 69 10000 4.6 220 22:37 06.01.2020
1230 Clouds 1 975 69 10000 4.1 220 22:18 06.01.2020
1231 Clouds 2 975 64 10000 6.2 240 21:54 06.01.2020
1232 Clouds 3 975 64 10000 6.2 240 21:36 06.01.2020
1233 Clouds 2 975 59 10000 7.2 250 21:18 06.01.2020
1234 Clouds 2 975 64 10000 8.7 260 20:54 06.01.2020
1235 Clouds 2 975 64 10000 8.7 260 20:36 06.01.2020
1236 Clouds 2 975 64 10000 9.8 250 20:18 06.01.2020
1237 Clouds 2 975 64 10000 9.8 250 20:18 06.01.2020
1238 Clouds 2 974 69 10000 11.8 250 19:54 06.01.2020
1239 Clouds 2 974 69 10000 11.8 250 19:36 06.01.2020
1240 Rain 2 973 80 10000 9.3 270 19:18 06.01.2020
1241 Rain 2 973 80 10000 12.3 260 18:41 06.01.2020
1242 Clouds 3 972 77 10000 9.3 260 18:19 06.01.2020
1243 Rain 2 972 93 10000 10.8 270 17:39 06.01.2020
1244 Rain 2 971 80 10000 10.8 270 17:20 06.01.2020
1245 Rain 3 970 86 10000 13.4 250 16:57 06.01.2020
1246 Rain 3 970 86 10000 13.4 250 16:38 06.01.2020
1247 Rain 3 970 84 10000 9.8 260 16:19 06.01.2020
1248 Rain 3 969 86 10000 13.9 260 15:43 06.01.2020
1249 Rain 2 968 84 10000 8.2 260 15:22 06.01.2020
1250 Clouds 2 968 84 10000 12.3 260 14:59 06.01.2020
1251 Clouds 2 968 84 10000 12.3 260 14:41 06.01.2020
1252 Rain 2 966 84 10000 11.8 270 14:22 06.01.2020
1253 Clouds 2 966 93 10000 12.3 280 13:59 06.01.2020
1254 Clouds 2 966 93 10000 12.3 280 13:38 06.01.2020
1255 Drizzle 2 964 84 10000 10.8 280 13:20 06.01.2020
1256 Rain 2 964 93 10000 12.3 290 12:55 06.01.2020
1257 Rain 2 964 93 10000 12.3 290 12:37 06.01.2020
1258 Drizzle 2 963 82 9000 8.2 270 12:18 06.01.2020
1259 Rain 2 963 93 10000 9.8 280 11:41 06.01.2020
1260 Drizzle 2 961 82 4000 10.8 290 11:23 06.01.2020
1261 Clouds 2 962 100 10000 9.8 310 10:58 06.01.2020
1262 Clouds 3 962 100 10000 9.8 310 10:40 06.01.2020
1263 Rain 2 959 86 8000 2.6 160 10:20 06.01.2020
1264 Drizzle 3 960 100 8000 12.3 330 09:39 06.01.2020
1265 Clouds 3 959 86 10000 1.5 110 09:20 06.01.2020
1266 Rain 3 960 100 7000 10.8 350 08:51 06.01.2020
1267 Drizzle 3 959 80 10000 4.6 70 08:33 06.01.2020
1268 Rain 3 960 100 6000 9.8 360 07:57 06.01.2020
1269 Rain 3 960 100 6000 9.8 360 07:36 06.01.2020
1270 Snow 2 961 96 2500 11.8 10 06:46 06.01.2020
1271 Rain 2 962 96 10000 8.2 70 06:27 06.01.2020
1272 Snow 1 963 96 1700 12.3 10 05:48 06.01.2020
1273 Snow 2 966 97 1500 11.8 20 04:53 06.01.2020
1274 Rain 2 968 97 10000 5.1 40 04:20 06.01.2020
1275 Clouds 2 971 97 5000 8.2 50 02:58 06.01.2020
1276 Rain 2 974 80 10000 8.2 70 02:24 06.01.2020
1277 Rain 2 974 93 10000 6.2 60 01:45 06.01.2020
1278 Clouds 2 976 69 10000 6.7 80 01:27 06.01.2020
1279 Rain 2 976 93 10000 5.1 70 00:44 06.01.2020
1280 Rain 2 978 80 10000 4.6 70 00:23 06.01.2020
1281 Rain 2 978 86 10000 4.1 70 23:43 05.01.2020
1282 Rain 2 978 86 10000 4.1 70 23:43 05.01.2020
1283 Clouds 2 980 80 10000 4.1 60 23:23 05.01.2020
1284 Clouds 2 980 80 10000 4.1 60 23:23 05.01.2020
1285 Clouds 2 979 86 10000 4.1 120 22:58 05.01.2020
1286 Clouds 2 979 86 10000 4.1 120 22:39 05.01.2020
1287 Clouds 2 981 80 10000 2.6 60 22:20 05.01.2020
1288 Clouds 2 981 93 10000 5.7 130 21:55 05.01.2020
1289 Clouds 3 981 93 10000 5.7 130 21:37 05.01.2020
1290 Clouds 3 981 93 10000 5.7 130 21:37 05.01.2020
1291 Clouds 2 983 74 10000 3.1 120 21:19 05.01.2020
1292 Clouds 2 983 81 10000 4.1 140 20:55 05.01.2020
1293 Clouds 2 983 81 10000 4.1 140 20:37 05.01.2020
1294 Clouds 2 984 74 10000 3.1 130 20:19 05.01.2020
1295 Clouds 2 984 80 10000 5.1 170 19:56 05.01.2020
1296 Clouds 2 984 80 10000 5.1 170 19:37 05.01.2020
1297 Clouds 2 985 74 10000 4.1 150 19:19 05.01.2020
1298 Clouds 3 985 80 10000 5.7 180 18:55 05.01.2020
1299 Clouds 3 985 80 10000 5.7 180 18:36 05.01.2020
1300 Clouds 3 986 74 10000 5.1 160 18:18 05.01.2020
1301 Clouds 2 985 80 10000 6.7 190 17:57 05.01.2020
1302 Clouds 2 985 80 10000 6.7 190 17:37 05.01.2020
1303 Rain 2 986 74 10000 5.7 180 17:19 05.01.2020
1304 Rain 2 986 74 10000 5.7 180 17:19 05.01.2020
1305 Rain 2 985 73 10000 8.7 210 16:55 05.01.2020
1306 Rain 2 985 73 10000 8.7 210 16:37 05.01.2020
1307 Rain 2 986 74 10000 7.2 190 16:19 05.01.2020
1308 Rain 2 986 74 10000 7.2 190 16:19 05.01.2020
1309 Rain 2 986 74 10000 7.2 190 16:19 05.01.2020
1310 Rain 2 986 74 10000 6.7 200 15:37 05.01.2020
1311 Rain 2 986 74 10000 6.7 200 15:18 05.01.2020
1312 Rain 3 985 73 10000 9.8 210 14:55 05.01.2020
1313 Rain 2 985 73 10000 9.8 210 14:37 05.01.2020
1314 Rain 3 986 74 10000 5.7 190 14:18 05.01.2020
1315 Rain 3 985 67 10000 10.8 220 13:40 05.01.2020
1316 Rain 2 985 80 10000 8.2 200 13:21 05.01.2020
1317 Rain 2 984 74 10000 12.9 230 12:58 05.01.2020
1318 Rain 2 984 74 10000 12.9 230 12:39 05.01.2020
1319 Rain 2 984 74 10000 12.9 230 12:39 05.01.2020
1320 Rain 2 985 74 10000 6.2 200 12:21 05.01.2020
1321 Rain 2 983 74 10000 11.3 240 11:58 05.01.2020
1322 Rain 2 983 74 10000 11.3 240 11:39 05.01.2020
1323 Rain 2 983 74 10000 11.3 240 11:39 05.01.2020
1324 Rain 2 984 74 10000 10.3 210 11:19 05.01.2020
1325 Rain 2 984 74 10000 10.3 210 11:19 05.01.2020
1326 Rain 2 983 67 10000 13.4 240 10:56 05.01.2020
1327 Rain 2 983 67 10000 13.4 240 10:36 05.01.2020
1328 Rain 2 983 80 10000 12.3 220 10:18 05.01.2020
1329 Rain 3 981 67 10000 15.4 220 09:41 05.01.2020
1330 Clouds 3 982 64 10000 11.3 210 09:21 05.01.2020
1331 Clouds 3 982 64 10000 11.3 210 09:21 05.01.2020
1332 Rain 2 980 69 10000 15.9 230 08:48 05.01.2020
1333 Rain 2 981 80 10000 9.8 190 08:29 05.01.2020
1334 Rain 3 979 79 10000 15.4 210 07:56 05.01.2020
1335 Rain 3 979 79 10000 15.4 210 07:37 05.01.2020
1336 Rain 3 980 79 10000 10.8 190 07:18 05.01.2020
1337 Rain 3 980 80 10000 13.9 200 05:59 05.01.2020
1338 Rain 2 982 79 10000 9.8 210 05:30 05.01.2020
1339 Rain 3 980 86 10000 12.3 200 04:43 05.01.2020
1340 Rain 3 981 76 10000 10.3 190 04:18 05.01.2020
1341 Rain 2 983 86 4100 16.5 200 02:46 05.01.2020
1342 Rain 3 983 80 9000 9.8 200 02:24 05.01.2020
1343 Clouds 3 982 93 10000 13.9 190 01:48 05.01.2020
1344 Rain 3 984 81 10000 7.7 180 01:18 05.01.2020
1345 Clouds 3 983 80 10000 12.9 190 00:41 05.01.2020
1346 Rain 3 985 80 10000 8.2 180 00:23 05.01.2020
1347 Rain 3 983 93 10000 12.9 200 23:59 04.01.2020
1348 Rain 3 983 93 10000 12.9 200 23:40 04.01.2020
1349 Rain 3 985 83 10000 7.7 170 23:19 04.01.2020
1350 Clouds 3 984 93 10000 9.8 190 22:40 04.01.2020
1351 Rain 3 986 83 10000 6.2 170 22:22 04.01.2020
1352 Clouds 3 985 93 10000 8.7 200 21:58 04.01.2020
1353 Clouds 3 985 93 10000 8.7 200 21:39 04.01.2020
1354 Rain 3 986 83 10000 7.7 190 21:20 04.01.2020
1355 Clouds 3 986 80 10000 11.3 210 20:59 04.01.2020
1356 Clouds 3 986 80 10000 11.3 210 20:40 04.01.2020
1357 Rain 3 987 80 10000 8.2 190 20:21 04.01.2020
1358 Clouds 4 985 75 10000 11.3 210 19:56 04.01.2020
1359 Clouds 4 985 75 10000 11.3 210 19:38 04.01.2020
1360 Rain 4 987 80 9000 9.3 210 19:19 04.01.2020
1361 Clouds 3 985 86 10000 11.8 200 18:54 04.01.2020
1362 Rain 4 986 80 8000 8.2 200 18:36 04.01.2020
1363 Rain 4 986 80 8000 8.2 200 18:18 04.01.2020
1364 Rain 4 985 86 10000 9.8 220 17:41 04.01.2020
1365 Rain 4 986 80 9000 9.3 200 17:23 04.01.2020
1366 Rain 4 985 93 10000 10.3 220 16:57 04.01.2020
1367 Rain 4 985 93 10000 10.3 220 16:39 04.01.2020
1368 Rain 4 985 93 10000 10.3 220 16:39 04.01.2020
1369 Rain 4 985 86 9000 9.3 170 16:21 04.01.2020
1370 Rain 3 985 100 6000 7.7 190 15:43 04.01.2020
1371 Rain 3 985 86 3500 17.5 120 15:20 04.01.2020
1372 Rain 3 985 86 3500 17.5 120 15:20 04.01.2020
1373 Rain 2 984 100 2500 16.5 140 14:59 04.01.2020
1374 Rain 3 984 100 2500 16.5 140 14:41 04.01.2020
1375 Rain 2 987 94 2500 18.5 100 14:20 04.01.2020
1376 Rain 1 985 93 2500 25.7 130 13:59 04.01.2020
1377 Rain 1 985 93 2500 25.7 130 13:38 04.01.2020
1378 Snow 1 990 94 2500 16.5 110 13:19 04.01.2020
1379 Snow 1 987 93 3000 24.7 130 12:57 04.01.2020
1380 Snow 1 987 93 3000 24.7 130 12:38 04.01.2020
1381 Snow 0 992 94 900 14.9 110 12:18 04.01.2020
1382 Snow 0 991 94 1500 23.1 120 11:55 04.01.2020
1383 Snow 0 991 94 1500 23.1 120 11:36 04.01.2020
1384 Clouds 0 995 91 600 13.9 100 11:18 04.01.2020
1385 Snow -1 995 91 800 21.1 120 10:40 04.01.2020
1386 Snow -1 999 92 600 11.3 100 10:21 04.01.2020
1387 Snow -1 1000 86 500 11.3 100 09:47 04.01.2020
1388 Snow -1 1003 86 1000 8.2 100 09:26 04.01.2020
1389 Snow -1 1001 91 600 18.5 120 08:49 04.01.2020
1390 Clouds -1 1006 63 10000 10.3 90 08:29 04.01.2020
1391 Rain -1 1005 81 10000 12.9 90 07:57 04.01.2020
1392 Rain -1 1005 81 10000 12.9 90 07:38 04.01.2020
1393 Clouds -2 1007 81 10000 12.9 120 06:44 04.01.2020
1394 Snow -2 1009 74 10000 9.8 100 05:59 04.01.2020
1395 Clouds -2 1010 58 10000 8.7 110 04:52 04.01.2020
1396 Clouds -3 1012 58 10000 8.2 90 04:31 04.01.2020
1397 Clouds -4 1013 63 10000 8.7 80 03:29 04.01.2020
1398 Clouds -4 1013 68 10000 5.7 80 02:52 04.01.2020
1399 Clouds -5 1015 62 10000 8.2 90 02:18 04.01.2020
1400 Clouds -6 1015 67 10000 3.6 80 01:45 04.01.2020
1401 Clouds -7 1015 62 10000 3.6 70 01:27 04.01.2020
1402 Clouds -7 1016 72 10000 2.1 160 00:29 04.01.2020
1403 Clouds -8 1016 67 10000 2.6 100 23:59 03.01.2020
1404 Clouds -9 1016 67 10000 2.6 100 23:37 03.01.2020
1405 Clouds -9 1016 72 10000 2.6 130 23:18 03.01.2020
1406 Clouds -8 1016 73 10000 3.6 80 22:40 03.01.2020
1407 Clouds -8 1016 66 10000 1.5 160 22:19 03.01.2020
1408 Clouds -8 1016 67 10000 4.1 50 21:57 03.01.2020
1409 Clouds -8 1016 67 10000 4.1 50 21:38 03.01.2020
1410 Clouds -8 1016 61 10000 3.6 120 21:19 03.01.2020
1411 Clouds -8 1015 62 10000 5.7 40 20:56 03.01.2020
1412 Clouds -8 1015 62 10000 5.7 40 20:38 03.01.2020
1413 Clouds -7 1016 61 10000 1.5 130 20:18 03.01.2020
1414 Clouds -7 1015 62 10000 5.7 40 19:55 03.01.2020
1415 Clouds -7 1015 62 10000 5.7 40 19:37 03.01.2020
1416 Clouds -6 1015 57 10000 2.1 80 19:18 03.01.2020
1417 Clouds -7 1014 62 10000 6.7 20 18:40 03.01.2020
1418 Clouds -7 1014 57 10000 6.2 10 18:21 03.01.2020
1419 Clouds -6 1013 67 10000 5.1 20 17:55 03.01.2020
1420 Clouds -6 1013 67 10000 5.1 20 17:36 03.01.2020
1421 Clouds -7 1013 53 10000 5.1 350 17:18 03.01.2020
1422 Rain -6 1012 73 10000 3.6 40 16:42 03.01.2020
1423 Clouds -5 1012 62 10000 4.1 10 16:22 03.01.2020
1424 Snow -7 1011 73 10000 3.1 330 15:43 03.01.2020
1425 Clouds -5 1011 62 10000 5.1 20 15:19 03.01.2020
1426 Rain -5 1010 92 10000 3.6 330 14:57 03.01.2020
1427 Rain -6 1010 92 10000 3.6 330 14:37 03.01.2020
1428 Rain -6 1009 57 10000 5.1 350 14:19 03.01.2020
1429 Snow -6 1008 85 10000 6.2 330 13:43 03.01.2020
1430 Snow -5 1007 85 2100 7.2 360 13:23 03.01.2020
1431 Rain -4 1006 57 10000 10.3 290 12:58 03.01.2020
1432 Rain -4 1006 57 10000 10.3 290 12:38 03.01.2020
1433 Clouds -5 1006 53 10000 11.3 300 12:20 03.01.2020
1434 Clouds -4 1005 62 10000 12.9 300 11:44 03.01.2020
1435 Rain -5 1004 62 10000 12.9 300 11:20 03.01.2020
1436 Clouds -5 1004 73 4000 14.4 290 10:44 03.01.2020
1437 Clouds -5 1003 53 10000 14.9 300 10:25 03.01.2020
1438 Clouds -4 1002 73 10000 11.3 300 09:58 03.01.2020
1439 Clouds -4 1002 73 10000 11.3 300 09:39 03.01.2020
1440 Clouds -4 1002 58 10000 14.4 300 09:21 03.01.2020
1441 Clouds -4 1002 58 10000 14.4 300 09:21 03.01.2020
1442 Rain -3 1001 68 10000 10.3 310 08:56 03.01.2020
1443 Rain -3 1001 68 10000 10.3 310 08:37 03.01.2020
1444 Rain -4 1000 58 10000 12.3 300 08:19 03.01.2020
1445 Rain -4 999 73 3000 12.3 300 07:39 03.01.2020
1446 Snow -4 999 85 8000 9.8 310 07:18 03.01.2020
1447 Snow -4 998 68 10000 10.3 300 06:47 03.01.2020
1448 Rain -4 997 73 9000 6.7 320 06:28 03.01.2020
1449 Snow -4 996 85 4000 7.2 310 05:30 03.01.2020
1450 Rain -5 994 92 9000 3.1 330 04:19 03.01.2020
1451 Snow -4 992 73 5000 8.7 300 02:56 03.01.2020
1452 Snow -4 992 73 5000 8.7 300 02:56 03.01.2020
1453 Snow -4 992 85 3300 7.7 340 02:26 03.01.2020
1454 Snow -4 991 92 800 12.9 290 01:39 03.01.2020
1455 Rain -4 990 79 10000 9.3 320 00:49 03.01.2020
1456 Snow -5 990 92 1000 14.4 310 00:29 03.01.2020
1457 Snow -5 989 85 650 6.7 230 23:55 02.01.2020
1458 Snow -5 989 85 650 6.7 230 23:37 02.01.2020
1459 Clouds -5 988 73 10000 7.2 200 23:18 02.01.2020
1460 Snow -5 988 85 10000 5.7 220 22:44 02.01.2020
1461 Clouds -4 988 53 10000 6.2 260 22:21 02.01.2020
1462 Clouds -4 988 53 10000 6.2 260 22:21 02.01.2020
1463 Rain -4 988 58 10000 8.2 270 21:57 02.01.2020
1464 Rain -4 988 58 10000 8.2 270 21:39 02.01.2020
1465 Clouds -4 988 58 10000 8.7 290 21:21 02.01.2020
1466 Clouds -4 988 58 10000 8.2 280 20:57 02.01.2020
1467 Clouds -4 988 58 10000 8.2 280 20:39 02.01.2020
1468 Rain -4 988 92 9000 3.6 220 20:20 02.01.2020
1469 Snow -6 988 85 2000 2.1 280 19:55 02.01.2020
1470 Snow -6 988 85 2000 2.1 280 19:37 02.01.2020
1471 Snow -6 988 85 2000 2.1 280 19:37 02.01.2020
1472 Snow -6 987 85 7000 2.1 0 19:19 02.01.2020
1473 Snow -5 986 100 2500 8.7 290 18:56 02.01.2020
1474 Snow -5 986 100 2500 8.7 290 18:37 02.01.2020
1475 Clouds -5 986 79 10000 1 0 18:19 02.01.2020
1476 Rain -4 985 79 10000 2.6 330 17:55 02.01.2020
1477 Clouds -5 985 79 10000 4.6 350 17:36 02.01.2020
1478 Rain -4 985 79 10000 2.6 330 17:36 02.01.2020
1479 Clouds -5 985 79 10000 4.6 350 17:18 02.01.2020
1480 Clouds -5 985 79 10000 4.6 350 17:18 02.01.2020
1481 Rain -4 984 79 10000 5.7 340 16:54 02.01.2020
1482 Rain -4 984 79 10000 5.7 340 16:36 02.01.2020
1483 Rain -4 983 79 10000 5.1 330 16:18 02.01.2020
1484 Snow -4 983 92 10000 5.7 360 15:42 02.01.2020
1485 Clouds -5 982 85 10000 6.2 350 15:24 02.01.2020
1486 Snow -4 982 92 800 6.2 340 14:58 02.01.2020
1487 Snow -4 982 92 800 6.2 340 14:37 02.01.2020
1488 Snow -4 980 85 2000 7.7 340 14:19 02.01.2020
1489 Rain -4 980 85 10000 8.7 360 13:58 02.01.2020
1490 Rain -4 980 85 10000 8.7 360 13:38 02.01.2020
1491 Rain -2 977 79 10000 13.9 320 12:59 02.01.2020
1492 Rain -2 977 79 10000 13.9 320 12:40 02.01.2020
1493 Snow -2 975 86 10000 6.7 340 12:20 02.01.2020
1494 Clouds -2 971 92 10000 2.6 350 11:41 02.01.2020
1495 Clouds -1 971 92 10000 2.6 350 11:21 02.01.2020
1496 Rain 0 970 80 10000 13.4 300 10:46 02.01.2020
1497 Snow 0 969 86 5000 6.2 280 10:27 02.01.2020
1498 Rain -1 969 92 10000 10.3 290 09:56 02.01.2020
1499 Rain -1 967 86 8000 9.8 260 09:35 02.01.2020
1500 Snow -1 967 86 4000 12.9 280 08:58 02.01.2020
1501 Snow 0 967 86 4000 12.9 280 08:39 02.01.2020
1502 Rain -1 967 63 10000 12.3 250 08:19 02.01.2020
1503 Rain -1 966 63 10000 12.9 230 07:47 02.01.2020
1504 Rain -1 966 63 10000 15.9 240 07:26 02.01.2020
1505 Snow -2 966 92 800 18 240 06:41 02.01.2020
1506 Snow -2 967 92 1500 17.5 240 05:40 02.01.2020
1507 Rain -1 969 74 10000 9.8 260 04:34 02.01.2020
1508 Rain -1 970 73 10000 11.8 260 03:29 02.01.2020
1509 Rain -1 969 50 10000 9.8 260 02:21 02.01.2020
1510 Clouds -1 969 68 10000 12.9 260 01:49 02.01.2020
1511 Rain -1 969 92 10000 8.7 250 01:25 02.01.2020
1512 Rain -1 970 86 10000 9.3 220 00:38 02.01.2020
1513 Snow -1 970 77 5000 8.2 230 00:20 02.01.2020
1514 Rain -1 971 86 10000 8.7 200 23:42 01.01.2020
1515 Snow -1 971 86 3000 9.3 210 23:21 01.01.2020
1516 Snow -1 971 86 3000 9.3 210 23:21 01.01.2020
1517 Rain -1 971 86 10000 6.7 230 22:39 01.01.2020
1518 Rain -1 971 86 10000 6.7 230 22:39 01.01.2020
1519 Clouds 0 972 73 10000 10.8 230 22:20 01.01.2020
1520 Clouds 0 972 73 10000 10.8 230 22:20 01.01.2020
1521 Snow 0 972 73 10000 9.8 230 21:58 01.01.2020
1522 Snow 0 972 73 10000 9.8 230 21:39 01.01.2020
1523 Rain 0 972 73 10000 7.7 210 21:20 01.01.2020
1524 Snow 0 972 73 9000 11.8 240 20:57 01.01.2020
1525 Snow 0 972 73 9000 11.8 240 20:38 01.01.2020
1526 Clouds 0 973 71 10000 5.1 210 20:20 01.01.2020
1527 Rain 1 973 71 10000 6.7 220 19:57 01.01.2020
1528 Rain 1 973 71 10000 6.7 220 19:38 01.01.2020
1529 Clouds 0 974 86 10000 7.7 220 19:20 01.01.2020
1530 Rain 1 974 86 10000 10.3 240 18:57 01.01.2020
1531 Rain 1 974 86 10000 10.3 240 18:37 01.01.2020
1532 Rain 1 975 80 10000 8.7 190 18:19 01.01.2020
1533 Rain 2 974 74 10000 10.3 230 17:57 01.01.2020
1534 Rain 2 974 74 10000 10.3 230 17:39 01.01.2020
1535 Rain 2 976 95 10000 8.2 190 17:19 01.01.2020
1536 Rain 2 975 64 10000 10.3 210 16:57 01.01.2020
1537 Rain 2 975 64 10000 10.3 210 16:37 01.01.2020
1538 Clouds 1 977 86 6000 10.8 210 16:19 01.01.2020
1539 Snow 2 977 100 9000 9.8 210 15:54 01.01.2020
1540 Snow 2 977 100 9000 9.8 210 15:36 01.01.2020
1541 Snow 2 979 74 10000 9.8 190 15:18 01.01.2020
1542 Clouds 2 978 86 10000 10.8 210 14:41 01.01.2020
1543 Rain 2 981 95 10000 7.7 180 14:23 01.01.2020
1544 Snow 2 980 93 9000 11.8 220 13:57 01.01.2020
1545 Snow 2 980 93 9000 11.8 220 13:38 01.01.2020
1546 Snow 2 981 74 10000 8.7 190 13:19 01.01.2020
1547 Rain 3 981 81 10000 10.8 200 12:57 01.01.2020
1548 Rain 3 981 81 10000 10.8 200 12:39 01.01.2020
1549 Snow 2 983 74 10000 8.2 190 12:19 01.01.2020
1550 Snow 2 982 93 9000 10.3 230 11:56 01.01.2020
1551 Snow 2 982 93 9000 10.3 230 11:56 01.01.2020
1552 Snow 2 982 93 9000 10.3 230 11:37 01.01.2020
1553 Rain 2 983 80 10000 9.8 200 11:18 01.01.2020
1554 Snow 2 983 80 10000 11.8 210 10:54 01.01.2020
1555 Snow 2 984 80 10000 10.8 220 10:36 01.01.2020
1556 Snow 2 984 80 10000 10.8 220 10:18 01.01.2020
1557 Rain 3 983 80 10000 11.3 220 09:38 01.01.2020
1558 Clouds 3 985 74 10000 7.2 210 09:19 01.01.2020
1559 Clouds 3 985 74 10000 7.2 210 09:19 01.01.2020
1560 Rain 2 983 64 10000 13.4 220 08:56 01.01.2020
1561 Rain 2 983 64 10000 13.4 220 08:37 01.01.2020
1562 Rain 2 983 64 10000 13.4 220 08:37 01.01.2020
1563 Clouds 2 985 84 10000 6.2 210 08:19 01.01.2020
1564 Rain 3 984 86 10000 8.2 240 07:55 01.01.2020
1565 Rain 3 984 86 10000 8.2 240 07:37 01.01.2020
1566 Rain 3 984 86 10000 8.2 240 07:37 01.01.2020
1567 Rain 3 983 93 10000 9.8 240 06:45 01.01.2020
1568 Rain 3 984 84 10000 8.7 220 06:22 01.01.2020
1569 Rain 3 983 86 10000 10.3 230 05:45 01.01.2020
1570 Rain 4 982 80 10000 11.3 230 03:47 01.01.2020
1571 Clouds 4 983 86 10000 5.7 210 03:24 01.01.2020
1572 Rain 4 983 86 10000 9.3 240 02:59 01.01.2020
1573 Rain 4 983 86 10000 9.3 240 02:40 01.01.2020
1574 Rain 4 984 86 9000 7.7 210 02:21 01.01.2020
1575 Rain 5 984 93 10000 9.3 220 01:39 01.01.2020
1576 Smoke 5 985 86 5000 8.2 200 01:21 01.01.2020
1577 Rain 5 985 93 10000 9.8 200 00:44 01.01.2020
1578 Clouds 5 986 86 10000 9.3 190 00:26 01.01.2020
1579 Rain 5 986 100 10000 8.2 190 23:42 31.12.2019
1580 Clouds 5 987 86 10000 8.7 190 23:22 31.12.2019
1581 Drizzle 5 987 93 10000 8.7 200 22:59 31.12.2019
1582 Drizzle 6 987 93 10000 8.7 200 22:39 31.12.2019
1583 Rain 6 989 81 8000 10.8 200 22:20 31.12.2019
1584 Drizzle 6 989 93 10000 10.3 200 21:59 31.12.2019
1585 Drizzle 6 989 93 10000 10.3 200 21:41 31.12.2019
1586 Clouds 6 990 81 10000 7.2 190 21:23 31.12.2019
1587 Drizzle 5 989 93 10000 8.7 190 20:57 31.12.2019
1588 Drizzle 5 989 93 10000 8.7 190 20:37 31.12.2019
1589 Clouds 5 991 86 10000 7.7 190 20:19 31.12.2019
1590 Clouds 5 990 93 10000 8.2 200 19:55 31.12.2019
1591 Clouds 5 990 93 10000 8.2 200 19:37 31.12.2019
1592 Clouds 5 991 80 10000 5.7 170 19:18 31.12.2019
1593 Clouds 4 991 100 10000 7.2 200 18:54 31.12.2019
1594 Clouds 4 991 100 10000 7.2 200 18:36 31.12.2019
1595 Clouds 4 992 93 10000 4.6 180 18:18 31.12.2019
1596 Clouds 4 992 100 10000 4.6 200 17:55 31.12.2019
1597 Clouds 4 992 100 10000 4.6 200 17:36 31.12.2019
1598 Clouds 4 992 100 10000 4.6 200 17:36 31.12.2019
1599 Clouds 4 992 93 10000 4.6 210 17:18 31.12.2019
1600 Clouds 5 992 100 10000 4.1 220 16:55 31.12.2019
1601 Rain 5 992 100 10000 4.1 220 16:36 31.12.2019
1602 Rain 4 992 93 9000 4.1 230 16:18 31.12.2019
1603 Rain 5 991 100 10000 5.1 240 15:55 31.12.2019
1604 Rain 5 991 100 10000 5.1 240 15:55 31.12.2019
1605 Rain 5 991 100 10000 5.1 240 15:55 31.12.2019
1606 Rain 5 991 100 10000 5.1 240 15:37 31.12.2019
1607 Drizzle 5 991 93 800 3.6 230 15:19 31.12.2019
1608 Drizzle 5 991 93 800 2.6 220 14:55 31.12.2019
1609 Drizzle 5 991 93 800 2.6 220 14:36 31.12.2019
1610 Drizzle 5 991 86 1000 2.1 180 14:18 31.12.2019
1611 Rain 6 991 100 10000 3.1 200 13:54 31.12.2019
1612 Rain 6 991 100 10000 3.1 200 13:36 31.12.2019
1613 Rain 6 992 86 2000 2.6 230 13:18 31.12.2019
1614 Drizzle 6 992 93 2000 3.1 230 12:54 31.12.2019
1615 Rain 6 992 87 10000 3.6 210 12:36 31.12.2019
1616 Rain 6 992 87 10000 3.6 210 12:36 31.12.2019
1617 Rain 6 992 87 10000 3.6 210 12:18 31.12.2019
1618 Rain 6 992 100 5000 5.7 210 11:54 31.12.2019
1619 Rain 6 994 87 10000 8.2 190 11:36 31.12.2019
1620 Rain 6 994 87 10000 8.2 190 11:18 31.12.2019
1621 Rain 6 994 100 10000 6.2 190 10:54 31.12.2019
1622 Rain 6 994 100 10000 6.2 190 10:36 31.12.2019
1623 Rain 6 996 87 10000 3.1 170 10:18 31.12.2019
1624 Rain 6 996 100 5000 5.1 190 09:54 31.12.2019
1625 Rain 5 998 81 10000 7.7 180 09:36 31.12.2019
1626 Rain 5 998 81 10000 7.7 180 09:18 31.12.2019
1627 Rain 5 998 100 8000 9.3 190 08:41 31.12.2019
1628 Rain 5 1000 81 10000 11.3 180 08:21 31.12.2019
1629 Rain 5 999 93 6000 11.8 190 07:44 31.12.2019
1630 Rain 5 1002 81 9000 10.3 180 07:22 31.12.2019
1631 Rain 5 1001 100 8000 10.3 180 06:51 31.12.2019
1632 Rain 5 1004 80 10000 6.2 150 06:23 31.12.2019
1633 Rain 4 1005 93 10000 8.7 170 04:54 31.12.2019
1634 Rain 3 1008 80 10000 4.1 140 04:24 31.12.2019
1635 Rain 3 1010 100 8000 7.2 190 02:57 31.12.2019
1636 Rain 3 1011 86 9000 3.6 180 02:20 31.12.2019
1637 Drizzle 3 1011 86 8000 9.3 210 01:49 31.12.2019
1638 Rain 3 1012 91 10000 3.6 150 01:31 31.12.2019
1639 Drizzle 3 1011 93 10000 6.2 180 00:48 31.12.2019
1640 Rain 3 1013 91 10000 4.6 160 00:24 31.12.2019
1641 Clouds 3 1012 86 10000 6.2 200 23:58 30.12.2019
1642 Clouds 3 1012 86 10000 6.2 200 23:39 30.12.2019
1643 Clouds 3 1013 82 10000 4.1 170 23:21 30.12.2019
1644 Clouds 3 1013 80 10000 7.2 210 22:59 30.12.2019
1645 Clouds 2 1013 80 10000 7.2 210 22:41 30.12.2019
1646 Clouds 3 1013 82 10000 4.1 170 22:21 30.12.2019
1647 Clouds 2 1012 82 10000 6.7 230 21:57 30.12.2019
1648 Clouds 2 1012 82 10000 6.7 230 21:57 30.12.2019
1649 Clouds 2 1012 82 10000 6.7 230 21:39 30.12.2019
1650 Clouds 2 1013 82 10000 6.2 190 21:20 30.12.2019
1651 Clouds 2 1012 80 10000 5.07 213 20:58 30.12.2019
1652 Clouds 2 1012 80 10000 5.07 213 20:40 30.12.2019
1653 Rain 2 1013 86 10000 7.2 230 20:20 30.12.2019
1654 Drizzle 2 1013 80 5000 2.1 120 19:58 30.12.2019
1655 Drizzle 2 1013 80 5000 2.1 120 19:39 30.12.2019
1656 Drizzle 2 1013 80 5000 2.1 120 19:39 30.12.2019
1657 Rain 2 1013 80 9000 4.1 90 19:19 30.12.2019
1658 Drizzle 2 1012 93 3000 7.2 240 18:59 30.12.2019
1659 Drizzle 2 1012 93 3000 7.2 240 18:40 30.12.2019
1660 Rain 1 1012 80 10000 3.1 100 18:20 30.12.2019
1661 Rain 1 1012 80 10000 3.1 100 18:20 30.12.2019
1662 Drizzle 1 1011 100 3000 3.6 160 17:57 30.12.2019
1663 Drizzle 1 1011 100 3000 3.6 160 17:39 30.12.2019
1664 Rain 1 1012 74 10000 4.1 140 17:19 30.12.2019
1665 Clouds 1 1012 93 10000 3.6 180 16:58 30.12.2019
1666 Clouds 1 1012 93 10000 3.6 180 16:37 30.12.2019
1667 Clouds 1 1012 74 10000 3.1 100 16:19 30.12.2019
1668 Clouds 1 1011 80 10000 3.1 170 15:56 30.12.2019
1669 Clouds 1 1011 80 10000 3.1 170 15:37 30.12.2019
1670 Clouds 1 1013 69 10000 3.1 140 15:18 30.12.2019
1671 Clouds 1 1012 80 10000 3.1 190 14:43 30.12.2019
1672 Clouds 1 1012 69 10000 2.6 160 14:20 30.12.2019
1673 Clouds 1 1011 74 10000 5.1 210 13:58 30.12.2019
1674 Clouds 1 1011 74 10000 5.1 210 13:40 30.12.2019
1675 Clouds 1 1011 74 10000 5.1 210 13:40 30.12.2019
1676 Clouds 0 1011 69 10000 2.1 220 13:21 30.12.2019
1677 Clouds 0 1011 80 10000 2.6 240 12:56 30.12.2019
1678 Clouds 0 1011 80 10000 2.6 240 12:37 30.12.2019
1679 Clouds 0 1011 69 10000 3.1 230 12:18 30.12.2019
1680 Clouds 1 1010 74 10000 2.6 260 11:45 30.12.2019
1681 Rain 0 1010 69 10000 3.6 260 11:20 30.12.2019
1682 Clouds 0 1010 74 10000 3.6 270 10:58 30.12.2019
1683 Clouds 1 1010 74 10000 3.6 270 10:40 30.12.2019
1684 Clouds 0 1010 74 10000 3.6 270 10:40 30.12.2019
1685 Snow 1 1009 86 10000 0.5 0 10:19 30.12.2019
1686 Clouds 1 1008 74 10000 2.1 280 09:42 30.12.2019
1687 Snow 0 1008 85 10000 1.5 150 09:20 30.12.2019
1688 Clouds 0 1007 86 10000 2.6 280 08:56 30.12.2019
1689 Clouds 0 1007 86 10000 2.6 280 08:38 30.12.2019
1690 Clouds 0 1007 80 10000 1 350 08:18 30.12.2019
1691 Clouds 0 1006 80 10000 3.1 300 07:42 30.12.2019
1692 Clouds 0 1005 84 10000 3.1 300 06:59 30.12.2019
1693 Clear 0 1004 84 10000 0.5 0 06:24 30.12.2019
1694 Clear 1 1002 74 10000 3.6 330 04:23 30.12.2019
1695 Clear 1 1002 80 10000 5.1 340 03:42 30.12.2019
1696 Clear 1 1001 86 10000 4.1 340 02:41 30.12.2019
1697 Clear 1 999 74 10000 4.6 330 02:20 30.12.2019
1698 Clear 1 998 74 10000 4.1 340 01:26 30.12.2019
1699 Clouds 2 998 86 10000 4.1 350 00:47 30.12.2019
1700 Clear 2 997 80 10000 3.6 330 00:28 30.12.2019
1701 Clouds 2 997 85 10000 5.1 340 23:40 29.12.2019
1702 Clouds 2 995 74 10000 5.1 330 23:22 29.12.2019
1703 Clouds 2 996 84 10000 6.2 340 22:57 29.12.2019
1704 Clouds 2 996 84 10000 6.2 340 22:38 29.12.2019
1705 Clouds 2 994 80 10000 6.2 330 22:20 29.12.2019
1706 Clouds 2 994 84 10000 6.7 340 21:55 29.12.2019
1707 Clouds 2 992 80 10000 7.2 320 21:36 29.12.2019
1708 Clouds 2 992 80 10000 7.2 320 21:18 29.12.2019
1709 Clouds 2 992 80 10000 8.2 330 20:55 29.12.2019
1710 Clouds 2 992 80 10000 8.2 330 20:55 29.12.2019
1711 Clouds 2 992 80 10000 8.2 330 20:37 29.12.2019
1712 Clouds 2 989 80 10000 6.2 340 20:18 29.12.2019
1713 Clouds 3 990 81 10000 6.7 330 19:55 29.12.2019
1714 Clouds 3 990 81 10000 6.7 330 19:37 29.12.2019
1715 Clouds 3 990 81 10000 6.7 330 19:37 29.12.2019
1716 Clouds 2 987 69 10000 3.1 330 19:18 29.12.2019
1717 Clouds 3 988 81 10000 11.3 340 18:54 29.12.2019
1718 Clouds 2 988 81 10000 11.3 340 18:36 29.12.2019
1719 Clouds 2 985 69 10000 7.2 360 18:18 29.12.2019
1720 Clouds 2 986 81 10000 9.8 350 17:54 29.12.2019
1721 Clouds 2 986 81 10000 9.8 350 17:36 29.12.2019
1722 Clouds 2 983 69 10000 8.2 360 17:18 29.12.2019
1723 Clouds 2 984 84 10000 9.3 350 16:54 29.12.2019
1724 Clouds 2 984 84 10000 9.3 350 16:36 29.12.2019
1725 Clouds 2 981 69 10000 8.2 340 16:18 29.12.2019
1726 Clouds 3 982 84 10000 10.8 350 15:54 29.12.2019
1727 Clouds 3 982 84 10000 10.8 350 15:36 29.12.2019
1728 Clouds 2 980 74 10000 4.6 350 15:18 29.12.2019
1729 Clouds 3 981 84 10000 10.3 10 14:46 29.12.2019
1730 Clouds 3 979 88 10000 2.6 350 14:19 29.12.2019
1731 Clouds 2 980 88 10000 8.7 20 13:59 29.12.2019
1732 Clouds 2 980 88 10000 8.7 20 13:40 29.12.2019
1733 Clouds 2 979 89 10000 4.6 10 13:22 29.12.2019
1734 Clouds 2 979 89 10000 4.6 10 13:22 29.12.2019
1735 Clouds 2 979 93 10000 8.2 20 12:58 29.12.2019
1736 Clouds 2 979 93 10000 8.2 20 12:39 29.12.2019
1737 Clouds 2 979 89 10000 6.2 40 12:21 29.12.2019
1738 Clouds 2 979 93 10000 10.3 40 11:43 29.12.2019
1739 Drizzle 2 979 90 10000 6.2 50 11:22 29.12.2019
1740 Drizzle 2 979 93 10000 11.8 40 10:59 29.12.2019
1741 Drizzle 2 979 93 10000 11.8 40 10:40 29.12.2019
1742 Clouds 2 980 90 10000 4.1 40 10:18 29.12.2019
1743 Rain 2 980 93 10000 9.3 30 09:47 29.12.2019
1744 Rain 2 980 90 10000 6.2 30 09:28 29.12.2019
1745 Snow 3 981 93 10000 9.3 30 08:59 29.12.2019
1746 Snow 3 981 93 10000 9.3 30 08:40 29.12.2019
1747 Drizzle 2 981 80 10000 3.6 20 08:21 29.12.2019
1748 Rain 3 981 93 10000 8.7 20 07:45 29.12.2019
1749 Rain 3 981 80 10000 4.1 360 07:26 29.12.2019
1750 Rain 4 982 93 10000 7.2 30 06:42 29.12.2019
1751 Clouds 4 982 96 10000 6.7 50 06:19 29.12.2019
1752 Rain 3 983 93 10000 6.7 40 05:44 29.12.2019
1753 Clouds 4 985 81 10000 3.6 80 04:33 29.12.2019
1754 Rain 4 986 93 10000 5.7 50 03:36 29.12.2019
1755 Clouds 3 988 81 10000 7.2 70 02:30 29.12.2019
1756 Clouds 3 988 81 10000 7.2 70 02:30 29.12.2019
1757 Clouds 3 989 93 10000 5.7 50 01:52 29.12.2019
1758 Clouds 3 991 80 10000 5.1 60 01:29 29.12.2019
1759 Clouds 3 991 93 10000 5.1 70 00:47 29.12.2019
1760 Clouds 3 992 86 10000 5.1 70 00:25 29.12.2019
1761 Clouds 3 992 100 10000 4.6 70 23:56 28.12.2019
1762 Clouds 3 992 100 10000 4.6 70 23:37 28.12.2019
1763 Clouds 3 994 86 10000 4.6 70 23:18 28.12.2019
1764 Clouds 3 994 86 10000 4.6 70 23:18 28.12.2019
1765 Clouds 3 994 86 10000 4.6 70 23:18 28.12.2019
1766 Clouds 3 994 86 10000 4.6 70 23:18 28.12.2019
1767 Clouds 3 994 86 10000 4.6 70 23:18 28.12.2019
1768 Clouds 3 994 93 10000 4.1 60 22:38 28.12.2019
1769 Clouds 3 994 80 10000 5.1 90 22:19 28.12.2019
1770 Fog 2 994 100 7000 3.1 60 21:57 28.12.2019
1771 Fog 2 994 100 7000 3.1 60 21:38 28.12.2019
1772 Clouds 2 995 86 10000 4.6 80 21:19 28.12.2019
1773 Fog 2 995 100 2500 4.1 60 20:55 28.12.2019
1774 Fog 2 995 100 2500 4.1 60 20:36 28.12.2019
1775 Clouds 2 996 86 10000 3.1 90 20:18 28.12.2019
1776 Fog 2 996 100 1500 3.1 60 19:54 28.12.2019
1777 Fog 2 996 100 1500 3.1 60 19:36 28.12.2019
1778 Clouds 2 996 86 10000 3.6 100 19:18 28.12.2019
1779 Mist 2 996 100 3000 3.6 70 18:42 28.12.2019
1780 Clouds 2 996 93 10000 3.1 100 18:20 28.12.2019
1781 Drizzle 2 995 100 7000 4.1 60 17:59 28.12.2019
1782 Drizzle 2 995 100 7000 4.1 60 17:41 28.12.2019
1783 Clouds 2 996 97 10000 2.1 80 17:21 28.12.2019
1784 Clouds 2 995 100 10000 3.6 50 16:54 28.12.2019
1785 Rain 2 995 97 10000 2.6 40 16:36 28.12.2019
1786 Rain 2 995 97 10000 2.6 40 16:18 28.12.2019
1787 Clouds 2 995 93 10000 1 50 15:41 28.12.2019
1788 Drizzle 2 994 97 10000 2.6 40 15:21 28.12.2019
1789 Clouds 3 994 93 10000 2.6 100 14:48 28.12.2019
1790 Drizzle 3 994 86 10000 2.1 90 14:26 28.12.2019
1791 Rain 3 993 93 10000 3.6 110 13:58 28.12.2019
1792 Rain 3 993 93 10000 3.6 110 13:39 28.12.2019
1793 Rain 3 993 86 5000 1 110 13:20 28.12.2019
1794 Rain 3 993 100 10000 2.1 90 12:57 28.12.2019
1795 Rain 4 993 100 10000 2.1 90 12:39 28.12.2019
1796 Rain 3 992 80 6000 3.1 90 12:20 28.12.2019
1797 Rain 3 992 100 7000 4.6 70 11:40 28.12.2019
1798 Clouds 3 992 80 10000 6.2 70 11:21 28.12.2019
1799 Clouds 3 992 93 10000 5.1 60 10:56 28.12.2019
1800 Clouds 3 992 93 10000 5.1 60 10:37 28.12.2019
1801 Rain 3 992 80 10000 6.2 80 10:18 28.12.2019
1802 Clouds 3 992 93 10000 3.1 80 09:45 28.12.2019
1803 Rain 4 993 86 10000 5.1 80 09:24 28.12.2019
1804 Rain 4 992 93 10000 4.1 120 08:58 28.12.2019
1805 Rain 4 992 93 10000 4.1 120 08:40 28.12.2019
1806 Clouds 4 993 80 10000 5.7 110 08:22 28.12.2019
1807 Rain 4 992 100 10000 4.6 140 07:43 28.12.2019
1808 Clouds 5 993 80 10000 3.1 60 07:21 28.12.2019
1809 Clouds 4 993 93 10000 4.1 150 05:45 28.12.2019
1810 Clouds 4 993 100 10000 5.1 170 03:48 28.12.2019
1811 Drizzle 4 993 93 10000 5.7 180 02:50 28.12.2019
1812 Clouds 4 993 93 10000 3.6 130 02:20 28.12.2019
1813 Clouds 4 992 100 10000 4.6 170 01:54 28.12.2019
1814 Clouds 4 992 86 10000 2.1 140 01:22 28.12.2019
1815 Clouds 4 991 100 10000 4.1 180 00:44 28.12.2019
1816 Clouds 4 991 86 10000 4.1 190 00:26 28.12.2019
1817 Clouds 4 990 100 10000 3.6 200 23:57 27.12.2019
1818 Clouds 4 990 100 10000 3.6 200 23:37 27.12.2019
1819 Clouds 4 990 93 10000 4.6 190 23:18 27.12.2019
1820 Clouds 4 989 100 10000 4.6 210 22:55 27.12.2019
1821 Clouds 4 989 100 10000 4.6 210 22:37 27.12.2019
1822 Mist 4 989 93 9000 3.6 190 22:19 27.12.2019
1823 Mist 4 988 100 6000 4.6 190 21:41 27.12.2019
1824 Mist 4 988 86 9000 5.1 200 21:23 27.12.2019
1825 Mist 4 987 100 5000 4.6 200 20:44 27.12.2019
1826 Rain 4 987 86 7000 5.1 200 20:26 27.12.2019
1827 Mist 4 987 100 4500 5.7 210 19:59 27.12.2019
1828 Mist 4 987 100 4500 5.7 210 19:40 27.12.2019
1829 Rain 4 986 86 10000 5.7 210 19:19 27.12.2019
1830 Mist 4 985 100 4500 5.7 230 18:56 27.12.2019
1831 Mist 4 985 100 4500 5.7 230 18:37 27.12.2019
1832 Mist 4 985 93 3000 5.1 220 18:18 27.12.2019
1833 Rain 4 984 100 5000 5.1 240 17:55 27.12.2019
1834 Rain 4 984 100 5000 5.1 240 17:37 27.12.2019
1835 Rain 4 984 93 10000 3.1 210 17:18 27.12.2019
1836 Fog 4 984 100 550 4.6 230 16:41 27.12.2019
1837 Rain 4 983 86 10000 3.6 250 16:23 27.12.2019
1838 Rain 4 983 100 10000 3.6 230 15:58 27.12.2019
1839 Rain 4 983 100 10000 3.6 230 15:37 27.12.2019
1840 Rain 4 983 100 10000 3.6 230 15:37 27.12.2019
1841 Rain 4 983 86 9000 4.1 250 15:19 27.12.2019
1842 Rain 3 983 93 1500 2.6 230 14:56 27.12.2019
1843 Rain 3 983 93 1500 2.6 230 14:38 27.12.2019
1844 Rain 4 983 86 10000 1 0 14:19 27.12.2019
1845 Rain 4 984 100 3500 2.1 230 13:47 27.12.2019
1846 Rain 4 984 86 10000 2.1 220 13:24 27.12.2019
1847 Rain 4 984 100 2500 1 280 12:49 27.12.2019
1848 Rain 4 985 80 10000 2.6 100 12:29 27.12.2019
1849 Rain 4 985 100 4000 2.1 170 11:59 27.12.2019
1850 Rain 4 985 100 4000 2.1 170 11:41 27.12.2019
1851 Rain 5 985 86 10000 5.1 90 11:20 27.12.2019
1852 Drizzle 5 985 100 1000 2.1 140 10:47 27.12.2019
1853 Rain 5 986 81 10000 6.7 70 10:24 27.12.2019
1854 Mist 5 986 100 5000 2.6 130 09:59 27.12.2019
1855 Mist 5 986 100 5000 2.6 130 09:39 27.12.2019
1856 Rain 6 987 81 10000 7.7 100 09:21 27.12.2019
1857 Mist 6 987 100 2500 2.6 130 08:49 27.12.2019
1858 Clouds 6 987 75 10000 7.7 110 08:30 27.12.2019
1859 Drizzle 6 987 100 9000 4.1 140 07:48 27.12.2019
1860 Clouds 6 988 81 10000 9.8 120 07:26 27.12.2019
1861 Clouds 6 989 81 10000 5.7 110 06:33 27.12.2019
1862 Drizzle 5 989 100 7000 9.8 130 04:51 27.12.2019
1863 Rain 5 991 93 9000 9.3 130 02:49 27.12.2019
1864 Drizzle 4 991 93 9000 11.8 110 01:56 27.12.2019
1865 Rain 4 993 80 9000 11.3 90 01:23 27.12.2019
1866 Rain 4 992 93 10000 11.8 110 00:53 27.12.2019
1867 Rain 4 994 94 10000 9.3 80 00:34 27.12.2019
1868 Rain 3 994 93 10000 10.3 80 23:59 26.12.2019
1869 Rain 3 994 93 10000 10.3 80 23:41 26.12.2019
1870 Rain 3 996 91 10000 9.3 80 23:21 26.12.2019
1871 Rain 4 996 86 10000 10.3 80 22:45 26.12.2019
1872 Rain 3 998 91 10000 9.8 90 22:22 26.12.2019
1873 Rain 3 998 93 10000 9.3 80 21:58 26.12.2019
1874 Rain 3 998 93 10000 9.3 80 21:38 26.12.2019
1875 Rain 3 999 91 10000 10.3 90 21:20 26.12.2019
1876 Rain 3 999 86 10000 9.8 80 20:46 26.12.2019
1877 Rain 3 1000 94 10000 9.3 90 20:23 26.12.2019
1878 Rain 3 1000 86 10000 8.2 70 19:59 26.12.2019
1879 Rain 3 1000 86 10000 8.2 70 19:39 26.12.2019
1880 Rain 3 1002 94 10000 8.7 90 19:21 26.12.2019
1881 Rain 3 1002 100 10000 8.7 70 18:57 26.12.2019
1882 Rain 3 1002 100 10000 8.7 70 18:38 26.12.2019
1883 Rain 3 1003 94 10000 9.8 80 18:19 26.12.2019
1884 Rain 2 1004 93 10000 9.8 70 17:43 26.12.2019
1885 Rain 2 1004 74 10000 9.3 70 17:22 26.12.2019
1886 Rain 3 1005 86 10000 9.3 60 16:59 26.12.2019
1887 Rain 3 1005 86 10000 9.3 60 16:41 26.12.2019
1888 Rain 3 1006 64 10000 8.7 80 16:21 26.12.2019
1889 Rain 3 1007 77 10000 8.7 60 15:55 26.12.2019
1890 Rain 3 1007 77 10000 8.7 60 15:37 26.12.2019
1891 Clouds 3 1008 55 10000 5.7 70 15:18 26.12.2019
1892 Rain 3 1008 80 10000 7.7 70 14:39 26.12.2019
1893 Clouds 3 1009 51 10000 6.2 70 14:21 26.12.2019
1894 Clouds 4 1009 69 10000 7.2 60 13:43 26.12.2019
1895 Clouds 3 1010 55 10000 5.7 70 13:21 26.12.2019
1896 Clouds 3 1010 74 10000 4.6 50 12:58 26.12.2019
1897 Clouds 2 1010 74 10000 4.6 50 12:39 26.12.2019
1898 Clouds 2 1011 47 10000 3.1 50 12:20 26.12.2019
1899 Clouds 2 1011 74 10000 4.6 60 11:57 26.12.2019
1900 Clouds 2 1011 74 10000 4.6 60 11:38 26.12.2019
1901 Clouds 1 1012 51 10000 2.1 0 11:20 26.12.2019
1902 Clouds 1 1011 64 10000 4.6 50 10:47 26.12.2019
1903 Clouds 1 1013 55 10000 1.5 60 10:19 26.12.2019
1904 Clouds 2 1012 69 10000 4.1 60 09:50 26.12.2019
1905 Clouds 1 1013 47 10000 4.1 90 09:31 26.12.2019
1906 Clouds 1 1013 74 10000 2.1 70 08:55 26.12.2019
1907 Clouds 1 1013 74 10000 2.1 70 08:36 26.12.2019
1908 Clouds 1 1013 47 10000 4.6 70 08:18 26.12.2019
1909 Clouds 0 1014 47 10000 4.1 80 07:30 26.12.2019
1910 Clouds -2 1014 86 10000 2.6 60 06:54 26.12.2019
1911 Clouds -1 1015 79 10000 2.6 120 06:32 26.12.2019
1912 Clouds -2 1015 86 10000 3.1 100 05:46 26.12.2019
1913 Clouds -2 1015 86 10000 1.5 100 04:59 26.12.2019
1914 Clouds -2 1016 79 10000 1.66 134 04:30 26.12.2019
1915 Clouds -2 1017 79 10000 1 0 03:18 26.12.2019
1916 Clouds -2 1017 86 10000 3.1 50 02:38 26.12.2019
1917 Clouds -3 1017 79 10000 3.6 110 02:19 26.12.2019
1918 Clouds -3 1017 80 10000 3.6 60 01:41 26.12.2019
1919 Clouds -3 1018 79 10000 2.6 70 01:22 26.12.2019
1920 Clouds -2 1018 81 10000 4.1 70 00:41 26.12.2019
1921 Clouds -2 1019 74 10000 4.1 80 00:22 26.12.2019
1922 Clouds -1 1018 81 10000 3.6 80 23:42 25.12.2019
1923 Clouds 0 1019 82 10000 5.1 70 23:21 25.12.2019
1924 Clouds 0 1019 82 10000 2.6 60 22:59 25.12.2019
1925 Clouds 0 1019 82 10000 2.6 60 22:40 25.12.2019
1926 Clouds 0 1020 82 10000 4.1 70 22:22 25.12.2019
1927 Clouds 0 1019 69 10000 1 130 21:59 25.12.2019
1928 Clouds 0 1019 69 10000 1 130 21:40 25.12.2019
1929 Clouds 1 1020 82 10000 3.1 90 21:21 25.12.2019
1930 Clouds 1 1020 82 10000 3.1 90 21:21 25.12.2019
1931 Clouds 0 1020 82 10000 2.1 150 20:57 25.12.2019
1932 Clouds 0 1020 82 10000 2.1 150 20:39 25.12.2019
1933 Clouds -1 1020 78 10000 3.1 100 20:18 25.12.2019
1934 Clouds -1 1020 78 10000 3.1 100 20:18 25.12.2019
1935 Clouds -1 1020 78 10000 3.1 100 20:18 25.12.2019
1936 Clouds -1 1019 69 10000 1 150 19:43 25.12.2019
1937 Clouds -1 1019 69 10000 1 150 19:43 25.12.2019
1938 Clouds -1 1020 80 10000 3.6 110 19:25 25.12.2019
1939 Clouds -1 1019 74 10000 1.5 160 18:59 25.12.2019
1940 Clouds -1 1019 74 10000 1.5 160 18:38 25.12.2019
1941 Clouds -1 1019 74 10000 1.5 160 18:38 25.12.2019
1942 Clouds -1 1020 80 10000 1.5 120 18:19 25.12.2019
1943 Clouds -1 1019 74 10000 1.5 170 17:42 25.12.2019
1944 Clouds -1 1019 78 10000 3.1 140 17:20 25.12.2019
1945 Clouds -1 1019 74 10000 1.5 210 16:59 25.12.2019
1946 Clouds -1 1019 74 10000 1.5 210 16:39 25.12.2019
1947 Clouds -1 1019 78 10000 2.6 150 16:19 25.12.2019
1948 Clouds -1 1019 80 10000 2.1 200 15:57 25.12.2019
1949 Clouds -1 1019 80 10000 2.1 200 15:39 25.12.2019
1950 Clouds -1 1019 78 10000 2.1 160 15:20 25.12.2019
1951 Clouds -1 1019 80 10000 2.1 220 14:58 25.12.2019
1952 Clouds -1 1019 80 10000 2.1 220 14:39 25.12.2019
1953 Clouds -1 1019 80 10000 2.1 220 14:39 25.12.2019
1954 Clouds -1 1019 80 10000 2.1 220 14:39 25.12.2019
1955 Clouds -1 1019 80 10000 2.1 220 14:39 25.12.2019
1956 Clouds -1 1019 77 10000 2.6 170 14:20 25.12.2019
1957 Clouds 0 1019 80 10000 4.1 230 13:46 25.12.2019
1958 Clouds 0 1019 69 10000 3.6 180 13:22 25.12.2019
1959 Clouds 0 1018 80 10000 4.6 240 12:58 25.12.2019
1960 Clouds -1 1018 80 10000 4.6 240 12:39 25.12.2019
1961 Clouds -1 1018 79 10000 3.1 180 12:20 25.12.2019
1962 Snow 0 1018 86 10000 4.1 280 11:54 25.12.2019
1963 Clouds 0 1018 74 10000 3.6 190 11:36 25.12.2019
1964 Clouds 0 1018 74 10000 3.6 190 11:18 25.12.2019
1965 Clouds 0 1017 80 10000 5.7 250 10:37 25.12.2019
1966 Clouds 1 1017 74 10000 5.1 210 10:19 25.12.2019
1967 Clouds 1 1016 69 10000 6.2 240 09:49 25.12.2019
1968 Clouds 1 1016 74 10000 4.6 200 09:30 25.12.2019
1969 Clouds 1 1016 69 10000 6.7 240 08:47 25.12.2019
1970 Clouds 1 1016 74 10000 5.1 220 08:29 25.12.2019
1971 Clouds 1 1015 69 10000 6.7 260 07:50 25.12.2019
1972 Clouds 1 1015 74 10000 4.6 210 07:31 25.12.2019
1973 Clouds 1 1015 64 10000 7.7 260 06:50 25.12.2019
1974 Clouds 1 1015 64 10000 6.7 240 06:22 25.12.2019
1975 Clouds 1 1014 64 10000 6.2 240 05:18 25.12.2019
1976 Clouds 1 1014 64 10000 6.2 260 04:39 25.12.2019
1977 Clouds 1 1014 80 10000 6.7 230 04:20 25.12.2019
1978 Clouds 1 1013 64 10000 6.2 270 03:41 25.12.2019
1979 Clouds 1 1013 69 10000 6.7 270 02:51 25.12.2019
1980 Clouds 1 1013 69 10000 5.1 250 02:20 25.12.2019
1981 Clouds 1 1012 74 10000 3.6 250 01:25 25.12.2019
1982 Clouds 1 1012 80 10000 5.1 270 00:52 25.12.2019
1983 Clouds 1 1012 74 10000 4.6 280 00:29 25.12.2019
1984 Clouds 1 1011 86 10000 6.2 260 23:56 24.12.2019
1985 Clouds 1 1011 86 10000 6.2 260 23:38 24.12.2019
1986 Clouds 2 1011 74 10000 4.6 260 23:20 24.12.2019
1987 Clouds 2 1011 74 10000 4.1 280 22:40 24.12.2019
1988 Clouds 2 1010 74 10000 3.1 280 22:21 24.12.2019
1989 Clouds 2 1010 74 10000 6.2 280 21:43 24.12.2019
1990 Clouds 2 1010 74 10000 5.7 290 21:23 24.12.2019
1991 Clouds 2 1010 74 10000 5.7 290 21:23 24.12.2019
1992 Rain 2 1010 74 10000 6.2 300 20:55 24.12.2019
1993 Rain 1 1010 74 10000 6.2 300 20:36 24.12.2019
1994 Clouds 1 1009 80 10000 7.2 280 20:18 24.12.2019
1995 Rain 1 1009 80 10000 7.2 310 19:43 24.12.2019
1996 Snow 1 1008 98 3800 1.5 200 19:20 24.12.2019
1997 Rain 0 1008 98 10000 6.2 310 18:43 24.12.2019
1998 Fog 1 1007 92 10000 2.1 190 18:24 24.12.2019
1999 Drizzle 0 1007 93 10000 6.7 300 17:58 24.12.2019
2000 Rain 0 1006 92 10000 1.5 170 17:38 24.12.2019
2001 Rain 0 1006 92 10000 1.5 170 17:20 24.12.2019
2002 Rain 0 1006 93 10000 4.6 300 16:55 24.12.2019
2003 Fog 1 1005 92 10000 1.5 130 16:37 24.12.2019
2004 Fog 1 1005 92 10000 1.5 130 16:19 24.12.2019
2005 Fog 1 1005 92 10000 1.5 130 16:19 24.12.2019
2006 Rain 1 1005 93 10000 2.6 320 15:55 24.12.2019
2007 Rain 1 1005 93 10000 2.6 320 15:36 24.12.2019
2008 Fog 1 1005 92 10000 1.5 150 15:18 24.12.2019
2009 Drizzle 0 1005 98 4000 2.1 300 14:55 24.12.2019
2010 Drizzle 0 1005 98 4000 2.1 300 14:36 24.12.2019
2011 Fog 1 1004 92 10000 2.64 336 14:18 24.12.2019
2012 Clouds 0 1004 99 10000 1.5 310 13:55 24.12.2019
2013 Clouds 0 1004 99 10000 1.5 310 13:37 24.12.2019
2014 Fog 0 1004 92 10000 1.5 160 13:18 24.12.2019
2015 Clouds 1 1003 86 10000 2.1 320 12:55 24.12.2019
2016 Clouds 1 1003 86 10000 2.1 320 12:36 24.12.2019
2017 Clouds 1 1003 99 10000 2.96 339 12:18 24.12.2019
2018 Clouds 0 1003 99 10000 1 330 11:54 24.12.2019
2019 Clouds 0 1003 99 10000 1 330 11:36 24.12.2019
2020 Clouds 0 1003 99 10000 1 330 11:36 24.12.2019
2021 Rain 0 1003 92 10000 1.5 190 11:18 24.12.2019
2022 Clouds 0 1002 98 10000 1 20 10:55 24.12.2019
2023 Clouds 0 1002 98 10000 1 20 10:36 24.12.2019
2024 Snow 0 1002 92 10000 1 140 10:18 24.12.2019
2025 Clouds 0 1002 98 10000 1.5 100 09:54 24.12.2019
2026 Clouds 0 1002 98 10000 1.5 100 09:36 24.12.2019
2027 Snow 0 1001 98 10000 0.5 0 09:18 24.12.2019
2028 Clouds 0 1001 86 10000 1 40 08:42 24.12.2019
2029 Snow 0 1001 97 10000 1 100 08:20 24.12.2019
2030 Rain 0 1001 97 10000 0.5 10 07:45 24.12.2019
2031 Snow 0 1000 80 10000 1 80 07:24 24.12.2019
2032 Clouds 0 1000 86 10000 2.1 70 06:57 24.12.2019
2033 Clouds 0 1000 86 10000 2.1 70 06:38 24.12.2019
2034 Snow 0 1000 97 10000 1 120 06:18 24.12.2019
2035 Clouds 0 1000 86 10000 1.5 140 05:20 24.12.2019
2036 Clouds 0 1000 86 10000 2.6 20 04:44 24.12.2019
2037 Clouds -1 999 86 10000 2.1 350 03:50 24.12.2019
2038 Clouds 0 1000 86 10000 1.5 320 02:59 24.12.2019
2039 Clouds 0 999 78 10000 1 0 02:21 24.12.2019
2040 Rain 0 999 86 10000 0.5 30 01:50 24.12.2019
2041 Clouds 0 999 78 10000 1.5 100 01:20 24.12.2019
2042 Rain 0 999 74 10000 1 30 00:43 24.12.2019
2043 Clouds -1 1000 88 10000 1.59 60 00:23 24.12.2019
2044 Rain -1 999 88 10000 1 30 23:56 23.12.2019
2045 Rain -1 999 88 10000 1 30 23:56 23.12.2019
2046 Rain -1 999 88 10000 1 30 23:37 23.12.2019
2047 Clouds -1 999 80 10000 1 0 23:19 23.12.2019
2048 Rain -1 999 80 10000 1 100 22:56 23.12.2019
2049 Rain -1 999 80 10000 1 100 22:36 23.12.2019
2050 Clouds -1 999 80 10000 1 220 22:18 23.12.2019
2051 Clouds 0 999 80 10000 1.5 70 21:55 23.12.2019
2052 Clouds 0 999 80 10000 1.5 70 21:36 23.12.2019
2053 Clouds 0 999 64 10000 1 0 21:36 23.12.2019
2054 Clouds 0 999 64 10000 1 0 21:18 23.12.2019
2055 Clouds 0 999 86 10000 2.6 30 20:56 23.12.2019
2056 Clouds 0 999 86 10000 2.6 30 20:56 23.12.2019
2057 Clouds 0 999 86 10000 2.6 30 20:38 23.12.2019
2058 Clouds 0 999 69 10000 1.5 20 20:18 23.12.2019
2059 Clouds -1 998 70 10000 2.6 20 19:55 23.12.2019
2060 Clouds -1 998 70 10000 2.6 20 19:55 23.12.2019
2061 Clouds -1 998 70 10000 2.6 20 19:37 23.12.2019
2062 Clouds -1 998 70 10000 0.5 360 19:19 23.12.2019
2063 Clouds 0 998 80 10000 3.1 10 18:55 23.12.2019
2064 Clouds -1 998 80 10000 3.1 10 18:37 23.12.2019
2065 Clouds -1 998 70 10000 1.5 100 18:19 23.12.2019
2066 Clouds 0 998 80 10000 2.1 20 17:55 23.12.2019
2067 Clouds 0 998 80 10000 2.1 20 17:37 23.12.2019
2068 Clouds 0 998 64 10000 1 350 17:18 23.12.2019
2069 Clouds 0 998 86 10000 3.1 30 16:42 23.12.2019
2070 Clouds 0 998 68 10000 1.49 52 16:19 23.12.2019
2071 Clouds 0 998 86 10000 2.1 30 15:59 23.12.2019
2072 Clouds 0 998 86 10000 2.1 30 15:38 23.12.2019
2073 Clouds 0 998 68 10000 1.49 52 15:20 23.12.2019
2074 Clouds 0 998 86 10000 2.6 40 14:59 23.12.2019
2075 Clouds 0 998 86 10000 2.6 40 14:41 23.12.2019
2076 Clouds 1 998 69 10000 1.5 100 14:22 23.12.2019
2077 Clouds 0 998 86 10000 2.6 30 13:58 23.12.2019
2078 Clouds 0 998 86 10000 2.6 30 13:40 23.12.2019
2079 Clouds 1 998 69 10000 0.5 170 13:22 23.12.2019
2080 Clouds 0 998 80 10000 3.1 360 12:56 23.12.2019
2081 Clouds 0 998 80 10000 3.1 360 12:37 23.12.2019
2082 Clouds 1 998 69 10000 1 0 12:19 23.12.2019
2083 Clouds 0 998 80 10000 2.6 20 11:44 23.12.2019
2084 Clouds 0 998 80 10000 1.5 10 11:26 23.12.2019
2085 Clouds -1 998 72 10000 2.6 30 10:59 23.12.2019
2086 Clouds 0 998 72 10000 2.6 30 10:40 23.12.2019
2087 Clouds 0 998 80 10000 2.12 62 10:21 23.12.2019
2088 Clouds 0 997 80 10000 1.5 60 09:59 23.12.2019
2089 Clouds 0 997 80 10000 1.5 60 09:40 23.12.2019
2090 Clouds -1 997 74 10000 1 270 09:21 23.12.2019
2091 Clouds 0 997 80 10000 4.1 30 08:56 23.12.2019
2092 Clouds 0 997 80 10000 4.1 30 08:38 23.12.2019
2093 Clouds 0 997 74 10000 0.5 0 08:20 23.12.2019
2094 Clouds 0 997 80 10000 3.6 30 07:43 23.12.2019
2095 Clouds 0 997 74 10000 1.5 170 07:20 23.12.2019
2096 Clouds -1 997 80 10000 5.1 40 06:53 23.12.2019
2097 Clouds -1 996 79 10000 1.5 190 06:26 23.12.2019
2098 Clouds 0 996 80 10000 5.1 40 05:53 23.12.2019
2099 Clouds 0 996 79 10000 1 150 05:28 23.12.2019
2100 Clouds 0 996 74 10000 0.5 0 04:31 23.12.2019
2101 Clouds 1 996 76 10000 1 0 03:18 23.12.2019
2102 Clouds 0 996 80 10000 7.7 40 02:40 23.12.2019
2103 Clouds 0 995 74 10000 1.5 140 02:19 23.12.2019
2104 Clouds 1 996 74 10000 9.8 40 01:42 23.12.2019
2105 Clouds 1 995 80 10000 1.5 150 01:23 23.12.2019
2106 Clouds 1 995 74 10000 10.8 40 00:43 23.12.2019
2107 Clouds 1 994 74 10000 1 0 00:22 23.12.2019
2108 Clouds 1 995 69 10000 10.8 40 23:40 22.12.2019
2109 Clouds 1 994 82 10000 1 0 23:21 22.12.2019
2110 Clouds 1 994 74 10000 10.8 40 22:58 22.12.2019
2111 Clouds 1 994 74 10000 10.8 40 22:58 22.12.2019
2112 Clouds 1 994 74 10000 10.8 40 22:40 22.12.2019
2113 Clouds 1 993 82 10000 1 0 22:21 22.12.2019
2114 Clouds 1 994 74 10000 11.3 40 21:58 22.12.2019
2115 Clouds 1 994 74 10000 11.3 40 21:58 22.12.2019
2116 Clouds 1 994 74 10000 11.3 40 21:40 22.12.2019
2117 Clouds 1 993 82 10000 1.5 130 21:21 22.12.2019
2118 Clouds 1 993 74 10000 10.8 40 20:58 22.12.2019
2119 Clouds 1 993 74 10000 10.8 40 20:39 22.12.2019
2120 Clouds 1 992 82 10000 1.5 0 20:19 22.12.2019
2121 Clouds 1 992 82 10000 1.5 0 20:19 22.12.2019
2122 Clouds 2 992 74 10000 10.8 40 19:57 22.12.2019
2123 Clouds 2 992 74 10000 10.8 40 19:38 22.12.2019
2124 Clouds 2 991 64 10000 1 0 19:19 22.12.2019
2125 Clouds 1 992 80 10000 10.8 40 18:42 22.12.2019
2126 Clouds 1 991 82 10000 2.6 160 18:23 22.12.2019
2127 Clouds 2 991 74 10000 9.8 40 17:56 22.12.2019
2128 Clouds 2 991 74 10000 9.8 40 17:38 22.12.2019
2129 Clouds 2 990 64 10000 1.5 100 17:19 22.12.2019
2130 Clouds 2 991 74 10000 11.3 30 16:57 22.12.2019
2131 Clouds 2 991 74 10000 11.3 30 16:38 22.12.2019
2132 Clouds 2 990 64 10000 1.5 170 16:20 22.12.2019
2133 Clouds 2 990 74 10000 10.3 30 15:56 22.12.2019
2134 Clouds 2 990 74 10000 10.3 30 15:37 22.12.2019
2135 Clouds 2 989 64 10000 2.6 250 15:19 22.12.2019
2136 Clouds 1 990 80 10000 9.3 30 14:55 22.12.2019
2137 Clouds 1 990 80 10000 9.3 30 14:36 22.12.2019
2138 Clouds 1 989 69 10000 2.6 160 14:18 22.12.2019
2139 Clouds 2 990 80 10000 9.3 30 13:55 22.12.2019
2140 Clouds 2 990 80 10000 9.3 30 13:36 22.12.2019
2141 Clouds 1 988 59 10000 6.2 30 13:18 22.12.2019
2142 Clouds 1 988 59 10000 6.2 30 13:18 22.12.2019
2143 Clouds 1 990 80 10000 10.8 30 12:55 22.12.2019
2144 Clouds 1 990 80 10000 10.8 30 12:37 22.12.2019
2145 Clouds 1 988 59 10000 8.2 30 12:18 22.12.2019
2146 Clouds 1 989 74 10000 12.9 30 11:54 22.12.2019
2147 Clouds 1 989 74 10000 12.9 30 11:36 22.12.2019
2148 Clouds 1 988 59 10000 10.8 20 11:18 22.12.2019
2149 Clouds 1 989 74 10000 12.3 30 10:54 22.12.2019
2150 Clouds 1 987 64 10000 13.4 20 10:36 22.12.2019
2151 Clouds 1 987 64 10000 13.4 20 10:18 22.12.2019
2152 Clouds 1 989 74 10000 12.9 30 09:41 22.12.2019
2153 Clouds 1 987 64 10000 14.4 20 09:22 22.12.2019
2154 Clouds 1 989 78 10000 13.9 20 08:59 22.12.2019
2155 Clouds 1 989 78 10000 13.9 20 08:38 22.12.2019
2156 Clouds 1 987 64 10000 13.4 20 08:20 22.12.2019
2157 Clouds 1 988 78 10000 15.4 20 07:39 22.12.2019
2158 Clouds 1 986 64 10000 13.9 20 07:20 22.12.2019
2159 Clouds 1 988 78 10000 13.4 30 06:41 22.12.2019
2160 Clouds 1 988 69 10000 15.4 30 05:54 22.12.2019
2161 Clouds 0 986 59 10000 13.4 20 05:23 22.12.2019
2162 Clouds 0 986 76 10000 13.9 20 04:30 22.12.2019
2163 Clouds 0 988 76 10000 13.4 30 03:56 22.12.2019
2164 Clouds 1 989 76 10000 15.4 40 02:42 22.12.2019
2165 Clouds 1 988 77 10000 13.4 30 01:51 22.12.2019
2166 Clouds 1 987 55 10000 7.2 30 01:30 22.12.2019
2167 Clouds 1 988 69 10000 14.9 30 00:47 22.12.2019
2168 Clouds 1 987 59 10000 10.8 20 00:24 22.12.2019
2169 Clouds 1 988 69 10000 13.9 30 23:57 21.12.2019
2170 Clouds 1 988 69 10000 13.9 30 23:38 21.12.2019
2171 Clouds 1 987 59 10000 10.3 30 23:19 21.12.2019
2172 Clouds 1 988 74 10000 13.9 30 22:41 21.12.2019
2173 Clouds 1 987 55 10000 8.7 40 22:19 21.12.2019
2174 Clouds 1 988 74 10000 13.9 30 21:57 21.12.2019
2175 Clouds 2 988 74 10000 13.9 30 21:38 21.12.2019
2176 Clouds 1 987 55 10000 9.3 40 21:20 21.12.2019
2177 Clouds 2 988 80 10000 12.9 30 20:59 21.12.2019
2178 Clouds 2 988 80 10000 12.9 30 20:39 21.12.2019
2179 Clouds 1 986 59 10000 7.2 40 20:21 21.12.2019
2180 Clouds 2 987 74 10000 13.4 30 19:58 21.12.2019
2181 Clouds 2 987 74 10000 13.4 30 19:40 21.12.2019
2182 Clouds 2 987 74 10000 13.4 30 19:40 21.12.2019
2183 Clouds 2 986 59 10000 8.2 30 19:19 21.12.2019
2184 Clouds 2 986 59 10000 8.2 30 19:19 21.12.2019
2185 Clouds 2 987 80 10000 10.8 30 18:45 21.12.2019
2186 Clouds 2 987 59 10000 4.1 50 18:24 21.12.2019
2187 Clouds 3 987 69 10000 12.3 40 17:58 21.12.2019
2188 Clouds 3 987 69 10000 12.3 40 17:39 21.12.2019
2189 Clouds 2 986 51 10000 7.7 50 17:21 21.12.2019
2190 Clouds 3 987 74 10000 12.9 40 16:59 21.12.2019
2191 Clouds 3 987 74 10000 12.9 40 16:41 21.12.2019
2192 Clouds 3 987 74 10000 12.9 40 16:41 21.12.2019
2193 Clouds 2 985 51 10000 2.1 60 16:19 21.12.2019
2194 Clouds 2 985 51 10000 2.1 60 16:19 21.12.2019
2195 Clouds 3 987 69 10000 12.3 40 15:57 21.12.2019
2196 Clouds 3 987 69 10000 12.3 40 15:38 21.12.2019
2197 Clouds 3 987 69 10000 12.3 40 15:38 21.12.2019
2198 Clouds 2 985 55 10000 4.6 50 15:19 21.12.2019
2199 Clouds 3 987 74 10000 13.4 40 14:57 21.12.2019
2200 Clouds 3 987 74 10000 13.4 40 14:38 21.12.2019
2201 Clouds 3 985 51 10000 5.7 30 14:19 21.12.2019
2202 Clouds 4 986 69 10000 13.4 30 13:56 21.12.2019
2203 Clouds 4 986 69 10000 13.4 30 13:37 21.12.2019
2204 Clouds 3 986 51 10000 5.7 20 13:18 21.12.2019
2205 Clouds 3 987 69 10000 11.8 30 12:55 21.12.2019
2206 Clouds 3 987 69 10000 11.8 30 12:37 21.12.2019
2207 Clouds 3 986 59 10000 5.7 10 12:18 21.12.2019
2208 Clouds 3 987 69 10000 11.8 40 11:43 21.12.2019
2209 Clouds 3 986 55 10000 7.2 20 11:25 21.12.2019
2210 Clouds 3 986 69 10000 13.9 40 10:56 21.12.2019
2211 Clouds 3 986 69 10000 13.9 40 10:38 21.12.2019
2212 Clouds 3 986 55 10000 5.7 10 10:19 21.12.2019
2213 Clouds 3 986 74 10000 13.4 40 09:43 21.12.2019
2214 Clouds 3 985 64 10000 5.1 10 09:22 21.12.2019
2215 Clouds 4 986 74 10000 12.3 40 08:59 21.12.2019
2216 Clouds 4 986 74 10000 12.3 40 08:39 21.12.2019
2217 Clouds 3 985 60 10000 5.7 30 08:21 21.12.2019
2218 Clouds 3 986 80 10000 11.8 40 07:44 21.12.2019
2219 Clouds 2 985 64 10000 9.3 30 07:22 21.12.2019
2220 Clouds 3 986 80 10000 11.8 40 06:45 21.12.2019
2221 Clouds 3 985 64 10000 11.3 10 06:26 21.12.2019
2222 Clouds 3 987 80 10000 10.8 40 05:51 21.12.2019
2223 Clouds 2 987 80 10000 10.3 40 04:58 21.12.2019
2224 Clouds 1 987 74 10000 10.3 30 03:59 21.12.2019
2225 Clouds 2 986 64 10000 1.5 320 03:18 21.12.2019
2226 Clear 2 987 64 10000 6.2 360 02:18 21.12.2019
2227 Clear 2 987 80 10000 7.7 40 01:38 21.12.2019
2228 Clouds 2 987 64 10000 3.1 10 01:20 21.12.2019
2229 Clouds 2 988 80 10000 8.2 40 00:37 21.12.2019
2230 Clouds 2 988 59 10000 3.6 10 00:18 21.12.2019
2231 Clouds 2 988 86 10000 5.7 20 23:38 20.12.2019
2232 Clouds 2 988 51 10000 3.1 60 23:19 20.12.2019
2233 Clouds 2 988 86 10000 5.1 40 22:43 20.12.2019
2234 Clouds 2 988 55 10000 2.6 10 22:21 20.12.2019
2235 Clouds 3 989 80 10000 4.6 40 21:59 20.12.2019
2236 Clouds 3 989 80 10000 4.6 40 21:40 20.12.2019
2237 Clouds 2 988 48 10000 6.2 80 21:20 20.12.2019
2238 Clouds 2 989 86 10000 5.1 40 20:55 20.12.2019
2239 Clouds 2 989 86 10000 5.1 40 20:36 20.12.2019
2240 Clouds 2 989 55 10000 3.1 20 20:18 20.12.2019
2241 Clouds 2 989 86 10000 5.7 40 19:41 20.12.2019
2242 Clouds 2 988 55 10000 5.1 40 19:20 20.12.2019
2243 Clouds 2 989 80 10000 4.1 40 18:58 20.12.2019
2244 Clouds 2 989 80 10000 4.1 40 18:38 20.12.2019
2245 Clouds 2 989 55 10000 2.1 50 18:20 20.12.2019
2246 Clouds 3 989 80 10000 7.2 30 17:54 20.12.2019
2247 Clouds 3 989 80 10000 7.2 30 17:36 20.12.2019
2248 Clouds 3 989 51 10000 5.1 50 17:18 20.12.2019
2249 Clouds 3 989 71 10000 5.7 40 16:40 20.12.2019
2250 Clouds 3 989 55 10000 2.1 210 16:20 20.12.2019
2251 Clouds 3 989 55 10000 2.1 210 16:20 20.12.2019
2252 Clouds 4 990 64 10000 5.7 50 15:57 20.12.2019
2253 Clouds 4 990 64 10000 5.7 50 15:39 20.12.2019
2254 Clouds 3 990 51 10000 3.1 70 15:20 20.12.2019
2255 Clouds 4 990 74 10000 5.7 60 14:59 20.12.2019
2256 Clouds 4 990 74 10000 5.7 60 14:40 20.12.2019
2257 Clouds 4 990 55 10000 4.1 30 14:22 20.12.2019
2258 Clouds 4 990 74 10000 6.2 50 13:55 20.12.2019
2259 Clouds 4 990 74 10000 6.2 50 13:36 20.12.2019
2260 Clouds 4 990 52 10000 8.7 90 13:18 20.12.2019
2261 Clouds 4 991 74 10000 7.2 60 12:41 20.12.2019
2262 Clouds 4 990 52 10000 6.2 80 12:19 20.12.2019
2263 Rain 3 991 69 10000 7.2 70 11:59 20.12.2019
2264 Rain 3 991 69 10000 7.2 70 11:40 20.12.2019
2265 Clouds 4 990 48 10000 2.1 0 11:21 20.12.2019
2266 Clouds 4 991 64 10000 7.2 60 10:59 20.12.2019
2267 Clouds 4 991 64 10000 7.2 60 10:41 20.12.2019
2268 Clouds 3 990 55 10000 2.6 50 10:21 20.12.2019
2269 Clouds 4 991 64 10000 8.2 60 09:58 20.12.2019
2270 Clouds 4 991 64 10000 8.2 60 09:40 20.12.2019
2271 Clouds 3 990 52 10000 6.7 90 09:20 20.12.2019
2272 Clouds 3 990 65 10000 7.2 30 08:44 20.12.2019
2273 Rain 3 990 52 10000 6.2 80 08:26 20.12.2019
2274 Clouds 3 990 70 10000 7.7 40 07:59 20.12.2019
2275 Clouds 3 990 70 10000 7.7 40 07:41 20.12.2019
2276 Clouds 2 990 55 10000 4.6 90 07:20 20.12.2019
2277 Clouds 3 991 70 10000 8.7 40 06:52 20.12.2019
2278 Rain 2 990 55 10000 6.7 60 06:33 20.12.2019
2279 Snow 1 991 70 2000 8.2 40 05:56 20.12.2019
2280 Snow 1 991 70 2000 8.2 40 05:37 20.12.2019
2281 Snow 1 991 70 2000 8.2 40 05:37 20.12.2019
2282 Snow 1 991 86 6000 9.3 70 04:33 20.12.2019
2283 Snow 1 992 80 5000 8.2 80 03:31 20.12.2019
2284 Snow 1 993 71 3500 8.7 40 02:44 20.12.2019
2285 Clouds 1 993 74 10000 10.3 40 01:54 20.12.2019
2286 Clouds 2 992 51 10000 6.2 60 01:34 20.12.2019
2287 Rain 1 993 69 10000 10.8 40 00:49 20.12.2019
2288 Clouds 1 992 64 10000 8.2 20 00:30 20.12.2019
2289 Clouds 1 993 74 10000 10.8 30 23:56 19.12.2019
2290 Clouds 1 993 74 10000 10.8 30 23:38 19.12.2019
2291 Clouds 1 993 64 10000 8.2 10 23:18 19.12.2019
2292 Clouds 1 994 69 10000 11.3 40 22:38 19.12.2019
2293 Clouds 1 993 64 10000 8.2 360 22:20 19.12.2019
2294 Clouds 1 995 74 10000 12.9 40 21:56 19.12.2019
2295 Clouds 1 995 74 10000 12.9 40 21:38 19.12.2019
2296 Clouds 1 994 59 10000 8.2 20 21:19 19.12.2019
2297 Clouds 1 995 74 10000 12.9 30 20:56 19.12.2019
2298 Clouds 1 995 74 10000 12.9 30 20:37 19.12.2019
2299 Clouds 1 995 74 10000 12.9 30 20:37 19.12.2019
2300 Clouds 1 995 59 10000 8.7 20 20:18 19.12.2019
2301 Clouds 1 995 59 10000 8.7 20 20:18 19.12.2019
2302 Clouds 1 996 69 10000 12.3 40 19:57 19.12.2019
2303 Clouds 1 996 69 10000 12.3 40 19:57 19.12.2019
2304 Clouds 1 996 69 10000 12.3 40 19:39 19.12.2019
2305 Clouds 1 995 65 10000 10.8 10 19:19 19.12.2019
2306 Clouds 1 996 69 10000 12.9 40 18:55 19.12.2019
2307 Clouds 1 996 69 10000 12.9 40 18:37 19.12.2019
2308 Clouds 1 996 59 10000 6.2 20 18:18 19.12.2019
2309 Clouds 1 997 69 10000 13.4 30 17:54 19.12.2019
2310 Clouds 1 996 59 10000 6.2 360 17:36 19.12.2019
2311 Clouds 1 996 59 10000 6.2 360 17:18 19.12.2019
2312 Clouds 1 997 69 10000 12.9 40 16:54 19.12.2019
2313 Clouds 1 997 69 10000 12.9 40 16:36 19.12.2019
2314 Clouds 1 997 65 10000 8.2 10 16:18 19.12.2019
2315 Clouds 0 998 65 10000 11.8 40 15:54 19.12.2019
2316 Clouds 0 998 65 10000 6.2 360 15:36 19.12.2019
2317 Clouds 0 998 65 10000 6.2 360 15:18 19.12.2019
2318 Clouds 0 998 65 10000 9.8 30 14:42 19.12.2019
2319 Clouds 0 998 70 10000 6.7 360 14:20 19.12.2019
2320 Clouds 0 999 70 10000 9.3 30 13:58 19.12.2019
2321 Clouds 0 999 70 10000 9.3 30 13:38 19.12.2019
2322 Clouds 0 999 66 10000 6.2 360 13:19 19.12.2019
2323 Clouds 0 1000 66 10000 9.8 30 12:57 19.12.2019
2324 Clouds 0 1000 66 10000 9.8 30 12:38 19.12.2019
2325 Clouds 0 1000 66 10000 6.2 360 12:19 19.12.2019
2326 Clouds 0 1000 66 10000 6.2 360 12:19 19.12.2019
2327 Clouds 0 1000 66 10000 9.8 30 11:58 19.12.2019
2328 Clouds 0 1000 66 10000 9.8 30 11:39 19.12.2019
2329 Clouds -1 1000 63 10000 4.6 360 11:18 19.12.2019
2330 Clouds -1 1000 63 10000 4.6 360 11:18 19.12.2019
2331 Clouds -1 1001 71 10000 9.3 30 10:56 19.12.2019
2332 Clouds -1 1001 71 10000 9.3 30 10:37 19.12.2019
2333 Clouds 0 1001 63 10000 6.7 10 10:19 19.12.2019
2334 Clouds 0 1001 71 10000 8.2 30 09:40 19.12.2019
2335 Clouds 0 1001 71 10000 8.2 30 09:40 19.12.2019
2336 Clouds 0 1001 63 10000 3.1 20 09:21 19.12.2019
2337 Clouds -1 1001 68 10000 7.7 30 08:58 19.12.2019
2338 Clouds -1 1001 68 10000 7.7 30 08:40 19.12.2019
2339 Clear -1 1002 58 10000 2.6 20 08:19 19.12.2019
2340 Clear -1 1002 68 10000 7.7 30 07:57 19.12.2019
2341 Clear -1 1002 68 10000 7.7 30 07:38 19.12.2019
2342 Clear -1 1002 54 10000 2.1 20 07:19 19.12.2019
2343 Clear -1 1002 68 10000 6.7 30 06:50 19.12.2019
2344 Clear -1 1002 69 10000 2.6 60 06:29 19.12.2019
2345 Clear -1 1002 74 10000 6.2 40 05:55 19.12.2019
2346 Clear -1 1002 74 10000 6.2 40 05:36 19.12.2019
2347 Clear 0 1003 64 10000 6.2 40 04:52 19.12.2019
2348 Clear 0 1003 64 10000 2.1 40 03:21 19.12.2019
2349 Clouds -1 1004 54 10000 2.6 20 02:23 19.12.2019
2350 Clouds 0 1004 64 10000 4.1 70 01:23 19.12.2019
2351 Clouds 0 1004 64 10000 8.7 60 00:43 19.12.2019
2352 Clouds 0 1004 43 10000 5.1 60 00:24 19.12.2019
2353 Clouds 0 1004 50 10000 7.2 60 23:57 18.12.2019
2354 Clouds 0 1004 50 10000 7.2 60 23:38 18.12.2019
2355 Clouds 1 1004 64 10000 8.7 70 23:18 18.12.2019
2356 Clouds 1 1004 64 10000 5.7 40 22:55 18.12.2019
2357 Clouds 1 1004 64 10000 5.7 40 22:37 18.12.2019
2358 Clouds 1 1004 40 10000 7.7 70 22:19 18.12.2019
2359 Clouds 0 1004 64 10000 4.1 50 21:56 18.12.2019
2360 Clouds 0 1004 64 10000 4.1 50 21:38 18.12.2019
2361 Clouds 0 1004 64 10000 6.2 50 21:19 18.12.2019
2362 Clouds 0 1004 64 10000 6.7 50 20:55 18.12.2019
2363 Clouds 0 1004 64 10000 4.1 30 20:37 18.12.2019
2364 Clouds 0 1004 70 10000 4.1 30 20:19 18.12.2019
2365 Clouds 1 1004 70 10000 5.7 50 19:55 18.12.2019
2366 Clouds 1 1004 70 10000 5.7 50 19:37 18.12.2019
2367 Clouds 0 1004 43 10000 3.1 20 19:18 18.12.2019
2368 Clouds 0 1004 43 10000 3.1 20 19:18 18.12.2019
2369 Clouds 0 1004 68 10000 5.7 40 18:44 18.12.2019
2370 Clouds 1 1004 43 10000 5.7 70 18:25 18.12.2019
2371 Clouds 1 1004 43 10000 5.7 70 18:25 18.12.2019
2372 Clouds 1 1004 70 10000 6.2 50 17:57 18.12.2019
2373 Clouds 1 1004 70 10000 6.2 50 17:39 18.12.2019
2374 Clouds 0 1004 47 10000 5.7 80 17:19 18.12.2019
2375 Clouds 0 1004 55 10000 6.7 60 16:56 18.12.2019
2376 Clouds 1 1004 55 10000 6.7 60 16:38 18.12.2019
2377 Clouds 0 1004 47 10000 5.7 80 16:20 18.12.2019
2378 Clouds 0 1004 66 10000 7.2 60 15:55 18.12.2019
2379 Clouds 0 1004 66 10000 4.6 100 15:37 18.12.2019
2380 Clouds 0 1004 66 10000 4.6 100 15:18 18.12.2019
2381 Clouds 0 1004 59 10000 9.8 70 14:42 18.12.2019
2382 Clouds 0 1005 47 10000 4.6 80 14:22 18.12.2019
2383 Clouds 0 1004 64 10000 8.2 50 13:57 18.12.2019
2384 Clouds 0 1004 64 10000 8.2 50 13:38 18.12.2019
2385 Clouds 0 1004 47 10000 3.6 80 13:20 18.12.2019
2386 Clouds 0 1004 69 10000 8.2 50 12:57 18.12.2019
2387 Clouds 0 1004 69 10000 8.2 50 12:38 18.12.2019
2388 Clouds -1 1004 69 10000 3.6 30 12:19 18.12.2019
2389 Clouds -1 1004 69 10000 9.8 50 11:56 18.12.2019
2390 Clouds 0 1004 69 10000 4.1 50 11:38 18.12.2019
2391 Clear 0 1004 73 10000 4.1 50 11:19 18.12.2019
2392 Clear 0 1004 73 10000 8.7 40 10:55 18.12.2019
2393 Clear 0 1004 73 10000 8.7 40 10:37 18.12.2019
2394 Clear 0 1004 73 10000 5.1 40 10:19 18.12.2019
2395 Clouds 0 1004 73 10000 7.7 40 09:50 18.12.2019
2396 Clouds 0 1004 73 10000 7.7 40 09:50 18.12.2019
2397 Clear 0 1004 73 10000 3.6 60 09:18 18.12.2019
2398 Clear -1 1004 73 10000 7.2 40 08:41 18.12.2019
2399 Clouds 0 1004 54 10000 3.1 30 08:22 18.12.2019
2400 Clouds -2 1004 77 10000 7.7 40 07:45 18.12.2019
2401 Clouds -2 1004 68 10000 2.1 150 07:24 18.12.2019
2402 Clouds -2 1004 77 10000 10.3 30 06:57 18.12.2019
2403 Clouds -1 1004 63 10000 4.44 50 06:28 18.12.2019
2404 Clouds -2 1004 80 10000 10.3 30 05:57 18.12.2019
2405 Clouds -1 1005 74 10000 8.7 30 04:59 18.12.2019
2406 Clouds -1 1004 54 10000 3.6 30 03:31 18.12.2019
2407 Clouds -1 1005 74 10000 9.3 40 02:38 18.12.2019
2408 Clear -1 1005 54 10000 2.6 60 02:20 18.12.2019
2409 Clear -2 1005 74 10000 9.8 40 01:42 18.12.2019
2410 Clouds -1 1005 58 10000 2.6 110 01:23 18.12.2019
2411 Clouds -2 1005 74 10000 9.8 30 00:41 18.12.2019
2412 Clouds -1 1005 58 10000 2.1 160 00:23 18.12.2019
2413 Clouds 0 1005 88 10000 10.3 30 23:57 17.12.2019
2414 Clouds 0 1005 88 10000 10.3 30 23:39 17.12.2019
2415 Clear 0 1005 88 10000 1.5 30 23:19 17.12.2019
2416 Clear 0 1005 88 10000 11.3 30 22:56 17.12.2019
2417 Clear -1 1005 88 10000 11.3 30 22:38 17.12.2019
2418 Clear -1 1005 88 10000 5.1 50 22:19 17.12.2019
2419 Clear 0 1005 88 10000 9.8 40 21:56 17.12.2019
2420 Clear 0 1005 88 10000 9.8 40 21:38 17.12.2019
2421 Clear 0 1005 88 10000 3.6 60 21:19 17.12.2019
2422 Clear 0 1005 80 10000 8.7 40 20:57 17.12.2019
2423 Clear 0 1005 80 10000 8.7 40 20:38 17.12.2019
2424 Clouds 0 1005 84 10000 9.8 30 20:18 17.12.2019
2425 Clouds 0 1005 80 10000 7.7 40 19:56 17.12.2019
2426 Clouds 0 1005 80 10000 7.7 40 19:38 17.12.2019
2427 Clouds 0 1005 84 10000 10.3 30 19:18 17.12.2019
2428 Clouds -1 1005 84 10000 9.3 30 18:55 17.12.2019
2429 Clouds -1 1005 84 10000 9.3 30 18:37 17.12.2019
2430 Clouds 0 1005 84 10000 9.3 20 18:19 17.12.2019
2431 Clouds 0 1005 84 10000 7.7 30 17:42 17.12.2019
2432 Clouds 0 1005 84 10000 7.7 30 17:42 17.12.2019
2433 Clouds 0 1005 84 10000 7.7 30 17:42 17.12.2019
2434 Clouds -1 1005 84 10000 10.8 20 17:21 17.12.2019
2435 Clouds -1 1006 84 10000 7.7 40 16:57 17.12.2019
2436 Clouds -1 1006 84 10000 7.7 40 16:57 17.12.2019
2437 Clouds -1 1006 84 10000 5.7 30 16:38 17.12.2019
2438 Clouds 0 1006 84 10000 5.7 30 16:19 17.12.2019
2439 Clouds -1 1006 84 10000 9.8 30 15:59 17.12.2019
2440 Clouds 0 1006 84 10000 8.2 20 15:38 17.12.2019
2441 Clouds 0 1006 84 10000 8.2 20 15:19 17.12.2019
2442 Clouds 0 1006 84 10000 11.3 40 14:56 17.12.2019
2443 Clouds 0 1006 84 10000 11.3 40 14:38 17.12.2019
2444 Clouds 0 1006 86 10000 5.1 10 14:19 17.12.2019
2445 Clouds 1 1007 86 10000 10.8 40 13:56 17.12.2019
2446 Clouds 1 1007 86 10000 10.8 40 13:38 17.12.2019
2447 Clouds 0 1006 55 10000 1.5 0 13:19 17.12.2019
2448 Clouds 0 1006 55 10000 1.5 0 13:19 17.12.2019
2449 Clouds 0 1006 59 10000 2.1 50 12:58 17.12.2019
2450 Clouds 0 1006 59 10000 2.1 50 12:38 17.12.2019
2451 Clouds 0 1006 59 10000 2.1 50 12:18 17.12.2019
2452 Clouds 0 1007 86 10000 10.8 30 11:56 17.12.2019
2453 Clouds 0 1007 86 10000 10.8 30 11:36 17.12.2019
2454 Clouds 0 1006 90 10000 9.3 20 11:18 17.12.2019
2455 Clouds 0 1007 90 10000 10.8 30 10:56 17.12.2019
2456 Clouds -1 1007 90 10000 10.8 30 10:37 17.12.2019
2457 Clouds -1 1007 90 10000 6.7 40 10:19 17.12.2019
2458 Clouds 0 1007 90 10000 10.3 30 09:42 17.12.2019
2459 Clouds -1 1007 90 10000 6.2 30 09:22 17.12.2019
2460 Clouds -1 1008 90 10000 9.8 30 08:59 17.12.2019
2461 Clouds -1 1008 90 10000 9.8 30 08:40 17.12.2019
2462 Clouds 0 1007 85 10000 10.3 30 08:22 17.12.2019
2463 Clouds 0 1007 85 10000 10.3 30 08:22 17.12.2019
2464 Clouds 0 1008 80 10000 9.8 20 07:58 17.12.2019
2465 Clouds 0 1008 80 10000 9.8 20 07:39 17.12.2019
2466 Clouds 0 1007 85 10000 10.8 20 07:21 17.12.2019
2467 Clouds -1 1008 74 10000 7.7 30 06:42 17.12.2019
2468 Clear -1 1008 85 10000 8.7 20 06:24 17.12.2019
2469 Clear -1 1008 85 10000 8.7 20 06:24 17.12.2019
2470 Clear 0 1008 74 10000 5.1 40 05:41 17.12.2019
2471 Clear 0 1009 80 10000 8.7 50 04:53 17.12.2019
2472 Clear 0 1009 74 10000 8.2 40 03:51 17.12.2019
2473 Clear -1 1009 73 10000 3.1 20 02:26 17.12.2019
2474 Clear 0 1008 75 10000 4.6 50 01:22 17.12.2019
2475 Clear 0 1009 68 10000 11.3 40 00:47 17.12.2019
2476 Clear -1 1008 75 10000 6.2 40 00:21 17.12.2019
2477 Clear -1 1008 75 10000 6.2 40 00:21 17.12.2019
2478 Clear -2 1009 63 10000 7.7 50 23:57 16.12.2019
2479 Clear -2 1009 63 10000 7.7 50 23:38 16.12.2019
2480 Clear -2 1009 58 10000 2.1 120 23:18 16.12.2019
2481 Clear -1 1008 68 10000 8.7 50 22:54 16.12.2019
2482 Clear -1 1008 68 10000 8.7 50 22:36 16.12.2019
2483 Clear -1 1008 54 10000 3.1 80 22:18 16.12.2019
2484 Clear -1 1008 74 10000 6.7 70 21:54 16.12.2019
2485 Clear -1 1008 74 10000 6.7 70 21:36 16.12.2019
2486 Clear -1 1008 58 10000 4.6 60 21:18 16.12.2019
2487 Clear -1 1008 68 10000 12.9 40 20:54 16.12.2019
2488 Clear -1 1008 68 10000 12.9 40 20:36 16.12.2019
2489 Clouds -1 1007 54 10000 2.6 110 20:18 16.12.2019
2490 Clouds -1 1008 76 10000 10.3 50 19:54 16.12.2019
2491 Clouds -1 1008 76 10000 10.3 50 19:36 16.12.2019
2492 Clouds 0 1007 54 10000 2.6 20 19:18 16.12.2019
2493 Clouds 0 1007 54 10000 2.6 20 19:18 16.12.2019
2494 Clouds 0 1007 76 10000 11.3 30 18:42 16.12.2019
2495 Clouds 0 1007 76 10000 11.3 30 18:42 16.12.2019
2496 Clouds 0 1006 76 10000 4.1 70 18:20 16.12.2019
2497 Clouds 0 1006 76 10000 4.1 70 18:20 16.12.2019
2498 Clouds 1 1007 76 10000 9.8 40 17:59 16.12.2019
2499 Clouds 1 1007 76 10000 9.8 40 17:41 16.12.2019
2500 Clouds 0 1006 47 10000 2.6 0 17:22 16.12.2019
2501 Clouds 1 1007 68 10000 12.9 40 16:58 16.12.2019
2502 Clouds 1 1007 68 10000 12.9 40 16:39 16.12.2019
2503 Clouds 1 1006 50 10000 2.1 0 16:20 16.12.2019
2504 Clouds 2 1006 74 10000 10.8 40 15:59 16.12.2019
2505 Clouds 2 1006 74 10000 10.8 40 15:39 16.12.2019
2506 Clouds 1 1005 55 10000 4.6 80 15:21 16.12.2019
2507 Clouds 3 1006 74 10000 10.3 40 14:58 16.12.2019
2508 Clouds 3 1006 74 10000 10.3 40 14:38 16.12.2019
2509 Clouds 2 1005 55 10000 1.5 320 14:20 16.12.2019
2510 Clouds 1 1005 74 10000 10.3 40 13:58 16.12.2019
2511 Clouds 2 1004 64 10000 7.2 50 13:38 16.12.2019
2512 Clouds 2 1004 64 10000 7.2 50 13:20 16.12.2019
2513 Clouds 3 1005 80 10000 10.3 40 12:58 16.12.2019
2514 Clouds 2 1005 80 10000 10.3 40 12:40 16.12.2019
2515 Clouds 3 1004 55 10000 2.1 20 12:20 16.12.2019
2516 Clouds 3 1004 74 10000 10.8 40 11:59 16.12.2019
2517 Clouds 4 1004 74 10000 10.8 40 11:41 16.12.2019
2518 Clouds 3 1003 55 10000 2.6 360 11:21 16.12.2019
2519 Clouds 1 1003 80 10000 9.8 50 10:58 16.12.2019
2520 Clouds 1 1003 80 10000 9.8 50 10:40 16.12.2019
2521 Clouds 1 1003 80 10000 9.8 50 10:40 16.12.2019
2522 Clouds 2 1002 69 10000 2.6 350 10:20 16.12.2019
2523 Clouds -1 1002 74 10000 3.1 40 09:46 16.12.2019
2524 Clouds 0 1002 68 10000 2.1 20 09:28 16.12.2019
2525 Clouds 0 1001 80 10000 5.1 40 08:58 16.12.2019
2526 Clouds 0 1001 79 10000 2.1 150 08:38 16.12.2019
2527 Clouds -2 1001 79 10000 2.1 150 08:19 16.12.2019
2528 Clouds -3 1000 74 10000 5.1 30 07:49 16.12.2019
2529 Clouds -3 1000 79 10000 2.62 38 07:30 16.12.2019
2530 Clouds -4 999 86 10000 3.1 50 06:46 16.12.2019
2531 Clouds -4 999 79 10000 0.5 0 06:26 16.12.2019
2532 Clouds -3 999 74 10000 5.1 40 05:56 16.12.2019
2533 Clouds -3 999 74 10000 5.1 40 05:35 16.12.2019
2534 Clouds -4 998 73 10000 1.5 150 04:33 16.12.2019
2535 Clouds -2 998 77 10000 6.7 20 02:49 16.12.2019
2536 Clouds -1 997 81 10000 7.2 20 01:45 16.12.2019
2537 Clouds -1 997 82 10000 7.7 20 00:55 16.12.2019
2538 Clouds -1 997 82 10000 7.7 20 00:36 16.12.2019
2539 Clouds 0 996 74 10000 2.6 120 00:18 16.12.2019
2540 Clouds -1 997 82 10000 7.2 10 23:40 15.12.2019
2541 Clouds -1 996 74 10000 2.6 170 23:21 15.12.2019
2542 Clouds 1 997 88 10000 8.2 10 22:56 15.12.2019
2543 Clouds 1 997 88 10000 8.2 10 22:38 15.12.2019
2544 Clouds 0 996 59 10000 2.1 70 22:19 15.12.2019
2545 Clouds 1 997 88 10000 7.7 10 21:57 15.12.2019
2546 Clouds 1 997 88 10000 7.7 10 21:38 15.12.2019
2547 Clouds 0 996 59 10000 7.2 350 21:19 15.12.2019
2548 Clouds 0 996 86 10000 7.7 10 20:57 15.12.2019
2549 Clouds 0 996 86 10000 7.7 10 20:38 15.12.2019
2550 Clouds 0 996 59 10000 8.2 360 20:19 15.12.2019
2551 Clouds 0 996 80 10000 7.2 10 19:57 15.12.2019
2552 Clouds 0 996 80 10000 7.2 10 19:39 15.12.2019
2553 Clouds 0 995 59 10000 6.7 10 19:19 15.12.2019
2554 Clouds 1 996 88 10000 7.7 20 18:57 15.12.2019
2555 Clouds 1 996 88 10000 7.7 20 18:38 15.12.2019
2556 Clouds 1 996 88 10000 7.7 20 18:38 15.12.2019
2557 Clouds 0 995 59 10000 7.2 20 18:18 15.12.2019
2558 Clouds 0 995 86 10000 4.6 40 17:56 15.12.2019
2559 Clouds 0 995 86 10000 4.6 40 17:37 15.12.2019
2560 Clouds 0 994 89 10000 8.7 350 17:19 15.12.2019
2561 Clouds 0 995 88 10000 6.2 30 16:57 15.12.2019
2562 Clouds 0 995 89 10000 6.2 30 16:39 15.12.2019
2563 Clouds -1 994 89 10000 7.2 340 16:20 15.12.2019
2564 Clouds 0 995 86 10000 6.2 10 15:55 15.12.2019
2565 Clouds 0 995 86 10000 6.2 10 15:37 15.12.2019
2566 Clouds 0 994 88 10000 2.6 80 15:18 15.12.2019
2567 Clouds 0 994 86 10000 5.7 20 14:55 15.12.2019
2568 Clouds 0 994 86 10000 5.7 20 14:55 15.12.2019
2569 Clouds 0 994 86 10000 5.7 20 14:36 15.12.2019
2570 Clouds -1 994 87 10000 2.1 30 14:18 15.12.2019
2571 Clouds -2 994 86 10000 5.1 20 13:55 15.12.2019
2572 Clouds -2 994 86 10000 5.1 20 13:36 15.12.2019
2573 Clouds -1 994 74 10000 1 0 13:18 15.12.2019
2574 Clouds -1 994 74 10000 1 0 13:18 15.12.2019
2575 Clouds -1 994 89 10000 6.2 20 12:56 15.12.2019
2576 Clouds -1 994 89 10000 6.2 20 12:37 15.12.2019
2577 Clouds -1 993 74 10000 1 0 12:19 15.12.2019
2578 Clouds -3 993 86 10000 6.2 360 11:38 15.12.2019
2579 Clouds -3 993 79 10000 1 0 11:20 15.12.2019
2580 Clouds -2 992 86 10000 6.2 360 10:58 15.12.2019
2581 Clouds -2 992 86 10000 6.2 360 10:40 15.12.2019
2582 Clouds -1 992 73 10000 0.5 0 10:20 15.12.2019
2583 Rain -2 992 87 10000 3.6 20 09:59 15.12.2019
2584 Rain -2 992 87 10000 3.6 20 09:38 15.12.2019
2585 Clouds -2 991 79 10000 1.5 350 09:20 15.12.2019
2586 Rain -2 991 80 10000 2.1 40 08:55 15.12.2019
2587 Rain -2 991 80 10000 2.1 40 08:37 15.12.2019
2588 Clouds -2 991 68 10000 5.29 348 08:19 15.12.2019
2589 Clouds -1 991 78 10000 4.6 20 07:53 15.12.2019
2590 Clouds -1 991 63 10000 1 90 07:32 15.12.2019
2591 Clouds -2 991 73 10000 1.5 140 06:30 15.12.2019
2592 Clouds -2 991 68 10000 5.7 340 05:50 15.12.2019
2593 Clear -3 991 63 10000 2.1 360 05:23 15.12.2019
2594 Clouds -3 991 63 10000 2.1 350 04:24 15.12.2019
2595 Clear -2 991 63 10000 6.2 330 03:22 15.12.2019
2596 Clouds -3 992 68 10000 4.6 360 02:32 15.12.2019
2597 Clouds -3 992 73 10000 7.2 10 01:43 15.12.2019
2598 Clouds -3 992 68 10000 7.7 360 01:20 15.12.2019
2599 Clouds -3 992 73 10000 7.2 10 00:53 15.12.2019
2600 Clouds -3 992 68 10000 6.7 360 00:34 15.12.2019
2601 Clouds -4 992 73 10000 5.7 20 23:56 14.12.2019
2602 Clouds -4 992 73 10000 5.7 20 23:38 14.12.2019
2603 Clouds -4 991 68 10000 6.7 350 23:18 14.12.2019
2604 Clouds -4 992 79 10000 6.2 20 22:56 14.12.2019
2605 Clouds -4 992 79 10000 6.2 20 22:37 14.12.2019
2606 Clear -4 991 62 10000 4.1 20 22:19 14.12.2019
2607 Clouds -7 991 73 10000 6.7 30 21:55 14.12.2019
2608 Clouds -7 991 73 10000 6.7 30 21:37 14.12.2019
2609 Clear -7 991 67 10000 1 0 21:18 14.12.2019
2610 Clear -8 991 68 10000 4.6 20 20:42 14.12.2019
2611 Clear -8 990 56 10000 1 70 20:20 14.12.2019
2612 Clear -9 990 62 10000 1 60 19:59 14.12.2019
2613 Clear -9 990 62 10000 1 60 19:39 14.12.2019
2614 Clear -9 990 56 10000 1.5 110 19:21 14.12.2019
2615 Clouds -9 990 57 10000 2.6 90 18:57 14.12.2019
2616 Clouds -10 990 57 10000 2.6 90 18:38 14.12.2019
2617 Clouds -10 990 57 10000 2.6 90 18:38 14.12.2019
2618 Clear -10 990 66 10000 1 0 18:20 14.12.2019
2619 Clouds -9 989 67 10000 2.6 60 17:57 14.12.2019
2620 Clouds -10 989 67 10000 2.6 60 17:38 14.12.2019
2621 Clear -9 989 56 10000 2.1 90 17:20 14.12.2019
2622 Clouds -9 989 67 10000 3.6 80 16:41 14.12.2019
2623 Clear -9 989 57 10000 2.6 130 16:19 14.12.2019
2624 Clouds -8 989 53 10000 4.6 70 15:55 14.12.2019
2625 Clouds -7 989 53 10000 4.6 70 15:37 14.12.2019
2626 Clear -7 989 57 10000 1.5 30 15:19 14.12.2019
2627 Clouds -7 988 67 10000 4.6 70 14:54 14.12.2019
2628 Clouds -7 988 67 10000 4.6 70 14:36 14.12.2019
2629 Clear -7 988 52 10000 2.6 90 14:18 14.12.2019
2630 Clouds -8 988 62 10000 5.1 70 13:42 14.12.2019
2631 Clear -7 988 52 10000 3.1 70 13:19 14.12.2019
2632 Clear -7 988 52 10000 3.1 70 13:19 14.12.2019
2633 Clouds -7 987 73 10000 2.6 70 12:57 14.12.2019
2634 Clouds -8 987 73 10000 2.6 70 12:38 14.12.2019
2635 Clouds -8 987 73 10000 2.6 70 12:38 14.12.2019
2636 Clear -8 988 52 10000 3.6 50 12:20 14.12.2019
2637 Clouds -8 987 57 10000 5.1 60 11:56 14.12.2019
2638 Clouds -8 987 57 10000 5.1 60 11:38 14.12.2019
2639 Clear -6 987 52 10000 1.5 70 11:19 14.12.2019
2640 Clouds -6 987 67 10000 4.1 50 10:56 14.12.2019
2641 Clouds -6 987 67 10000 4.1 50 10:38 14.12.2019
2642 Clear -6 987 52 10000 4.1 70 10:20 14.12.2019
2643 Clouds -6 986 62 10000 2.6 80 09:43 14.12.2019
2644 Clear -7 987 52 10000 3.6 90 09:23 14.12.2019
2645 Clouds -7 986 62 10000 4.1 70 08:59 14.12.2019
2646 Clouds -7 986 62 10000 4.1 70 08:59 14.12.2019
2647 Clouds -7 986 62 10000 4.1 70 08:40 14.12.2019
2648 Clear -8 986 57 10000 2.6 70 08:19 14.12.2019
2649 Clouds -8 986 73 10000 2.6 70 07:41 14.12.2019
2650 Clear -8 986 57 10000 2.6 60 07:22 14.12.2019
2651 Clear -7 986 73 10000 4.6 70 06:55 14.12.2019
2652 Clouds -7 986 57 10000 3.1 50 06:36 14.12.2019
2653 Clear -7 986 67 10000 3.1 60 05:56 14.12.2019
2654 Clouds -7 986 68 10000 5.1 50 04:35 14.12.2019
2655 Clouds -5 986 53 10000 3.1 70 02:25 14.12.2019
2656 Clouds -6 986 73 10000 6.7 50 01:46 14.12.2019
2657 Clouds -5 986 53 10000 3.6 70 01:28 14.12.2019
2658 Clouds -5 986 68 10000 7.2 50 00:44 14.12.2019
2659 Clouds -5 986 53 10000 3.6 70 00:26 14.12.2019
2660 Clouds -5 986 68 10000 5.7 50 23:43 13.12.2019
2661 Clouds -5 986 57 10000 3.1 50 23:22 13.12.2019
2662 Clouds -5 986 68 10000 7.2 50 23:00 13.12.2019
2663 Clouds -5 986 68 10000 7.2 50 22:40 13.12.2019
2664 Clouds -5 986 57 10000 4.1 70 22:19 13.12.2019
2665 Clouds -5 986 73 10000 6.7 50 21:55 13.12.2019
2666 Clouds -5 986 73 10000 6.7 50 21:37 13.12.2019
2667 Clouds -5 986 57 10000 6.7 80 21:19 13.12.2019
2668 Clouds -5 986 68 10000 7.2 50 20:40 13.12.2019
2669 Clouds -4 986 49 10000 7.2 80 20:21 13.12.2019
2670 Clouds -5 986 68 10000 7.7 60 19:58 13.12.2019
2671 Clouds -5 986 68 10000 7.7 60 19:40 13.12.2019
2672 Clouds -4 986 53 10000 6.2 80 19:21 13.12.2019
2673 Clouds -5 985 62 10000 6.7 60 18:58 13.12.2019
2674 Clouds -5 985 62 10000 6.7 60 18:40 13.12.2019
2675 Clouds -4 985 53 10000 8.2 80 18:19 13.12.2019
2676 Clouds -5 985 62 10000 6.7 60 17:43 13.12.2019
2677 Clouds -4 986 49 10000 5.1 60 17:20 13.12.2019
2678 Clouds -5 985 62 10000 6.2 60 16:59 13.12.2019
2679 Clouds -5 985 62 10000 6.2 60 16:39 13.12.2019
2680 Clouds -4 986 49 10000 4.6 50 16:20 13.12.2019
2681 Clouds -5 986 58 10000 6.7 60 15:58 13.12.2019
2682 Clouds -5 986 45 10000 4.1 40 15:37 13.12.2019
2683 Clouds -5 986 45 10000 4.1 40 15:18 13.12.2019
2684 Clear -6 986 57 10000 6.7 50 14:41 13.12.2019
2685 Clouds -5 986 48 10000 6.2 70 14:21 13.12.2019
2686 Clouds -6 987 53 10000 5.7 60 13:57 13.12.2019
2687 Clear -6 987 53 10000 5.7 60 13:38 13.12.2019
2688 Clear -5 987 44 10000 3.6 60 13:19 13.12.2019
2689 Clear -7 987 62 10000 3.1 70 12:42 13.12.2019
2690 Clear -7 988 57 10000 3.1 50 12:20 13.12.2019
2691 Clear -9 987 73 10000 3.1 70 11:57 13.12.2019
2692 Clear -9 987 73 10000 3.1 70 11:39 13.12.2019
2693 Clear -8 988 61 10000 2.1 100 11:21 13.12.2019
2694 Clear -8 987 73 10000 2.6 80 10:43 13.12.2019
2695 Clear -8 988 61 10000 3.1 60 10:23 13.12.2019
2696 Clouds -9 988 61 10000 2.1 100 09:59 13.12.2019
2697 Clouds -9 988 61 10000 2.1 100 09:39 13.12.2019
2698 Clear -9 988 66 10000 3.6 110 09:18 13.12.2019
2699 Clouds -8 988 67 10000 3.1 100 08:41 13.12.2019
2700 Clear -7 988 61 10000 3.6 100 08:23 13.12.2019
2701 Clouds -8 988 67 10000 3.1 90 07:46 13.12.2019
2702 -273 0 0 0 0 0 07:23 13.12.2019
2703 Clouds -8 989 67 10000 0.5 0 06:55 13.12.2019
2704 Clear -7 989 61 10000 2.6 80 06:29 13.12.2019
2705 Clouds -8 989 67 10000 2.6 50 05:46 13.12.2019
2706 Clear -8 989 78 10000 0.5 0 05:27 13.12.2019
2707 Clouds -7 989 73 10000 3.1 100 04:35 13.12.2019
2708 Clouds -6 990 79 10000 4.6 90 03:47 13.12.2019
2709 Clouds -5 990 62 10000 4.6 80 02:34 13.12.2019
2710 Clouds -5 990 68 10000 5.7 70 01:47 13.12.2019
2711 Clouds -4 990 73 10000 5.7 70 00:57 13.12.2019
2712 Clouds -4 990 73 10000 5.7 70 00:37 13.12.2019
2713 Clear -3 989 73 10000 5.1 80 23:59 12.12.2019
2714 Clear -3 989 73 10000 5.1 80 23:40 12.12.2019
2715 Clear -3 989 58 10000 2.6 80 23:22 12.12.2019
2716 Clear -3 989 68 10000 7.7 50 22:56 12.12.2019
2717 Clear -2 989 68 10000 7.7 50 22:37 12.12.2019
2718 Clear -2 989 54 10000 4.6 70 22:19 12.12.2019
2719 Clouds -2 989 74 10000 9.3 40 21:55 12.12.2019
2720 Clouds -2 989 74 10000 9.3 40 21:37 12.12.2019
2721 Clear -2 988 54 10000 3.1 40 21:18 12.12.2019
2722 Clouds -2 988 74 10000 10.3 40 20:56 12.12.2019
2723 Clear -2 988 58 10000 2.1 70 20:38 12.12.2019
2724 Clear -3 988 58 10000 2.1 70 20:20 12.12.2019
2725 Clouds -2 988 74 10000 10.3 40 19:43 12.12.2019
2726 Clear -3 987 68 10000 7.2 30 19:23 12.12.2019
2727 Clouds -3 987 74 10000 11.3 40 18:58 12.12.2019
2728 Clouds -2 987 74 10000 11.3 40 18:40 12.12.2019
2729 Clouds -2 987 68 10000 6.7 30 18:21 12.12.2019
2730 Clouds -1 987 74 10000 10.8 40 17:59 12.12.2019
2731 Clouds -2 987 74 10000 10.8 40 17:40 12.12.2019
2732 Clouds -3 987 63 10000 6.2 40 17:21 12.12.2019
2733 Clouds -2 987 74 10000 11.8 40 16:59 12.12.2019
2734 Clouds -2 987 74 10000 11.8 40 16:41 12.12.2019
2735 Clear -2 986 58 10000 7.7 50 16:21 12.12.2019
2736 Clouds -2 986 74 10000 12.3 50 15:58 12.12.2019
2737 Clouds -2 986 74 10000 12.3 50 15:40 12.12.2019
2738 Clear -3 986 63 10000 6.2 40 15:19 12.12.2019
2739 Clouds -3 986 74 10000 10.8 40 14:56 12.12.2019
2740 Clouds -3 986 74 10000 10.8 40 14:56 12.12.2019
2741 Clouds -3 986 74 10000 10.8 40 14:36 12.12.2019
2742 Clear -3 986 63 10000 6.2 30 14:18 12.12.2019
2743 Clouds -2 986 74 10000 11.3 40 13:54 12.12.2019
2744 Clouds -3 986 74 10000 11.3 40 13:36 12.12.2019
2745 Clear -3 986 58 10000 2.6 50 13:18 12.12.2019
2746 Clear -3 986 58 10000 2.6 50 13:18 12.12.2019
2747 Clouds -3 987 74 10000 9.3 40 12:41 12.12.2019
2748 Clear -3 986 54 10000 2.6 40 12:22 12.12.2019
2749 Clear -4 987 79 10000 10.8 40 11:59 12.12.2019
2750 Clear -4 987 79 10000 10.8 40 11:40 12.12.2019
2751 Clear -3 986 62 10000 1.5 80 11:21 12.12.2019
2752 Clear -4 987 73 10000 8.7 40 10:58 12.12.2019
2753 Clear -4 987 73 10000 8.7 40 10:40 12.12.2019
2754 Clear -4 986 67 10000 1 0 10:22 12.12.2019
2755 Clear -3 986 73 10000 9.3 40 09:56 12.12.2019
2756 Clear -3 986 73 10000 9.3 40 09:38 12.12.2019
2757 Clear -3 986 62 10000 1 0 09:19 12.12.2019
2758 Clouds -3 987 68 10000 10.3 40 08:47 12.12.2019
2759 Clear -3 986 58 10000 2.1 50 08:28 12.12.2019
2760 Clouds -2 987 68 10000 10.3 40 07:55 12.12.2019
2761 Clouds -2 987 68 10000 10.3 40 07:36 12.12.2019
2762 Clear -2 986 54 10000 2.6 80 07:18 12.12.2019
2763 Clouds -3 986 74 10000 10.3 40 06:41 12.12.2019
2764 Clear -3 986 68 10000 3.6 0 06:21 12.12.2019
2765 Clear -2 985 63 10000 3.1 0 05:28 12.12.2019
2766 Clouds -2 986 79 10000 11.3 50 04:46 12.12.2019
2767 Clouds -2 986 74 10000 9.8 30 02:42 12.12.2019
2768 Clear -1 986 63 10000 1.5 70 02:24 12.12.2019
2769 Clouds -1 986 74 10000 9.3 40 01:59 12.12.2019
2770 Clouds -2 986 68 10000 3.6 0 01:36 12.12.2019
2771 Clouds -1 987 74 10000 9.3 30 00:49 12.12.2019
2772 Clouds -1 986 79 10000 3.6 50 00:22 12.12.2019
2773 Clouds -1 987 74 10000 10.3 20 23:58 11.12.2019
2774 Clouds 0 987 74 10000 10.3 20 23:37 11.12.2019
2775 Clouds -1 986 75 10000 11.3 10 23:18 11.12.2019
2776 Clouds -1 987 74 10000 10.8 20 22:56 11.12.2019
2777 Clouds -1 987 74 10000 10.8 20 22:38 11.12.2019
2778 Clouds -1 986 75 10000 12.9 10 22:18 11.12.2019
2779 Clouds -1 986 75 10000 12.9 10 22:18 11.12.2019
2780 Clouds -1 987 79 10000 11.3 20 21:54 11.12.2019
2781 Clouds -1 987 79 10000 11.3 20 21:36 11.12.2019
2782 Clouds -1 986 68 10000 12.9 10 21:18 11.12.2019
2783 Clouds -1 987 74 10000 11.8 10 20:55 11.12.2019
2784 Clouds -1 987 74 10000 11.8 10 20:36 11.12.2019
2785 Clouds -1 987 68 10000 9.8 10 20:18 11.12.2019
2786 Clouds -1 988 74 10000 9.8 20 19:42 11.12.2019
2787 Clouds -1 987 68 10000 7.7 10 19:23 11.12.2019
2788 Clouds -1 987 68 10000 7.7 10 19:23 11.12.2019
2789 Clouds -1 988 74 10000 10.8 10 18:59 11.12.2019
2790 Clouds -1 988 74 10000 10.8 10 18:40 11.12.2019
2791 Clouds -2 987 68 10000 11.8 360 18:20 11.12.2019
2792 Clouds -2 988 74 10000 11.8 10 17:56 11.12.2019
2793 Clouds -2 988 74 10000 11.8 10 17:38 11.12.2019
2794 Clouds -2 987 74 10000 7.7 340 17:18 11.12.2019
2795 Clouds -2 987 74 10000 7.7 340 17:18 11.12.2019
2796 Clouds -2 988 74 10000 11.8 360 16:56 11.12.2019
2797 Clouds -2 988 74 10000 11.8 360 16:37 11.12.2019
2798 Clouds -1 987 68 10000 8.2 330 16:19 11.12.2019
2799 Clouds -1 988 74 10000 10.8 10 15:57 11.12.2019
2800 Rain -1 986 68 10000 8.2 330 15:37 11.12.2019
2801 Rain -1 986 68 10000 8.2 330 15:19 11.12.2019
2802 Clouds -1 988 68 10000 11.8 10 14:55 11.12.2019
2803 Clouds -1 988 68 10000 11.8 10 14:37 11.12.2019
2804 Rain -1 985 68 10000 9.8 340 14:18 11.12.2019
2805 Clouds -1 987 74 10000 12.3 360 13:44 11.12.2019
2806 Rain -1 984 70 10000 10.3 360 13:23 11.12.2019
2807 Clouds -1 986 74 10000 15.9 360 12:58 11.12.2019
2808 Clouds -1 986 74 10000 15.9 360 12:39 11.12.2019
2809 Clouds -1 984 74 10000 12.9 350 12:21 11.12.2019
2810 Clouds -1 986 74 10000 17.5 360 11:58 11.12.2019
2811 Clouds -1 986 74 10000 17.5 360 11:39 11.12.2019
2812 Clouds -1 985 74 10000 8.7 350 11:19 11.12.2019
2813 Clouds -1 986 74 10000 17 360 10:59 11.12.2019
2814 Clouds -1 986 74 10000 17 360 10:39 11.12.2019
2815 Clouds -1 983 74 0 11.3 340 10:21 11.12.2019
2816 Clouds -1 985 74 10000 14.9 350 09:56 11.12.2019
2817 Clouds -1 985 74 10000 14.9 350 09:38 11.12.2019
2818 Clouds -1 982 74 10000 14.4 340 09:19 11.12.2019
2819 Clouds -1 985 74 10000 17 350 08:55 11.12.2019
2820 Clouds -1 985 74 10000 17 350 08:36 11.12.2019
2821 Clouds -1 981 79 9000 16.5 340 08:18 11.12.2019
2822 Clouds -1 984 74 10000 18.5 360 07:43 11.12.2019
2823 Clouds -1 980 79 9000 14.4 340 07:23 11.12.2019
2824 Clouds -2 983 74 10000 18.5 350 06:46 11.12.2019
2825 Clouds -2 979 92 6000 14.9 340 06:25 11.12.2019
2826 Clouds -2 981 74 10000 19.5 350 05:55 11.12.2019
2827 Clouds -1 981 74 10000 19.5 350 05:35 11.12.2019
2828 Snow -1 980 74 10000 20.6 350 04:51 11.12.2019
2829 Snow -1 975 92 2000 16.5 330 03:29 11.12.2019
2830 Clouds -1 978 74 10000 23.7 350 02:35 11.12.2019
2831 Snow -1 973 92 1000 15.4 340 01:22 11.12.2019
2832 Clouds -1 976 74 10000 25.2 350 00:43 11.12.2019
2833 Snow -1 971 86 1000 16.5 330 00:19 11.12.2019
2834 Clouds -1 973 74 10000 25.7 350 23:45 10.12.2019
2835 Snow -1 969 86 1000 15.4 330 23:26 10.12.2019
2836 Clouds -1 973 80 10000 25.7 350 22:57 10.12.2019
2837 Clouds -1 973 80 10000 25.7 350 22:39 10.12.2019
2838 Snow -1 968 92 1500 15.9 330 22:20 10.12.2019
2839 Clouds -1 973 80 10000 25.2 350 21:54 10.12.2019
2840 Clouds -1 973 80 10000 25.2 350 21:36 10.12.2019
2841 Snow -1 967 92 1000 15.4 330 21:18 10.12.2019
2842 Snow -1 971 80 7000 23.1 350 20:55 10.12.2019
2843 Snow -1 971 80 7000 23.1 350 20:36 10.12.2019
2844 Snow -1 966 92 2000 18 330 20:18 10.12.2019
2845 Snow -1 971 80 9000 24.2 350 19:44 10.12.2019
2846 Snow -1 971 80 9000 24.2 350 19:44 10.12.2019
2847 Snow -1 965 92 2000 17.5 330 19:26 10.12.2019
2848 Snow -1 965 92 2000 17.5 330 19:26 10.12.2019
2849 Snow -1 970 80 8000 25.7 350 18:59 10.12.2019
2850 Snow -1 970 80 8000 25.7 350 18:39 10.12.2019
2851 Snow -1 965 92 2500 15.9 330 18:20 10.12.2019
2852 Clouds -1 970 86 10000 21.1 350 17:55 10.12.2019
2853 Clouds -1 970 86 10000 21.1 350 17:37 10.12.2019
2854 Snow -1 966 86 2500 13.4 340 17:19 10.12.2019
2855 Clouds 0 969 80 10000 20.6 350 16:43 10.12.2019
2856 Snow 0 967 80 2000 12.3 340 16:20 10.12.2019
2857 Snow 0 967 80 2000 12.3 340 16:20 10.12.2019
2858 Clouds 1 969 80 10000 18 350 15:55 10.12.2019
2859 Clouds 1 969 80 10000 18 350 15:37 10.12.2019
2860 Snow 1 967 80 7000 12.3 350 15:18 10.12.2019
2861 Snow 1 967 80 7000 12.3 350 15:18 10.12.2019
2862 Snow 1 967 80 7000 12.3 350 15:18 10.12.2019
2863 Clouds 1 969 86 10000 14.9 360 14:55 10.12.2019
2864 Clouds 1 969 86 10000 14.9 360 14:37 10.12.2019
2865 Rain 1 967 74 10000 10.3 360 14:19 10.12.2019
2866 Snow 1 968 88 10000 10.8 10 13:56 10.12.2019
2867 Snow 1 968 88 10000 10.8 10 13:37 10.12.2019
2868 Snow 2 967 86 10000 8.2 340 13:18 10.12.2019
2869 Clouds 1 968 86 10000 9.8 350 12:40 10.12.2019
2870 Snow 1 968 86 6000 7.2 340 12:22 10.12.2019
2871 Clouds 0 969 86 10000 4.6 350 11:42 10.12.2019
2872 Rain 0 968 89 10000 4.1 330 11:24 10.12.2019
2873 Clouds 0 969 86 10000 5.7 350 10:57 10.12.2019
2874 Clouds 0 969 86 10000 5.7 350 10:38 10.12.2019
2875 Snow 0 969 89 8000 5.7 360 10:20 10.12.2019
2876 Clouds 1 970 80 10000 5.7 360 09:56 10.12.2019
2877 Clouds 1 970 80 10000 5.7 360 09:38 10.12.2019
2878 Clouds 1 969 80 10000 5.1 340 09:19 10.12.2019
2879 Clouds 1 970 89 10000 5.1 330 08:54 10.12.2019
2880 Clouds 1 970 89 10000 5.1 330 08:36 10.12.2019
2881 Clouds 1 970 89 10000 5.1 330 08:36 10.12.2019
2882 Clouds 1 970 80 10000 2.6 330 08:18 10.12.2019
2883 Clouds 0 971 86 10000 4.6 360 07:44 10.12.2019
2884 Clouds 0 971 86 10000 4.6 360 07:43 10.12.2019
2885 Clouds 1 971 97 10000 3.1 330 07:25 10.12.2019
2886 Clouds -2 971 92 10000 4.1 340 06:47 10.12.2019
2887 Clouds -1 971 92 10000 0.5 0 06:21 10.12.2019
2888 Clouds -1 972 97 10000 3.1 330 05:55 10.12.2019
2889 Clouds -1 973 92 10000 1.5 340 04:55 10.12.2019
2890 Clouds 0 974 92 10000 1 340 03:39 10.12.2019
2891 Clouds 0 975 91 10000 2.1 130 02:46 10.12.2019
2892 Clouds 0 976 92 10000 3.1 80 01:45 10.12.2019
2893 Clouds 0 977 80 10000 5.1 90 01:24 10.12.2019
2894 Clouds 0 977 92 10000 3.1 90 00:42 10.12.2019
2895 Rain 0 978 80 10000 4.6 80 00:22 10.12.2019
2896 Clouds 1 978 92 10000 3.6 110 23:42 09.12.2019
2897 Clouds 1 978 92 10000 3.6 110 23:42 09.12.2019
2898 Clouds 0 979 86 10000 4.6 80 23:24 09.12.2019
2899 Clouds 0 979 89 10000 3.1 100 22:58 09.12.2019
2900 Clouds 0 979 89 10000 3.1 100 22:40 09.12.2019
2901 Clouds 1 980 86 10000 4.6 70 22:20 09.12.2019
2902 Clouds 1 980 89 10000 4.1 100 21:57 09.12.2019
2903 Rain 1 981 86 10000 3.1 100 21:39 09.12.2019
2904 Rain 1 981 86 10000 3.1 100 21:39 09.12.2019
2905 Rain 1 981 86 10000 3.1 100 21:19 09.12.2019
2906 Rain 1 981 89 10000 3.6 120 20:57 09.12.2019
2907 Rain 1 981 89 10000 3.6 120 20:39 09.12.2019
2908 Rain 1 982 86 10000 4.6 100 20:20 09.12.2019
2909 Snow 1 982 83 5000 5.7 130 19:56 09.12.2019
2910 Snow 1 982 83 5000 5.7 130 19:38 09.12.2019
2911 Rain 1 983 86 10000 4.6 80 19:19 09.12.2019
2912 Clouds 1 983 83 10000 4.1 140 18:58 09.12.2019
2913 Clouds 1 983 83 10000 4.1 140 18:39 09.12.2019
2914 Rain 1 984 86 10000 2.6 60 18:20 09.12.2019
2915 Rain 1 984 80 10000 4.1 150 17:58 09.12.2019
2916 Rain 1 984 80 10000 4.1 150 17:40 09.12.2019
2917 Rain 1 986 86 10000 3.1 120 17:21 09.12.2019
2918 Clouds 1 985 96 10000 4.6 170 16:56 09.12.2019
2919 Clouds 1 985 96 10000 4.6 170 16:56 09.12.2019
2920 Clouds 1 985 96 10000 4.6 170 16:38 09.12.2019
2921 Rain 1 986 86 10000 5.1 70 16:20 09.12.2019
2922 Rain 1 986 96 10000 3.1 160 15:56 09.12.2019
2923 Rain 1 986 96 10000 3.1 160 15:56 09.12.2019
2924 Rain 1 986 96 10000 3.1 160 15:37 09.12.2019
2925 Snow 1 988 96 9000 6.2 140 15:19 09.12.2019
2926 Clouds 1 987 86 10000 3.1 140 14:57 09.12.2019
2927 Clouds 1 987 86 10000 3.1 140 14:57 09.12.2019
2928 Clouds 1 987 86 10000 3.1 140 14:39 09.12.2019
2929 Clouds 1 988 96 10000 8.7 90 14:18 09.12.2019
2930 Snow 1 989 96 1500 10.8 100 13:55 09.12.2019
2931 Clouds 1 989 96 5000 10.8 100 13:36 09.12.2019
2932 Clouds 1 989 96 5000 10.8 100 13:18 09.12.2019
2933 Rain 1 989 93 8000 11.3 140 12:54 09.12.2019
2934 Rain 1 989 93 8000 11.3 140 12:36 09.12.2019
2935 Snow 1 992 96 1100 7.7 100 12:18 09.12.2019
2936 Clouds 1 990 93 10000 12.3 120 11:40 09.12.2019
2937 Snow 1 993 92 3000 8.7 100 11:21 09.12.2019
2938 Rain 0 992 93 10000 8.2 110 10:57 09.12.2019
2939 Rain 0 992 93 10000 8.2 110 10:38 09.12.2019
2940 Clouds 0 994 92 2000 8.7 90 10:19 09.12.2019
2941 Clouds 0 994 92 2000 8.7 90 10:19 09.12.2019
2942 Clouds -1 994 92 10000 10.3 100 09:43 09.12.2019
2943 Snow -1 997 92 1600 8.7 90 09:24 09.12.2019
2944 Clouds -1 996 92 7000 10.3 100 08:57 09.12.2019
2945 Clouds -1 996 92 7000 10.3 100 08:38 09.12.2019
2946 Snow 0 998 92 2000 8.7 90 08:20 09.12.2019
2947 Snow 0 998 92 10000 6.7 110 07:48 09.12.2019
2948 Rain 1 999 92 10000 5.7 60 07:30 09.12.2019
2949 Clouds -1 999 92 10000 3.6 110 06:55 09.12.2019
2950 Snow -2 1000 63 10000 8.2 80 06:29 09.12.2019
2951 Clouds -2 1000 79 10000 3.6 70 05:42 09.12.2019
2952 Clouds -2 1001 63 10000 7.2 70 05:20 09.12.2019
2953 Clouds -3 1003 63 10000 5.7 70 04:27 09.12.2019
2954 Clouds -3 1003 63 10000 5.7 70 04:27 09.12.2019
2955 Clear -2 1004 63 10000 5.7 70 02:28 09.12.2019
2956 Clear -3 1004 74 10000 1 140 01:46 09.12.2019
2957 Clear -3 1003 73 10000 2.6 130 00:57 09.12.2019
2958 Clear -3 1004 73 10000 3.6 90 00:33 09.12.2019
2959 Clear -4 1004 74 10000 3.1 90 23:55 08.12.2019
2960 Clear -4 1004 74 10000 3.1 90 23:55 08.12.2019
2961 Clear -4 1004 74 10000 3.1 90 23:37 08.12.2019
2962 Clear -4 1004 73 10000 1 0 23:18 08.12.2019
2963 Clouds -3 1004 80 10000 2.1 70 22:56 08.12.2019
2964 Clouds -3 1004 80 10000 2.1 70 22:38 08.12.2019
2965 Clouds -3 1004 80 10000 2.1 70 22:38 08.12.2019
2966 Clear -4 1004 68 10000 1 140 22:18 08.12.2019
2967 Clouds -3 1004 79 10000 4.1 20 21:55 08.12.2019
2968 Clouds -3 1004 79 10000 4.1 20 21:37 08.12.2019
2969 Clear -3 1003 73 10000 1.5 140 21:19 08.12.2019
2970 Clouds -2 1003 79 10000 6.2 30 20:55 08.12.2019
2971 Clouds -3 1003 79 10000 6.2 30 20:37 08.12.2019
2972 Clouds -2 1003 74 10000 2.6 130 20:18 08.12.2019
2973 Clouds -2 1003 84 10000 6.7 30 19:55 08.12.2019
2974 Clouds -1 1003 84 10000 6.7 30 19:36 08.12.2019
2975 Clouds -2 1002 74 10000 2.6 140 19:18 08.12.2019
2976 Clouds 0 1002 84 10000 7.2 30 18:54 08.12.2019
2977 Clouds 0 1001 84 10000 2.1 0 18:36 08.12.2019
2978 Clouds 0 1001 84 10000 2.1 0 18:18 08.12.2019
2979 Clouds 1 1001 80 10000 6.7 30 17:54 08.12.2019
2980 Clouds 1 1000 69 10000 6.7 360 17:36 08.12.2019
2981 Clouds 0 1000 69 10000 6.7 360 17:18 08.12.2019
2982 Clouds 2 1000 80 10000 7.7 30 16:42 08.12.2019
2983 Clouds 2 999 55 10000 1.5 90 16:24 08.12.2019
2984 Clouds 3 999 74 10000 6.2 30 15:59 08.12.2019
2985 Clouds 3 999 74 10000 6.2 30 15:37 08.12.2019
2986 Clouds 2 997 59 10000 9.3 20 15:18 08.12.2019
2987 Clouds 3 997 74 10000 5.7 40 14:57 08.12.2019
2988 Clouds 3 997 74 10000 5.7 40 14:57 08.12.2019
2989 Clouds 3 997 74 10000 5.7 40 14:37 08.12.2019
2990 Clouds 2 996 55 10000 5.7 20 14:19 08.12.2019
2991 Clouds 2 996 55 10000 5.7 20 14:19 08.12.2019
2992 Clouds 2 996 80 10000 7.7 30 13:41 08.12.2019
2993 Clouds 1 995 69 10000 7.2 10 13:23 08.12.2019
2994 Clouds 2 995 80 10000 8.2 20 12:59 08.12.2019
2995 Clouds 2 995 80 10000 8.2 20 12:59 08.12.2019
2996 Clouds 2 995 80 10000 8.2 20 12:41 08.12.2019
2997 Clouds 2 995 80 10000 8.2 20 12:41 08.12.2019
2998 Clouds 1 994 64 10000 12.3 10 12:22 08.12.2019
2999 Clouds 1 993 69 10000 8.7 20 11:59 08.12.2019
3000 Clouds 1 993 69 10000 8.7 20 11:38 08.12.2019
3001 Clear 0 992 59 10000 10.3 10 11:19 08.12.2019
3002 Clear 1 992 74 10000 8.7 20 10:57 08.12.2019
3003 Clear 1 992 74 10000 8.7 20 10:38 08.12.2019
3004 Clear 1 992 74 10000 8.7 20 10:38 08.12.2019
3005 Clear 0 991 55 10000 9.8 20 10:19 08.12.2019
3006 Clouds -1 991 74 10000 6.2 20 09:55 08.12.2019
3007 Clear 0 989 54 10000 2.6 0 09:37 08.12.2019
3008 Clear 0 989 54 10000 2.6 0 09:18 08.12.2019
3009 Clouds -2 990 74 10000 8.7 20 08:43 08.12.2019
3010 Clouds -3 988 62 10000 2.1 150 08:23 08.12.2019
3011 Clouds -4 988 63 10000 10.3 20 07:58 08.12.2019
3012 Clouds -3 988 63 10000 10.3 20 07:40 08.12.2019
3013 Clouds -3 987 67 10000 2.1 140 07:19 08.12.2019
3014 Clouds -3 988 63 10000 11.3 30 06:41 08.12.2019
3015 Clouds -2 986 62 10000 1.5 160 06:21 08.12.2019
3016 Clouds -3 985 57 10000 1.5 150 05:30 08.12.2019
3017 Clouds -4 986 63 10000 8.2 20 04:57 08.12.2019
3018 Clouds -3 985 63 10000 9.8 30 03:41 08.12.2019
3019 Clouds -3 984 58 10000 0.5 0 03:20 08.12.2019
3020 Clouds -2 984 49 10000 1.5 90 02:28 08.12.2019
3021 Clouds -3 985 63 10000 10.8 40 01:48 08.12.2019
3022 Clouds -3 985 63 10000 13.4 40 00:59 08.12.2019
3023 Clouds -4 985 63 10000 13.4 40 00:39 08.12.2019
3024 Clouds -3 984 63 10000 9.8 10 00:19 08.12.2019
3025 Clouds -3 985 63 10000 12.3 40 23:40 07.12.2019
3026 Clouds -3 984 63 10000 9.3 20 23:20 07.12.2019
3027 Clouds -3 985 63 10000 13.4 40 22:56 07.12.2019
3028 Clouds -3 985 63 10000 13.4 40 22:38 07.12.2019
3029 Clouds -3 984 58 10000 11.3 10 22:20 07.12.2019
3030 Clouds -2 984 63 10000 11.8 30 21:56 07.12.2019
3031 Clouds -2 984 63 10000 11.8 30 21:56 07.12.2019
3032 Clouds -3 984 63 10000 11.8 30 21:38 07.12.2019
3033 Clouds -3 984 63 10000 11.8 30 21:38 07.12.2019
3034 Clouds -3 984 63 10000 9.8 10 21:19 07.12.2019
3035 Clouds -2 985 58 10000 12.9 40 20:56 07.12.2019
3036 Clouds -2 985 58 10000 12.9 40 20:36 07.12.2019
3037 Clouds -2 984 63 10000 9.8 10 20:18 07.12.2019
3038 Clouds -2 985 63 10000 12.3 40 19:56 07.12.2019
3039 Clouds -2 985 63 10000 12.3 40 19:37 07.12.2019
3040 Clouds -1 984 58 10000 7.2 360 19:19 07.12.2019
3041 Clouds -1 985 63 10000 12.3 40 18:44 07.12.2019
3042 Clouds -1 985 50 10000 6.2 40 18:19 07.12.2019
3043 -273 0 0 0 0 0 17:58 07.12.2019
3044 Clouds 0 985 55 10000 12.3 40 17:40 07.12.2019
3045 Clouds 0 985 31 10000 4.1 70 17:21 07.12.2019
3046 Clouds 0 986 43 10000 13.4 60 16:56 07.12.2019
3047 Clouds 0 986 43 10000 13.4 60 16:38 07.12.2019
3048 Clouds -1 985 31 10000 10.8 70 16:19 07.12.2019
3049 Clouds 0 986 46 10000 15.4 70 15:56 07.12.2019
3050 Clouds -1 986 46 10000 15.4 70 15:38 07.12.2019
3051 Clouds -1 987 34 10000 9.8 80 15:18 07.12.2019
3052 Clouds -1 987 34 10000 9.8 80 15:18 07.12.2019
3053 Clouds -1 988 58 10000 13.9 70 14:42 07.12.2019
3054 Clouds -1 988 50 10000 8.7 80 14:19 07.12.2019
3055 Clouds -1 988 63 10000 14.4 80 13:55 07.12.2019
3056 Clouds -1 990 50 10000 9.3 80 13:37 07.12.2019
3057 Clouds -1 990 49 10000 9.3 80 13:18 07.12.2019
3058 Clouds -1 989 63 10000 13.4 70 12:41 07.12.2019
3059 Clouds -1 991 49 10000 6.7 80 12:22 07.12.2019
3060 Clouds -2 991 68 10000 14.9 80 11:58 07.12.2019
3061 Clouds -2 991 68 10000 14.9 80 11:40 07.12.2019
3062 Clouds -1 992 63 10000 8.2 80 11:21 07.12.2019
3063 Clouds -2 992 63 10000 13.4 70 10:38 07.12.2019
3064 Clouds -2 993 58 10000 9.3 90 10:20 07.12.2019
3065 Clouds -1 993 68 10000 11.3 70 09:58 07.12.2019
3066 Clouds -1 993 68 10000 11.3 70 09:37 07.12.2019
3067 Clouds -1 994 63 10000 10.3 90 09:18 07.12.2019
3068 Clouds -2 994 68 10000 10.8 80 08:41 07.12.2019
3069 Clouds -2 995 58 10000 8.7 80 08:21 07.12.2019
3070 Clouds -2 995 68 10000 11.3 80 07:46 07.12.2019
3071 Clouds -2 995 58 10000 5.1 60 07:26 07.12.2019
3072 Clouds -2 995 63 10000 9.3 80 06:50 07.12.2019
3073 Clouds -2 996 50 10000 8.2 80 06:25 07.12.2019
3074 Clouds -2 996 63 10000 8.2 70 05:34 07.12.2019
3075 Clouds -2 998 54 10000 6.2 70 04:19 07.12.2019
3076 Clouds -3 997 63 10000 7.2 70 03:44 07.12.2019
3077 Clouds -3 999 54 10000 6.7 80 02:21 07.12.2019
3078 Clouds -3 999 68 10000 4.6 80 01:35 07.12.2019
3079 Clouds -4 999 73 10000 3.1 50 00:55 07.12.2019
3080 Clouds -3 1000 62 10000 6.2 110 00:20 07.12.2019
3081 Clouds -4 1000 73 10000 3.1 60 23:56 06.12.2019
3082 Clouds -4 1000 73 10000 3.1 60 23:38 06.12.2019
3083 Clouds -5 999 73 10000 3.1 100 23:18 06.12.2019
3084 Clouds -5 999 74 10000 3.1 60 22:38 06.12.2019
3085 Clouds -6 1000 68 10000 4.6 90 22:20 06.12.2019
3086 Clouds -6 999 79 10000 3.1 90 21:58 06.12.2019
3087 Clouds -6 999 79 10000 3.1 90 21:39 06.12.2019
3088 Clouds -6 999 79 10000 3.1 90 21:39 06.12.2019
3089 Clouds -6 1000 79 10000 1.5 100 21:20 06.12.2019
3090 Clouds -6 1000 79 10000 2.6 80 20:43 06.12.2019
3091 Clouds -5 1000 73 10000 2.6 110 20:25 06.12.2019
3092 Clouds -5 999 79 10000 3.1 80 19:59 06.12.2019
3093 Clouds -6 999 79 10000 3.1 80 19:40 06.12.2019
3094 Clear -5 999 73 10000 1.5 120 19:22 06.12.2019
3095 Clear -5 999 73 10000 1.5 120 19:22 06.12.2019
3096 Clouds -2 999 68 10000 5.7 40 18:57 06.12.2019
3097 Clouds -4 999 68 10000 5.7 40 18:39 06.12.2019
3098 Clear -2 999 68 10000 3.6 100 18:19 06.12.2019
3099 Clouds -3 998 74 10000 4.6 20 17:56 06.12.2019
3100 Clouds -3 998 74 10000 4.6 20 17:56 06.12.2019
3101 Clouds -5 998 74 10000 4.6 20 17:38 06.12.2019
3102 Clear -5 998 73 10000 2.6 120 17:19 06.12.2019
3103 Clear -5 998 73 10000 2.6 120 17:19 06.12.2019
3104 Clouds -5 998 79 10000 5.1 20 16:43 06.12.2019
3105 Clear -4 998 79 10000 2.6 170 16:25 06.12.2019
3106 Clouds -3 998 74 10000 4.1 20 15:59 06.12.2019
3107 Clouds -3 998 74 10000 4.1 20 15:41 06.12.2019
3108 Clear -2 998 79 10000 2.6 150 15:19 06.12.2019
3109 Clouds -2 998 80 10000 5.7 30 14:57 06.12.2019
3110 Clouds -2 998 80 10000 5.7 30 14:39 06.12.2019
3111 Clear -1 998 79 10000 1 0 14:19 06.12.2019
3112 Clouds -2 998 80 10000 4.1 20 13:44 06.12.2019
3113 Clear -2 997 79 10000 1 0 13:26 06.12.2019
3114 Clouds -2 997 80 10000 5.1 40 12:44 06.12.2019
3115 Clear -2 996 79 10000 2.1 150 12:23 06.12.2019
3116 Clouds 0 996 80 10000 6.7 30 11:59 06.12.2019
3117 Clouds 0 996 80 10000 6.7 30 11:41 06.12.2019
3118 -273 0 0 0 0 0 11:23 06.12.2019
3119 Clouds 0 996 84 10000 7.2 20 10:54 06.12.2019
3120 Clouds 0 996 84 10000 7.2 20 10:36 06.12.2019
3121 Clouds 0 995 84 10000 7.2 360 10:18 06.12.2019
3122 Clouds 0 996 84 10000 6.2 20 09:54 06.12.2019
3123 Clouds 0 996 84 10000 6.2 20 09:36 06.12.2019
3124 Clouds -1 995 84 10000 6.7 360 09:18 06.12.2019
3125 Clouds 0 995 80 10000 5.7 20 08:40 06.12.2019
3126 Clouds -1 994 80 10000 6.7 360 08:21 06.12.2019
3127 Clouds 0 994 80 10000 5.1 20 07:38 06.12.2019
3128 Clouds -1 993 82 10000 8.7 360 07:20 06.12.2019
3129 Clouds -1 994 82 10000 5.7 20 06:48 06.12.2019
3130 Clouds -1 993 74 10000 1 0 06:24 06.12.2019
3131 Clouds 0 993 80 10000 5.1 20 05:46 06.12.2019
3132 Clouds -3 990 83 10000 6.2 30 02:44 06.12.2019
3133 Clouds -3 990 86 10000 5.1 30 01:43 06.12.2019
3134 Clouds -2 989 78 10000 5.7 30 00:50 06.12.2019
3135 Clouds -2 989 79 10000 1.5 140 00:23 06.12.2019
3136 Clouds -3 989 86 10000 5.7 20 23:51 05.12.2019
3137 Clouds -3 988 85 10000 2.1 130 23:20 05.12.2019
3138 Clouds -4 988 86 10000 6.2 20 22:58 05.12.2019
3139 Clouds -4 988 86 10000 6.2 20 22:39 05.12.2019
3140 Clouds -4 988 92 10000 1.5 150 22:19 05.12.2019
3141 Clouds -4 988 86 10000 4.1 10 21:56 05.12.2019
3142 Clouds -4 988 86 10000 4.1 10 21:37 05.12.2019
3143 Clouds -4 987 85 10000 2.88 28 21:19 05.12.2019
3144 Clouds -5 987 92 10000 3.6 20 20:56 05.12.2019
3145 Clouds -5 987 92 10000 3.6 20 20:56 05.12.2019
3146 Clouds -5 987 92 10000 3.6 20 20:37 05.12.2019
3147 Clouds -5 987 85 10000 1 0 20:18 05.12.2019
3148 Clouds -5 987 85 10000 1 0 20:18 05.12.2019
3149 Clouds -5 987 85 10000 1 0 20:18 05.12.2019
3150 Clouds -5 987 79 10000 3.6 20 19:41 05.12.2019
3151 Clouds -5 987 85 10000 1.5 150 19:22 05.12.2019
3152 Clouds -5 987 74 10000 3.1 10 18:59 05.12.2019
3153 Clouds -5 987 74 10000 3.1 10 18:39 05.12.2019
3154 Clouds -5 986 85 10000 1 0 18:20 05.12.2019
3155 Clouds -5 986 86 10000 2.1 110 17:55 05.12.2019
3156 Clouds -5 986 86 10000 2.1 110 17:37 05.12.2019
3157 Clear -4 986 92 10000 1.5 130 17:18 05.12.2019
3158 Clouds -4 986 79 10000 1.5 110 16:40 05.12.2019
3159 Clouds -4 986 79 10000 1.5 110 16:40 05.12.2019
3160 Clouds -4 986 79 10000 1.5 110 16:40 05.12.2019
3161 Clear -5 986 92 10000 1.5 130 16:22 05.12.2019
3162 Clouds -4 985 68 10000 2.6 20 15:58 05.12.2019
3163 Clouds -4 985 68 10000 2.6 20 15:40 05.12.2019
3164 Clear -5 986 85 10000 1.5 150 15:21 05.12.2019
3165 Clouds -4 985 74 10000 1.5 340 14:57 05.12.2019
3166 Clouds -4 985 74 10000 1.5 340 14:38 05.12.2019
3167 Clear -4 985 92 10000 1 0 14:20 05.12.2019
3168 Clouds -4 985 92 10000 0.5 300 13:58 05.12.2019
3169 Clouds -4 985 92 10000 0.5 300 13:40 05.12.2019
3170 Clear -4 985 86 10000 1.5 150 13:21 05.12.2019
3171 Clouds -4 985 100 10000 1.5 170 12:59 05.12.2019
3172 Clouds -4 985 100 10000 1.5 170 12:40 05.12.2019
3173 Clear -4 985 92 10000 0.5 0 12:21 05.12.2019
3174 Clouds -4 985 100 10000 1 160 11:55 05.12.2019
3175 Clear -4 984 86 10000 1.7 51 11:36 05.12.2019
3176 Clouds -3 984 86 10000 1.47 2 11:18 05.12.2019
3177 Clouds -2 984 92 10000 2.1 100 10:54 05.12.2019
3178 Clouds -1 984 86 10000 2.1 340 10:36 05.12.2019
3179 Clouds -2 984 86 10000 2.1 340 10:18 05.12.2019
3180 Clouds 0 983 86 10000 1.47 2 09:42 05.12.2019
3181 Clouds 0 983 86 10000 1.47 2 09:20 05.12.2019
3182 Clouds 0 983 80 10000 1.5 20 08:57 05.12.2019
3183 Clouds 0 983 80 10000 1.5 20 08:37 05.12.2019
3184 Clouds -1 982 80 10000 2.6 360 08:19 05.12.2019
3185 Rain 0 982 86 10000 4.6 340 07:44 05.12.2019
3186 Rain 0 982 78 10000 1.5 340 07:24 05.12.2019
3187 Snow 0 981 78 10000 3.1 300 06:49 05.12.2019
3188 Rain 0 981 78 10000 2.1 320 06:24 05.12.2019
3189 Rain 0 980 92 10000 6.2 300 05:58 05.12.2019
3190 Rain 0 980 92 10000 6.2 300 05:38 05.12.2019
3191 Rain -1 980 67 10000 4.1 330 05:18 05.12.2019
3192 Snow 0 977 80 10000 8.7 280 03:43 05.12.2019
3193 Snow 1 976 67 10000 13.4 250 02:42 05.12.2019
3194 Rain 2 976 69 10000 10.3 270 02:23 05.12.2019
3195 Rain 1 976 80 10000 10.3 280 01:51 05.12.2019
3196 Snow 0 974 80 7000 11.3 260 01:24 05.12.2019
3197 Rain 0 974 69 10000 14.4 270 00:47 05.12.2019
3198 Rain 0 973 86 10000 8.2 260 00:24 05.12.2019
3199 Clouds -1 973 57 3000 13.4 260 23:57 04.12.2019
3200 Clouds -2 973 57 3000 13.4 260 23:38 04.12.2019
3201 Snow -1 973 92 8000 3.1 90 23:19 04.12.2019
3202 Snow -2 972 62 8000 6.7 280 22:39 04.12.2019
3203 Rain -2 973 92 10000 4.1 140 22:20 04.12.2019
3204 Snow -2 974 92 1000 4.6 220 21:58 04.12.2019
3205 Snow -2 974 92 1000 4.6 220 21:40 04.12.2019
3206 Rain -2 974 86 10000 3.6 150 21:21 04.12.2019
3207 Snow -3 973 100 1200 4.1 240 20:59 04.12.2019
3208 Snow -3 973 100 1200 4.1 240 20:41 04.12.2019
3209 Rain -1 974 74 10000 3.6 160 20:22 04.12.2019
3210 Snow -2 973 80 10000 4.6 220 19:59 04.12.2019
3211 Snow -2 973 80 10000 4.6 220 19:39 04.12.2019
3212 Rain -2 974 68 10000 5.1 200 19:20 04.12.2019
3213 Rain -2 973 68 10000 7.7 240 18:57 04.12.2019
3214 Rain -2 973 68 10000 7.7 240 18:39 04.12.2019
3215 Rain -2 974 80 10000 3.6 150 18:20 04.12.2019
3216 Rain -2 973 68 10000 9.3 240 17:40 04.12.2019
3217 Rain -2 974 92 10000 3.6 180 17:22 04.12.2019
3218 Rain -2 973 63 10000 6.7 230 16:59 04.12.2019
3219 Rain -2 973 63 10000 6.7 230 16:59 04.12.2019
3220 Rain -2 973 63 10000 6.7 230 16:40 04.12.2019
3221 Rain -2 973 63 10000 6.7 230 16:40 04.12.2019
3222 Rain -2 973 63 10000 6.7 230 16:40 04.12.2019
3223 Rain -2 973 92 10000 3.6 180 16:20 04.12.2019
3224 Rain -1 973 80 10000 6.2 260 15:56 04.12.2019
3225 Rain -2 973 80 10000 6.2 260 15:38 04.12.2019
3226 Snow -2 974 86 3900 7.7 190 15:19 04.12.2019
3227 Snow -2 973 92 4000 5.1 220 14:54 04.12.2019
3228 Rain -2 973 92 10000 3.6 200 14:36 04.12.2019
3229 Rain -2 973 92 10000 3.6 200 14:18 04.12.2019
3230 Rain -2 973 75 10000 9.3 220 13:38 04.12.2019
3231 Rain -2 974 100 10000 3.1 170 13:20 04.12.2019
3232 Rain -2 974 100 10000 3.1 170 13:20 04.12.2019
3233 Snow -1 973 73 10000 2.6 230 12:45 04.12.2019
3234 Snow -1 974 92 10000 4.1 240 12:25 04.12.2019
3235 Rain -1 974 73 10000 6.7 220 11:59 04.12.2019
3236 Rain -1 974 73 10000 6.7 220 11:41 04.12.2019
3237 Snow -1 974 60 1500 9.3 180 11:22 04.12.2019
3238 Snow -2 974 100 600 8.7 170 10:44 04.12.2019
3239 Clouds -2 975 74 10000 3.6 150 10:24 04.12.2019
3240 Clouds -1 974 60 10000 6.7 180 09:58 04.12.2019
3241 Clouds -1 974 60 10000 6.7 180 09:39 04.12.2019
3242 Clouds -1 975 80 10000 3.6 150 09:21 04.12.2019
3243 Clouds 0 975 59 10000 7.2 210 08:43 04.12.2019
3244 Clouds 0 976 66 10000 3.6 140 08:24 04.12.2019
3245 Clouds 0 975 69 10000 7.2 230 07:51 04.12.2019
3246 Rain 0 976 66 10000 2.6 210 07:31 04.12.2019
3247 Rain 0 976 80 10000 7.2 250 06:57 04.12.2019
3248 Snow 0 976 66 1000 6.7 210 06:31 04.12.2019
3249 Snow 1 976 66 1500 9.3 250 05:43 04.12.2019
3250 Clouds 1 977 69 10000 4.6 170 04:33 04.12.2019
3251 Clouds 1 977 74 10000 4.1 190 03:29 04.12.2019
3252 Clouds 2 977 74 10000 8.7 260 01:25 04.12.2019
3253 Rain 2 976 80 10000 6.7 260 00:47 04.12.2019
3254 Rain 2 976 65 10000 7.7 270 00:20 04.12.2019
3255 Snow 3 976 74 5000 8.2 250 23:41 03.12.2019
3256 Clouds 3 975 69 10000 7.7 250 23:20 03.12.2019
3257 Clouds 4 975 69 10000 8.7 250 22:59 03.12.2019
3258 Clouds 4 975 69 10000 8.7 250 22:38 03.12.2019
3259 Rain 4 975 60 10000 7.2 270 22:18 03.12.2019
3260 Rain 4 975 73 10000 9.3 250 21:56 03.12.2019
3261 Rain 4 975 73 10000 9.3 250 21:37 03.12.2019
3262 Clouds 4 975 80 10000 5.1 260 21:18 03.12.2019
3263 Drizzle 3 974 73 10000 7.7 260 20:41 03.12.2019
3264 Rain 3 975 86 10000 7.2 260 20:20 03.12.2019
3265 Drizzle 3 974 93 10000 8.2 250 19:57 03.12.2019
3266 Drizzle 3 974 93 10000 8.2 250 19:38 03.12.2019
3267 Rain 3 974 86 10000 6.7 260 19:20 03.12.2019
3268 Drizzle 4 974 93 9000 8.7 260 18:59 03.12.2019
3269 Drizzle 4 974 93 9000 8.7 260 18:41 03.12.2019
3270 Rain 4 975 86 8000 2.1 200 18:21 03.12.2019
3271 Drizzle 5 975 100 10000 5.1 250 17:58 03.12.2019
3272 Drizzle 5 975 100 10000 5.1 250 17:38 03.12.2019
3273 Rain 5 975 86 9000 3.1 160 17:18 03.12.2019
3274 Rain 5 975 86 9000 3.1 160 17:18 03.12.2019
3275 Rain 5 976 93 7000 4.1 210 16:58 03.12.2019
3276 Rain 5 976 93 7000 4.1 210 16:39 03.12.2019
3277 Drizzle 5 977 86 4000 2.6 180 16:21 03.12.2019
3278 Clouds 5 977 93 10000 4.1 170 15:58 03.12.2019
3279 Clouds 5 977 93 10000 4.1 170 15:38 03.12.2019
3280 Clouds 5 978 86 10000 2.1 140 15:19 03.12.2019
3281 Clouds 6 978 100 10000 4.1 160 14:44 03.12.2019
3282 Clouds 6 980 81 10000 4.1 130 14:20 03.12.2019
3283 Clouds 6 980 100 10000 5.7 170 13:58 03.12.2019
3284 Clouds 6 980 100 10000 5.7 170 13:37 03.12.2019
3285 Drizzle 6 981 81 9000 5.7 160 13:19 03.12.2019
3286 Drizzle 6 981 93 10000 5.1 180 12:56 03.12.2019
3287 Drizzle 6 981 93 10000 5.1 180 12:36 03.12.2019
3288 Clouds 6 982 87 10000 6.2 170 12:18 03.12.2019
3289 Rain 7 982 93 10000 6.7 180 11:54 03.12.2019
3290 Clouds 6 983 81 10000 6.7 170 11:36 03.12.2019
3291 Clouds 6 983 81 10000 6.7 170 11:18 03.12.2019
3292 Rain 6 982 100 8000 8.2 200 10:42 03.12.2019
3293 Drizzle 6 983 81 8000 6.7 170 10:21 03.12.2019
3294 Clouds 6 982 93 10000 8.2 170 09:58 03.12.2019
3295 Clouds 6 982 93 10000 8.2 170 09:40 03.12.2019
3296 Clouds 6 984 81 10000 8.7 200 09:21 03.12.2019
3297 Clouds 6 984 81 10000 8.7 200 09:21 03.12.2019
3298 Rain 6 983 87 10000 9.3 200 08:55 03.12.2019
3299 Drizzle 7 984 81 4000 9.3 190 08:37 03.12.2019
3300 Drizzle 7 984 81 4000 9.3 190 08:18 03.12.2019
3301 Rain 7 983 93 10000 9.8 190 07:49 03.12.2019
3302 Drizzle 7 985 81 7000 7.7 180 07:24 03.12.2019
3303 Drizzle 7 985 81 4000 6.2 180 06:23 03.12.2019
3304 Clouds 7 984 93 10000 9.8 200 05:59 03.12.2019
3305 Mist 7 984 93 7000 12.3 200 04:55 03.12.2019
3306 Mist 8 985 87 8000 13.4 200 03:40 03.12.2019
3307 Mist 8 986 81 8000 12.9 190 03:20 03.12.2019
3308 Mist 8 985 93 7000 13.9 190 02:49 03.12.2019
3309 Drizzle 8 987 87 6000 11.8 180 02:31 03.12.2019
3310 Drizzle 8 985 100 5000 14.4 190 01:53 03.12.2019
3311 Drizzle 8 987 81 9000 12.3 180 01:34 03.12.2019
3312 Drizzle 8 986 100 3000 13.4 190 00:57 03.12.2019
3313 Drizzle 8 986 100 3000 13.4 190 00:39 03.12.2019
3314 Drizzle 9 988 81 9000 11.8 180 00:20 03.12.2019
3315 Drizzle 9 986 93 10000 14.4 180 23:43 02.12.2019
3316 Clouds 9 988 81 10000 12.3 180 23:20 02.12.2019
3317 Drizzle 9 987 93 8000 14.4 180 22:43 02.12.2019
3318 Clouds 8 989 87 10000 12.9 170 22:23 02.12.2019
3319 Drizzle 8 988 100 2100 13.9 180 21:59 02.12.2019
3320 Drizzle 8 988 100 2100 13.9 180 21:59 02.12.2019
3321 Clouds 9 990 87 10000 9.3 170 21:38 02.12.2019
3322 Clouds 9 990 87 10000 9.3 170 21:19 02.12.2019
3323 Drizzle 9 989 100 1600 12.9 180 20:56 02.12.2019
3324 Drizzle 9 989 100 1600 12.9 180 20:38 02.12.2019
3325 Drizzle 9 990 87 7000 10.3 180 20:20 02.12.2019
3326 Drizzle 9 989 100 3000 13.4 200 19:55 02.12.2019
3327 Drizzle 9 989 100 3000 13.4 200 19:37 02.12.2019
3328 Drizzle 9 990 87 7000 11.3 190 19:19 02.12.2019
3329 Drizzle 9 989 100 2000 13.9 200 18:44 02.12.2019
3330 Rain 9 990 87 5000 13.4 190 18:20 02.12.2019
3331 Rain 9 989 100 5000 13.9 190 17:59 02.12.2019
3332 Rain 9 989 100 5000 13.9 190 17:40 02.12.2019
3333 Rain 9 990 87 3000 12.3 190 17:20 02.12.2019
3334 Rain 9 990 100 2200 14.9 190 16:54 02.12.2019
3335 Rain 9 990 100 2200 14.9 190 16:36 02.12.2019
3336 Rain 9 991 87 2800 12.9 180 16:18 02.12.2019
3337 Rain 9 991 100 6000 13.9 180 15:55 02.12.2019
3338 Rain 8 991 100 6000 13.9 180 15:37 02.12.2019
3339 Rain 8 993 87 5000 10.3 170 15:18 02.12.2019
3340 Rain 8 992 100 6000 12.9 180 14:39 02.12.2019
3341 Clouds 8 995 81 4500 10.3 160 14:20 02.12.2019
3342 Rain 8 994 100 4100 12.3 160 13:58 02.12.2019
3343 Rain 8 994 100 4100 12.3 160 13:39 02.12.2019
3344 Rain 8 996 76 3100 11.8 140 13:20 02.12.2019
3345 Rain 8 996 76 3100 11.8 140 13:20 02.12.2019
3346 Rain 8 996 100 3100 12.3 150 12:58 02.12.2019
3347 Rain 8 996 100 3100 12.3 150 12:40 02.12.2019
3348 Drizzle 7 997 81 9000 9.3 120 12:20 02.12.2019
3349 Rain 7 997 100 3000 13.4 140 11:56 02.12.2019
3350 Rain 7 997 100 3000 13.4 140 11:37 02.12.2019
3351 Drizzle 7 1000 75 9000 9.8 120 11:18 02.12.2019
3352 Rain 7 999 100 7000 12.9 130 10:55 02.12.2019
3353 Rain 7 999 100 7000 12.9 130 10:37 02.12.2019
3354 Clouds 7 1002 70 10000 6.7 120 10:18 02.12.2019
3355 Fog 7 1001 100 900 11.8 150 09:41 02.12.2019
3356 Clouds 7 1003 75 10000 5.7 120 09:19 02.12.2019
3357 Fog 7 1002 100 900 9.8 150 08:57 02.12.2019
3358 Fog 7 1002 100 900 9.8 150 08:38 02.12.2019
3359 Clouds 7 1004 75 10000 5.7 120 08:20 02.12.2019
3360 Fog 6 1004 100 700 8.7 150 07:44 02.12.2019
3361 Clouds 6 1006 75 10000 3.1 110 07:21 02.12.2019
3362 Fog 6 1005 100 700 7.2 150 06:56 02.12.2019
3363 Fog 6 1005 100 700 7.2 150 06:37 02.12.2019
3364 Clouds 6 1007 81 10000 3.6 90 05:32 02.12.2019
3365 Clouds 6 1008 81 10000 2.6 90 04:26 02.12.2019
3366 Drizzle 6 1008 100 1200 5.7 160 02:53 02.12.2019
3367 Clouds 6 1009 81 10000 2.1 70 02:27 02.12.2019
3368 Clouds 6 1009 75 10000 3.6 100 01:26 02.12.2019
3369 Drizzle 6 1009 100 1800 6.7 160 00:57 02.12.2019
3370 Clouds 6 1009 81 10000 4.6 100 00:25 02.12.2019
3371 Drizzle 6 1009 100 2500 9.8 150 23:54 01.12.2019
3372 Drizzle 6 1009 100 2500 9.8 150 23:36 01.12.2019
3373 Clouds 6 1010 81 10000 4.1 100 23:18 01.12.2019
3374 Drizzle 6 1009 100 6000 8.7 150 22:54 01.12.2019
3375 Drizzle 6 1009 100 6000 8.7 150 22:36 01.12.2019
3376 Clouds 6 1010 75 10000 5.7 110 22:18 01.12.2019
3377 Rain 6 1009 100 5000 11.3 150 21:54 01.12.2019
3378 Rain 6 1009 100 5000 11.3 150 21:36 01.12.2019
3379 Clouds 6 1011 75 10000 7.2 100 21:18 01.12.2019
3380 Rain 5 1009 93 5000 12.3 140 20:42 01.12.2019
3381 Clouds 5 1011 81 10000 8.7 120 20:24 01.12.2019
3382 Drizzle 5 1010 100 6000 13.4 130 19:59 01.12.2019
3383 Drizzle 5 1010 100 6000 13.4 130 19:40 01.12.2019
3384 Clouds 5 1012 75 10000 6.7 110 19:22 01.12.2019
3385 Rain 5 1011 93 10000 11.3 130 18:58 01.12.2019
3386 Clouds 4 1014 80 10000 6.2 120 18:39 01.12.2019
3387 Clouds 4 1014 80 10000 6.2 120 18:20 01.12.2019
3388 Rain 4 1013 93 10000 9.8 130 17:59 01.12.2019
3389 Drizzle 4 1015 75 10000 5.1 100 17:41 01.12.2019
3390 Drizzle 4 1015 75 10000 5.1 100 17:23 01.12.2019
3391 -273 0 0 0 0 0 17:23 01.12.2019
3392 Drizzle 4 1015 75 10000 5.1 100 17:23 01.12.2019
3393 Rain 3 1014 93 10000 8.7 150 16:56 01.12.2019
3394 Rain 3 1014 93 10000 8.7 150 16:38 01.12.2019
3395 Drizzle 3 1016 86 10000 4.6 120 16:20 01.12.2019
3396 Rain 3 1015 100 9000 6.7 150 15:49 01.12.2019
3397 Drizzle 4 1017 86 10000 5.1 90 15:31 01.12.2019
3398 Drizzle 4 1017 86 10000 5.1 90 15:31 01.12.2019
3399 Rain 3 1016 100 9000 5.1 150 14:44 01.12.2019
3400 Rain 3 1018 86 10000 5.1 90 14:20 01.12.2019
3401 Rain 3 1018 100 10000 6.7 140 13:59 01.12.2019
3402 Rain 3 1018 100 10000 6.7 140 13:39 01.12.2019
3403 Drizzle 3 1019 86 10000 4.1 80 13:20 01.12.2019
3404 Rain 3 1018 100 9000 6.7 130 12:44 01.12.2019
3405 Clouds 2 1019 100 10000 6.2 140 11:58 01.12.2019
3406 Clouds 2 1019 100 10000 6.2 140 11:39 01.12.2019
3407 Clouds 2 1019 86 10000 5.1 90 11:21 01.12.2019
3408 Fog 2 1019 100 10000 5.7 140 10:43 01.12.2019
3409 Clouds 2 1020 86 10000 4.1 90 10:21 01.12.2019
3410 Mist 2 1020 100 3000 5.1 140 09:57 01.12.2019
3411 Clouds 2 1021 86 10000 1.5 140 09:38 01.12.2019
3412 Clouds 2 1021 86 10000 1.5 140 09:20 01.12.2019
3413 Clouds 2 1020 100 10000 4.1 150 08:44 01.12.2019
3414 Clouds 2 1020 86 10000 3.1 140 08:20 01.12.2019
3415 Clouds 1 1020 100 10000 3.6 160 07:51 01.12.2019
3416 Clouds 1 1021 93 10000 3.1 130 07:30 01.12.2019
3417 Clouds 1 1020 100 10000 3.6 170 06:56 01.12.2019
3418 Clouds 2 1021 91 10000 2.1 130 06:30 01.12.2019
3419 Clouds 2 1021 93 10000 4.1 180 05:47 01.12.2019
3420 Clouds 2 1021 93 10000 3.1 190 04:50 01.12.2019
3421 Clouds 2 1021 100 10000 3.6 220 02:54 01.12.2019
3422 Clouds 2 1021 100 10000 3.6 220 02:36 01.12.2019
3423 Clouds 2 1021 88 10000 1.5 130 02:18 01.12.2019
3424 Clouds 2 1021 93 10000 4.1 240 01:50 01.12.2019
3425 Clouds 2 1021 88 10000 2.6 170 01:19 01.12.2019
3426 Clouds 2 1021 80 10000 4.6 230 00:40 01.12.2019
3427 Clouds 2 1021 93 10000 3.1 180 00:22 01.12.2019
3428 Clouds 2 1021 86 10000 3.6 250 23:42 30.11.2019
3429 Rain 2 1021 85 10000 3.1 190 23:23 30.11.2019
3430 Clouds 1 1021 86 10000 4.6 260 22:50 30.11.2019
3431 Clouds 1 1021 85 10000 2.6 160 22:30 30.11.2019
3432 Clouds 1 1021 86 10000 3.1 260 21:59 30.11.2019
3433 Clouds 1 1021 86 10000 3.1 260 21:40 30.11.2019
3434 Rain 2 1020 93 10000 3.6 210 21:20 30.11.2019
3435 Clouds 2 1020 86 10000 3.1 270 20:55 30.11.2019
3436 Clouds 2 1020 86 10000 3.1 270 20:37 30.11.2019
3437 Clouds 2 1020 85 10000 2.6 190 20:19 30.11.2019
3438 Clouds 2 1020 93 10000 4.1 280 19:55 30.11.2019
3439 Clouds 2 1020 93 10000 4.1 280 19:36 30.11.2019
3440 Drizzle 2 1020 85 10000 2.1 210 19:18 30.11.2019
3441 Rain 2 1020 93 10000 5.7 240 18:55 30.11.2019
3442 Rain 2 1020 93 10000 5.7 240 18:37 30.11.2019
3443 Clouds 2 1020 86 10000 3.6 230 18:18 30.11.2019
3444 Clouds 1 1020 93 10000 4.6 260 17:56 30.11.2019
3445 Clouds 1 1020 93 10000 4.6 260 17:56 30.11.2019
3446 Clouds 1 1020 93 10000 4.6 260 17:37 30.11.2019
3447 Drizzle 2 1020 93 10000 3.6 210 17:19 30.11.2019
3448 Clouds 2 1019 86 10000 4.6 250 16:55 30.11.2019
3449 Clouds 2 1019 86 10000 4.6 250 16:37 30.11.2019
3450 Clouds 2 1020 93 10000 3.6 190 16:18 30.11.2019
3451 Clouds 2 1019 93 10000 4.6 240 15:41 30.11.2019
3452 Clouds 2 1019 86 10000 2.6 180 15:19 30.11.2019
3453 Rain 1 1019 100 10000 4.1 180 14:56 30.11.2019
3454 Rain 1 1019 100 10000 4.1 180 14:38 30.11.2019
3455 Rain 1 1020 95 10000 2.6 170 14:18 30.11.2019
3456 Rain 1 1019 93 10000 4.6 180 13:56 30.11.2019
3457 Rain 1 1019 93 10000 4.6 180 13:36 30.11.2019
3458 Rain 1 1020 95 10000 3.1 130 13:18 30.11.2019
3459 Rain 1 1019 100 10000 5.7 150 12:45 30.11.2019
3460 Drizzle 0 1020 95 10000 2.1 140 12:27 30.11.2019
3461 Rain 0 1019 100 10000 6.2 150 11:45 30.11.2019
3462 Rain 0 1020 94 10000 1.5 110 11:20 30.11.2019
3463 Snow 0 1019 100 10000 6.2 160 10:58 30.11.2019
3464 Snow 0 1019 100 10000 6.2 160 10:39 30.11.2019
3465 Clouds 0 1020 80 10000 1.5 100 10:20 30.11.2019
3466 Rain 0 1019 100 10000 5.1 150 09:47 30.11.2019
3467 Clouds 0 1020 80 10000 2.1 90 09:29 30.11.2019
3468 Snow 0 1019 94 9000 5.7 160 08:45 30.11.2019
3469 Clouds 0 1020 86 10000 2.1 60 08:24 30.11.2019
3470 Rain 0 1019 92 10000 5.7 160 07:59 30.11.2019
3471 Rain 0 1019 92 10000 5.7 160 07:41 30.11.2019
3472 Clouds 0 1020 80 10000 1 60 07:21 30.11.2019
3473 Clouds 0 1020 86 10000 1.5 110 06:30 30.11.2019
3474 Clouds 0 1020 86 10000 1.5 110 06:30 30.11.2019
3475 Snow -1 1020 92 10000 5.7 160 05:58 30.11.2019
3476 Rain -1 1020 90 10000 7.2 150 03:54 30.11.2019
3477 Rain -1 1020 90 10000 7.2 150 03:54 30.11.2019
3478 Rain -1 1020 90 10000 7.2 150 03:54 30.11.2019
3479 Clouds -1 1020 90 10000 3.1 80 03:18 30.11.2019
3480 Clouds -1 1021 93 10000 1.5 90 02:25 30.11.2019
3481 Clouds -1 1020 92 10000 6.2 150 01:47 30.11.2019
3482 Clouds -1 1020 80 10000 3.1 100 01:24 30.11.2019
3483 Clouds -1 1020 92 10000 6.2 150 00:38 30.11.2019
3484 Clouds -2 1021 95 10000 2.6 70 00:20 30.11.2019
3485 Clouds -2 1020 92 10000 6.2 150 23:44 29.11.2019
3486 Clouds -2 1021 87 10000 3.1 80 23:23 29.11.2019
3487 Clouds -1 1020 92 10000 6.7 150 22:48 29.11.2019
3488 Clouds -1 1021 87 10000 3.1 90 22:27 29.11.2019
3489 Clouds -1 1020 92 10000 6.7 160 21:56 29.11.2019
3490 Clouds -1 1020 92 10000 6.7 160 21:38 29.11.2019
3491 Clouds -1 1021 87 10000 2.6 90 21:19 29.11.2019
3492 Rain -1 1020 87 10000 6.7 160 20:56 29.11.2019
3493 Snow -1 1021 87 10000 2.6 90 20:36 29.11.2019
3494 Snow -1 1021 88 10000 2.6 90 20:18 29.11.2019
3495 Rain -1 1020 92 10000 6.2 160 19:54 29.11.2019
3496 Clouds -1 1020 86 10000 2.6 70 19:36 29.11.2019
3497 Clouds -1 1020 86 10000 2.6 70 19:18 29.11.2019
3498 Clouds -1 1020 92 10000 6.2 150 18:41 29.11.2019
3499 Clouds -1 1020 86 10000 2.6 100 18:23 29.11.2019
3500 Rain -1 1020 92 10000 6.2 160 17:56 29.11.2019
3501 Rain -1 1020 92 10000 6.2 160 17:38 29.11.2019
3502 Clouds -1 1020 86 10000 2.1 100 17:19 29.11.2019
3503 Clouds 0 1020 89 10000 5.1 150 16:42 29.11.2019
3504 Clouds 0 1020 86 10000 2.1 90 16:21 29.11.2019
3505 Rain 0 1019 89 10000 5.1 150 15:56 29.11.2019
3506 Rain 0 1019 89 10000 5.1 150 15:37 29.11.2019
3507 Clouds 0 1020 86 10000 1.5 80 15:19 29.11.2019
3508 Rain 0 1019 89 10000 4.1 160 14:40 29.11.2019
3509 Clouds -1 1020 83 10000 0.5 0 14:21 29.11.2019
3510 Clouds -1 1020 83 10000 3.6 160 13:56 29.11.2019
3511 Clouds -1 1020 83 10000 3.6 160 13:37 29.11.2019
3512 Clouds -1 1020 92 10000 2.1 140 13:19 29.11.2019
3513 Rain 0 1019 84 10000 3.1 160 12:42 29.11.2019
3514 Clouds -1 1019 84 10000 2.1 110 12:24 29.11.2019
3515 Rain -1 1019 84 10000 3.1 180 11:56 29.11.2019
3516 Rain -1 1019 84 10000 3.1 180 11:38 29.11.2019
3517 Clouds -1 1019 92 10000 1 0 11:18 29.11.2019
3518 Clouds -1 1019 78 10000 3.1 150 10:57 29.11.2019
3519 Clouds -1 1019 78 10000 3.1 150 10:38 29.11.2019
3520 Clouds -1 1019 86 10000 0.5 0 10:20 29.11.2019
3521 Clouds -1 1018 78 10000 3.6 170 09:57 29.11.2019
3522 Clouds -1 1018 78 10000 3.6 170 09:38 29.11.2019
3523 Clouds -1 1018 78 10000 2.1 120 09:19 29.11.2019
3524 Clouds -1 1018 100 10000 2.6 170 08:54 29.11.2019
3525 Clouds -1 1018 100 10000 2.6 170 08:36 29.11.2019
3526 Clouds -1 1018 92 10000 2.1 120 08:18 29.11.2019
3527 Clouds -1 1018 75 10000 1.5 150 07:41 29.11.2019
3528 Rain 0 1018 75 10000 0.5 0 07:22 29.11.2019
3529 Clouds 0 1018 75 10000 1 150 06:46 29.11.2019
3530 Rain 0 1018 75 10000 1.5 150 06:23 29.11.2019
3531 Rain 0 1017 75 10000 1 170 05:32 29.11.2019
3532 Rain 0 1017 75 10000 1 170 05:32 29.11.2019
3533 Clouds 0 1018 75 10000 0.5 30 04:45 29.11.2019
3534 Rain 0 1017 86 10000 1.5 110 03:23 29.11.2019
3535 Clouds 0 1017 75 10000 3.1 200 02:42 29.11.2019
3536 Rain 0 1017 86 10000 2.1 100 02:20 29.11.2019
3537 Rain 0 1017 86 10000 1 0 01:27 29.11.2019
3538 Clouds 0 1017 100 10000 0.5 180 00:51 29.11.2019
3539 Rain 0 1017 86 10000 2.1 140 00:22 29.11.2019
3540 Clouds -1 1017 79 10000 2.1 180 23:58 28.11.2019
3541 Clouds -1 1017 79 10000 2.1 180 23:39 28.11.2019
3542 Rain 0 1017 86 10000 1.5 150 23:20 28.11.2019
3543 Rain 0 1017 86 10000 1.5 150 23:20 28.11.2019
3544 Clouds 0 1017 80 10000 1 220 22:55 28.11.2019
3545 Clouds -1 1017 80 10000 1 220 22:36 28.11.2019
3546 Rain -1 1017 86 10000 2.1 150 22:18 28.11.2019
3547 Rain -1 1017 80 10000 2.1 180 21:42 28.11.2019
3548 Rain -1 1017 86 10000 2.6 140 21:21 28.11.2019
3549 Rain 0 1017 80 10000 1.5 180 20:59 28.11.2019
3550 Rain -1 1017 80 10000 1.5 180 20:40 28.11.2019
3551 Rain -1 1017 86 10000 1 0 20:21 28.11.2019
3552 Rain -1 1017 86 10000 1 0 20:21 28.11.2019
3553 Rain -1 1017 81 10000 3.6 190 19:57 28.11.2019
3554 Rain 0 1017 80 10000 1.5 120 19:38 28.11.2019
3555 Rain 0 1017 80 10000 1.5 120 19:19 28.11.2019
3556 Rain 0 1017 80 10000 1.5 120 19:19 28.11.2019
3557 Rain 0 1017 81 10000 2.1 190 18:57 28.11.2019
3558 Rain 0 1017 81 10000 2.1 190 18:39 28.11.2019
3559 Clouds 0 1017 80 10000 1 100 18:18 28.11.2019
3560 Rain 0 1017 81 10000 2.6 200 17:56 28.11.2019
3561 Rain 0 1017 81 10000 2.6 200 17:38 28.11.2019
3562 Rain 0 1017 74 10000 1.5 120 17:20 28.11.2019
3563 Clouds -1 1016 86 10000 1 200 16:40 28.11.2019
3564 Rain -1 1017 73 10000 1.53 163 16:19 28.11.2019
3565 Clouds -1 1016 86 10000 3.1 150 15:58 28.11.2019
3566 Clouds -1 1016 86 10000 3.1 150 15:39 28.11.2019
3567 Clouds -1 1017 73 10000 1 0 15:19 28.11.2019
3568 Clouds -1 1016 86 10000 4.1 170 14:58 28.11.2019
3569 Clouds -1 1016 86 10000 4.1 170 14:58 28.11.2019
3570 Clouds -2 1016 86 10000 4.1 170 14:39 28.11.2019
3571 Clouds -2 1017 58 10000 2.6 130 14:19 28.11.2019
3572 Clouds -3 1017 86 10000 3.6 170 13:43 28.11.2019
3573 Clouds -4 1017 73 10000 1.5 110 13:24 28.11.2019
3574 Clouds -4 1017 62 10000 4.1 160 12:57 28.11.2019
3575 Clouds -4 1017 62 10000 4.1 160 12:38 28.11.2019
3576 Clouds -4 1017 73 10000 2 138 12:20 28.11.2019
3577 Clouds -4 1017 62 10000 4.6 150 11:56 28.11.2019
3578 Clouds -4 1017 62 10000 4.6 150 11:37 28.11.2019
3579 Clear -4 1017 68 10000 1 120 11:19 28.11.2019
3580 Clear -4 1017 68 10000 1 120 11:19 28.11.2019
3581 Clouds -5 1017 86 10000 4.1 150 10:42 28.11.2019
3582 Clear -5 1017 67 10000 1.5 130 10:22 28.11.2019
3583 Clear -5 1016 86 10000 5.1 160 09:56 28.11.2019
3584 Clear -5 1016 86 10000 5.1 160 09:38 28.11.2019
3585 Clear -5 1016 68 10000 1 130 09:20 28.11.2019
3586 Clear -5 1016 86 10000 4.6 160 08:44 28.11.2019
3587 Clear -5 1016 68 10000 1.5 120 08:22 28.11.2019
3588 Clear -4 1016 86 10000 4.1 160 07:58 28.11.2019
3589 Clear -4 1016 86 10000 4.1 160 07:39 28.11.2019
3590 Clear -4 1017 68 10000 2.1 140 07:21 28.11.2019
3591 Clear -4 1016 86 10000 4.6 160 06:41 28.11.2019
3592 Clear -4 1016 79 10000 4.6 160 05:56 28.11.2019
3593 Clear -4 1017 53 10000 2.1 100 05:38 28.11.2019
3594 Clear -4 1016 86 10000 4.6 160 04:51 28.11.2019
3595 Clear -4 1017 50 10000 1.5 100 02:32 28.11.2019
3596 Clear -5 1017 53 10000 1.5 130 01:25 28.11.2019
3597 Fog -5 1016 92 10000 2.6 160 00:42 28.11.2019
3598 Clear -4 1016 58 10000 2.1 110 00:19 28.11.2019
3599 Fog -5 1016 100 9000 2.1 150 23:39 27.11.2019
3600 Clear -5 1017 68 10000 1 0 23:21 27.11.2019
3601 Fog -5 1016 100 10000 3.1 120 22:56 27.11.2019
3602 Fog -5 1016 100 10000 3.1 120 22:38 27.11.2019
3603 Clear -5 1017 73 10000 1 120 22:19 27.11.2019
3604 Fog -5 1016 100 8000 1.5 120 21:56 27.11.2019
3605 Fog -5 1016 100 8000 1.5 120 21:56 27.11.2019
3606 Fog -5 1016 100 8000 1.5 120 21:37 27.11.2019
3607 Clear -5 1017 85 10000 2.1 120 21:19 27.11.2019
3608 Fog -4 1017 35 5000 1.5 40 20:57 27.11.2019
3609 Fog -5 1017 35 5000 1.5 40 20:37 27.11.2019
3610 Clear -4 1017 85 10000 1.1 92 20:19 27.11.2019
3611 Fog -5 1016 44 10000 1 10 19:56 27.11.2019
3612 Fog -5 1016 44 10000 1 10 19:37 27.11.2019
3613 Clear -5 1017 85 10000 1.1 92 19:18 27.11.2019
3614 Fog -4 1016 100 10000 0.5 90 18:56 27.11.2019
3615 Clear -4 1017 92 10000 2.1 140 18:36 27.11.2019
3616 Clear -4 1017 92 10000 2.1 140 18:18 27.11.2019
3617 Clear -4 1016 44 10000 2.1 90 17:55 27.11.2019
3618 Clear -4 1017 85 10000 1.5 160 17:36 27.11.2019
3619 Clear -4 1017 85 10000 1.5 160 17:18 27.11.2019
3620 Clear -4 1016 50 10000 1 50 16:55 27.11.2019
3621 Clear -4 1017 85 10000 1 150 16:36 27.11.2019
3622 Clear -4 1017 85 10000 1 150 16:18 27.11.2019
3623 Fog -3 1016 50 10000 2.1 80 15:55 27.11.2019
3624 Clear -3 1016 79 10000 1 0 15:37 27.11.2019
3625 Clear -3 1016 79 10000 1 0 15:18 27.11.2019
3626 Clear -4 1016 50 10000 2.1 20 14:42 27.11.2019
3627 -273 0 0 0 0 0 14:24 27.11.2019
3628 Clear -4 1016 48 10000 1 60 13:59 27.11.2019
3629 Clear -4 1016 48 10000 1 60 13:40 27.11.2019
3630 Clear -4 1017 92 10000 1 0 13:19 27.11.2019
3631 Clear -4 1017 92 10000 1 0 13:19 27.11.2019
3632 Clear -4 1016 54 10000 1 70 12:59 27.11.2019
3633 Clear -4 1016 54 10000 1 70 12:40 27.11.2019
3634 Clear -5 1017 92 10000 1 100 12:20 27.11.2019
3635 Clear -6 1016 92 10000 2.1 130 11:54 27.11.2019
3636 Clear -6 1016 92 10000 2.1 130 11:54 27.11.2019
3637 Clear -6 1016 92 10000 2.1 130 11:36 27.11.2019
3638 Clear -5 1016 92 10000 2.1 120 11:18 27.11.2019
3639 Clear -5 1016 100 10000 0.5 30 10:42 27.11.2019
3640 Clear -5 1016 100 10000 0.5 30 10:42 27.11.2019
3641 Clear -5 1016 85 10000 1 0 10:23 27.11.2019
3642 Clouds -5 1016 100 10000 1 90 09:49 27.11.2019
3643 Clear -5 1016 85 10000 1.5 170 09:26 27.11.2019
3644 Clouds -5 1016 92 10000 0.5 220 08:59 27.11.2019
3645 Clouds -5 1016 92 10000 0.5 220 08:41 27.11.2019
3646 Clear -5 1016 85 10000 1 0 08:22 27.11.2019
3647 Clear -5 1016 85 10000 1 0 08:22 27.11.2019
3648 Clear -4 1015 86 10000 1.5 350 07:47 27.11.2019
3649 Clear -5 1016 85 10000 0.94 91 07:28 27.11.2019
3650 Clear -4 1015 92 10000 1.5 340 06:49 27.11.2019
3651 Clear -5 1015 92 10000 1 90 06:30 27.11.2019
3652 Clear -5 1015 92 10000 3.1 340 05:45 27.11.2019
3653 Clear -5 1015 92 10000 3.1 340 05:45 27.11.2019
3654 Clear -4 1015 85 10000 2.1 140 05:19 27.11.2019
3655 Clear -4 1015 86 10000 3.1 350 04:43 27.11.2019
3656 Clear -4 1016 71 10000 1.5 320 03:55 27.11.2019
3657 Clear -4 1016 79 10000 0.81 83 03:36 27.11.2019
3658 Clear -4 1016 79 10000 0.81 83 03:18 27.11.2019
3659 Clouds -3 1016 74 10000 1 80 01:48 27.11.2019
3660 Clouds -3 1016 74 10000 2.1 80 00:46 27.11.2019
3661 Clouds -4 1016 79 10000 0.5 120 00:27 27.11.2019
3662 Clear -4 1016 74 10000 2.1 90 23:54 26.11.2019
3663 Clear -4 1016 74 10000 2.1 90 23:54 26.11.2019
3664 Clear -4 1016 74 10000 2.1 90 23:36 26.11.2019
3665 Clouds -4 1016 73 10000 1 110 23:18 26.11.2019
3666 Clouds -4 1016 73 10000 1 110 23:18 26.11.2019
3667 -273 0 0 0 0 0 22:39 26.11.2019
3668 Clouds -3 1016 73 10000 1.15 116 22:19 26.11.2019
3669 Clouds -3 1016 73 10000 1.15 116 22:19 26.11.2019
3670 Clouds -3 1016 73 10000 1.15 116 22:19 26.11.2019
3671 Clouds -3 1016 69 10000 2.1 150 21:59 26.11.2019
3672 Clouds -3 1016 69 10000 2.1 150 21:38 26.11.2019
3673 Clouds -4 1016 68 10000 1 0 21:20 26.11.2019
3674 Clear -3 1016 69 10000 3.1 170 20:57 26.11.2019
3675 Clear -3 1016 69 10000 3.1 170 20:57 26.11.2019
3676 Clear -3 1016 69 10000 3.1 170 20:57 26.11.2019
3677 Clear -2 1016 69 10000 3.1 170 20:37 26.11.2019
3678 Clear -2 1016 69 10000 3.1 170 20:37 26.11.2019
3679 Clear -2 1016 69 10000 3.1 170 20:37 26.11.2019
3680 Clouds -3 1016 63 10000 1 0 20:19 26.11.2019
3681 Clear -3 1016 80 10000 2.1 210 19:55 26.11.2019
3682 Clear -3 1016 80 10000 2.1 210 19:55 26.11.2019
3683 Clear -3 1016 68 10000 2.1 100 19:37 26.11.2019
3684 Clear -3 1016 68 10000 2.1 100 19:19 26.11.2019
3685 Clouds -3 1016 92 10000 2.1 230 18:57 26.11.2019
3686 Clouds -3 1016 92 10000 2.1 230 18:38 26.11.2019
3687 Clear -2 1016 68 10000 3.1 100 18:20 26.11.2019
3688 Clear -2 1016 68 10000 3.1 100 18:20 26.11.2019
3689 Clouds -1 1015 86 10000 2.1 220 17:57 26.11.2019
3690 Clouds -1 1015 86 10000 2.1 220 17:38 26.11.2019
3691 Clear -2 1016 64 10000 1 0 17:20 26.11.2019
3692 Clear -2 1016 64 10000 1.11 156 16:56 26.11.2019
3693 Clear -2 1016 74 10000 2.1 130 16:37 26.11.2019
3694 Clear -2 1016 74 10000 2.1 130 16:18 26.11.2019
3695 Clear -2 1016 74 10000 2.1 130 16:18 26.11.2019
3696 Clear -1 1016 80 10000 1.11 156 15:58 26.11.2019
3697 Clear -1 1016 80 10000 1.11 156 15:37 26.11.2019
3698 Clear -2 1016 74 10000 1 160 15:19 26.11.2019
3699 Clear -1 1016 80 10000 1 130 14:47 26.11.2019
3700 Clear -1 1016 68 10000 1.11 156 14:25 26.11.2019
3701 Clear -2 1016 74 10000 1 350 13:56 26.11.2019
3702 Clear -2 1016 74 10000 1 350 13:38 26.11.2019
3703 Clear -2 1016 68 10000 1 0 13:18 26.11.2019
3704 Clear -1 1016 68 10000 2.6 40 12:38 26.11.2019
3705 Clear -1 1016 68 10000 2.6 40 12:20 26.11.2019
3706 Clear -2 1016 80 10000 0.5 90 11:58 26.11.2019
3707 Clear -2 1016 80 10000 0.5 90 11:38 26.11.2019
3708 Clear -1 1016 79 10000 0.5 0 11:19 26.11.2019
3709 Clear -1 1016 79 10000 0.5 0 11:19 26.11.2019
3710 Clear -1 1016 64 10000 0.5 0 10:57 26.11.2019
3711 Clear -1 1016 64 10000 0.5 0 10:39 26.11.2019
3712 Clear -1 1016 79 10000 0.92 109 10:20 26.11.2019
3713 Clear -1 1016 69 10000 1 100 09:55 26.11.2019
3714 Clear -1 1017 79 10000 0.92 109 09:37 26.11.2019
3715 Clear -1 1017 79 10000 0.92 109 09:18 26.11.2019
3716 Clear -2 1017 80 10000 1.5 60 08:43 26.11.2019
3717 Clear -2 1017 85 10000 1 170 08:22 26.11.2019
3718 Clear -2 1016 74 10000 2.6 60 07:44 26.11.2019
3719 Clear -2 1017 85 10000 2.1 160 07:25 26.11.2019
3720 Clear -2 1017 86 10000 1 40 06:55 26.11.2019
3721 Clear -2 1017 68 10000 1 130 06:23 26.11.2019
3722 Clear -2 1017 74 10000 1.5 30 05:41 26.11.2019
3723 Clear -1 1017 59 10000 1.5 90 03:59 26.11.2019
3724 Clear -1 1017 74 10000 0.15 88 02:26 26.11.2019
3725 Clear -1 1017 79 10000 1.5 100 01:32 26.11.2019
3726 Clear -1 1017 80 10000 2.6 40 00:50 26.11.2019
3727 Clear 0 1017 80 10000 1 40 00:25 26.11.2019
3728 Clear -1 1016 80 10000 3.1 90 23:40 25.11.2019
3729 Clear -1 1016 74 10000 1.5 0 23:20 25.11.2019
3730 Clear 0 1016 93 10000 2.1 70 22:58 25.11.2019
3731 Clear 0 1016 93 10000 2.1 70 22:38 25.11.2019
3732 Clear 0 1016 80 10000 2.1 120 22:18 25.11.2019
3733 Clear 0 1016 93 10000 1 350 21:58 25.11.2019
3734 Clear 0 1016 93 10000 1 350 21:39 25.11.2019
3735 Clear -1 1016 80 10000 1 0 21:20 25.11.2019
3736 Clear -1 1016 65 10000 1.5 100 20:56 25.11.2019
3737 Clear -1 1016 65 10000 1.5 100 20:38 25.11.2019
3738 Clear -2 1016 80 10000 1.5 160 20:19 25.11.2019
3739 Clear -1 1015 93 10000 1.5 70 19:56 25.11.2019
3740 Clear -1 1015 93 10000 1.5 70 19:56 25.11.2019
3741 Clear -1 1015 93 10000 1.5 70 19:37 25.11.2019
3742 Clear -1 1015 86 10000 1 0 19:37 25.11.2019
3743 Clear -1 1015 86 10000 1 0 19:18 25.11.2019
3744 Clear 0 1015 69 10000 3.1 10 18:56 25.11.2019
3745 Clear 0 1015 69 10000 3.1 10 18:38 25.11.2019
3746 Clear 0 1015 69 10000 0.8 65 18:19 25.11.2019
3747 Clear 1 1015 69 10000 1.5 50 17:57 25.11.2019
3748 Clear 0 1015 69 10000 1.5 50 17:38 25.11.2019
3749 Clear 0 1015 69 10000 0.91 87 17:19 25.11.2019
3750 Clear 0 1015 69 10000 2.6 110 16:56 25.11.2019
3751 Clear 1 1015 80 10000 0.91 87 16:37 25.11.2019
3752 Clear 1 1015 80 10000 0.91 87 16:19 25.11.2019
3753 Clear 1 1015 93 10000 3.1 40 15:42 25.11.2019
3754 Clear 1 1015 80 10000 1 0 15:21 25.11.2019
3755 Clear 1 1015 69 10000 2.6 30 14:59 25.11.2019
3756 Clear 0 1015 69 10000 2.6 30 14:40 25.11.2019
3757 Clear 0 1015 74 10000 2.1 350 14:22 25.11.2019
3758 Clear 0 1015 69 10000 2.6 70 13:55 25.11.2019
3759 Clear 0 1015 69 10000 0.8 61 13:36 25.11.2019
3760 Clear 0 1015 73 10000 0.57 48 13:18 25.11.2019
3761 Clear 0 1015 73 10000 0.57 48 13:18 25.11.2019
3762 Mist 0 1015 100 1000 3.6 60 12:41 25.11.2019
3763 Clear -1 1015 80 10000 1.5 130 12:22 25.11.2019
3764 Fog 0 1014 100 10000 3.1 70 11:59 25.11.2019
3765 Fog -1 1014 100 10000 3.1 70 11:39 25.11.2019
3766 Clear -1 1015 76 10000 2.6 110 11:20 25.11.2019
3767 Clear -1 1014 76 10000 2.6 360 10:46 25.11.2019
3768 Clear -1 1015 86 10000 1.5 40 10:28 25.11.2019
3769 Clear 0 1014 93 10000 0.5 150 09:59 25.11.2019
3770 Clear -1 1014 93 10000 0.5 150 09:41 25.11.2019
3771 Clear -1 1014 93 10000 0.5 150 09:41 25.11.2019
3772 Clear -1 1015 86 10000 0.68 82 09:23 25.11.2019
3773 Clear -1 1014 76 10000 1 10 08:42 25.11.2019
3774 Clear -1 1014 86 10000 1.5 130 08:23 25.11.2019
3775 Clear -1 1014 75 10000 3.6 30 07:47 25.11.2019
3776 Clear 0 1014 92 10000 1.19 359 07:28 25.11.2019
3777 Clear 0 1014 75 10000 4.1 30 06:58 25.11.2019
3778 Clear 0 1014 92 10000 1 140 06:23 25.11.2019
3779 Clear 0 1014 92 10000 1 140 06:23 25.11.2019
3780 Clear -1 1014 100 10000 4.6 30 05:50 25.11.2019
3781 Clear -1 1014 92 10000 1 150 05:31 25.11.2019
3782 Clear 0 1014 93 10000 3.6 30 04:48 25.11.2019
3783 Clear 1 1015 80 10000 1.5 50 02:36 25.11.2019
3784 Clear 1 1015 93 10000 3.6 40 01:43 25.11.2019
3785 Clear 1 1015 73 10000 0.5 0 01:24 25.11.2019
3786 Clear 1 1015 93 10000 2.6 50 00:42 25.11.2019
3787 Clear 1 1015 80 10000 1 0 00:20 25.11.2019
3788 Clear 1 1015 100 10000 3.6 40 23:44 24.11.2019
3789 Clear 2 1015 80 10000 1 0 23:20 24.11.2019
3790 Clear 1 1015 100 10000 2.6 30 22:57 24.11.2019
3791 Clear 1 1015 100 10000 2.6 30 22:39 24.11.2019
3792 Clear 1 1015 68 10000 1.06 71 22:19 24.11.2019
3793 Clear 1 1015 93 10000 1 60 21:57 24.11.2019
3794 Clear 1 1015 93 10000 1 60 21:38 24.11.2019
3795 Clear 1 1015 68 10000 1.06 71 21:20 24.11.2019
3796 Clear 1 1015 86 10000 2.6 30 20:56 24.11.2019
3797 Clear 2 1015 68 10000 1.5 160 20:37 24.11.2019
3798 Clouds 2 1015 70 10000 1.5 160 20:18 24.11.2019
3799 Clouds 1 1015 93 10000 2.6 70 19:56 24.11.2019
3800 Clouds 1 1015 93 10000 2.6 70 19:56 24.11.2019
3801 Clouds 1 1015 93 10000 2.6 70 19:38 24.11.2019
3802 Clouds 1 1015 80 10000 0.5 190 19:19 24.11.2019
3803 Clouds 1 1015 93 10000 3.6 60 18:56 24.11.2019
3804 Clouds 1 1015 93 10000 3.6 60 18:36 24.11.2019
3805 Clouds 1 1015 70 10000 1 160 18:18 24.11.2019
3806 Clouds 1 1014 70 10000 3.6 40 17:55 24.11.2019
3807 Clouds 1 1014 80 10000 2.1 350 17:37 24.11.2019
3808 Clouds 1 1014 80 10000 2.1 350 17:37 24.11.2019
3809 Clouds 1 1014 80 10000 2.1 350 17:18 24.11.2019
3810 Clouds 1 1014 93 10000 2.6 20 16:54 24.11.2019
3811 Clouds 2 1014 93 10000 2.6 20 16:36 24.11.2019
3812 Clouds 1 1014 80 10000 1 130 16:18 24.11.2019
3813 Clouds 1 1014 67 10000 2.6 60 15:43 24.11.2019
3814 Clouds 1 1014 74 10000 2.28 31 15:24 24.11.2019
3815 Clouds 1 1014 67 10000 3.1 60 14:57 24.11.2019
3816 Clouds 1 1014 67 10000 3.1 60 14:38 24.11.2019
3817 Clouds 1 1014 67 10000 3.1 60 14:38 24.11.2019
3818 Clouds 1 1014 68 10000 1 200 14:18 24.11.2019
3819 Clouds 0 1014 93 10000 3.1 90 13:40 24.11.2019
3820 Clouds 0 1014 86 10000 1.5 150 13:22 24.11.2019
3821 Clouds 0 1014 67 10000 3.1 50 12:59 24.11.2019
3822 Clouds 0 1014 67 10000 3.1 50 12:40 24.11.2019
3823 Clouds 0 1014 67 10000 1.5 90 12:18 24.11.2019
3824 Clouds 0 1014 67 10000 4.1 10 11:56 24.11.2019
3825 Clouds 0 1014 67 10000 1 0 11:36 24.11.2019
3826 Clouds 0 1014 69 10000 1 0 11:18 24.11.2019
3827 Clouds 0 1014 69 10000 1 0 11:18 24.11.2019
3828 Clouds 0 1014 69 10000 3.1 40 10:46 24.11.2019
3829 Clouds 0 1014 69 10000 0.5 0 10:28 24.11.2019
3830 Clouds 0 1014 69 10000 0.5 0 10:28 24.11.2019
3831 Clouds 0 1013 86 10000 3.1 50 09:55 24.11.2019
3832 Clouds 0 1013 86 10000 3.1 50 09:37 24.11.2019
3833 Clouds 0 1013 86 10000 2.38 51 09:18 24.11.2019
3834 Clouds 0 1013 93 10000 3.6 40 08:44 24.11.2019
3835 Clouds 0 1013 73 10000 1 0 08:22 24.11.2019
3836 Clouds 0 1013 74 10000 3.1 70 07:57 24.11.2019
3837 Clouds 1 1013 74 10000 3.1 70 07:37 24.11.2019
3838 Clouds 1 1013 74 10000 1.5 140 07:19 24.11.2019
3839 Clouds 1 1013 80 10000 1.5 30 06:20 24.11.2019
3840 Clouds 1 1012 93 10000 3.1 30 04:48 24.11.2019
3841 Clouds 1 1012 93 10000 2.1 50 03:37 24.11.2019
3842 Clouds 2 1013 80 10000 1.5 0 02:22 24.11.2019
3843 Clouds 3 1012 100 10000 3.1 60 01:40 24.11.2019
3844 Clouds 2 1013 85 10000 3.1 60 01:21 24.11.2019
3845 Clouds 2 1013 93 10000 3.6 30 00:47 24.11.2019
3846 Clouds 3 1013 85 10000 2.11 52 00:24 24.11.2019
3847 Mist 3 1013 100 4000 3.1 40 23:46 23.11.2019
3848 Clouds 3 1012 89 10000 0.5 0 23:23 23.11.2019
3849 Fog 2 1012 100 10000 3.6 50 22:59 23.11.2019
3850 Fog 2 1012 100 10000 3.6 50 22:40 23.11.2019
3851 Clouds 2 1013 86 10000 2.1 110 22:22 23.11.2019
3852 Fog 3 1013 100 10000 2.6 20 21:59 23.11.2019
3853 Fog 3 1013 100 10000 2.6 20 21:41 23.11.2019
3854 Clouds 3 1013 86 10000 2.1 50 21:22 23.11.2019
3855 Mist 3 1012 100 7000 2.1 60 20:58 23.11.2019
3856 Clouds 3 1013 93 10000 2.03 38 20:37 23.11.2019
3857 Clouds 3 1013 93 10000 2.03 38 20:37 23.11.2019
3858 Clouds 3 1013 93 10000 1.77 35 20:18 23.11.2019
3859 Clouds 3 1012 100 10000 1.5 40 19:55 23.11.2019
3860 Clouds 3 1012 100 10000 1.5 40 19:36 23.11.2019
3861 Clouds 3 1013 86 10000 1.77 35 19:18 23.11.2019
3862 Clouds 4 1012 93 10000 2.1 20 18:40 23.11.2019
3863 Clouds 3 1012 86 10000 1 190 18:21 23.11.2019
3864 Clouds 4 1012 93 10000 2.1 20 17:55 23.11.2019
3865 Clouds 4 1012 93 10000 2.1 20 17:37 23.11.2019
3866 Rain 4 1012 86 10000 1 190 17:19 23.11.2019
3867 Rain 4 1012 86 10000 1 190 17:19 23.11.2019
3868 Rain 4 1012 86 10000 1 190 17:19 23.11.2019
3869 Clouds 4 1012 93 10000 2.6 30 16:56 23.11.2019
3870 Clouds 4 1012 93 10000 2.6 30 16:56 23.11.2019
3871 Clouds 5 1012 93 10000 2.6 30 16:37 23.11.2019
3872 Rain 5 1012 86 10000 1 0 16:37 23.11.2019
3873 Rain 5 1012 86 10000 1 0 16:19 23.11.2019
3874 Clouds 5 1012 100 10000 2.6 20 15:56 23.11.2019
3875 Clouds 5 1013 86 10000 0.5 0 15:38 23.11.2019
3876 Clouds 4 1013 86 10000 0.5 0 15:18 23.11.2019
3877 Clouds 4 1013 100 10000 3.1 30 14:43 23.11.2019
3878 Clouds 4 1013 86 10000 1.5 140 14:22 23.11.2019
3879 Rain 4 1013 100 10000 3.1 40 13:59 23.11.2019
3880 Rain 4 1013 100 10000 3.1 40 13:40 23.11.2019
3881 Clouds 4 1013 80 10000 1 60 13:19 23.11.2019
3882 Drizzle 4 1013 100 10000 2.1 40 12:44 23.11.2019
3883 Clouds 4 1013 80 10000 1 0 12:24 23.11.2019
3884 Drizzle 4 1013 100 10000 2.1 60 11:58 23.11.2019
3885 Drizzle 4 1013 100 10000 2.1 60 11:40 23.11.2019
3886 Drizzle 4 1013 80 10000 1.81 69 11:18 23.11.2019
3887 Drizzle 5 1012 93 10000 2.6 60 10:43 23.11.2019
3888 Clouds 5 1012 75 10000 2.1 90 10:21 23.11.2019
3889 Drizzle 5 1012 100 10000 2.1 80 09:41 23.11.2019
3890 Clouds 5 1012 75 10000 1.5 90 09:19 23.11.2019
3891 Drizzle 5 1012 100 10000 3.1 70 08:42 23.11.2019
3892 Clouds 5 1012 70 10000 3.6 70 08:19 23.11.2019
3893 Drizzle 5 1011 87 10000 3.6 80 07:52 23.11.2019
3894 Clouds 5 1011 70 10000 3.6 70 07:34 23.11.2019
3895 Clouds 5 1011 87 10000 3.6 80 06:43 23.11.2019
3896 Rain 5 1011 75 10000 4.6 80 06:19 23.11.2019
3897 Clouds 6 1011 87 10000 1 60 05:46 23.11.2019
3898 Clouds 6 1011 70 10000 4.1 70 05:27 23.11.2019
3899 Clouds 6 1011 87 10000 3.1 80 04:47 23.11.2019
3900 Clouds 6 1011 65 10000 5.1 90 04:26 23.11.2019
3901 Clouds 6 1010 93 10000 2.1 110 02:40 23.11.2019
3902 Rain 6 1010 100 8000 3.1 130 01:42 23.11.2019
3903 Rain 6 1010 100 8000 1 70 00:57 23.11.2019
3904 Rain 6 1010 100 8000 1 70 00:39 23.11.2019
3905 Clouds 5 1010 75 10000 2.6 60 00:18 23.11.2019
3906 Drizzle 5 1009 100 2000 1 10 23:39 22.11.2019
3907 Clouds 5 1009 75 10000 5.7 120 23:20 22.11.2019
3908 Fog 5 1009 100 700 2.1 360 22:57 22.11.2019
3909 Fog 5 1009 100 700 2.1 360 22:38 22.11.2019
3910 Clouds 5 1009 75 10000 3.1 110 22:20 22.11.2019
3911 Fog 5 1008 100 200 5.33 126 21:58 22.11.2019
3912 Fog 5 1008 100 200 5.33 126 21:39 22.11.2019
3913 Clouds 5 1008 75 10000 5.7 110 21:19 22.11.2019
3914 Fog 5 1008 100 400 1.5 60 20:43 22.11.2019
3915 Clouds 6 1008 81 10000 4.6 80 20:22 22.11.2019
3916 Drizzle 6 1007 100 2000 1 200 19:56 22.11.2019
3917 Drizzle 6 1007 100 2000 1 200 19:37 22.11.2019
3918 Drizzle 6 1007 81 10000 3.1 90 19:19 22.11.2019
3919 Drizzle 6 1007 100 700 1.5 200 18:39 22.11.2019
3920 Clouds 6 1006 81 10000 2.1 90 18:21 22.11.2019
3921 Mist 6 1006 100 4000 1.5 170 17:57 22.11.2019
3922 Mist 6 1006 100 4000 1.5 170 17:39 22.11.2019
3923 Clouds 6 1006 81 10000 2.6 60 17:20 22.11.2019
3924 Mist 6 1005 100 1500 2.6 180 16:42 22.11.2019
3925 Clouds 6 1005 81 10000 1.5 90 16:23 22.11.2019
3926 Fog 6 1005 100 1000 3.1 180 15:44 22.11.2019
3927 Drizzle 6 1005 81 10000 3.1 80 15:24 22.11.2019
3928 Drizzle 6 1005 100 1500 4.1 180 14:56 22.11.2019
3929 Clouds 6 1005 87 10000 3.6 80 14:38 22.11.2019
3930 Clouds 6 1005 87 10000 3.6 80 14:19 22.11.2019
3931 Drizzle 6 1004 100 2500 2.6 170 13:57 22.11.2019
3932 Drizzle 6 1004 100 2500 2.6 170 13:37 22.11.2019
3933 Clouds 6 1005 81 10000 3.6 80 13:18 22.11.2019
3934 Rain 6 1004 100 10000 2.1 150 12:55 22.11.2019
3935 Rain 6 1004 100 10000 2.1 150 12:55 22.11.2019
3936 Rain 6 1004 100 10000 2.1 150 12:36 22.11.2019
3937 Clouds 5 1004 86 10000 2.1 80 12:18 22.11.2019
3938 Clouds 6 1003 100 10000 2.1 150 11:40 22.11.2019
3939 Clouds 6 1004 81 10000 2.1 70 11:22 22.11.2019
3940 Rain 6 1003 100 10000 4.1 160 10:59 22.11.2019
3941 Rain 6 1003 100 10000 4.1 160 10:40 22.11.2019
3942 Rain 6 1003 100 10000 4.1 160 10:40 22.11.2019
3943 Clouds 6 1003 87 10000 2.6 100 10:22 22.11.2019
3944 Clouds 6 1002 100 10000 4.1 150 09:56 22.11.2019
3945 Clouds 6 1002 100 10000 4.1 150 09:37 22.11.2019
3946 Clouds 6 1002 87 10000 3.1 90 09:19 22.11.2019
3947 Drizzle 6 1002 100 10000 4.1 150 08:46 22.11.2019
3948 Clouds 6 1002 87 10000 4.1 80 08:27 22.11.2019
3949 Clouds 6 1002 87 10000 4.1 80 08:27 22.11.2019
3950 Clouds 6 1001 93 10000 3.6 160 07:45 22.11.2019
3951 -273 0 0 0 0 0 07:23 22.11.2019
3952 Clouds 6 1000 93 10000 4.1 130 06:57 22.11.2019
3953 Clouds 6 1000 93 10000 4.1 130 06:37 22.11.2019
3954 Clouds 6 1000 100 10000 4.1 130 05:49 22.11.2019
3955 Clouds 6 1000 93 10000 4.6 140 04:50 22.11.2019
3956 Rain 5 999 100 10000 5.1 120 02:53 22.11.2019
3957 Drizzle 6 1000 81 8000 4.6 80 02:31 22.11.2019
3958 Rain 6 999 100 10000 6.7 130 01:45 22.11.2019
3959 Clouds 6 999 81 10000 5.1 70 01:20 22.11.2019
3960 Rain 6 998 93 10000 5.7 120 00:53 22.11.2019
3961 Drizzle 6 999 81 10000 5.1 60 00:24 22.11.2019
3962 Clouds 6 998 93 10000 4.6 90 23:49 21.11.2019
3963 Rain 6 999 75 10000 4.1 70 23:31 21.11.2019
3964 Rain 5 998 87 10000 7.2 90 22:59 21.11.2019
3965 Rain 5 998 87 10000 7.2 90 22:40 21.11.2019
3966 Clouds 5 999 75 10000 4.6 30 22:22 21.11.2019
3967 Rain 5 998 93 9000 6.7 90 21:57 21.11.2019
3968 Rain 5 998 93 9000 6.7 90 21:38 21.11.2019
3969 Clouds 5 998 75 10000 4.6 60 21:19 21.11.2019
3970 Rain 5 998 93 7000 5.7 80 20:58 21.11.2019
3971 Rain 5 998 93 7000 5.7 80 20:39 21.11.2019
3972 Clouds 5 998 70 10000 5.1 80 20:19 21.11.2019
3973 Rain 5 998 93 10000 5.1 70 19:59 21.11.2019
3974 Rain 5 998 93 10000 5.1 70 19:41 21.11.2019
3975 Clouds 5 998 75 10000 6.7 70 19:22 21.11.2019
3976 Rain 5 998 86 10000 6.7 80 18:57 21.11.2019
3977 Rain 5 998 86 10000 6.7 80 18:38 21.11.2019
3978 Clouds 5 998 70 10000 5.1 80 18:19 21.11.2019
3979 Clouds 5 998 86 10000 8.2 70 17:57 21.11.2019
3980 Clouds 5 998 86 10000 8.2 70 17:38 21.11.2019
3981 Clouds 5 998 75 10000 6.7 60 17:19 21.11.2019
3982 Clouds 5 998 81 10000 7.7 70 16:42 21.11.2019
3983 Rain 5 998 70 10000 9.3 70 16:22 21.11.2019
3984 Clouds 6 998 87 10000 8.2 60 15:58 21.11.2019
3985 Clouds 6 998 87 10000 8.2 60 15:39 21.11.2019
3986 Clouds 6 999 65 10000 7.2 70 15:19 21.11.2019
3987 Clouds 6 999 87 10000 6.2 70 14:56 21.11.2019
3988 Clouds 6 999 87 10000 6.2 70 14:36 21.11.2019
3989 Clouds 6 999 65 10000 4.6 60 14:18 21.11.2019
3990 Clouds 6 999 87 10000 6.7 70 13:40 21.11.2019
3991 Rain 6 1000 65 10000 5.7 70 13:20 21.11.2019
3992 Clouds 6 1000 81 10000 6.2 80 12:59 21.11.2019
3993 Clouds 6 1000 81 10000 6.2 80 12:39 21.11.2019
3994 Rain 6 1000 65 10000 8.2 80 12:20 21.11.2019
3995 Rain 6 1000 81 10000 7.2 70 11:41 21.11.2019
3996 Clouds 6 1000 82 10000 8.2 80 11:23 21.11.2019
3997 Clouds 6 1000 86 10000 7.2 70 10:59 21.11.2019
3998 Clouds 6 1000 86 10000 7.2 70 10:41 21.11.2019
3999 Clouds 6 1000 82 10000 7.2 80 10:23 21.11.2019
4000 Clouds 6 1000 82 10000 7.2 80 10:23 21.11.2019
4001 Rain 6 1001 81 10000 7.7 80 09:57 21.11.2019
4002 Rain 6 1001 81 10000 7.7 80 09:57 21.11.2019
4003 Rain 6 1001 81 10000 7.7 80 09:39 21.11.2019
4004 Clouds 5 1001 70 10000 7.2 70 09:20 21.11.2019
4005 Rain 5 1001 86 10000 5.7 60 08:42 21.11.2019
4006 Clouds 5 1001 78 10000 5.7 70 08:21 21.11.2019
4007 Clouds 6 1001 81 10000 6.7 70 07:43 21.11.2019
4008 Clouds 6 1002 78 10000 3.1 80 07:19 21.11.2019
4009 Clouds 6 1001 86 10000 6.2 60 06:58 21.11.2019
4010 Clouds 6 1002 78 10000 4.6 70 06:34 21.11.2019
4011 Clouds 5 1002 80 10000 7.2 70 05:39 21.11.2019
4012 Clouds 4 1003 69 10000 4.1 70 03:34 21.11.2019
4013 Clouds 4 1003 86 10000 6.2 70 02:42 21.11.2019
4014 Clouds 5 1004 69 10000 4.1 60 02:23 21.11.2019
4015 Clouds 5 1003 80 10000 6.2 80 01:45 21.11.2019
4016 Clouds 4 1004 65 10000 5.7 90 01:19 21.11.2019
4017 Clouds 5 1003 86 10000 5.1 80 00:38 21.11.2019
4018 Clouds 4 1004 65 10000 6.7 100 00:18 21.11.2019
4019 Clouds 5 1003 86 10000 6.2 90 23:42 20.11.2019
4020 Clouds 4 1004 65 10000 6.2 100 23:21 20.11.2019
4021 Clouds 4 1004 86 10000 6.7 100 22:57 20.11.2019
4022 Clouds 3 1004 86 10000 6.7 100 22:37 20.11.2019
4023 Clouds 3 1004 69 10000 4.6 50 22:19 20.11.2019
4024 Clouds 4 1003 86 10000 6.7 90 21:57 20.11.2019
4025 Clouds 4 1004 78 10000 3.6 100 21:38 20.11.2019
4026 Clouds 5 1004 78 10000 3.6 100 21:19 20.11.2019
4027 Clouds 5 1003 86 10000 6.2 100 20:56 20.11.2019
4028 Clouds 5 1003 86 10000 6.2 100 20:56 20.11.2019
4029 Clouds 5 1003 86 10000 6.2 100 20:37 20.11.2019
4030 Clouds 4 1004 65 10000 7.2 90 20:19 20.11.2019
4031 Clouds 4 1003 93 10000 6.7 110 19:55 20.11.2019
4032 Clouds 4 1003 93 10000 6.7 110 19:55 20.11.2019
4033 Clouds 4 1003 93 10000 6.7 110 19:36 20.11.2019
4034 Clouds 4 1003 65 10000 5.1 80 19:18 20.11.2019
4035 Clouds 4 1003 86 10000 6.2 110 18:58 20.11.2019
4036 Clouds 4 1003 86 10000 6.2 110 18:38 20.11.2019
4037 Clouds 4 1003 60 10000 7.2 100 18:20 20.11.2019
4038 Clouds 4 1003 80 10000 6.2 110 17:55 20.11.2019
4039 Clouds 4 1003 80 10000 6.2 110 17:37 20.11.2019
4040 Clouds 4 1003 65 10000 6.2 100 17:19 20.11.2019
4041 Clouds 4 1003 80 10000 6.7 100 16:43 20.11.2019
4042 Clouds 5 1003 65 10000 5.7 90 16:20 20.11.2019
4043 Clouds 5 1003 80 10000 8.2 110 15:58 20.11.2019
4044 Clouds 4 1003 80 10000 8.2 110 15:40 20.11.2019
4045 Clouds 4 1003 65 10000 5.1 90 15:20 20.11.2019
4046 Clouds 4 1003 80 10000 8.2 110 14:58 20.11.2019
4047 Clouds 4 1003 80 10000 8.2 110 14:39 20.11.2019
4048 Clouds 4 1003 65 10000 5.1 80 14:21 20.11.2019
4049 Clouds 4 1003 86 10000 8.2 90 13:57 20.11.2019
4050 Clouds 4 1003 86 10000 8.2 90 13:38 20.11.2019
4051 Clouds 4 1004 69 10000 6.7 90 13:19 20.11.2019
4052 Clouds 4 1003 86 10000 8.7 80 12:42 20.11.2019
4053 Clouds 4 1004 65 10000 6.2 90 12:24 20.11.2019
4054 Rain 4 1003 80 10000 7.7 80 11:57 20.11.2019
4055 Rain 4 1004 65 10000 4.6 70 11:38 20.11.2019
4056 Rain 4 1004 65 10000 4.6 70 11:20 20.11.2019
4057 Clouds 4 1003 80 10000 6.2 60 10:55 20.11.2019
4058 Clouds 4 1003 60 10000 6.2 80 10:37 20.11.2019
4059 Clouds 4 1003 60 10000 6.2 80 10:18 20.11.2019
4060 Clouds 4 1003 75 10000 5.7 70 09:43 20.11.2019
4061 Clouds 4 1003 60 10000 4.6 80 09:21 20.11.2019
4062 Clouds 4 1003 84 10000 6.7 70 08:56 20.11.2019
4063 Clouds 5 1003 84 10000 6.7 70 08:37 20.11.2019
4064 Clouds 4 1003 56 10000 3.6 40 08:18 20.11.2019
4065 Clouds 4 1003 75 10000 5.1 60 07:42 20.11.2019
4066 Clouds 4 1004 56 10000 5.7 70 07:24 20.11.2019
4067 Clouds 4 1004 75 10000 5.1 60 06:47 20.11.2019
4068 Clouds 4 1004 56 10000 4.6 70 06:21 20.11.2019
4069 Clouds 4 1004 77 10000 6.2 70 04:52 20.11.2019
4070 Clouds 4 1005 60 10000 3.1 70 03:28 20.11.2019
4071 Clouds 4 1005 56 10000 6.7 90 02:21 20.11.2019
4072 Clouds 4 1005 60 10000 9.8 90 01:32 20.11.2019
4073 Clouds 4 1005 73 10000 6.2 70 00:40 20.11.2019
4074 Rain 4 1005 80 10000 8.2 70 23:54 19.11.2019
4075 Clouds 4 1005 56 10000 7.7 90 23:26 19.11.2019
4076 Drizzle 4 1005 75 10000 6.7 70 22:58 19.11.2019
4077 Drizzle 5 1005 75 10000 6.7 70 22:39 19.11.2019
4078 Clouds 5 1006 60 10000 6.7 80 22:19 19.11.2019
4079 Rain 4 1006 75 10000 7.2 80 21:56 19.11.2019
4080 Clouds 4 1005 65 10000 7.7 80 21:37 19.11.2019
4081 Clouds 4 1005 65 10000 7.7 80 21:19 19.11.2019
4082 Clouds 4 1005 75 10000 7.7 80 20:56 19.11.2019
4083 Clouds 4 1005 75 10000 7.7 80 20:38 19.11.2019
4084 Clouds 4 1005 75 10000 7.7 80 20:38 19.11.2019
4085 Clouds 4 1005 75 10000 9.8 80 20:19 19.11.2019
4086 Clouds 4 1005 80 10000 7.2 80 19:56 19.11.2019
4087 Rain 4 1004 75 10000 9.3 90 19:38 19.11.2019
4088 Rain 4 1004 75 10000 9.3 90 19:19 19.11.2019
4089 Clouds 4 1004 80 10000 8.2 90 18:55 19.11.2019
4090 Clouds 4 1004 80 10000 8.2 90 18:36 19.11.2019
4091 Clouds 4 1005 65 10000 6.7 100 18:18 19.11.2019
4092 Clouds 4 1004 86 10000 10.8 120 17:55 19.11.2019
4093 Clouds 4 1004 86 10000 10.8 120 17:36 19.11.2019
4094 Clouds 5 1005 93 10000 6.7 90 17:18 19.11.2019
4095 Rain 5 1004 80 10000 9.8 100 16:42 19.11.2019
4096 Clouds 4 1004 93 10000 9.8 90 16:22 19.11.2019
4097 Rain 5 1003 75 10000 12.3 130 15:56 19.11.2019
4098 Rain 5 1003 75 10000 12.3 130 15:38 19.11.2019
4099 Rain 5 1003 75 10000 12.3 130 15:38 19.11.2019
4100 Rain 5 1004 93 10000 15.4 110 15:20 19.11.2019
4101 Clouds 4 1003 80 10000 12.3 110 14:55 19.11.2019
4102 Clouds 4 1003 80 10000 12.3 110 14:37 19.11.2019
4103 Clouds 4 1003 80 10000 12.3 110 14:37 19.11.2019
4104 Rain 4 1004 92 10000 10.3 120 14:19 19.11.2019
4105 Clouds 5 1003 80 10000 13.9 120 13:40 19.11.2019
4106 Clouds 5 1003 92 10000 14.9 110 13:19 19.11.2019
4107 Clouds 5 1003 80 10000 13.4 110 12:41 19.11.2019
4108 Rain 5 1002 92 10000 13.9 100 12:22 19.11.2019
4109 Rain 5 1002 86 10000 15.4 100 11:58 19.11.2019
4110 Rain 5 1002 86 10000 15.4 100 11:38 19.11.2019
4111 Rain 5 1002 60 10000 13.4 100 11:19 19.11.2019
4112 Rain 5 1002 80 10000 14.4 100 10:48 19.11.2019
4113 Rain 5 1001 60 10000 12.3 100 10:23 19.11.2019
4114 Clouds 5 1001 75 10000 11.8 100 09:58 19.11.2019
4115 Clouds 5 1001 75 10000 11.8 100 09:40 19.11.2019
4116 Clouds 5 1001 56 10000 11.3 90 09:19 19.11.2019
4117 Drizzle 5 1000 75 10000 11.3 100 08:41 19.11.2019
4118 Clouds 5 1001 60 10000 12.9 90 08:23 19.11.2019
4119 Clouds 5 1000 75 10000 12.9 100 07:58 19.11.2019
4120 Clouds 5 1000 75 10000 12.9 100 07:39 19.11.2019
4121 Clouds 5 1000 60 10000 12.3 90 07:20 19.11.2019
4122 Drizzle 5 1000 80 10000 13.4 100 06:50 19.11.2019
4123 Clouds 5 1001 60 10000 11.8 90 06:30 19.11.2019
4124 Drizzle 5 1000 80 10000 14.9 100 05:39 19.11.2019
4125 Rain 5 1001 60 10000 11.8 100 04:22 19.11.2019
4126 Drizzle 5 1001 60 10000 13.9 100 03:32 19.11.2019
4127 Rain 5 1001 80 10000 14.4 110 02:56 19.11.2019
4128 Clouds 5 1001 60 10000 13.4 100 02:22 19.11.2019
4129 Rain 5 1001 80 10000 14.4 110 01:40 19.11.2019
4130 Rain 5 1001 80 10000 14.4 110 00:22 19.11.2019
4131 Rain 5 1001 86 10000 15.9 110 23:57 18.11.2019
4132 Drizzle 5 1001 80 10000 11.3 100 23:37 18.11.2019
4133 Drizzle 5 1001 83 10000 11.3 100 23:18 18.11.2019
4134 Rain 5 1001 80 10000 15.4 110 22:42 18.11.2019
4135 Drizzle 4 1002 83 10000 12.3 90 22:23 18.11.2019
4136 Rain 4 1001 86 10000 14.9 110 21:56 18.11.2019
4137 Rain 4 1002 83 10000 10.3 90 21:37 18.11.2019
4138 Rain 4 1002 83 10000 10.3 90 21:19 18.11.2019
4139 Rain 4 1001 80 10000 15.4 110 20:56 18.11.2019
4140 Rain 4 1001 80 10000 15.4 110 20:38 18.11.2019
4141 Rain 4 1002 69 10000 13.4 90 20:18 18.11.2019
4142 Rain 4 1000 80 10000 17.5 110 19:55 18.11.2019
4143 Rain 4 1000 80 10000 17.5 110 19:36 18.11.2019
4144 Rain 4 1001 69 10000 13.4 90 19:18 18.11.2019
4145 -273 0 0 0 0 0 18:54 18.11.2019
4146 Rain 4 1000 80 10000 17 110 18:54 18.11.2019
4147 Rain 4 1000 80 10000 17 110 18:36 18.11.2019
4148 Rain 4 1002 69 10000 13.9 90 18:18 18.11.2019
4149 Drizzle 4 1001 75 10000 17.5 100 17:39 18.11.2019
4150 Rain 4 1002 69 10000 12.9 90 17:20 18.11.2019
4151 Drizzle 4 1000 75 10000 17 110 16:55 18.11.2019
4152 Drizzle 4 1000 75 10000 17 110 16:36 18.11.2019
4153 Clouds 4 1002 64 10000 14.4 90 16:18 18.11.2019
4154 Drizzle 4 1001 78 10000 16.5 100 15:55 18.11.2019
4155 Drizzle 4 1001 78 10000 16.5 100 15:36 18.11.2019
4156 Rain 4 1002 60 10000 13.4 90 15:18 18.11.2019
4157 Clouds 3 1002 65 10000 19 110 14:41 18.11.2019
4158 Clouds 3 1003 60 10000 8.7 90 14:23 18.11.2019
4159 Clouds 3 1002 69 10000 17 100 13:54 18.11.2019
4160 Clouds 3 1002 69 10000 17 100 13:36 18.11.2019
4161 Clouds 3 1005 60 10000 8.7 80 13:18 18.11.2019
4162 Clouds 3 1004 69 10000 17 100 12:38 18.11.2019
4163 Clouds 3 1006 59 10000 9.3 90 12:19 18.11.2019
4164 Clouds 2 1005 69 10000 17 100 11:44 18.11.2019
4165 Clouds 2 1007 64 10000 8.2 90 11:26 18.11.2019
4166 Clouds 2 1005 69 10000 16.5 100 10:58 18.11.2019
4167 Clouds 2 1005 69 10000 16.5 100 10:39 18.11.2019
4168 Clouds 2 1007 64 10000 6.2 80 10:20 18.11.2019
4169 Clouds 2 1006 64 10000 14.9 110 09:55 18.11.2019
4170 Clouds 2 1008 59 10000 6.2 70 09:37 18.11.2019
4171 Clouds 2 1008 59 10000 6.2 70 09:18 18.11.2019
4172 Clouds 1 1006 69 10000 15.4 100 08:44 18.11.2019
4173 Clouds 1 1008 64 10000 8.2 70 08:20 18.11.2019
4174 Clouds 1 1007 64 10000 14.4 100 07:48 18.11.2019
4175 Clouds 1 1009 59 10000 10.3 80 07:29 18.11.2019
4176 Clouds 1 1007 64 10000 10.3 90 06:56 18.11.2019
4177 Clouds 1 1009 55 10000 10.3 80 06:33 18.11.2019
4178 Clouds 0 1009 69 10000 12.3 100 05:52 18.11.2019
4179 Clouds 0 1009 69 10000 10.8 100 04:58 18.11.2019
4180 Clouds 0 1011 80 10000 8.7 90 02:59 18.11.2019
4181 Clouds -1 1013 74 10000 7.2 90 01:31 18.11.2019
4182 Clouds -1 1013 69 10000 7.2 100 00:35 18.11.2019
4183 Clouds -2 1013 74 10000 6.7 110 23:45 17.11.2019
4184 Clouds -2 1014 78 10000 6.7 80 23:25 17.11.2019
4185 Clouds -2 1013 80 10000 6.2 120 22:59 17.11.2019
4186 Clouds -2 1013 80 10000 6.2 120 22:41 17.11.2019
4187 Clouds -2 1015 80 10000 6.7 80 22:23 17.11.2019
4188 Clouds -2 1014 80 10000 5.7 120 21:59 17.11.2019
4189 Clouds -2 1014 80 10000 5.7 120 21:41 17.11.2019
4190 Clouds -2 1015 86 10000 6.7 90 21:19 17.11.2019
4191 Clouds -2 1015 86 10000 6.7 90 21:19 17.11.2019
4192 Clouds -2 1014 82 10000 5.7 120 20:57 17.11.2019
4193 Clouds -2 1014 82 10000 5.7 120 20:38 17.11.2019
4194 Clouds -2 1015 80 10000 6.2 80 20:19 17.11.2019
4195 Clouds -1 1014 85 10000 4.1 120 19:56 17.11.2019
4196 Clouds -1 1015 85 10000 6.2 90 19:37 17.11.2019
4197 Clouds -1 1015 85 10000 6.2 90 19:37 17.11.2019
4198 Clouds -1 1015 85 10000 6.2 90 19:19 17.11.2019
4199 Clouds -1 1014 86 10000 4.6 140 18:55 17.11.2019
4200 Clouds -1 1014 86 10000 4.6 140 18:37 17.11.2019
4201 Clouds 0 1015 85 10000 5.7 90 18:19 17.11.2019
4202 Clouds 0 1014 86 10000 3.6 130 17:57 17.11.2019
4203 Clouds 0 1014 86 10000 3.6 130 17:57 17.11.2019
4204 Clouds 0 1014 86 10000 3.6 130 17:39 17.11.2019
4205 Clouds 0 1015 83 10000 4.1 90 17:20 17.11.2019
4206 Clouds 0 1014 86 10000 2.6 120 16:57 17.11.2019
4207 Clouds 0 1014 86 10000 2.6 120 16:39 17.11.2019
4208 Clouds 0 1015 80 10000 2.6 100 16:21 17.11.2019
4209 Clouds 0 1014 86 10000 1.5 130 15:55 17.11.2019
4210 Rain 0 1015 86 10000 3.1 90 15:36 17.11.2019
4211 Rain 0 1015 86 10000 3.1 90 15:18 17.11.2019
4212 Rain 1 1014 83 10000 4.1 290 14:55 17.11.2019
4213 Rain 0 1014 83 10000 4.1 290 14:37 17.11.2019
4214 Clouds 0 1014 80 10000 2.1 100 14:19 17.11.2019
4215 Rain 0 1014 86 10000 3.6 240 13:55 17.11.2019
4216 Rain 0 1014 86 10000 3.6 240 13:55 17.11.2019
4217 Rain 0 1014 80 10000 2.1 0 13:37 17.11.2019
4218 Rain 0 1014 80 10000 2.1 0 13:18 17.11.2019
4219 Rain 0 1013 80 10000 3.1 270 12:41 17.11.2019
4220 Clouds 0 1014 86 10000 3.1 140 12:22 17.11.2019
4221 Rain 0 1013 73 10000 3.1 250 11:56 17.11.2019
4222 Rain 0 1013 73 10000 3.1 250 11:38 17.11.2019
4223 Rain 0 1013 86 10000 1.5 0 11:19 17.11.2019
4224 Rain 0 1012 78 10000 6.2 300 10:44 17.11.2019
4225 Rain 0 1012 86 10000 1.5 80 10:23 17.11.2019
4226 Rain 0 1011 78 10000 7.2 270 09:57 17.11.2019
4227 Rain 0 1011 78 10000 7.2 270 09:39 17.11.2019
4228 Clouds 0 1011 86 10000 1.5 130 09:20 17.11.2019
4229 Rain -1 1010 80 10000 6.7 260 08:39 17.11.2019
4230 Clouds -1 1009 100 10000 2.6 130 08:20 17.11.2019
4231 Clouds -1 1009 86 10000 2.1 220 07:47 17.11.2019
4232 Clouds -1 1009 73 10000 4.1 180 07:24 17.11.2019
4233 Clouds -1 1008 73 10000 3.1 250 06:57 17.11.2019
4234 Clouds -1 1008 73 10000 3.1 250 06:57 17.11.2019
4235 Rain -1 1008 73 10000 4.6 180 06:33 17.11.2019
4236 Rain -1 1008 73 10000 3.1 260 05:54 17.11.2019
4237 Snow -1 1008 75 9000 6.2 190 04:24 17.11.2019
4238 Rain -1 1007 100 10000 4.6 170 03:47 17.11.2019
4239 Clouds -1 1007 80 10000 5.1 200 03:29 17.11.2019
4240 Clouds -1 1007 75 10000 3.6 170 02:28 17.11.2019
4241 Rain -1 1006 80 10000 5.1 250 01:37 17.11.2019
4242 Rain -1 1006 69 10000 6.2 250 00:54 17.11.2019
4243 Snow -1 1006 75 10000 5.7 240 00:22 17.11.2019
4244 Snow -1 1006 75 10000 5.7 240 00:22 17.11.2019
4245 Rain 0 1005 80 10000 5.1 250 23:46 16.11.2019
4246 Rain 0 1005 75 10000 3.1 140 23:20 16.11.2019
4247 Rain 0 1004 75 10000 5.7 260 22:59 16.11.2019
4248 Rain -1 1004 75 10000 5.7 260 22:40 16.11.2019
4249 Rain 0 1004 75 10000 5.7 260 22:40 16.11.2019
4250 Rain 0 1005 75 10000 4.1 160 22:19 16.11.2019
4251 Rain 1 1004 75 10000 3.6 160 21:56 16.11.2019
4252 Rain 1 1004 75 10000 3.6 160 21:37 16.11.2019
4253 Rain 0 1005 80 10000 9.8 240 21:19 16.11.2019
4254 Rain 0 1004 100 10000 1.5 200 20:41 16.11.2019
4255 Clouds 1 1004 80 10000 11.3 240 20:21 16.11.2019
4256 Snow 1 1004 68 9000 10.8 220 19:58 16.11.2019
4257 Snow 2 1004 68 9000 10.8 220 19:39 16.11.2019
4258 Clouds 2 1003 55 10000 6.7 260 19:20 16.11.2019
4259 Rain 3 1003 59 10000 7.2 260 18:46 16.11.2019
4260 Snow 3 1002 74 10000 2.1 210 18:28 16.11.2019
4261 Rain 2 1002 74 10000 6.7 250 17:57 16.11.2019
4262 Rain 2 1002 74 10000 6.7 250 17:38 16.11.2019
4263 Rain 2 1002 64 10000 8.2 250 17:19 16.11.2019
4264 Rain 3 1002 64 10000 2.1 230 16:48 16.11.2019
4265 Rain 3 1002 64 10000 2.1 230 16:48 16.11.2019
4266 Rain 3 1001 65 10000 6.7 250 16:30 16.11.2019
4267 Rain 2 1001 69 10000 7.2 250 15:59 16.11.2019
4268 Rain 2 1001 69 10000 7.2 250 15:39 16.11.2019
4269 Rain 2 1001 64 10000 7.2 250 15:20 16.11.2019
4270 Rain 2 1000 64 10000 8.7 260 14:57 16.11.2019
4271 Rain 2 1000 64 10000 8.7 260 14:57 16.11.2019
4272 Rain 2 1000 64 10000 8.7 260 14:39 16.11.2019
4273 Snow 2 1000 71 10000 6.2 200 14:20 16.11.2019
4274 Rain 2 1000 80 10000 8.7 250 13:55 16.11.2019
4275 Rain 2 1000 80 10000 8.7 250 13:37 16.11.2019
4276 Rain 2 1000 74 10000 7.2 200 13:18 16.11.2019
4277 Rain 2 1000 80 10000 7.7 220 12:43 16.11.2019
4278 Clouds 1 1000 80 10000 5.7 160 12:23 16.11.2019
4279 Rain 2 999 69 10000 7.2 220 11:57 16.11.2019
4280 Rain 1 999 69 10000 7.2 220 11:38 16.11.2019
4281 Rain 1 1001 80 10000 6.7 190 11:20 16.11.2019
4282 Rain 1 1000 74 10000 8.2 220 10:44 16.11.2019
4283 Clouds 1 1001 86 10000 3.1 130 10:25 16.11.2019
4284 Snow 1 1000 93 10000 5.7 180 09:59 16.11.2019
4285 Snow 1 1000 93 10000 5.7 180 09:40 16.11.2019
4286 Clouds 1 1001 80 10000 4.6 160 09:20 16.11.2019
4287 Clouds 1 1000 74 10000 8.2 220 08:56 16.11.2019
4288 Clouds 1 1001 80 10000 6.2 150 08:36 16.11.2019
4289 Clouds 0 1001 80 10000 6.2 150 08:18 16.11.2019
4290 Clouds 1 1000 74 10000 10.3 220 07:40 16.11.2019
4291 Rain 1 1001 74 10000 6.2 180 07:18 16.11.2019
4292 Clouds 1 1000 86 10000 8.7 250 06:43 16.11.2019
4293 Clouds 1 1001 80 10000 3.1 120 06:20 16.11.2019
4294 Rain 0 1001 74 10000 3.6 170 04:45 16.11.2019
4295 Clouds 0 1002 74 10000 3.6 160 03:26 16.11.2019
4296 Rain 1 1002 80 10000 3.1 260 02:37 16.11.2019
4297 Clouds 0 1002 86 10000 5.1 200 01:41 16.11.2019
4298 Clouds 0 1002 86 10000 5.1 200 01:41 16.11.2019
4299 Rain 1 1003 69 10000 6.2 220 00:56 16.11.2019
4300 Rain 1 1003 69 10000 6.2 220 00:36 16.11.2019
4301 Clouds 2 1003 74 10000 4.6 170 00:18 16.11.2019
4302 Rain 1 1003 74 10000 7.2 230 23:39 15.11.2019
4303 Clouds 1 1003 80 10000 3.1 150 23:20 15.11.2019
4304 Rain 2 1003 69 10000 7.7 240 22:42 15.11.2019
4305 Rain 2 1004 80 10000 2.1 120 22:20 15.11.2019
4306 Clouds 3 1004 74 5000 7.2 250 21:59 15.11.2019
4307 Clouds 3 1004 74 5000 7.2 250 21:40 15.11.2019
4308 Clouds 2 1004 80 10000 5.1 200 21:20 15.11.2019
4309 Rain 2 1004 74 10000 6.2 240 20:57 15.11.2019
4310 Rain 2 1004 74 10000 6.2 240 20:39 15.11.2019
4311 Rain 2 1004 74 10000 6.2 240 20:39 15.11.2019
4312 Clouds 2 1004 80 10000 4.1 180 20:21 15.11.2019
4313 Clouds 4 1004 75 10000 4.1 240 19:57 15.11.2019
4314 Clouds 4 1004 75 10000 4.1 240 19:39 15.11.2019
4315 Clouds 3 1004 75 10000 6.2 250 19:20 15.11.2019
4316 Rain 4 1003 74 10000 6.7 250 18:58 15.11.2019
4317 Rain 4 1003 74 10000 6.7 250 18:39 15.11.2019
4318 Rain 4 1004 75 10000 5.1 280 18:21 15.11.2019
4319 Rain 3 1003 80 10000 7.7 250 17:42 15.11.2019
4320 Clouds 4 1003 86 10000 2.6 200 17:24 15.11.2019
4321 Rain 4 1003 73 10000 7.7 260 16:56 15.11.2019
4322 Rain 3 1003 86 10000 1.5 150 16:37 15.11.2019
4323 Rain 3 1003 86 10000 1.5 150 16:19 15.11.2019
4324 Rain 4 1003 80 10000 7.2 250 15:39 15.11.2019
4325 Drizzle 4 1004 93 10000 3.1 140 15:20 15.11.2019
4326 Rain 4 1003 80 10000 6.7 260 14:57 15.11.2019
4327 Rain 4 1003 80 10000 6.7 260 14:38 15.11.2019
4328 Drizzle 4 1004 93 10000 1.5 110 14:19 15.11.2019
4329 Rain 4 1003 93 10000 0.5 100 13:58 15.11.2019
4330 Rain 4 1003 93 10000 0.5 100 13:39 15.11.2019
4331 Rain 4 1004 86 2300 6.2 270 13:21 15.11.2019
4332 Drizzle 5 1003 93 9000 2.1 280 12:58 15.11.2019
4333 Drizzle 5 1003 93 9000 2.1 280 12:40 15.11.2019
4334 Rain 5 1002 81 4100 13.4 140 12:20 15.11.2019
4335 Rain 4 1003 100 3000 6.2 260 11:58 15.11.2019
4336 Rain 4 1003 100 3000 6.2 260 11:38 15.11.2019
4337 Rain 4 1002 80 4300 15.4 140 11:20 15.11.2019
4338 Rain 5 1001 93 3000 17 140 10:56 15.11.2019
4339 Rain 4 1001 93 3000 17 140 10:38 15.11.2019
4340 Rain 5 1005 80 7000 12.3 140 10:18 15.11.2019
4341 Rain 5 1002 87 5000 17 140 09:41 15.11.2019
4342 Rain 4 1006 75 7000 13.4 140 09:20 15.11.2019
4343 Rain 4 1003 93 8000 17.5 140 08:44 15.11.2019
4344 Rain 4 1003 93 8000 17.5 140 08:44 15.11.2019
4345 Rain 5 1007 75 8000 12.9 140 08:23 15.11.2019
4346 Rain 4 1005 93 5000 17 140 07:49 15.11.2019
4347 Rain 4 1005 93 5000 17 140 07:49 15.11.2019
4348 Rain 4 1008 92 9000 9.8 110 07:28 15.11.2019
4349 Rain 3 1006 93 6000 17 150 06:52 15.11.2019
4350 Rain 3 1010 74 10000 12.3 120 06:32 15.11.2019
4351 Rain 3 1008 86 10000 13.9 150 05:49 15.11.2019
4352 Rain 3 1011 74 8000 13.9 120 05:27 15.11.2019
4353 Rain 3 1011 80 10000 14.4 130 03:58 15.11.2019
4354 Clouds 2 1014 69 10000 11.3 120 03:25 15.11.2019
4355 Clouds 2 1016 64 10000 7.2 100 02:21 15.11.2019
4356 Clouds 1 1015 67 10000 11.8 130 01:36 15.11.2019
4357 Clouds 1 1018 64 10000 4.6 70 01:18 15.11.2019
4358 Clouds 0 1018 64 10000 6.2 90 00:34 15.11.2019
4359 Clouds -1 1017 74 10000 6.7 120 23:57 14.11.2019
4360 Clouds -1 1017 74 10000 6.7 120 23:38 14.11.2019
4361 Clouds -1 1020 59 10000 6.7 80 23:18 14.11.2019
4362 Clouds -1 1020 59 10000 6.7 80 23:18 14.11.2019
4363 Clouds -1 1019 59 10000 6.2 140 22:40 14.11.2019
4364 Clouds -1 1020 59 10000 6.7 80 22:21 14.11.2019
4365 Clouds -1 1020 59 10000 6.7 80 22:21 14.11.2019
4366 Clouds -2 1020 59 10000 5.1 110 21:57 14.11.2019
4367 Clouds -2 1020 59 10000 5.1 110 21:38 14.11.2019
4368 Clouds -2 1020 59 10000 5.1 110 21:38 14.11.2019
4369 Clouds -2 1021 63 10000 6.2 80 21:20 14.11.2019
4370 Clouds -2 1020 68 10000 5.7 120 20:42 14.11.2019
4371 Clouds -3 1022 58 10000 5.1 90 20:24 14.11.2019
4372 Clouds -3 1022 59 10000 6.7 140 19:59 14.11.2019
4373 Clouds -3 1022 59 10000 6.7 140 19:41 14.11.2019
4374 Clouds -3 1023 63 10000 3.1 110 19:19 14.11.2019
4375 Clouds -3 1022 86 10000 5.7 140 18:56 14.11.2019
4376 Clouds -3 1022 86 10000 5.7 140 18:38 14.11.2019
4377 Clouds -2 1023 58 10000 4.1 90 18:20 14.11.2019
4378 Clouds -2 1023 59 10000 4.6 140 17:56 14.11.2019
4379 Clouds -2 1023 59 10000 4.6 140 17:37 14.11.2019
4380 Clouds -2 1024 63 10000 3.1 100 17:19 14.11.2019
4381 Clouds -2 1023 59 10000 3.1 150 16:57 14.11.2019
4382 Clouds -2 1023 59 10000 3.1 150 16:37 14.11.2019
4383 Clouds -2 1023 59 10000 3.1 150 16:37 14.11.2019
4384 Clouds -1 1024 59 10000 1 0 16:18 14.11.2019
4385 Clouds -1 1024 80 10000 3.1 160 15:56 14.11.2019
4386 Clouds -1 1024 80 10000 3.1 160 15:56 14.11.2019
4387 Clouds -1 1024 80 10000 3.1 160 15:38 14.11.2019
4388 Clouds -1 1024 59 10000 1 110 15:19 14.11.2019
4389 Clouds -1 1024 80 10000 3.1 150 14:44 14.11.2019
4390 Clear -1 1024 74 10000 1 0 14:22 14.11.2019
4391 Clear -3 1024 57 10000 2.6 160 13:57 14.11.2019
4392 Clear -3 1024 57 10000 2.6 160 13:38 14.11.2019
4393 Clear -3 1023 79 10000 1.5 110 13:19 14.11.2019
4394 Clear -3 1023 57 10000 2.1 150 12:56 14.11.2019
4395 Clear -3 1023 57 10000 2.1 150 12:37 14.11.2019
4396 Clear -4 1024 79 10000 1.5 100 12:18 14.11.2019
4397 Clear -3 1023 57 10000 1 150 11:39 14.11.2019
4398 Clear -3 1023 79 10000 1 80 11:20 14.11.2019
4399 Clear -3 1023 79 10000 1 80 11:20 14.11.2019
4400 Clear -3 1023 79 10000 1 80 11:20 14.11.2019
4401 Clear -4 1023 86 10000 0.5 170 10:58 14.11.2019
4402 Clear -4 1023 86 10000 0.5 170 10:40 14.11.2019
4403 Clear -3 1023 79 10000 0.82 120 10:20 14.11.2019
4404 Clear -4 1022 57 10000 1 110 09:56 14.11.2019
4405 Clear -3 1022 57 10000 1 110 09:38 14.11.2019
4406 Clear -2 1022 85 10000 1 110 09:19 14.11.2019
4407 Clear -2 1022 57 10000 3.1 30 08:47 14.11.2019
4408 Clear -2 1022 79 10000 0.5 120 08:25 14.11.2019
4409 Clear -4 1021 79 10000 3.6 360 07:57 14.11.2019
4410 Clear -4 1021 79 10000 3.6 360 07:37 14.11.2019
4411 Clear -3 1021 85 10000 1.5 140 07:19 14.11.2019
4412 Clear -2 1021 61 10000 2.1 330 06:42 14.11.2019
4413 Clear -1 1020 79 10000 0.64 343 06:18 14.11.2019
4414 Clear -2 1019 63 10000 1.5 20 04:42 14.11.2019
4415 Clear -2 1019 79 10000 1 0 04:23 14.11.2019
4416 Clear -1 1018 63 10000 3.6 10 02:47 14.11.2019
4417 Clear -1 1018 79 10000 0.88 20 02:25 14.11.2019
4418 Clear 0 1017 68 10000 0.88 20 01:33 14.11.2019
4419 Clear 0 1017 69 10000 1.5 190 00:53 14.11.2019
4420 Clear 0 1016 74 10000 1 0 00:30 14.11.2019
4421 Clear 0 1016 64 10000 2.6 180 23:44 13.11.2019
4422 Clear 0 1016 68 10000 1.44 350 23:25 13.11.2019
4423 Clouds -1 1015 64 10000 2.6 170 22:59 13.11.2019
4424 Clouds -1 1015 64 10000 2.6 170 22:41 13.11.2019
4425 Clear -2 1015 74 10000 1 0 22:22 13.11.2019
4426 Clouds -2 1015 61 10000 2.6 160 21:56 13.11.2019
4427 Clouds -2 1015 61 10000 2.6 160 21:38 13.11.2019
4428 Clear -2 1015 68 10000 1.5 140 21:20 13.11.2019
4429 Clouds -2 1014 61 10000 2.6 150 20:57 13.11.2019
4430 Clouds -2 1014 61 10000 2.6 150 20:37 13.11.2019
4431 Clouds -2 1014 61 10000 2.6 150 20:37 13.11.2019
4432 Clouds -2 1014 61 10000 2.6 150 20:37 13.11.2019
4433 Clear -2 1014 74 10000 1 160 20:19 13.11.2019
4434 Clouds -2 1014 64 10000 2.6 160 19:44 13.11.2019
4435 Clear -2 1013 68 10000 1 120 19:21 13.11.2019
4436 Clear -1 1013 64 10000 2.6 170 18:58 13.11.2019
4437 Clear -1 1013 64 10000 2.6 170 18:58 13.11.2019
4438 Clear -1 1013 64 10000 2.6 170 18:39 13.11.2019
4439 Clear -1 1012 54 10000 1.5 140 18:21 13.11.2019
4440 Clear 0 1012 64 10000 2.6 170 17:59 13.11.2019
4441 Clear 0 1012 64 10000 2.6 170 17:40 13.11.2019
4442 Clear 0 1011 51 10000 1 0 17:22 13.11.2019
4443 Clouds 0 1010 52 10000 3.1 160 16:59 13.11.2019
4444 Clouds 0 1010 52 10000 3.1 160 16:59 13.11.2019
4445 Clouds 0 1010 52 10000 3.1 160 16:59 13.11.2019
4446 Clouds 0 1010 52 10000 3.1 160 16:40 13.11.2019
4447 Clouds 0 1010 52 10000 3.1 160 16:40 13.11.2019
4448 Clouds 1 1010 47 10000 0.7 139 16:21 13.11.2019
4449 Clouds 1 1010 55 10000 2.1 90 15:58 13.11.2019
4450 Clouds 1 1010 55 10000 2.1 90 15:40 13.11.2019
4451 Clouds 1 1010 55 10000 2.1 90 15:40 13.11.2019
4452 Clear 2 1010 51 10000 1 0 15:21 13.11.2019
4453 Clouds 1 1009 55 10000 2.1 100 14:57 13.11.2019
4454 Clouds 1 1009 55 10000 2.1 100 14:37 13.11.2019
4455 Clouds 2 1009 51 10000 1 0 14:19 13.11.2019
4456 Clouds 1 1008 55 10000 1.5 100 13:37 13.11.2019
4457 Clouds 1 1008 55 10000 1 0 13:19 13.11.2019
4458 Clouds 1 1007 60 10000 2.6 70 12:57 13.11.2019
4459 Clouds 1 1007 60 10000 2.6 70 12:38 13.11.2019
4460 Clouds 1 1007 60 10000 2.6 70 12:38 13.11.2019
4461 Clouds 1 1007 43 10000 4.1 100 12:19 13.11.2019
4462 Clouds 1 1006 60 10000 2.6 80 11:41 13.11.2019
4463 Clouds 0 1006 47 10000 5.7 90 11:21 13.11.2019
4464 Clouds 1 1005 59 10000 3.1 70 10:59 13.11.2019
4465 Clouds 0 1005 59 10000 3.1 70 10:41 13.11.2019
4466 Clouds 0 1005 50 10000 4.1 90 10:21 13.11.2019
4467 Clouds 1 1005 74 10000 3.1 60 09:59 13.11.2019
4468 Clouds 0 1005 74 10000 3.1 60 09:39 13.11.2019
4469 Clouds 0 1004 55 10000 4.6 100 09:20 13.11.2019
4470 Clouds 0 1004 55 10000 4.6 100 09:20 13.11.2019
4471 Clouds 0 1004 59 10000 4.1 70 08:40 13.11.2019
4472 Clouds 0 1003 59 10000 2.1 100 08:21 13.11.2019
4473 Clouds 0 1003 71 10000 4.1 60 07:43 13.11.2019
4474 Clouds 0 1003 59 10000 3.6 90 07:22 13.11.2019
4475 Clouds 1 1002 74 10000 5.1 80 06:58 13.11.2019
4476 Clouds 0 1002 74 10000 5.1 80 06:36 13.11.2019
4477 Clouds 1 1002 59 10000 3.1 90 06:18 13.11.2019
4478 Clouds 1 1002 80 10000 4.1 80 05:45 13.11.2019
4479 Clouds 1 1001 80 10000 5.1 80 04:56 13.11.2019
4480 Clouds 1 1001 80 10000 6.2 90 03:36 13.11.2019
4481 Clouds 2 1000 80 10000 5.7 80 01:48 13.11.2019
4482 Clouds 2 1001 64 10000 6.7 80 01:23 13.11.2019
4483 Clouds 2 1000 80 10000 7.2 90 00:37 13.11.2019
4484 Rain 2 1000 76 10000 5.1 90 23:56 12.11.2019
4485 Rain 2 1000 76 10000 5.1 90 23:37 12.11.2019
4486 Clouds 2 1001 69 10000 5.1 70 23:18 12.11.2019
4487 Clouds 2 1001 86 10000 8.2 100 22:40 12.11.2019
4488 Clouds 2 1001 69 10000 5.1 80 22:18 12.11.2019
4489 Rain 2 1001 100 10000 4.6 120 21:54 12.11.2019
4490 Clouds 1 1002 80 10000 5.1 100 21:36 12.11.2019
4491 Clouds 1 1002 80 10000 5.1 100 21:18 12.11.2019
4492 Rain 2 1001 93 10000 3.6 110 20:54 12.11.2019
4493 Rain 2 1001 93 10000 3.6 110 20:36 12.11.2019
4494 Rain 2 1002 80 10000 6.7 90 20:18 12.11.2019
4495 Clouds 2 1002 93 10000 4.6 110 19:54 12.11.2019
4496 Snow 2 1003 88 10000 5.7 100 19:36 12.11.2019
4497 Snow 2 1003 88 10000 5.7 100 19:18 12.11.2019
4498 Rain 2 1002 93 10000 3.1 110 18:54 12.11.2019
4499 Rain 2 1003 88 10000 5.7 90 18:36 12.11.2019
4500 Rain 2 1003 88 10000 5.7 90 18:18 12.11.2019
4501 Clouds 3 1002 93 10000 3.1 150 17:54 12.11.2019
4502 Clouds 3 1002 93 10000 3.1 150 17:36 12.11.2019
4503 Rain 3 1003 74 10000 5.1 100 17:18 12.11.2019
4504 Clouds 3 1002 93 10000 4.6 120 16:41 12.11.2019
4505 Rain 3 1003 94 10000 5.1 100 16:23 12.11.2019
4506 Clouds 3 1002 86 10000 4.1 100 15:42 12.11.2019
4507 Rain 3 1003 80 10000 5.1 90 15:23 12.11.2019
4508 Clouds 3 1003 86 10000 3.6 110 14:58 12.11.2019
4509 Clouds 3 1003 86 10000 3.6 110 14:39 12.11.2019
4510 Rain 3 1004 86 10000 4.6 100 14:19 12.11.2019
4511 Clouds 3 1003 93 10000 4.6 130 13:57 12.11.2019
4512 Clouds 3 1003 93 10000 4.6 130 13:39 12.11.2019
4513 Rain 3 1004 86 10000 6.2 100 13:19 12.11.2019
4514 Clouds 3 1003 86 10000 3.6 160 12:55 12.11.2019
4515 Clouds 2 1003 86 10000 3.6 160 12:37 12.11.2019
4516 Rain 2 1004 92 10000 5.1 100 12:18 12.11.2019
4517 Clouds 2 1003 93 10000 5.1 180 11:42 12.11.2019
4518 Rain 2 1003 86 10000 4.6 120 11:22 12.11.2019
4519 Clouds 2 1002 93 10000 4.1 170 10:57 12.11.2019
4520 Clouds 2 1002 93 10000 4.1 170 10:39 12.11.2019
4521 Clouds 2 1003 80 10000 4.6 90 10:21 12.11.2019
4522 Clouds 3 1002 86 10000 4.6 170 09:57 12.11.2019
4523 Clouds 3 1003 86 10000 4.6 110 09:38 12.11.2019
4524 Clouds 3 1003 92 10000 4.6 110 09:18 12.11.2019
4525 Rain 3 1002 93 10000 4.1 150 08:46 12.11.2019
4526 Clouds 3 1002 92 10000 4.6 100 08:27 12.11.2019
4527 Snow 3 1001 93 10000 4.6 170 07:42 12.11.2019
4528 Clouds 3 1001 89 10000 4.1 120 07:23 12.11.2019
4529 Clouds 3 1001 93 10000 4.1 160 06:48 12.11.2019
4530 Rain 3 1001 80 10000 4.6 150 06:24 12.11.2019
4531 Drizzle 3 1000 93 10000 3.6 160 05:52 12.11.2019
4532 Clouds 2 999 93 10000 4.1 180 04:51 12.11.2019
4533 Clouds 3 998 93 10000 2.1 200 03:53 12.11.2019
4534 Rain 3 998 86 10000 3.6 60 01:53 12.11.2019
4535 Clouds 4 998 60 10000 3.6 70 01:26 12.11.2019
4536 Rain 3 998 86 10000 3.6 70 00:52 12.11.2019
4537 Clouds 3 998 69 10000 1.5 50 00:32 12.11.2019
4538 Rain 3 999 93 10000 6.2 80 23:55 11.11.2019
4539 Rain 3 999 93 10000 6.2 80 23:36 11.11.2019
4540 Rain 3 999 98 10000 1.5 100 23:18 11.11.2019
4541 Rain 3 998 98 10000 3.1 80 22:38 11.11.2019
4542 Rain 3 998 98 10000 3.1 80 22:19 11.11.2019
4543 Rain 3 998 93 10000 4.6 100 21:58 11.11.2019
4544 Rain 3 998 93 10000 4.6 100 21:39 11.11.2019
4545 Clouds 3 998 98 10000 3.1 100 21:20 11.11.2019
4546 Drizzle 3 998 93 10000 5.7 90 20:55 11.11.2019
4547 Drizzle 3 998 93 10000 5.7 90 20:37 11.11.2019
4548 Rain 3 998 86 10000 3.1 90 20:19 11.11.2019
4549 Clouds 3 998 93 10000 5.1 90 19:42 11.11.2019
4550 Rain 3 998 86 10000 1.5 100 19:20 11.11.2019
4551 Clouds 3 997 86 10000 4.6 100 18:59 11.11.2019
4552 Clouds 3 997 86 10000 4.6 100 18:40 11.11.2019
4553 Rain 3 997 86 10000 5.7 90 18:21 11.11.2019
4554 Rain 2 996 86 10000 4.6 110 17:45 11.11.2019
4555 Snow 2 997 76 8000 5.1 90 17:27 11.11.2019
4556 Snow 2 997 76 8000 5.1 90 17:27 11.11.2019
4557 Clouds 2 996 86 10000 4.1 110 16:58 11.11.2019
4558 Clouds 2 996 86 10000 4.1 110 16:38 11.11.2019
4559 Rain 2 996 86 10000 5.1 90 16:20 11.11.2019
4560 Clouds 3 995 93 10000 3.6 110 15:41 11.11.2019
4561 Rain 3 996 80 10000 3.6 80 15:20 11.11.2019
4562 Clouds 3 995 80 10000 3.1 140 14:56 11.11.2019
4563 Clouds 4 995 80 10000 3.1 140 14:38 11.11.2019
4564 Rain 4 995 86 10000 4.6 100 14:20 11.11.2019
4565 Clouds 4 994 86 10000 3.1 170 13:56 11.11.2019
4566 Clouds 4 994 86 10000 3.1 170 13:36 11.11.2019
4567 Rain 4 994 80 10000 5.7 80 13:18 11.11.2019
4568 Clouds 4 993 86 10000 4.1 170 12:55 11.11.2019
4569 Clouds 4 993 86 10000 4.1 170 12:37 11.11.2019
4570 Rain 4 994 80 10000 5.1 90 12:19 11.11.2019
4571 Clouds 4 993 86 10000 4.1 160 11:41 11.11.2019
4572 Rain 4 992 80 10000 6.7 110 11:21 11.11.2019
4573 Clouds 4 991 86 10000 3.1 130 10:44 11.11.2019
4574 Rain 4 992 80 10000 4.1 110 10:20 11.11.2019
4575 Rain 4 990 100 10000 3.1 160 09:59 11.11.2019
4576 Rain 4 990 100 10000 3.1 160 09:59 11.11.2019
4577 Rain 4 990 100 10000 3.1 160 09:41 11.11.2019
4578 Rain 4 990 80 8000 6.2 100 09:20 11.11.2019
4579 Rain 4 989 93 10000 4.1 160 08:43 11.11.2019
4580 Rain 4 989 75 10000 7.2 100 08:23 11.11.2019
4581 Rain 5 987 93 10000 7.2 150 07:57 11.11.2019
4582 Rain 5 987 93 10000 7.2 150 07:38 11.11.2019
4583 Rain 5 988 75 10000 6.7 140 07:19 11.11.2019
4584 Rain 5 986 81 10000 8.7 140 06:55 11.11.2019
4585 Rain 5 986 81 10000 8.7 140 06:37 11.11.2019
4586 Rain 5 987 75 10000 10.3 120 06:18 11.11.2019
4587 Rain 5 985 87 10000 10.8 130 05:42 11.11.2019
4588 Drizzle 5 980 75 10000 14.9 90 03:27 11.11.2019
4589 Rain 5 982 70 10000 14.4 90 02:33 11.11.2019
4590 Rain 5 982 81 10000 13.9 90 01:58 11.11.2019
4591 Rain 5 982 81 10000 13.9 90 01:36 11.11.2019
4592 Rain 6 983 87 10000 21.1 110 00:54 11.11.2019
4593 Rain 6 984 75 10000 9.8 110 00:33 11.11.2019
4594 Drizzle 6 983 87 10000 19 110 23:58 10.11.2019
4595 Drizzle 6 985 75 10000 9.3 90 23:37 10.11.2019
4596 Drizzle 6 985 75 10000 9.3 90 23:19 10.11.2019
4597 Drizzle 6 983 87 10000 18 110 22:55 10.11.2019
4598 Rain 6 985 70 10000 11.8 100 22:37 10.11.2019
4599 Rain 6 985 70 10000 11.8 100 22:19 10.11.2019
4600 Rain 6 984 87 10000 17.5 110 21:55 10.11.2019
4601 Rain 6 985 70 10000 9.8 110 21:36 10.11.2019
4602 Rain 6 985 70 10000 9.8 110 21:18 10.11.2019
4603 Rain 6 984 87 10000 14.9 110 20:41 10.11.2019
4604 Rain 6 985 70 9000 12.3 110 20:22 10.11.2019
4605 Rain 6 985 70 9000 12.3 110 20:22 10.11.2019
4606 Rain 6 985 81 9000 17.5 110 19:56 10.11.2019
4607 Rain 6 985 81 9000 17.5 110 19:37 10.11.2019
4608 Rain 6 985 81 9000 17.5 110 19:37 10.11.2019
4609 Drizzle 6 986 90 10000 10.8 100 19:18 10.11.2019
4610 Rain 6 985 87 7000 17 110 18:58 10.11.2019
4611 Rain 6 985 87 7000 17 110 18:58 10.11.2019
4612 Rain 6 985 87 7000 17 110 18:39 10.11.2019
4613 Rain 6 987 65 10000 11.3 110 18:19 10.11.2019
4614 Rain 6 987 65 10000 11.3 110 18:19 10.11.2019
4615 Rain 5 986 100 8000 18.5 120 17:56 10.11.2019
4616 Rain 5 986 100 8000 18.5 120 17:38 10.11.2019
4617 Rain 5 988 75 10000 13.4 110 17:19 10.11.2019
4618 Rain 5 986 87 9000 15.9 130 16:57 10.11.2019
4619 Rain 6 986 87 9000 15.9 130 16:38 10.11.2019
4620 Rain 6 989 75 4200 11.8 110 16:19 10.11.2019
4621 Rain 6 989 70 4000 13.4 110 15:55 10.11.2019
4622 Rain 6 989 70 4000 13.4 110 15:36 10.11.2019
4623 Clouds 6 990 70 10000 12.9 110 15:18 10.11.2019
4624 Clouds 6 990 70 10000 12.9 110 15:18 10.11.2019
4625 Rain 6 991 70 3500 14.9 120 14:41 10.11.2019
4626 Clouds 6 991 70 10000 13.9 120 14:22 10.11.2019
4627 Drizzle 7 989 81 10000 17.5 120 13:58 10.11.2019
4628 Drizzle 7 989 81 10000 17.5 120 13:40 10.11.2019
4629 Clouds 6 992 75 10000 12.9 120 13:20 10.11.2019
4630 Rain 6 991 81 10000 14.4 120 12:43 10.11.2019
4631 Clouds 6 994 70 10000 9.3 110 12:21 10.11.2019
4632 Rain 7 993 87 10000 15.4 120 11:57 10.11.2019
4633 Rain 6 993 87 10000 15.4 120 11:39 10.11.2019
4634 Clouds 6 996 65 10000 12.9 110 11:20 10.11.2019
4635 Rain 6 995 81 10000 14.9 120 10:59 10.11.2019
4636 Rain 6 995 81 10000 14.9 120 10:40 10.11.2019
4637 Clouds 5 997 65 10000 11.8 110 10:20 10.11.2019
4638 Clouds 5 997 81 10000 13.9 120 09:43 10.11.2019
4639 Clouds 5 999 70 10000 10.8 110 09:23 10.11.2019
4640 Clouds 5 999 81 10000 13.9 120 08:56 10.11.2019
4641 Clouds 5 999 81 10000 13.9 120 08:36 10.11.2019
4642 Rain 5 1002 75 10000 11.3 120 08:18 10.11.2019
4643 Rain 5 1001 81 10000 10.3 130 07:42 10.11.2019
4644 Rain 5 1003 75 10000 9.8 110 07:23 10.11.2019
4645 Clouds 5 1005 70 10000 7.7 100 06:31 10.11.2019
4646 Clouds 4 1006 82 10000 4.6 110 05:33 10.11.2019
4647 Clouds 3 1008 82 10000 2.6 120 03:22 10.11.2019
4648 Clouds 4 1008 86 10000 3.6 140 01:47 10.11.2019
4649 Clouds 4 1008 93 10000 4.6 100 01:19 10.11.2019
4650 Drizzle 5 1008 86 10000 2.1 110 00:41 10.11.2019
4651 Drizzle 5 1008 86 10000 2.1 110 00:41 10.11.2019
4652 Clouds 5 1008 86 10000 2.6 60 23:56 09.11.2019
4653 Clouds 4 1009 93 10000 3.1 100 23:37 09.11.2019
4654 Clouds 4 1009 91 10000 3.1 100 23:18 09.11.2019
4655 Clouds 4 1009 86 10000 2.6 90 22:41 09.11.2019
4656 Clouds 4 1009 91 10000 0.5 0 22:21 09.11.2019
4657 Clouds 4 1009 93 10000 4.1 100 21:56 09.11.2019
4658 Clouds 4 1009 80 10000 4.6 90 21:37 09.11.2019
4659 Clouds 4 1009 80 10000 4.6 90 21:19 09.11.2019
4660 Clouds 4 1009 80 10000 4.6 90 21:19 09.11.2019
4661 Clouds 4 1009 93 10000 4.6 130 20:42 09.11.2019
4662 Clouds 4 1010 80 10000 4.1 70 20:22 09.11.2019
4663 Clouds 3 1009 86 10000 3.1 140 19:58 09.11.2019
4664 Clouds 3 1009 86 10000 3.1 140 19:39 09.11.2019
4665 Clouds 3 1009 80 10000 3.6 80 19:21 09.11.2019
4666 Clouds 3 1008 93 10000 3.6 120 18:56 09.11.2019
4667 Clouds 3 1008 93 10000 3.6 120 18:38 09.11.2019
4668 Clouds 4 1008 80 10000 5.1 80 18:18 09.11.2019
4669 Clouds 4 1007 86 10000 5.7 130 17:41 09.11.2019
4670 Clouds 4 1007 80 10000 5.1 80 17:22 09.11.2019
4671 Clouds 4 1007 86 10000 2.1 120 16:55 09.11.2019
4672 Clouds 4 1007 86 10000 2.1 120 16:36 09.11.2019
4673 Clouds 4 1007 80 10000 5.7 80 16:18 09.11.2019
4674 Clouds 4 1006 86 10000 3.6 90 15:41 09.11.2019
4675 Drizzle 4 1006 75 10000 5.1 70 15:23 09.11.2019
4676 Drizzle 4 1006 75 10000 5.1 70 15:23 09.11.2019
4677 Clouds 4 1006 86 10000 4.1 80 14:46 09.11.2019
4678 Clouds 4 1005 92 10000 4.6 80 14:23 09.11.2019
4679 Clouds 4 1004 86 10000 4.1 120 13:58 09.11.2019
4680 Clouds 3 1004 86 10000 4.1 120 13:40 09.11.2019
4681 Clouds 3 1004 80 10000 5.1 90 13:21 09.11.2019
4682 Clouds 2 1003 93 10000 5.1 130 12:57 09.11.2019
4683 Clouds 2 1003 93 10000 5.1 130 12:39 09.11.2019
4684 Clouds 2 1003 86 10000 4.1 90 12:21 09.11.2019
4685 Clouds 2 1002 93 10000 3.6 140 11:48 09.11.2019
4686 Rain 3 1001 86 10000 7.2 170 11:22 09.11.2019
4687 Rain 3 1001 93 10000 5.99 97 10:57 09.11.2019
4688 Rain 3 999 80 10000 3.6 110 10:39 09.11.2019
4689 Rain 3 999 80 10000 3.6 110 10:18 09.11.2019
4690 Rain 3 1000 100 10000 4.6 100 09:44 09.11.2019
4691 Rain 4 1000 95 10000 2.6 110 09:21 09.11.2019
4692 Clouds 4 999 86 10000 4.1 90 08:57 09.11.2019
4693 Clouds 3 999 86 10000 4.1 90 08:38 09.11.2019
4694 Rain 3 999 82 10000 8.7 100 08:19 09.11.2019
4695 Clouds 4 998 86 10000 9.8 100 07:43 09.11.2019
4696 Rain 4 998 80 10000 6.2 110 07:22 09.11.2019
4697 Rain 3 998 93 10000 6.2 100 06:48 09.11.2019
4698 Rain 3 998 82 10000 7.2 110 06:30 09.11.2019
4699 Clouds 4 997 86 10000 8.2 120 05:42 09.11.2019
4700 Rain 4 996 86 10000 14.9 120 04:51 09.11.2019
4701 Rain 4 995 86 10000 13.9 100 02:57 09.11.2019
4702 Rain 4 995 86 10000 13.9 100 02:39 09.11.2019
4703 Drizzle 4 994 75 10000 14.4 100 01:43 09.11.2019
4704 Clouds 4 995 70 10000 12.3 80 00:49 09.11.2019
4705 Clouds 4 996 60 10000 11.3 80 00:29 09.11.2019
4706 Clouds 5 996 70 10000 12.9 100 23:43 08.11.2019
4707 Clouds 4 996 60 10000 10.3 80 23:24 08.11.2019
4708 Clouds 4 996 72 10000 15.4 100 22:59 08.11.2019
4709 Clouds 4 996 72 10000 15.4 100 22:41 08.11.2019
4710 Clouds 4 996 56 10000 12.9 90 22:21 08.11.2019
4711 Clouds 4 995 72 10000 15.4 100 21:56 08.11.2019
4712 Clouds 4 995 72 10000 15.4 100 21:37 08.11.2019
4713 Clouds 4 996 64 10000 12.9 90 21:18 08.11.2019
4714 Clouds 4 996 72 10000 16.5 100 20:41 08.11.2019
4715 Clouds 4 997 64 10000 12.9 90 20:21 08.11.2019
4716 Drizzle 4 996 74 10000 19.5 100 19:58 08.11.2019
4717 Drizzle 4 996 74 10000 19.5 100 19:38 08.11.2019
4718 Drizzle 4 996 74 10000 19.5 100 19:38 08.11.2019
4719 Clouds 4 997 64 10000 12.3 90 19:18 08.11.2019
4720 Clouds 4 997 74 10000 16.5 100 18:55 08.11.2019
4721 Clouds 3 998 64 10000 12.3 90 18:37 08.11.2019
4722 Clouds 3 998 64 10000 12.3 90 18:19 08.11.2019
4723 Rain 4 997 74 10000 17 100 17:55 08.11.2019
4724 Clouds 3 999 60 10000 12.3 90 17:36 08.11.2019
4725 Clouds 3 999 60 10000 12.3 90 17:18 08.11.2019
4726 Rain 3 998 80 10000 16.5 100 16:57 08.11.2019
4727 Rain 3 998 80 10000 16.5 100 16:39 08.11.2019
4728 Clouds 3 999 64 10000 12.3 90 16:19 08.11.2019
4729 Rain 4 999 75 10000 18.5 100 15:56 08.11.2019
4730 Rain 4 999 75 10000 18.5 100 15:38 08.11.2019
4731 Clouds 4 1001 56 10000 11.3 90 15:19 08.11.2019
4732 Rain 3 1000 80 10000 16.5 100 14:55 08.11.2019
4733 Clouds 3 1002 60 10000 7.7 90 14:36 08.11.2019
4734 Clouds 3 1002 60 10000 7.7 90 14:36 08.11.2019
4735 Clouds 3 1002 60 10000 7.7 90 14:18 08.11.2019
4736 Rain 4 1001 80 10000 15.4 100 13:42 08.11.2019
4737 Clouds 4 1003 60 10000 8.2 90 13:22 08.11.2019
4738 Clouds 4 1003 60 10000 8.2 90 13:22 08.11.2019
4739 Rain 4 1002 75 10000 14.9 110 12:57 08.11.2019
4740 Rain 4 1002 75 10000 14.9 110 12:39 08.11.2019
4741 Clouds 4 1003 60 10000 11.8 100 12:21 08.11.2019
4742 Rain 4 1002 80 10000 13.9 110 11:55 08.11.2019
4743 Clouds 4 1005 69 10000 10.3 100 11:37 08.11.2019
4744 Clouds 4 1005 69 10000 10.3 100 11:18 08.11.2019
4745 Rain 3 1003 93 9000 13.4 110 10:42 08.11.2019
4746 Clouds 4 1005 74 10000 10.8 90 10:22 08.11.2019
4747 Rain 3 1004 93 7000 12.3 120 09:58 08.11.2019
4748 Rain 3 1004 93 7000 12.3 120 09:39 08.11.2019
4749 Drizzle 4 1006 74 8000 13.4 110 09:19 08.11.2019
4750 Rain 3 1005 93 10000 11.8 100 08:46 08.11.2019
4751 Rain 3 1006 64 10000 11.3 100 08:23 08.11.2019
4752 Rain 3 1006 86 10000 14.4 100 07:57 08.11.2019
4753 Rain 3 1006 86 10000 14.4 100 07:38 08.11.2019
4754 Clouds 3 1008 64 10000 8.7 90 07:19 08.11.2019
4755 Drizzle 3 1007 86 10000 13.9 100 06:38 08.11.2019
4756 Clouds 4 1009 59 10000 8.7 90 06:20 08.11.2019
4757 Clouds 3 1008 69 10000 11.3 100 05:39 08.11.2019
4758 Clouds 3 1010 74 10000 10.3 100 04:43 08.11.2019
4759 Clouds 3 1011 74 10000 8.2 110 03:43 08.11.2019
4760 Clouds 3 1013 64 10000 6.2 90 03:20 08.11.2019
4761 Clouds 2 1014 69 10000 5.7 100 02:26 08.11.2019
4762 Clouds 3 1014 80 10000 6.2 100 01:46 08.11.2019
4763 Clouds 3 1014 69 10000 4.1 120 00:59 08.11.2019
4764 Clouds 3 1016 74 10000 4.1 80 00:24 08.11.2019
4765 Clouds 1 1015 87 10000 5.1 120 23:55 07.11.2019
4766 Clouds 1 1016 87 10000 4.1 80 23:36 07.11.2019
4767 Clouds 1 1016 83 10000 4.1 80 23:18 07.11.2019
4768 Clouds 2 1015 80 10000 5.1 130 22:41 07.11.2019
4769 Clouds 2 1016 83 10000 5.7 110 22:21 07.11.2019
4770 Rain 2 1015 83 10000 4.1 150 21:55 07.11.2019
4771 Rain 2 1015 83 10000 4.1 150 21:37 07.11.2019
4772 Clouds 2 1017 83 10000 4.6 90 21:18 07.11.2019
4773 Clouds 2 1016 80 10000 7.2 150 20:55 07.11.2019
4774 Clouds 3 1016 80 10000 7.2 150 20:37 07.11.2019
4775 Clouds 3 1016 80 10000 7.2 150 20:37 07.11.2019
4776 Clouds 2 1017 85 10000 4.6 90 20:18 07.11.2019
4777 Rain 3 1016 80 10000 4.1 140 19:41 07.11.2019
4778 Drizzle 3 1017 85 10000 4.1 90 19:23 07.11.2019
4779 Clouds 3 1016 86 10000 5.1 130 18:58 07.11.2019
4780 Clouds 3 1016 86 10000 5.1 130 18:39 07.11.2019
4781 Drizzle 3 1017 85 10000 4.1 100 18:19 07.11.2019
4782 Clouds 3 1016 86 10000 5.1 140 17:59 07.11.2019
4783 Clouds 3 1017 80 10000 3.6 90 17:39 07.11.2019
4784 Clouds 3 1017 80 10000 3.6 90 17:20 07.11.2019
4785 Clouds 3 1016 86 10000 5.1 140 16:57 07.11.2019
4786 Clouds 3 1016 86 10000 5.1 140 16:38 07.11.2019
4787 Clouds 3 1017 80 10000 3.1 90 16:19 07.11.2019
4788 Clouds 3 1016 86 10000 5.7 150 15:54 07.11.2019
4789 Clouds 3 1017 91 10000 3.6 110 15:36 07.11.2019
4790 Clouds 3 1017 91 10000 3.6 110 15:18 07.11.2019
4791 Clouds 3 1016 86 10000 6.2 140 14:43 07.11.2019
4792 Rain 3 1017 91 10000 3.1 90 14:25 07.11.2019
4793 Rain 3 1016 93 10000 6.2 140 13:56 07.11.2019
4794 Clouds 3 1017 96 10000 5.1 80 13:38 07.11.2019
4795 Clouds 2 1017 97 10000 5.1 80 13:20 07.11.2019
4796 Rain 2 1016 86 10000 5.7 140 12:58 07.11.2019
4797 Rain 2 1016 86 10000 5.7 140 12:39 07.11.2019
4798 Drizzle 2 1017 96 10000 4.1 60 12:20 07.11.2019
4799 Rain 2 1016 93 10000 5.7 130 11:43 07.11.2019
4800 Clouds 2 1017 74 10000 4.6 70 11:23 07.11.2019
4801 Clouds 2 1017 74 10000 4.6 70 11:23 07.11.2019
4802 Rain 2 1016 93 10000 5.7 140 10:59 07.11.2019
4803 Rain 2 1016 93 10000 5.7 140 10:40 07.11.2019
4804 Clouds 2 1016 74 10000 3.6 80 10:18 07.11.2019
4805 Rain 2 1015 93 10000 6.2 140 09:42 07.11.2019
4806 Clouds 2 1016 74 10000 4.1 80 09:22 07.11.2019
4807 Snow 2 1015 86 10000 5.7 140 08:55 07.11.2019
4808 Rain 2 1015 74 10000 5.7 80 08:37 07.11.2019
4809 Rain 2 1015 74 10000 5.7 80 08:18 07.11.2019
4810 Snow 2 1015 93 10000 5.1 140 07:41 07.11.2019
4811 Clouds 2 1015 74 10000 4.1 80 07:21 07.11.2019
4812 Clouds 2 1015 74 10000 4.1 80 07:21 07.11.2019
4813 Rain 2 1014 93 10000 5.1 140 06:48 07.11.2019
4814 Rain 2 1014 93 10000 5.1 140 06:48 07.11.2019
4815 Clouds 1 1015 69 10000 3.1 70 06:27 07.11.2019
4816 Rain 2 1014 86 10000 5.1 120 05:53 07.11.2019
4817 Snow 2 1014 69 10000 3.6 70 05:34 07.11.2019
4818 -273 0 0 0 0 0 04:57 07.11.2019
4819 Rain 1 1014 86 10000 4.1 120 04:38 07.11.2019
4820 Clouds 1 1013 93 10000 6.7 130 01:54 07.11.2019
4821 Snow 1 1012 86 10000 6.2 130 00:47 07.11.2019
4822 Snow 1 1013 64 10000 6.7 70 00:19 07.11.2019
4823 Clouds 0 1012 94 10000 4.6 110 23:47 06.11.2019
4824 Snow 0 1012 64 10000 5.7 80 23:22 06.11.2019
4825 Snow 1 1012 87 10000 4.1 90 22:56 06.11.2019
4826 Snow 0 1012 87 10000 4.1 90 22:37 06.11.2019
4827 Snow 0 1012 64 10000 5.1 70 22:18 06.11.2019
4828 Snow 1 1012 87 10000 5.1 90 21:42 06.11.2019
4829 Snow 1 1012 64 10000 5.7 80 21:21 06.11.2019
4830 Snow 1 1011 87 10000 5.1 100 20:59 06.11.2019
4831 Snow 1 1011 87 10000 5.1 100 20:40 06.11.2019
4832 Clouds 1 1011 59 10000 6.2 80 20:22 06.11.2019
4833 Clouds 1 1010 65 10000 5.7 90 19:59 06.11.2019
4834 Clouds 1 1010 65 10000 5.7 90 19:39 06.11.2019
4835 Clouds 1 1011 59 10000 5.1 90 19:21 06.11.2019
4836 Clouds 1 1010 65 10000 2.6 70 18:58 06.11.2019
4837 Clouds 1 1010 64 10000 5.7 80 18:38 06.11.2019
4838 Clouds 3 1010 64 10000 5.7 80 18:19 06.11.2019
4839 Clouds 3 1010 65 10000 3.6 70 17:56 06.11.2019
4840 Clouds 3 1010 65 10000 3.6 70 17:56 06.11.2019
4841 Clouds 3 1010 65 10000 3.6 70 17:37 06.11.2019
4842 Clouds 2 1010 59 10000 5.7 80 17:18 06.11.2019
4843 Clouds 2 1009 63 10000 4.6 90 16:54 06.11.2019
4844 Clouds 1 1009 63 10000 4.6 90 16:36 06.11.2019
4845 Clouds 1 1010 64 10000 4.6 90 16:18 06.11.2019
4846 Clouds 1 1009 63 10000 4.1 80 15:54 06.11.2019
4847 Clouds 2 1009 63 10000 4.1 80 15:36 06.11.2019
4848 Clouds 2 1009 59 10000 5.1 70 15:18 06.11.2019
4849 Clouds 1 1009 63 10000 4.6 100 14:55 06.11.2019
4850 Clouds 1 1009 63 10000 4.6 100 14:37 06.11.2019
4851 Clouds 1 1010 64 10000 3.6 80 14:18 06.11.2019
4852 Clouds 2 1009 62 10000 6.2 90 13:39 06.11.2019
4853 Clouds 2 1009 62 10000 6.2 90 13:39 06.11.2019
4854 Clouds 1 1009 59 10000 6.2 70 13:21 06.11.2019
4855 Clouds 1 1009 80 10000 4.6 80 12:58 06.11.2019
4856 Clouds 1 1009 80 10000 4.6 80 12:39 06.11.2019
4857 Clouds 1 1009 59 10000 5.1 80 12:20 06.11.2019
4858 Clouds 2 1009 80 10000 4.1 80 11:58 06.11.2019
4859 Clouds 1 1009 80 10000 4.1 80 11:37 06.11.2019
4860 Clouds 1 1009 59 10000 4.1 80 11:18 06.11.2019
4861 Clouds 1 1009 59 10000 4.1 80 11:18 06.11.2019
4862 Clouds 2 1008 80 10000 5.1 70 10:56 06.11.2019
4863 Clouds 1 1008 80 10000 5.1 70 10:38 06.11.2019
4864 Clouds 0 1009 59 10000 5.1 90 10:19 06.11.2019
4865 Clouds 2 1008 80 10000 5.7 70 09:44 06.11.2019
4866 Clouds 2 1008 59 10000 6.2 80 09:23 06.11.2019
4867 Clouds 2 1008 80 10000 5.7 80 08:59 06.11.2019
4868 Clouds 2 1008 80 10000 5.7 80 08:38 06.11.2019
4869 Clouds 1 1008 59 10000 6.2 80 08:20 06.11.2019
4870 Clouds 1 1008 80 10000 5.1 80 07:57 06.11.2019
4871 Clouds 1 1008 80 10000 5.1 80 07:39 06.11.2019
4872 Clouds 2 1008 64 10000 5.7 70 07:19 06.11.2019
4873 Clouds 1 1008 74 10000 6.2 80 06:44 06.11.2019
4874 Clouds 2 1009 64 10000 6.7 80 06:24 06.11.2019
4875 Clouds 1 1009 64 10000 6.2 80 04:32 06.11.2019
4876 Clouds 2 1010 69 10000 4.6 60 02:20 06.11.2019
4877 Clouds 1 1010 69 10000 5.7 70 01:31 06.11.2019
4878 Clouds 1 1010 80 10000 4.6 70 00:37 06.11.2019
4879 Clouds 1 1010 74 10000 5.1 80 23:58 05.11.2019
4880 Clouds 1 1010 74 10000 5.1 80 23:38 05.11.2019
4881 Clouds 1 1010 74 10000 5.1 80 23:38 05.11.2019
4882 Clouds 1 1011 64 10000 6.7 80 23:20 05.11.2019
4883 Clouds 1 1011 86 10000 4.6 80 22:43 05.11.2019
4884 Clouds 1 1012 64 10000 4.6 80 22:20 05.11.2019
4885 Clouds 0 1011 86 10000 3.6 80 21:59 05.11.2019
4886 Clouds 0 1011 86 10000 3.6 80 21:59 05.11.2019
4887 Clouds 0 1011 86 10000 3.6 80 21:41 05.11.2019
4888 Clouds 0 1012 76 10000 5.7 80 21:20 05.11.2019
4889 Clouds 0 1012 86 10000 3.6 80 20:57 05.11.2019
4890 Clouds 0 1012 86 10000 3.6 80 20:38 05.11.2019
4891 Clouds 0 1012 64 10000 5.7 80 20:20 05.11.2019
4892 Clouds 0 1012 86 10000 3.6 90 19:56 05.11.2019
4893 Clouds 0 1012 86 10000 3.6 90 19:38 05.11.2019
4894 Clouds 0 1013 85 10000 7.2 90 19:19 05.11.2019
4895 Clouds 0 1012 86 10000 3.1 90 18:56 05.11.2019
4896 Clouds 0 1012 86 10000 3.1 90 18:38 05.11.2019
4897 Clouds 0 1013 69 10000 6.7 80 18:19 05.11.2019
4898 Clouds 0 1013 86 10000 4.1 90 17:56 05.11.2019
4899 Clouds 0 1013 86 10000 4.1 90 17:37 05.11.2019
4900 Clouds 0 1014 74 10000 6.2 90 17:18 05.11.2019
4901 Clouds 0 1013 79 10000 2.1 90 16:42 05.11.2019
4902 Clouds 0 1014 74 10000 5.7 80 16:21 05.11.2019
4903 Clouds 0 1014 79 10000 2.1 90 15:59 05.11.2019
4904 Clouds 1 1015 74 10000 6.2 80 15:37 05.11.2019
4905 Clouds 1 1015 74 10000 6.2 80 15:18 05.11.2019
4906 Clouds 1 1015 79 10000 3.1 80 14:55 05.11.2019
4907 Clouds 1 1015 79 10000 3.1 80 14:55 05.11.2019
4908 Clouds 1 1015 79 10000 3.1 80 14:36 05.11.2019
4909 Clouds 1 1015 80 10000 5.7 90 14:18 05.11.2019
4910 Clouds 1 1015 75 10000 4.1 140 13:43 05.11.2019
4911 Clouds 1 1016 80 10000 3.6 80 13:24 05.11.2019
4912 Clouds 0 1015 77 10000 4.1 140 12:42 05.11.2019
4913 Clouds 0 1016 80 10000 4.6 80 12:23 05.11.2019
4914 Clouds 0 1016 80 10000 4.6 80 12:23 05.11.2019
4915 Clouds 0 1015 77 10000 4.6 140 11:59 05.11.2019
4916 Clouds 0 1015 77 10000 4.6 140 11:40 05.11.2019
4917 Clouds 0 1016 80 10000 4.1 80 11:21 05.11.2019
4918 Clouds 0 1016 78 10000 4.1 150 10:59 05.11.2019
4919 Clouds 0 1016 78 10000 4.1 150 10:40 05.11.2019
4920 Clouds 0 1016 80 10000 3.6 90 10:22 05.11.2019
4921 Clouds 0 1016 78 10000 3.1 140 09:55 05.11.2019
4922 Clouds 1 1016 78 10000 3.1 140 09:37 05.11.2019
4923 Clouds 1 1016 80 10000 3.1 80 09:18 05.11.2019
4924 Clouds 1 1016 78 10000 3.1 150 08:39 05.11.2019
4925 Clouds 1 1016 86 10000 4.1 100 08:20 05.11.2019
4926 Clouds 1 1016 100 10000 3.6 150 07:58 05.11.2019
4927 Clouds 1 1016 100 10000 3.6 150 07:40 05.11.2019
4928 Clouds 1 1016 86 10000 3.6 100 07:22 05.11.2019
4929 Clouds 1 1016 91 10000 3.1 160 06:50 05.11.2019
4930 Rain 1 1016 91 10000 2.1 130 05:51 05.11.2019
4931 Rain 1 1016 91 10000 2.1 130 05:51 05.11.2019
4932 Clouds 1 1017 86 10000 1.5 70 05:23 05.11.2019
4933 Clouds 2 1017 86 10000 2.6 80 04:38 05.11.2019
4934 Clouds 1 1017 91 10000 1 260 03:56 05.11.2019
4935 Clouds 1 1017 91 10000 2.1 150 02:51 05.11.2019
4936 Drizzle 2 1017 91 10000 1.5 100 02:29 05.11.2019
4937 Drizzle 2 1017 91 10000 1.5 100 02:29 05.11.2019
4938 Clouds 2 1017 87 10000 1.5 110 01:26 05.11.2019
4939 Rain 2 1017 86 10000 1.5 290 00:38 05.11.2019
4940 Rain 2 1017 86 10000 1.5 300 23:59 04.11.2019
4941 Rain 2 1017 86 10000 1.5 300 23:38 04.11.2019
4942 Clouds 2 1017 89 10000 2.1 50 23:18 04.11.2019
4943 Clouds 2 1017 89 10000 2.1 50 23:18 04.11.2019
4944 Clouds 2 1017 89 10000 2.1 50 23:18 04.11.2019
4945 Rain 2 1016 86 10000 3.1 240 22:43 04.11.2019
4946 Clouds 2 1016 89 10000 2.1 120 22:24 04.11.2019
4947 Rain 2 1016 86 10000 1.5 320 21:57 04.11.2019
4948 Rain 2 1016 86 10000 1.5 320 21:38 04.11.2019
4949 Rain 2 1016 89 10000 3.1 160 21:20 04.11.2019
4950 Rain 2 1016 93 10000 3.6 280 20:59 04.11.2019
4951 Rain 2 1016 93 10000 3.6 280 20:40 04.11.2019
4952 Rain 2 1016 86 10000 4.1 180 20:21 04.11.2019
4953 Rain 2 1016 86 10000 4.1 180 20:21 04.11.2019
4954 Rain 2 1016 86 10000 5.1 260 19:59 04.11.2019
4955 Rain 2 1016 86 10000 5.1 260 19:41 04.11.2019
4956 Rain 2 1016 84 10000 3.1 190 19:22 04.11.2019
4957 Rain 2 1016 93 10000 3.6 260 18:58 04.11.2019
4958 Rain 2 1016 93 10000 3.6 260 18:39 04.11.2019
4959 Snow 3 1016 84 10000 2.6 180 18:20 04.11.2019
4960 Rain 3 1015 86 10000 5.1 250 17:56 04.11.2019
4961 Rain 3 1015 86 10000 5.1 250 17:36 04.11.2019
4962 Rain 3 1015 80 10000 3.6 180 17:18 04.11.2019
4963 Rain 3 1015 80 10000 6.2 270 16:42 04.11.2019
4964 Rain 3 1016 80 10000 3.6 170 16:23 04.11.2019
4965 Rain 3 1015 75 10000 3.6 270 15:58 04.11.2019
4966 Rain 3 1015 75 10000 3.6 270 15:39 04.11.2019
4967 Rain 3 1016 80 10000 5.1 170 15:21 04.11.2019
4968 Clouds 3 1015 80 10000 4.6 280 14:57 04.11.2019
4969 Clouds 2 1015 80 10000 4.6 280 14:39 04.11.2019
4970 Rain 3 1016 86 10000 4.1 190 14:20 04.11.2019
4971 Clouds 2 1015 75 10000 3.1 270 13:57 04.11.2019
4972 Clouds 2 1015 75 10000 3.1 270 13:39 04.11.2019
4973 Rain 2 1015 96 10000 6.7 160 13:20 04.11.2019
4974 Clouds 2 1015 100 10000 3.1 160 12:49 04.11.2019
4975 Snow 2 1015 96 10000 6.2 170 12:29 04.11.2019
4976 Rain 2 1015 93 10000 5.1 170 11:59 04.11.2019
4977 Rain 2 1015 93 10000 5.1 170 11:41 04.11.2019
4978 Rain 2 1015 98 10000 4.1 190 11:22 04.11.2019
4979 Rain 2 1014 93 10000 7.2 190 10:56 04.11.2019
4980 Rain 2 1014 93 10000 7.2 190 10:38 04.11.2019
4981 Rain 1 1014 98 10000 6.7 190 10:18 04.11.2019
4982 Rain 2 1014 100 10000 5.1 180 09:40 04.11.2019
4983 Clouds 2 1013 98 10000 6.2 180 09:20 04.11.2019
4984 Drizzle 2 1013 100 10000 7.2 190 08:55 04.11.2019
4985 Clouds 2 1013 98 10000 4.6 190 08:37 04.11.2019
4986 Clouds 2 1013 98 10000 4.6 190 08:18 04.11.2019
4987 Rain 2 1013 100 10000 6.2 180 07:42 04.11.2019
4988 Rain 2 1013 98 10000 4.1 180 07:20 04.11.2019
4989 Rain 2 1013 93 10000 4.6 190 06:49 04.11.2019
4990 Rain 2 1013 69 10000 2.1 110 06:18 04.11.2019
4991 Rain 2 1012 86 10000 4.1 220 05:37 04.11.2019
4992 Clouds 1 1012 88 10000 5.1 170 04:37 04.11.2019
4993 Clouds 1 1011 80 10000 5.7 170 03:48 04.11.2019
4994 Clouds 1 1011 69 10000 3.6 170 01:45 04.11.2019
4995 Clouds 1 1011 55 10000 3.6 100 01:19 04.11.2019
4996 Clouds 1 1010 80 10000 3.1 170 00:39 04.11.2019
4997 Clouds 1 1010 55 10000 2.1 100 00:19 04.11.2019
4998 Clouds 2 1009 74 10000 2.1 180 23:40 03.11.2019
4999 Clouds 2 1009 55 10000 1.5 90 23:21 03.11.2019
5000 Clouds 2 1009 60 10000 2.1 200 22:57 03.11.2019
5001 Clouds 3 1009 60 10000 2.1 200 22:39 03.11.2019
5002 Clouds 2 1009 59 10000 1.5 120 22:19 03.11.2019
5003 Clouds 2 1008 74 10000 2.6 180 21:44 03.11.2019
5004 Clouds 2 1008 59 10000 2.1 110 21:22 03.11.2019
5005 Clouds 3 1007 64 10000 0.5 60 20:59 03.11.2019
5006 Clouds 3 1007 64 10000 0.5 60 20:38 03.11.2019
5007 Clouds 3 1007 64 10000 0.5 60 20:38 03.11.2019
5008 Clouds 3 1007 51 10000 3.6 100 20:20 03.11.2019
5009 Clouds 3 1007 64 10000 1.5 20 19:58 03.11.2019
5010 Clouds 3 1007 64 10000 1.5 20 19:39 03.11.2019
5011 Clouds 3 1006 51 10000 3.6 90 19:21 03.11.2019
5012 Clouds 4 1006 64 10000 1.5 100 18:59 03.11.2019
5013 Clouds 4 1006 64 10000 1.5 100 18:38 03.11.2019
5014 Clouds 4 1005 48 10000 3.6 80 18:18 03.11.2019
5015 Clouds 4 1005 64 10000 3.6 60 17:56 03.11.2019
5016 Clouds 4 1005 64 10000 3.6 60 17:37 03.11.2019
5017 Clouds 4 1004 44 10000 3.6 70 17:18 03.11.2019
5018 Clouds 5 1004 60 10000 5.7 60 16:54 03.11.2019
5019 Clouds 5 1004 60 10000 5.7 60 16:36 03.11.2019
5020 Clouds 5 1004 41 10000 4.6 80 16:18 03.11.2019
5021 Clouds 4 1004 60 10000 5.7 60 15:43 03.11.2019
5022 Clouds 5 1003 44 10000 2.6 30 15:24 03.11.2019
5023 Clouds 5 1003 60 10000 5.7 60 14:56 03.11.2019
5024 Clouds 4 1003 60 10000 5.7 60 14:38 03.11.2019
5025 Clouds 5 1002 44 10000 4.1 80 14:18 03.11.2019
5026 Clouds 4 1002 64 10000 6.7 70 13:43 03.11.2019
5027 Clouds 4 1002 48 10000 5.1 80 13:20 03.11.2019
5028 Clouds 4 1002 64 10000 7.2 80 12:58 03.11.2019
5029 Clouds 4 1002 64 10000 7.2 80 12:37 03.11.2019
5030 Clouds 4 1001 48 10000 6.2 90 12:18 03.11.2019
5031 Clouds 4 1001 69 10000 7.7 90 11:43 03.11.2019
5032 Clouds 4 1001 48 10000 5.7 80 11:22 03.11.2019
5033 Clouds 3 1000 69 10000 9.3 90 10:58 03.11.2019
5034 Clouds 3 1000 69 10000 9.3 90 10:39 03.11.2019
5035 Clouds 3 1000 69 10000 9.3 90 10:39 03.11.2019
5036 Clouds 3 1000 60 10000 6.7 70 10:21 03.11.2019
5037 Clouds 3 1000 69 10000 6.7 80 09:55 03.11.2019
5038 Clouds 4 999 56 10000 9.3 80 09:37 03.11.2019
5039 Clouds 4 999 56 10000 9.3 80 09:37 03.11.2019
5040 Clouds 4 999 56 10000 9.3 80 09:19 03.11.2019
5041 Clouds 4 999 52 10000 9.8 90 08:38 03.11.2019
5042 Clouds 4 999 52 10000 9.8 90 08:20 03.11.2019
5043 Clouds 4 999 54 10000 6.7 60 07:45 03.11.2019
5044 Clouds 4 998 56 10000 8.2 80 07:23 03.11.2019
5045 Clouds 4 998 69 10000 5.7 80 06:49 03.11.2019
5046 Clouds 4 998 48 10000 7.7 90 06:30 03.11.2019
5047 Clouds 4 998 69 10000 4.1 80 05:39 03.11.2019
5048 Clouds 5 998 69 10000 6.7 70 04:56 03.11.2019
5049 Clouds 4 998 48 10000 4.1 80 04:33 03.11.2019
5050 Clouds 4 998 44 10000 7.7 80 03:31 03.11.2019
5051 Clouds 4 998 69 10000 5.7 70 02:42 03.11.2019
5052 Clouds 4 999 48 10000 4.6 80 02:19 03.11.2019
5053 Clouds 3 998 64 10000 5.1 80 01:38 03.11.2019
5054 Clouds 3 999 51 10000 4.1 100 01:20 03.11.2019
5055 Clouds 4 998 74 10000 4.1 80 00:43 03.11.2019
5056 Clouds 3 999 48 10000 6.7 80 00:25 03.11.2019
5057 Clouds 4 999 74 10000 4.1 90 23:57 02.11.2019
5058 Clouds 4 999 74 10000 4.1 90 23:38 02.11.2019
5059 Clouds 3 999 51 10000 6.7 90 23:18 02.11.2019
5060 Clouds 3 999 74 10000 3.6 60 22:55 02.11.2019
5061 Clouds 3 999 51 10000 6.2 90 22:37 02.11.2019
5062 Clouds 3 999 51 10000 6.2 90 22:37 02.11.2019
5063 Clouds 3 999 51 10000 6.2 90 22:18 02.11.2019
5064 Clouds 3 999 80 10000 3.6 70 21:56 02.11.2019
5065 Clouds 3 999 51 10000 7.7 80 21:37 02.11.2019
5066 Clouds 3 999 51 10000 7.7 80 21:18 02.11.2019
5067 Clouds 3 999 74 10000 4.6 80 20:58 02.11.2019
5068 Clouds 3 999 74 10000 4.6 80 20:39 02.11.2019
5069 Clouds 3 999 51 10000 4.1 100 20:19 02.11.2019
5070 Clouds 3 999 80 10000 3.1 60 19:40 02.11.2019
5071 Clouds 3 999 51 10000 5.7 80 19:22 02.11.2019
5072 Clouds 3 999 69 10000 3.1 80 18:56 02.11.2019
5073 Clouds 4 999 69 10000 3.1 80 18:37 02.11.2019
5074 Clouds 3 999 51 10000 4.6 80 18:19 02.11.2019
5075 Clouds 4 999 64 10000 4.1 50 17:57 02.11.2019
5076 Clouds 3 999 64 10000 4.1 50 17:38 02.11.2019
5077 Clouds 4 999 51 10000 3.6 70 17:19 02.11.2019
5078 Clouds 4 999 69 10000 4.6 50 16:57 02.11.2019
5079 Clouds 4 999 69 10000 4.6 50 16:36 02.11.2019
5080 Clouds 4 999 44 10000 4.6 60 16:18 02.11.2019
5081 Clouds 4 999 44 10000 4.6 60 16:18 02.11.2019
5082 Clouds 3 999 74 10000 3.1 70 15:41 02.11.2019
5083 Clouds 3 999 48 10000 3.1 60 15:19 02.11.2019
5084 Clouds 3 999 56 10000 2.6 70 14:43 02.11.2019
5085 Clouds 3 999 48 10000 1.5 60 14:23 02.11.2019
5086 Clouds 3 999 86 10000 3.1 60 13:57 02.11.2019
5087 Clouds 3 999 86 10000 3.1 60 13:38 02.11.2019
5088 Clouds 3 1000 55 10000 2.1 40 13:19 02.11.2019
5089 Clouds 3 999 62 10000 3.1 50 12:41 02.11.2019
5090 Clouds 2 999 51 10000 3.1 80 12:23 02.11.2019
5091 Clouds 2 999 62 10000 2.6 60 11:58 02.11.2019
5092 Clouds 2 999 62 10000 2.6 60 11:39 02.11.2019
5093 Clouds 2 999 55 10000 3.1 100 11:21 02.11.2019
5094 Clouds 2 999 73 10000 1.5 30 10:50 02.11.2019
5095 Clouds 2 999 69 10000 0.5 0 10:28 02.11.2019
5096 Clouds 1 999 73 10000 1.5 60 09:59 02.11.2019
5097 Clouds 2 999 73 10000 1.5 60 09:39 02.11.2019
5098 Clouds 1 999 73 10000 1 0 09:20 02.11.2019
5099 Clouds 2 998 73 10000 1.5 60 08:46 02.11.2019
5100 Clouds 1 998 74 10000 1.5 80 08:22 02.11.2019
5101 Clouds 2 998 72 10000 2.6 70 07:50 02.11.2019
5102 Clouds 2 998 64 10000 1.5 90 07:32 02.11.2019
5103 Clouds 2 998 72 10000 2.6 70 06:58 02.11.2019
5104 Clouds 2 998 72 10000 2.6 70 06:39 02.11.2019
5105 Clouds 2 998 72 10000 3.1 90 05:59 02.11.2019
5106 Clouds 2 998 69 10000 2.6 120 05:25 02.11.2019
5107 Clouds 3 998 64 10000 3.6 90 04:23 02.11.2019
5108 Clouds 3 998 74 10000 3.1 70 03:50 02.11.2019
5109 Clouds 3 999 86 10000 4.1 80 02:44 02.11.2019
5110 Clouds 4 999 80 10000 3.6 70 01:55 02.11.2019
5111 Clouds 4 999 64 10000 3.6 80 01:24 02.11.2019
5112 Clouds 4 999 80 10000 5.7 90 00:51 02.11.2019
5113 Clouds 4 999 64 10000 4.1 80 00:26 02.11.2019
5114 Clouds 3 999 86 10000 4.6 90 23:48 01.11.2019
5115 Clouds 4 1000 69 10000 3.1 90 23:23 01.11.2019
5116 Clouds 3 999 80 10000 5.1 80 22:58 01.11.2019
5117 Clouds 3 999 80 10000 5.1 80 22:39 01.11.2019
5118 Clouds 3 1000 74 10000 3.1 110 22:20 01.11.2019
5119 Clouds 4 1000 80 10000 5.7 80 21:41 01.11.2019
5120 Clouds 4 1000 69 10000 3.1 110 21:23 01.11.2019
5121 Clouds 3 1000 86 10000 5.7 70 20:57 01.11.2019
5122 Clouds 3 1000 86 10000 5.7 70 20:39 01.11.2019
5123 Clouds 4 1000 69 10000 3.6 100 20:19 01.11.2019
5124 Clouds 4 1000 80 10000 5.1 80 19:56 01.11.2019
5125 Clouds 4 1000 80 10000 5.1 80 19:37 01.11.2019
5126 Clouds 4 1000 69 10000 4.1 90 19:19 01.11.2019
5127 Clouds 4 1000 86 10000 4.1 90 18:39 01.11.2019
5128 Clouds 4 1000 86 10000 4.1 90 18:39 01.11.2019
5129 Clouds 4 1001 65 10000 6.2 80 18:21 01.11.2019
5130 Clouds 5 1001 86 10000 3.6 80 17:55 01.11.2019
5131 Clouds 5 1001 65 10000 4.1 80 17:37 01.11.2019
5132 Clouds 4 1001 65 10000 4.1 80 17:19 01.11.2019
5133 Clouds 4 1001 65 10000 4.1 80 17:19 01.11.2019
5134 Clouds 5 1001 75 10000 3.6 80 16:38 01.11.2019
5135 Clouds 5 1001 75 10000 3.6 80 16:38 01.11.2019
5136 Clouds 5 1002 60 10000 4.6 100 16:19 01.11.2019
5137 Clouds 5 1002 86 10000 3.1 90 15:55 01.11.2019
5138 Clouds 4 1002 86 10000 3.1 90 15:36 01.11.2019
5139 Clouds 4 1002 74 10000 3.1 70 15:18 01.11.2019
5140 Clouds 3 1002 93 10000 3.6 70 14:41 01.11.2019
5141 Clouds 3 1002 93 10000 3.6 70 14:41 01.11.2019
5142 Clouds 3 1003 75 10000 3.1 90 14:23 01.11.2019
5143 Clouds 3 1002 93 10000 3.6 60 13:57 01.11.2019
5144 Clouds 3 1002 93 10000 3.6 60 13:38 01.11.2019
5145 Clouds 3 1003 75 10000 3.1 50 13:19 01.11.2019
5146 Clouds 3 1003 75 10000 3.1 50 13:19 01.11.2019
5147 Clouds 2 1003 93 10000 3.6 60 12:43 01.11.2019
5148 Clouds 2 1003 74 10000 3.1 90 12:25 01.11.2019
5149 Clouds 1 1003 100 10000 3.1 60 11:56 01.11.2019
5150 Clouds 0 1003 100 10000 3.1 60 11:38 01.11.2019
5151 Clouds 0 1004 81 10000 1 130 11:19 01.11.2019
5152 Clouds 0 1004 100 10000 2.1 50 10:41 01.11.2019
5153 Clouds 0 1004 81 10000 1.86 87 10:21 01.11.2019
5154 Clouds -1 1004 93 10000 3.1 70 09:57 01.11.2019
5155 Clouds -1 1004 93 10000 3.1 70 09:57 01.11.2019
5156 Clouds 0 1004 93 10000 3.1 70 09:38 01.11.2019
5157 Clouds 0 1005 92 10000 1 110 09:19 01.11.2019
5158 Clouds 0 1005 93 10000 2.6 60 08:43 01.11.2019
5159 Clouds 0 1005 92 10000 2.1 90 08:22 01.11.2019
5160 Clouds 0 1005 93 10000 1.5 50 07:56 01.11.2019
5161 Clouds 0 1005 93 10000 1.5 50 07:37 01.11.2019
5162 Clouds 0 1005 92 10000 1.5 70 07:18 01.11.2019
5163 Clouds 1 1005 100 10000 1 40 06:41 01.11.2019
5164 Clouds 1 1006 82 10000 1 0 06:21 01.11.2019
5165 Clouds 1 1006 93 10000 2.1 70 05:43 01.11.2019
5166 Clouds 1 1007 83 10000 1.5 110 03:42 01.11.2019
5167 Clouds 1 1008 83 10000 0.5 120 02:49 01.11.2019
5168 Clouds 2 1009 85 10000 1.5 170 01:28 01.11.2019
5169 Clouds 2 1009 80 10000 0.5 0 00:39 01.11.2019
5170 Clouds 2 1009 86 10000 1.5 90 00:18 01.11.2019
5171 Clouds 2 1010 80 10000 1 290 23:42 31.10.2019
5172 Clouds 2 1010 87 10000 1 20 23:22 31.10.2019
5173 Clouds 2 1010 80 10000 0.5 330 22:55 31.10.2019
5174 Drizzle 2 1010 87 10000 2.07 31 22:36 31.10.2019
5175 Drizzle 2 1010 87 10000 2.07 31 22:18 31.10.2019
5176 Drizzle 2 1010 87 10000 2.07 31 22:18 31.10.2019
5177 Clouds 2 1011 87 10000 1.5 330 21:42 31.10.2019
5178 Clouds 2 1011 87 10000 2.07 31 21:20 31.10.2019
5179 Clouds 2 1011 87 10000 0.5 320 20:56 31.10.2019
5180 Clouds 2 1011 87 10000 0.5 320 20:37 31.10.2019
5181 Clouds 3 1011 69 10000 1.99 38 20:19 31.10.2019
5182 Clouds 3 1011 86 10000 1.5 360 19:41 31.10.2019
5183 Clouds 3 1012 86 10000 1.5 290 19:21 31.10.2019
5184 Clouds 3 1012 93 10000 2.6 340 18:56 31.10.2019
5185 Clouds 3 1012 93 10000 2.6 340 18:38 31.10.2019
5186 Clouds 3 1012 69 10000 0.5 0 18:19 31.10.2019
5187 Clouds 4 1012 80 10000 1.5 290 17:41 31.10.2019
5188 Clouds 4 1012 85 10000 2.09 24 17:22 31.10.2019
5189 Clouds 4 1013 80 10000 3.6 290 16:58 31.10.2019
5190 Clouds 4 1013 80 10000 3.6 290 16:58 31.10.2019
5191 Clouds 4 1013 80 10000 3.6 290 16:40 31.10.2019
5192 Clouds 4 1013 80 10000 3.6 290 16:40 31.10.2019
5193 Clouds 4 1013 80 10000 2.09 24 16:20 31.10.2019
5194 Clouds 4 1013 80 10000 2.6 290 15:54 31.10.2019
5195 Clouds 4 1013 93 10000 1 0 15:36 31.10.2019
5196 Clouds 4 1013 93 10000 1 0 15:18 31.10.2019
5197 Clouds 4 1013 93 10000 1 160 14:54 31.10.2019
5198 Rain 4 1014 93 3000 2.6 290 14:36 31.10.2019
5199 Rain 4 1014 93 3000 2.6 290 14:18 31.10.2019
5200 Clouds 4 1014 86 10000 2.6 280 13:40 31.10.2019
5201 Clouds 4 1014 86 10000 2.6 280 13:40 31.10.2019
5202 Clouds 4 1014 86 10000 2.6 280 13:20 31.10.2019
5203 Clouds 4 1014 86 10000 2.1 260 12:59 31.10.2019
5204 Clouds 4 1014 86 10000 2.1 260 12:41 31.10.2019
5205 Clouds 4 1014 80 10000 2.6 250 12:22 31.10.2019
5206 Rain 4 1014 100 10000 2.1 270 11:55 31.10.2019
5207 Clouds 4 1014 86 10000 2.1 250 11:36 31.10.2019
5208 Clouds 4 1014 86 10000 2.1 250 11:18 31.10.2019
5209 -273 0 0 0 0 0 10:40 31.10.2019
5210 Clouds 4 1014 86 10000 2.6 280 10:40 31.10.2019
5211 Clouds 4 1014 86 10000 3.6 280 10:22 31.10.2019
5212 Clouds 4 1014 93 10000 2.1 280 09:59 31.10.2019
5213 Clouds 4 1014 93 10000 2.1 280 09:59 31.10.2019
5214 Clouds 4 1014 93 10000 2.1 280 09:39 31.10.2019
5215 Drizzle 4 1015 86 10000 2.6 290 09:18 31.10.2019
5216 Clouds 4 1014 93 10000 3.6 290 08:48 31.10.2019
5217 Rain 4 1014 93 10000 4.6 290 08:29 31.10.2019
5218 Clouds 4 1014 93 10000 5.1 280 07:54 31.10.2019
5219 Clouds 4 1014 93 10000 5.1 280 07:36 31.10.2019
5220 Drizzle 4 1014 93 5000 2.1 210 07:18 31.10.2019
5221 Drizzle 4 1014 100 7000 4.1 280 06:38 31.10.2019
5222 Rain 5 1014 93 10000 3.1 190 06:18 31.10.2019
5223 Rain 5 1016 86 10000 3.6 190 03:30 31.10.2019
5224 Rain 5 1015 100 10000 6.2 230 02:41 31.10.2019
5225 Rain 5 1016 100 10000 5.7 220 01:52 31.10.2019
5226 Clouds 5 1016 93 10000 5.1 220 00:37 31.10.2019
5227 Clouds 5 1017 86 10000 3.6 170 00:18 31.10.2019
5228 Rain 6 1017 86 10000 3.6 180 23:30 30.10.2019
5229 Clouds 5 1017 93 10000 4.6 200 22:43 30.10.2019
5230 Clouds 5 1017 86 10000 3.6 180 22:23 30.10.2019
5231 Clouds 5 1017 86 10000 3.6 180 22:23 30.10.2019
5232 Clouds 5 1017 100 10000 4.1 190 21:56 30.10.2019
5233 Clouds 5 1017 100 10000 4.1 190 21:38 30.10.2019
5234 Clouds 5 1018 86 10000 3.6 170 21:19 30.10.2019
5235 Clouds 5 1018 100 10000 5.7 200 20:59 30.10.2019
5236 Clouds 5 1018 100 10000 5.7 200 20:41 30.10.2019
5237 Clouds 5 1018 100 10000 5.7 200 20:41 30.10.2019
5238 Clouds 5 1018 87 10000 3.1 180 20:22 30.10.2019
5239 Rain 6 1018 100 10000 4.1 200 19:58 30.10.2019
5240 Rain 6 1018 100 10000 4.1 200 19:39 30.10.2019
5241 Rain 6 1018 87 10000 3.6 180 19:20 30.10.2019
5242 Clouds 6 1018 93 10000 4.6 200 18:58 30.10.2019
5243 Clouds 6 1018 93 10000 4.6 200 18:37 30.10.2019
5244 Clouds 6 1018 93 10000 4.6 200 18:37 30.10.2019
5245 Rain 6 1018 87 10000 3.6 190 18:18 30.10.2019
5246 Rain 6 1018 93 10000 5.7 210 17:41 30.10.2019
5247 Clouds 6 1019 87 10000 3.6 190 17:20 30.10.2019
5248 Rain 6 1018 100 10000 4.1 210 16:59 30.10.2019
5249 Rain 6 1018 100 10000 4.1 210 16:40 30.10.2019
5250 Clouds 6 1019 87 10000 3.6 190 16:22 30.10.2019
5251 Rain 6 1019 100 9000 4.1 220 15:57 30.10.2019
5252 Rain 6 1019 100 9000 4.1 220 15:38 30.10.2019
5253 Rain 6 1020 81 10000 4.1 190 15:19 30.10.2019
5254 Rain 6 1019 100 10000 5.7 220 14:56 30.10.2019
5255 Rain 6 1019 100 10000 5.7 220 14:38 30.10.2019
5256 Clouds 6 1020 87 10000 3.1 170 14:18 30.10.2019
5257 Rain 6 1020 87 10000 3.1 170 13:42 30.10.2019
5258 Rain 6 1020 87 4700 3.6 180 13:21 30.10.2019
5259 Clouds 6 1020 93 10000 5.1 200 12:59 30.10.2019
5260 Clouds 6 1020 93 10000 5.1 200 12:59 30.10.2019
5261 Clouds 6 1020 93 10000 5.1 200 12:41 30.10.2019
5262 Rain 5 1020 87 10000 3.6 170 12:23 30.10.2019
5263 Rain 5 1020 100 10000 6.2 200 11:46 30.10.2019
5264 Clouds 6 1021 81 10000 4.1 160 11:28 30.10.2019
5265 Rain 5 1020 93 8000 6.7 220 10:59 30.10.2019
5266 Rain 5 1020 93 8000 6.7 220 10:41 30.10.2019
5267 Clouds 5 1021 86 10000 4.1 170 10:22 30.10.2019
5268 Clouds 5 1021 93 10000 5.1 190 09:41 30.10.2019
5269 Clouds 5 1021 86 10000 3.6 170 09:22 30.10.2019
5270 Clouds 5 1021 93 10000 4.1 200 08:56 30.10.2019
5271 Clouds 5 1021 93 10000 4.1 200 08:38 30.10.2019
5272 Clouds 5 1021 80 10000 3.6 160 08:18 30.10.2019
5273 Clouds 4 1021 100 10000 3.6 190 07:43 30.10.2019
5274 Drizzle 5 1022 93 10000 4.6 230 06:59 30.10.2019
5275 Drizzle 5 1022 93 10000 4.6 230 06:40 30.10.2019
5276 Clouds 5 1022 93 10000 5.7 220 05:58 30.10.2019
5277 Clouds 5 1022 93 10000 5.7 220 05:39 30.10.2019
5278 Rain 5 1024 86 10000 4.6 190 04:26 30.10.2019
5279 Rain 5 1024 86 10000 4.6 190 04:26 30.10.2019
5280 Drizzle 4 1023 93 10000 5.1 200 03:39 30.10.2019
5281 Drizzle 4 1024 93 10000 4.6 190 02:49 30.10.2019
5282 Clouds 4 1024 100 10000 4.6 180 01:51 30.10.2019
5283 Clouds 4 1025 93 10000 4.6 190 00:49 30.10.2019
5284 Clouds 4 1026 80 10000 3.1 140 00:28 30.10.2019
5285 Rain 4 1025 93 10000 4.6 190 23:41 29.10.2019
5286 Clouds 4 1026 80 10000 3.6 150 23:22 29.10.2019
5287 Clouds 4 1026 100 10000 4.6 180 22:45 29.10.2019
5288 Clouds 4 1026 80 10000 3.1 160 22:20 29.10.2019
5289 Clouds 4 1026 100 10000 3.6 190 21:56 29.10.2019
5290 Drizzle 4 1027 80 10000 3.1 180 21:38 29.10.2019
5291 Drizzle 4 1027 80 10000 3.1 180 21:20 29.10.2019
5292 Clouds 5 1027 93 10000 4.6 190 20:54 29.10.2019
5293 Clouds 5 1028 81 10000 6.2 180 20:36 29.10.2019
5294 Clouds 5 1028 81 10000 6.2 180 20:18 29.10.2019
5295 Clouds 4 1027 93 10000 5.1 200 19:55 29.10.2019
5296 Clouds 5 1027 93 10000 5.1 200 19:36 29.10.2019
5297 Clouds 5 1028 80 10000 3.6 160 19:18 29.10.2019
5298 Clouds 5 1027 81 10000 6.2 210 18:54 29.10.2019
5299 Clouds 5 1027 81 10000 6.2 210 18:36 29.10.2019
5300 Clouds 6 1028 75 10000 4.1 190 18:18 29.10.2019
5301 Clouds 6 1028 75 10000 7.2 220 17:40 29.10.2019
5302 Clouds 5 1028 81 10000 4.6 180 17:21 29.10.2019
5303 Clouds 6 1028 81 10000 7.2 210 16:58 29.10.2019
5304 Clouds 6 1028 81 10000 7.2 210 16:38 29.10.2019
5305 Clouds 6 1029 81 10000 5.1 210 16:19 29.10.2019
5306 Clouds 6 1029 81 10000 7.2 220 15:55 29.10.2019
5307 Clouds 6 1029 81 10000 7.2 220 15:36 29.10.2019
5308 Clouds 6 1029 81 10000 7.2 220 15:36 29.10.2019
5309 Clouds 6 1029 81 10000 4.6 200 15:18 29.10.2019
5310 Clouds 6 1029 81 10000 6.7 230 14:42 29.10.2019
5311 Clouds 6 1030 87 10000 5.7 200 14:24 29.10.2019
5312 Clouds 5 1029 81 10000 8.2 220 13:59 29.10.2019
5313 Clouds 5 1029 81 10000 8.2 220 13:40 29.10.2019
5314 Rain 5 1030 93 10000 3.6 200 13:21 29.10.2019
5315 Clouds 5 1030 87 10000 6.7 220 12:44 29.10.2019
5316 Drizzle 5 1030 93 8000 5.7 220 12:25 29.10.2019
5317 Rain 5 1030 93 10000 6.2 230 11:57 29.10.2019
5318 Rain 5 1030 87 2500 4.1 210 11:38 29.10.2019
5319 Rain 5 1030 87 2500 4.1 210 11:19 29.10.2019
5320 Rain 4 1030 93 3500 4.6 200 10:57 29.10.2019
5321 Rain 4 1030 93 3500 4.6 200 10:38 29.10.2019
5322 Clouds 4 1030 86 10000 4.1 200 10:19 29.10.2019
5323 Rain 4 1030 93 10000 6.2 220 09:44 29.10.2019
5324 Clouds 4 1030 86 10000 5.1 190 09:23 29.10.2019
5325 Clouds 4 1030 86 10000 5.1 190 09:23 29.10.2019
5326 Clouds 4 1030 93 10000 6.7 230 08:58 29.10.2019
5327 Clouds 4 1030 93 10000 6.7 230 08:39 29.10.2019
5328 Clouds 4 1031 86 10000 4.1 190 08:21 29.10.2019
5329 Clouds 4 1030 93 10000 6.2 230 07:49 29.10.2019
5330 Clouds 4 1031 86 10000 4.6 200 07:22 29.10.2019
5331 Clouds 4 1030 93 10000 6.2 230 06:59 29.10.2019
5332 Clouds 4 1030 93 10000 6.2 230 06:41 29.10.2019
5333 Clouds 4 1031 86 10000 4.6 190 06:19 29.10.2019
5334 Clouds 4 1031 93 10000 6.2 230 05:49 29.10.2019
5335 Drizzle 4 1031 87 10000 5.1 210 05:19 29.10.2019
5336 Clouds 4 1031 100 10000 7.2 230 03:55 29.10.2019
5337 Drizzle 4 1032 80 9000 5.1 180 02:32 29.10.2019
5338 Drizzle 4 1032 100 10000 6.7 210 01:43 29.10.2019
5339 Drizzle 3 1033 100 10000 6.2 190 00:57 29.10.2019
5340 Clouds 3 1033 89 10000 4.1 150 00:30 29.10.2019
5341 Rain 3 1033 93 10000 5.1 190 23:42 28.10.2019
5342 Clouds 3 1034 83 10000 3.6 150 23:20 28.10.2019
5343 Clouds 3 1034 80 10000 4.6 180 22:57 28.10.2019
5344 Clouds 3 1034 80 10000 4.6 180 22:37 28.10.2019
5345 Clouds 2 1034 83 10000 3.1 160 22:18 28.10.2019
5346 Clouds 2 1034 80 10000 4.1 190 21:54 28.10.2019
5347 Clouds 2 1034 80 10000 4.1 190 21:54 28.10.2019
5348 Clouds 3 1035 69 10000 2.1 150 21:36 28.10.2019
5349 Clouds 2 1035 69 10000 2.1 150 21:18 28.10.2019
5350 Clouds 2 1035 75 10000 4.6 230 20:44 28.10.2019
5351 Clouds 2 1035 69 10000 2.1 150 20:24 28.10.2019
5352 Clouds 4 1035 80 10000 3.6 240 19:58 28.10.2019
5353 Clouds 2 1035 80 10000 3.6 240 19:39 28.10.2019
5354 Clouds 3 1035 76 10000 1.5 150 19:20 28.10.2019
5355 Clouds 3 1035 76 10000 1.5 150 19:20 28.10.2019
5356 Clouds 3 1035 75 10000 3.1 220 18:58 28.10.2019
5357 Clouds 3 1035 75 10000 3.1 220 18:39 28.10.2019
5358 Clouds 3 1035 76 10000 2.1 170 18:21 28.10.2019
5359 Clouds 3 1035 75 10000 3.1 240 17:56 28.10.2019
5360 Clouds 3 1035 75 10000 3.1 240 17:38 28.10.2019
5361 Clouds 3 1035 70 10000 2.1 150 17:19 28.10.2019
5362 Clouds 4 1035 70 10000 2.6 240 16:57 28.10.2019
5363 Clouds 4 1035 70 10000 2.1 190 16:39 28.10.2019
5364 Clouds 5 1035 70 10000 2.1 190 16:20 28.10.2019
5365 Clouds 4 1035 75 10000 2.1 240 15:58 28.10.2019
5366 Clouds 4 1035 75 10000 2.1 240 15:39 28.10.2019
5367 Clouds 5 1036 75 10000 3.1 210 15:20 28.10.2019
5368 Clouds 4 1036 75 10000 3.1 260 14:56 28.10.2019
5369 Clouds 4 1036 75 10000 3.1 260 14:38 28.10.2019
5370 Clouds 4 1036 75 10000 1.5 200 14:18 28.10.2019
5371 Clouds 3 1036 68 10000 2.1 270 13:54 28.10.2019
5372 Clouds 3 1036 68 10000 2.1 270 13:36 28.10.2019
5373 Clouds 3 1036 86 10000 2.1 150 13:18 28.10.2019
5374 Clouds 2 1035 68 10000 2.1 290 12:41 28.10.2019
5375 Clouds 0 1035 68 10000 3.1 130 12:20 28.10.2019
5376 Clouds 0 1035 68 10000 3.6 290 11:40 28.10.2019
5377 Clouds 0 1035 79 10000 1.5 160 11:21 28.10.2019
5378 Clouds 0 1035 74 10000 3.1 290 10:57 28.10.2019
5379 Clouds -1 1035 74 10000 3.1 290 10:38 28.10.2019
5380 Clouds 0 1035 79 10000 0.5 160 10:20 28.10.2019
5381 Rain 1 1034 79 10000 2.6 310 09:55 28.10.2019
5382 Rain 0 1034 79 10000 2.6 310 09:55 28.10.2019
5383 Rain 1 1034 79 10000 2.6 310 09:37 28.10.2019
5384 Clouds 1 1034 86 10000 1 0 09:18 28.10.2019
5385 Drizzle 1 1034 79 10000 3.1 320 08:56 28.10.2019
5386 Drizzle 1 1034 79 10000 3.1 320 08:37 28.10.2019
5387 Clouds 1 1034 80 10000 1.5 130 08:18 28.10.2019
5388 Drizzle 1 1034 86 10000 2.6 330 07:54 28.10.2019
5389 Drizzle 1 1034 86 10000 2.6 330 07:36 28.10.2019
5390 Clouds 1 1034 86 10000 1.5 170 07:18 28.10.2019
5391 Clouds 1 1034 93 10000 4.1 350 06:39 28.10.2019
5392 Clouds 2 1033 86 10000 1 0 05:29 28.10.2019
5393 Clouds 2 1032 81 10000 3.6 290 03:44 28.10.2019
5394 Clouds 1 1032 81 10000 0.5 0 02:46 28.10.2019
5395 Clouds 1 1032 86 10000 1 100 01:52 28.10.2019
5396 Clouds 1 1032 86 10000 1 100 01:52 28.10.2019
5397 Clouds 2 1031 86 10000 0.5 340 00:47 28.10.2019
5398 Clouds 2 1031 79 10000 1.5 150 00:26 28.10.2019
5399 Clouds 1 1031 86 10000 1 320 23:45 27.10.2019
5400 Clouds 1 1030 79 10000 1.5 180 23:22 27.10.2019
5401 Rain 2 1030 80 10000 1 10 22:57 27.10.2019
5402 Rain 2 1030 80 10000 1 10 22:38 27.10.2019
5403 Clouds 2 1030 74 10000 1.5 150 22:20 27.10.2019
5404 Clouds 1 1030 86 10000 1.5 20 21:57 27.10.2019
5405 Clouds 1 1030 86 10000 1.5 20 21:39 27.10.2019
5406 Clouds 2 1029 79 10000 1.5 150 21:20 27.10.2019
5407 Clouds 1 1029 86 10000 2.1 360 20:54 27.10.2019
5408 Clouds 1 1029 86 10000 2.1 360 20:36 27.10.2019
5409 Clouds 1 1029 80 10000 0.5 0 20:18 27.10.2019
5410 Clouds 3 1029 80 10000 2.1 360 19:39 27.10.2019
5411 Clouds 3 1028 69 10000 2.1 340 19:20 27.10.2019
5412 Clouds 3 1028 80 10000 2.1 360 18:57 27.10.2019
5413 Clouds 3 1028 80 10000 2.1 360 18:39 27.10.2019
5414 Clouds 3 1028 69 10000 2.6 320 18:21 27.10.2019
5415 Clouds 3 1027 80 10000 2.6 350 17:56 27.10.2019
5416 Clouds 3 1027 80 10000 2.6 350 17:37 27.10.2019
5417 Clear 3 1027 69 10000 2.1 220 17:19 27.10.2019
5418 Rain 3 1027 74 10000 1.5 270 16:56 27.10.2019
5419 Rain 3 1027 74 10000 1.5 270 16:56 27.10.2019
5420 Rain 3 1027 74 10000 1.5 270 16:38 27.10.2019
5421 Clear 4 1027 64 10000 0.5 0 16:19 27.10.2019
5422 Rain 4 1026 72 10000 1 40 15:55 27.10.2019
5423 Rain 4 1026 72 10000 1 40 15:37 27.10.2019
5424 Clear 3 1026 64 10000 1 0 15:18 27.10.2019
5425 Clouds 3 1026 72 10000 1 60 14:41 27.10.2019
5426 Clear 2 1026 64 10000 2.82 340 14:20 27.10.2019
5427 Clouds 1 1025 74 10000 1.5 80 13:56 27.10.2019
5428 Clouds 1 1025 74 10000 1.5 80 13:38 27.10.2019
5429 Clear 1 1025 64 10000 3.26 339 13:19 27.10.2019
5430 Clouds 0 1024 74 10000 0.5 90 12:45 27.10.2019
5431 Clear 0 1024 74 10000 1 0 12:24 27.10.2019
5432 Clouds -2 1024 71 10000 1.5 110 11:59 27.10.2019
5433 Clouds -2 1024 71 10000 1.5 110 11:40 27.10.2019
5434 Clear -3 1024 79 10000 1.5 140 11:21 27.10.2019
5435 Rain -5 1023 74 10000 2.1 120 10:44 27.10.2019
5436 Clear -2 1023 79 10000 1 0 10:24 27.10.2019
5437 Clouds -2 1023 70 10000 1.5 80 09:56 27.10.2019
5438 Clouds -2 1023 70 10000 1.5 80 09:38 27.10.2019
5439 Clear -2 1023 79 10000 1 0 09:18 27.10.2019
5440 Clear -2 1023 79 10000 1 0 09:18 27.10.2019
5441 Clouds -3 1022 70 10000 1.5 60 08:42 27.10.2019
5442 Clouds -3 1022 79 10000 1.5 160 08:22 27.10.2019
5443 Clouds -3 1022 63 10000 2.1 20 07:59 27.10.2019
5444 Clouds -3 1022 63 10000 2.1 20 07:41 27.10.2019
5445 Clouds -3 1022 73 10000 1 0 07:20 27.10.2019
5446 Clouds -4 1021 63 10000 3.1 10 06:47 27.10.2019
5447 Clouds -4 1021 79 10000 2.1 130 06:26 27.10.2019
5448 Clouds -4 1021 79 10000 2.1 150 05:39 27.10.2019
5449 Clouds -5 1020 68 10000 3.6 350 04:51 27.10.2019
5450 Clear -4 1019 73 10000 3.6 20 02:54 27.10.2019
5451 Clear -4 1019 73 10000 3.1 20 01:49 27.10.2019
5452 Clear -3 1019 73 10000 2.1 120 01:20 27.10.2019
5453 Clear -3 1019 68 10000 4.1 20 00:46 27.10.2019
5454 Clear -4 1018 68 10000 1 0 00:22 27.10.2019
5455 Clear -3 1018 74 10000 3.1 20 23:55 26.10.2019
5456 Clear -2 1018 63 10000 2.6 100 23:37 26.10.2019
5457 Clear -3 1018 63 10000 2.6 100 23:18 26.10.2019
5458 Clear -4 1018 79 10000 3.6 20 22:55 26.10.2019
5459 Clear -4 1018 79 10000 3.6 20 22:36 26.10.2019
5460 Clear -3 1017 68 10000 4.1 130 22:18 26.10.2019
5461 Clear -1 1017 74 10000 5.1 10 21:42 26.10.2019
5462 Clear -1 1017 74 10000 5.1 10 21:42 26.10.2019
5463 Clear -1 1017 63 10000 1.5 110 21:21 26.10.2019
5464 Clear -2 1017 79 10000 3.6 10 20:55 26.10.2019
5465 Clear -2 1017 79 10000 3.6 10 20:36 26.10.2019
5466 Clear -1 1016 63 10000 2.1 120 20:18 26.10.2019
5467 Clouds 1 1016 67 10000 5.1 20 19:41 26.10.2019
5468 Clear 1 1016 55 10000 4.1 360 19:20 26.10.2019
5469 Clouds 2 1016 69 10000 5.1 10 18:57 26.10.2019
5470 Clear 1 1015 51 10000 1.74 5 18:38 26.10.2019
5471 Clear 1 1015 51 10000 2.5 12 18:19 26.10.2019
5472 Clouds 1 1016 64 10000 5.7 20 17:56 26.10.2019
5473 Clear 1 1015 55 10000 3.1 350 17:37 26.10.2019
5474 Clear 1 1015 55 10000 3.1 350 17:18 26.10.2019
5475 Clouds 2 1015 64 10000 6.2 20 16:43 26.10.2019
5476 Clear 2 1015 55 10000 1.5 240 16:24 26.10.2019
5477 Clouds 1 1015 64 10000 5.1 30 15:44 26.10.2019
5478 Clear 1 1015 59 10000 2.1 170 15:22 26.10.2019
5479 Clouds 1 1015 64 10000 5.1 10 14:59 26.10.2019
5480 Clear 1 1015 55 10000 0.5 0 14:37 26.10.2019
5481 Clear 1 1015 55 10000 0.5 0 14:19 26.10.2019
5482 Clear -2 1016 69 0 3.14 5 13:42 26.10.2019
5483 Clear -2 1016 69 0 3.14 5 13:23 26.10.2019
5484 Clear -1 1014 65 0 3.13 339 12:50 26.10.2019
5485 Clouds -2 1014 73 10000 3.1 160 12:27 26.10.2019
5486 Clouds -2 1014 73 10000 3.1 160 11:58 26.10.2019
5487 Clouds -1 1014 73 10000 3.1 160 11:40 26.10.2019
5488 Clouds -2 1014 73 10000 3.1 160 11:22 26.10.2019
5489 Clouds -3 1014 74 10000 3.6 10 10:46 26.10.2019
5490 Clear -2 1014 73 10000 2.6 180 10:25 26.10.2019
5491 Clouds -3 1014 74 10000 3.6 30 09:49 26.10.2019
5492 Clear -2 1013 68 10000 2.1 160 09:29 26.10.2019
5493 Clouds 1 1013 73 10000 5.1 20 08:48 26.10.2019
5494 Clear 0 1013 55 10000 5.7 360 08:27 26.10.2019
5495 Clouds 0 1014 74 10000 5.7 20 07:57 26.10.2019
5496 Clouds 0 1014 74 10000 5.7 20 07:39 26.10.2019
5497 Clear 0 1013 73 10000 1.5 110 07:19 26.10.2019
5498 Clouds 0 1013 74 10000 6.2 20 06:39 26.10.2019
5499 -273 0 0 0 0 0 05:24 26.10.2019
5500 Clouds 0 1013 71 10000 7.7 20 04:59 26.10.2019
5501 Clear 0 1012 50 10000 9.8 20 03:31 26.10.2019
5502 Clear 0 1013 71 10000 6.2 20 02:28 26.10.2019
5503 Clouds 0 1013 71 10000 9.8 30 01:45 26.10.2019
5504 Clouds 0 1013 71 10000 8.7 20 00:51 26.10.2019
5505 Clouds 0 1013 71 10000 11.3 20 23:48 25.10.2019
5506 Clouds 0 1013 71 10000 9.3 10 23:22 25.10.2019
5507 Clouds 0 1013 71 10000 13.4 20 22:58 25.10.2019
5508 Clouds 0 1013 71 10000 13.4 20 22:39 25.10.2019
5509 Clouds 0 1013 71 10000 12.3 10 22:21 25.10.2019
5510 Rain 0 1013 71 10000 10.8 10 21:55 25.10.2019
5511 Clouds 0 1012 71 10000 13.4 10 21:37 25.10.2019
5512 Clouds 0 1012 72 10000 13.4 10 21:19 25.10.2019
5513 Rain 0 1013 72 10000 14.9 10 20:43 25.10.2019
5514 Clouds 0 1012 72 10000 12.3 10 20:19 25.10.2019
5515 Clouds 0 1013 72 10000 14.4 10 19:47 25.10.2019
5516 Clouds 0 1013 72 10000 14.4 10 19:47 25.10.2019
5517 Clouds 0 1012 72 10000 11.3 360 19:29 25.10.2019
5518 Clouds 0 1013 72 10000 13.4 10 18:58 25.10.2019
5519 Clouds 0 1013 72 10000 13.4 10 18:40 25.10.2019
5520 Clouds 0 1012 47 10000 13.4 10 18:20 25.10.2019
5521 Clouds 0 1013 64 10000 14.4 10 17:40 25.10.2019
5522 Clouds 0 1013 47 10000 10.8 10 17:20 25.10.2019
5523 Clouds 1 1013 69 10000 13.9 10 16:47 25.10.2019
5524 Clouds 1 1013 51 10000 9.3 30 16:23 25.10.2019
5525 Clouds 0 1014 64 10000 12.9 10 15:57 25.10.2019
5526 Clouds 0 1014 64 10000 12.9 10 15:39 25.10.2019
5527 Clouds 0 1014 50 10000 5.7 10 15:20 25.10.2019
5528 Clouds 0 1014 50 10000 5.7 10 15:20 25.10.2019
5529 Clouds 0 1014 59 10000 12.9 10 14:42 25.10.2019
5530 Clouds 0 1014 50 10000 9.3 10 14:23 25.10.2019
5531 Clouds 0 1015 65 10000 13.9 10 13:59 25.10.2019
5532 Snow 0 1015 65 10000 7.7 360 13:39 25.10.2019
5533 Snow 0 1015 65 10000 7.7 360 13:21 25.10.2019
5534 Clouds 0 1016 65 10000 12.9 10 12:54 25.10.2019
5535 Snow 0 1015 65 10000 8.7 360 12:36 25.10.2019
5536 Snow 0 1015 67 10000 8.7 360 12:18 25.10.2019
5537 Rain 0 1016 67 10000 11.3 360 11:39 25.10.2019
5538 Rain 0 1016 67 10000 11.3 360 11:39 25.10.2019
5539 Snow 0 1015 74 10000 8.7 340 11:20 25.10.2019
5540 Clouds -1 1016 67 10000 11.8 10 10:41 25.10.2019
5541 Clouds -1 1015 74 10000 8.2 340 10:23 25.10.2019
5542 Clouds 0 1016 67 10000 11.3 10 09:59 25.10.2019
5543 Clouds 0 1016 67 10000 11.3 10 09:39 25.10.2019
5544 Clouds -1 1016 63 10000 10.8 10 09:20 25.10.2019
5545 Clouds 0 1017 63 10000 10.8 10 08:51 25.10.2019
5546 Clouds -1 1016 67 10000 10.3 360 08:33 25.10.2019
5547 Clouds -1 1017 63 10000 10.3 10 07:58 25.10.2019
5548 Clouds -1 1017 63 10000 10.3 10 07:40 25.10.2019
5549 Clouds 0 1016 67 10000 8.7 10 07:22 25.10.2019
5550 Rain 0 1017 67 10000 11.8 20 06:36 25.10.2019
5551 Clouds 0 1017 68 10000 11.8 20 05:48 25.10.2019
5552 Clouds 0 1016 59 10000 11.8 20 05:21 25.10.2019
5553 Clouds 1 1017 69 10000 10.3 20 03:59 25.10.2019
5554 Clouds 1 1016 59 10000 7.7 20 02:34 25.10.2019
5555 Clouds 1 1017 74 10000 10.8 20 01:52 25.10.2019
5556 Clouds 1 1016 55 10000 10.3 20 00:30 25.10.2019
5557 Clouds 1 1017 74 10000 12.3 20 23:42 24.10.2019
5558 Clouds 1 1015 59 10000 10.8 20 23:24 24.10.2019
5559 Clouds 1 1016 69 10000 12.9 20 22:57 24.10.2019
5560 Clouds 1 1015 64 10000 9.3 30 22:38 24.10.2019
5561 Clouds 1 1015 64 10000 9.3 30 22:19 24.10.2019
5562 Clouds 1 1017 69 10000 13.9 20 21:57 24.10.2019
5563 Clouds 1 1017 69 10000 13.9 20 21:38 24.10.2019
5564 Clouds 1 1015 64 10000 8.2 360 21:20 24.10.2019
5565 Clouds 1 1017 69 10000 12.3 10 20:58 24.10.2019
5566 Clouds 1 1015 64 10000 9.3 350 20:39 24.10.2019
5567 Clouds 1 1015 64 10000 9.3 350 20:21 24.10.2019
5568 Clouds 1 1017 69 10000 13.9 10 19:56 24.10.2019
5569 Clouds 1 1015 59 10000 7.7 360 19:37 24.10.2019
5570 Clouds 0 1015 59 10000 7.7 360 19:18 24.10.2019
5571 Clouds 0 1017 69 10000 14.4 10 18:41 24.10.2019
5572 Clouds 0 1015 62 10000 8.7 360 18:23 24.10.2019
5573 Clouds 0 1016 62 10000 15.4 360 17:59 24.10.2019
5574 Clouds 0 1016 62 10000 15.4 360 17:40 24.10.2019
5575 Clouds 0 1015 62 10000 10.8 360 17:20 24.10.2019
5576 Clouds 0 1017 62 10000 12.3 10 16:56 24.10.2019
5577 Clouds 0 1017 62 10000 12.3 10 16:38 24.10.2019
5578 Clouds 0 1016 62 10000 7.7 0 16:19 24.10.2019
5579 Clouds -1 1017 63 10000 12.3 10 15:58 24.10.2019
5580 Clouds -1 1017 63 10000 12.3 10 15:39 24.10.2019
5581 Snow -1 1017 62 10000 4.1 330 15:21 24.10.2019
5582 Clouds 0 1017 63 10000 13.4 10 14:57 24.10.2019
5583 Clouds -1 1017 62 10000 6.2 340 14:38 24.10.2019
5584 Clouds 0 1017 62 10000 6.2 340 14:19 24.10.2019
5585 Clouds -1 1018 58 10000 11.3 20 13:40 24.10.2019
5586 Clouds -1 1017 58 10000 5.7 350 13:19 24.10.2019
5587 Clouds -1 1017 63 10000 13.4 10 12:57 24.10.2019
5588 Clouds -1 1017 63 10000 13.4 10 12:39 24.10.2019
5589 Clouds -1 1016 68 10000 7.2 360 12:19 24.10.2019
5590 Clouds -1 1017 68 10000 12.3 10 11:56 24.10.2019
5591 Clouds -1 1017 68 10000 12.3 10 11:56 24.10.2019
5592 Clouds -1 1017 68 10000 12.3 10 11:37 24.10.2019
5593 Clouds -1 1016 63 10000 8.2 10 11:19 24.10.2019
5594 Clouds -1 1017 63 10000 10.8 10 10:55 24.10.2019
5595 Clouds -1 1017 63 10000 10.8 10 10:36 24.10.2019
5596 Clouds -1 1016 58 10000 10.3 10 10:18 24.10.2019
5597 Clouds -2 1015 58 10000 16.5 360 09:38 24.10.2019
5598 Clouds -2 1015 58 10000 16.5 360 09:18 24.10.2019
5599 Clouds -1 1017 54 10000 9.3 30 08:44 24.10.2019
5600 Clouds -1 1017 54 10000 9.3 30 08:44 24.10.2019
5601 Clouds -1 1014 63 10000 14.9 10 08:21 24.10.2019
5602 Clouds -2 1017 58 10000 8.7 20 08:00 24.10.2019
5603 Clouds -2 1017 58 10000 8.7 20 07:41 24.10.2019
5604 Clouds -1 1015 68 10000 12.3 360 07:21 24.10.2019
5605 Clouds -2 1017 58 10000 10.8 20 06:39 24.10.2019
5606 Clouds -2 1015 74 10000 13.9 360 06:20 24.10.2019
5607 Clouds -2 1017 63 10000 10.8 20 05:42 24.10.2019
5608 Rain -2 1017 63 10000 10.8 20 04:49 24.10.2019
5609 Rain -2 1017 74 10000 11.8 10 03:36 24.10.2019
5610 Rain -3 1017 63 10000 10.3 10 02:55 24.10.2019
5611 Clouds -3 1017 73 10000 5.7 350 02:24 24.10.2019
5612 Clouds -3 1017 73 10000 9.3 10 01:34 24.10.2019
5613 Clouds -3 1018 68 10000 8.7 20 00:57 24.10.2019
5614 Clouds -3 1018 68 10000 8.7 20 00:38 24.10.2019
5615 Clouds -3 1017 63 10000 8.7 10 00:18 24.10.2019
5616 Snow -3 1018 58 10000 9.3 20 23:42 23.10.2019
5617 Clouds -3 1018 68 10000 9.8 360 23:23 23.10.2019
5618 Rain -3 1018 58 10000 10.3 20 22:57 23.10.2019
5619 Clouds -3 1018 68 10000 9.3 360 22:38 23.10.2019
5620 Clouds -3 1018 68 10000 9.3 360 22:18 23.10.2019
5621 Snow -3 1019 68 10000 10.8 10 21:57 23.10.2019
5622 Snow -3 1019 68 10000 10.8 10 21:38 23.10.2019
5623 Clouds -3 1018 63 10000 8.2 10 21:19 23.10.2019
5624 Clouds -2 1019 58 10000 11.8 20 20:56 23.10.2019
5625 Clouds -2 1019 58 10000 11.8 20 20:37 23.10.2019
5626 Clouds -2 1018 50 10000 10.3 20 20:19 23.10.2019
5627 Clouds -2 1018 54 10000 11.3 20 19:54 23.10.2019
5628 Clouds -2 1018 54 10000 11.3 20 19:36 23.10.2019
5629 Clouds -2 1017 46 10000 12.3 10 19:18 23.10.2019
5630 Rain -1 1018 54 10000 11.8 30 18:40 23.10.2019
5631 Clouds -2 1017 46 10000 11.8 10 18:19 23.10.2019
5632 Rain -2 1018 58 10000 12.9 30 17:59 23.10.2019
5633 Rain -1 1018 58 10000 12.9 30 17:41 23.10.2019
5634 Clouds -1 1018 46 10000 7.7 20 17:19 23.10.2019
5635 Rain -1 1018 50 10000 12.9 30 16:54 23.10.2019
5636 Rain -1 1018 50 10000 12.9 30 16:36 23.10.2019
5637 Rain -1 1018 50 10000 12.9 30 16:36 23.10.2019
5638 Clouds -1 1018 50 10000 8.7 20 16:18 23.10.2019
5639 Clouds -1 1018 54 10000 9.3 30 15:41 23.10.2019
5640 Clouds -1 1018 50 10000 7.7 20 15:21 23.10.2019
5641 Clouds -1 1018 50 10000 9.8 50 14:58 23.10.2019
5642 Clouds -1 1018 50 10000 9.8 50 14:38 23.10.2019
5643 Clouds -2 1018 54 10000 9.3 50 14:19 23.10.2019
5644 Clouds -2 1018 50 10000 8.7 30 13:57 23.10.2019
5645 Clouds -2 1018 50 10000 8.7 30 13:38 23.10.2019
5646 Clouds -2 1017 50 10000 7.2 50 13:20 23.10.2019
5647 Clouds -2 1017 50 10000 9.3 30 12:54 23.10.2019
5648 Clouds -2 1017 50 10000 9.3 30 12:54 23.10.2019
5649 Clouds -2 1017 50 10000 3.6 0 12:36 23.10.2019
5650 Clouds -2 1017 50 10000 3.6 0 12:18 23.10.2019
5651 Clouds -2 1017 63 10000 10.8 30 11:54 23.10.2019
5652 Clouds -2 1016 58 10000 10.8 30 11:36 23.10.2019
5653 Clouds -2 1016 58 10000 10.8 30 11:18 23.10.2019
5654 Clouds -2 1017 54 10000 11.3 40 10:42 23.10.2019
5655 Clouds -1 1016 50 10000 13.4 20 10:23 23.10.2019
5656 Clouds -2 1017 63 10000 11.8 40 09:41 23.10.2019
5657 Clear -1 1015 54 10000 9.8 30 09:23 23.10.2019
5658 Clear -1 1015 54 10000 9.8 30 09:23 23.10.2019
5659 Clouds -2 1016 68 10000 12.3 30 08:59 23.10.2019
5660 Clouds -2 1016 68 10000 12.3 30 08:41 23.10.2019
5661 Clouds -2 1015 63 10000 7.7 40 08:22 23.10.2019
5662 Clouds -2 1016 63 10000 10.3 40 07:45 23.10.2019
5663 Clouds -2 1015 63 10000 7.7 20 07:21 23.10.2019
5664 Clouds -2 1015 63 10000 10.3 40 06:46 23.10.2019
5665 Clear -2 1015 63 10000 7.7 20 06:20 23.10.2019
5666 Clear -2 1015 68 10000 9.3 10 05:24 23.10.2019
5667 Clouds -1 1015 68 10000 9.3 40 04:38 23.10.2019
5668 Clear -1 1015 54 10000 7.2 40 03:34 23.10.2019
5669 Clouds -1 1015 63 10000 9.8 40 02:37 23.10.2019
5670 Clouds 0 1014 63 10000 6.7 30 01:28 23.10.2019
5671 Clouds 0 1014 63 10000 10.8 40 00:48 23.10.2019
5672 Clouds 0 1013 63 10000 10.3 30 00:28 23.10.2019
5673 Clouds 0 1013 58 10000 11.8 30 23:39 22.10.2019
5674 Clouds 0 1013 58 10000 10.8 30 23:18 22.10.2019
5675 Clouds 0 1013 58 10000 11.3 30 22:56 22.10.2019
5676 Clouds 0 1013 58 10000 11.3 30 22:38 22.10.2019
5677 Clouds 0 1012 58 10000 9.8 30 22:19 22.10.2019
5678 Clouds 1 1012 69 10000 10.3 40 21:56 22.10.2019
5679 Clouds 1 1012 69 10000 10.3 40 21:37 22.10.2019
5680 Clouds 1 1011 59 10000 10.8 20 21:18 22.10.2019
5681 Clouds 1 1011 59 10000 10.8 20 21:18 22.10.2019
5682 Clouds 1 1012 69 10000 10.8 40 20:55 22.10.2019
5683 Clouds 1 1012 69 10000 10.8 40 20:37 22.10.2019
5684 Clouds 1 1010 51 10000 8.7 30 20:19 22.10.2019
5685 Clouds 2 1011 59 10000 9.3 30 19:45 22.10.2019
5686 Clouds 2 1010 51 10000 6.2 30 19:26 22.10.2019
5687 Clouds 2 1010 64 10000 9.3 30 18:58 22.10.2019
5688 Clouds 2 1010 64 10000 9.3 30 18:40 22.10.2019
5689 Clouds 1 1009 51 10000 6.2 40 18:21 22.10.2019
5690 Clouds 2 1010 59 10000 10.3 30 17:57 22.10.2019
5691 Clouds 2 1009 55 10000 6.7 20 17:38 22.10.2019
5692 Clouds 2 1009 55 10000 6.7 20 17:19 22.10.2019
5693 Clouds 2 1010 64 10000 9.8 40 16:57 22.10.2019
5694 Clouds 2 1010 64 10000 9.8 40 16:37 22.10.2019
5695 Clouds 2 1010 55 10000 6.7 10 16:19 22.10.2019
5696 Clouds 1 1010 69 10000 10.3 30 15:44 22.10.2019
5697 Clear 2 1009 55 10000 6.7 20 15:21 22.10.2019
5698 Clouds 1 1010 64 10000 11.3 40 14:58 22.10.2019
5699 Clouds 1 1010 64 10000 11.3 40 14:39 22.10.2019
5700 Clear 1 1009 47 10000 5.7 40 14:19 22.10.2019
5701 Clouds 1 1010 69 10000 10.8 40 13:42 22.10.2019
5702 Clear 1 1010 59 10000 7.2 20 13:21 22.10.2019
5703 Clouds 1 1010 69 10000 12.9 40 12:58 22.10.2019
5704 Clouds 1 1010 69 10000 12.9 40 12:40 22.10.2019
5705 Clear 1 1009 64 10000 7.7 10 12:20 22.10.2019
5706 Clouds 0 1009 74 10000 12.3 40 11:54 22.10.2019
5707 Clouds 0 1009 74 10000 12.3 40 11:36 22.10.2019
5708 Clear 0 1009 58 10000 9.3 10 11:18 22.10.2019
5709 Clouds 0 1009 58 10000 11.3 40 10:38 22.10.2019
5710 Clear 1 1009 58 10000 3.6 50 10:20 22.10.2019
5711 Clouds 1 1010 74 10000 11.8 40 10:00 22.10.2019
5712 Clouds 1 1010 74 10000 11.8 40 10:00 22.10.2019
5713 Clouds 1 1010 74 10000 11.8 40 10:00 22.10.2019
5714 Clouds 1 1010 74 10000 11.8 40 10:00 22.10.2019
5715 Clouds 1 1010 74 10000 11.8 40 09:41 22.10.2019
5716 Clear 1 1009 64 10000 6.7 30 09:22 22.10.2019
5717 Clouds 0 1009 74 10000 10.8 40 08:59 22.10.2019
5718 Clouds 0 1009 74 10000 10.8 40 08:40 22.10.2019
5719 Clouds 1 1009 74 10000 10.8 40 08:19 22.10.2019
5720 Clouds 0 1009 74 10000 10.8 40 07:44 22.10.2019
5721 Clear 1 1008 66 10000 4.77 38 07:25 22.10.2019
5722 Clouds 0 1009 74 10000 9.8 40 06:45 22.10.2019
5723 Clear 0 1008 66 10000 2.1 130 06:27 22.10.2019
5724 Clouds 0 1008 74 10000 8.2 30 05:48 22.10.2019
5725 Clouds 1 1009 69 10000 9.3 30 04:50 22.10.2019
5726 Clear 1 1008 64 10000 1.5 0 02:31 22.10.2019
5727 Clear 1 1008 64 10000 1.5 0 02:31 22.10.2019
5728 Clouds 0 1008 74 10000 8.2 20 01:39 22.10.2019
5729 Clear 1 1007 71 10000 2.6 100 01:19 22.10.2019
5730 Clouds 1 1008 74 10000 9.3 30 00:43 22.10.2019
5731 Clouds 2 1007 69 10000 1.5 10 00:24 22.10.2019
5732 Clouds 2 1007 69 10000 8.7 40 23:59 21.10.2019
5733 Clouds 2 1007 69 10000 8.7 40 23:38 21.10.2019
5734 Clouds 2 1006 64 10000 9.3 20 23:19 21.10.2019
5735 Clouds 2 1007 74 10000 11.8 30 22:59 21.10.2019
5736 Clouds 2 1007 74 10000 11.8 30 22:39 21.10.2019
5737 Clouds 2 1005 64 10000 9.3 20 22:20 21.10.2019
5738 Clouds 3 1006 74 10000 11.3 20 21:58 21.10.2019
5739 Clouds 3 1006 74 10000 11.3 20 21:38 21.10.2019
5740 Clouds 3 1005 64 10000 9.3 20 21:20 21.10.2019
5741 Clouds 3 1005 74 10000 11.8 20 20:58 21.10.2019
5742 Clouds 3 1005 74 10000 11.8 20 20:39 21.10.2019
5743 Clouds 3 1003 64 10000 12.3 10 20:20 21.10.2019
5744 Clouds 4 1004 74 10000 11.3 20 19:57 21.10.2019
5745 Clouds 3 1004 74 10000 11.3 20 19:38 21.10.2019
5746 Clouds 4 1002 60 10000 11.3 20 19:20 21.10.2019
5747 Clouds 4 1003 74 10000 11.8 10 18:55 21.10.2019
5748 Clouds 4 1003 74 10000 11.8 10 18:55 21.10.2019
5749 Clouds 5 1003 74 10000 11.8 10 18:36 21.10.2019
5750 Clouds 4 1001 65 10000 9.8 10 18:18 21.10.2019
5751 Clouds 5 1002 75 10000 12.3 10 17:55 21.10.2019
5752 Clouds 5 1002 75 10000 12.3 10 17:37 21.10.2019
5753 Clouds 5 1000 65 10000 8.7 10 17:18 21.10.2019
5754 Clouds 5 1001 80 10000 11.3 10 16:54 21.10.2019
5755 Clouds 5 1001 80 10000 11.3 10 16:54 21.10.2019
5756 Clouds 5 1001 80 10000 11.3 10 16:36 21.10.2019
5757 Clouds 5 999 78 10000 7.7 10 16:18 21.10.2019
5758 Clouds 6 1000 80 10000 11.3 360 15:42 21.10.2019
5759 Clouds 5 998 77 10000 8.7 10 15:22 21.10.2019
5760 Clouds 5 1000 80 10000 11.8 10 14:56 21.10.2019
5761 Clouds 5 1000 80 10000 11.8 10 14:37 21.10.2019
5762 Clouds 5 997 76 10000 7.7 10 14:18 21.10.2019
5763 Clouds 5 998 80 10000 11.3 10 13:55 21.10.2019
5764 Clouds 5 998 80 10000 11.3 10 13:37 21.10.2019
5765 Clouds 5 996 76 10000 10.8 10 13:18 21.10.2019
5766 Clouds 5 997 80 10000 10.8 10 12:41 21.10.2019
5767 Clouds 5 995 75 10000 8.2 10 12:21 21.10.2019
5768 Rain 5 996 86 10000 8.2 360 11:55 21.10.2019
5769 Rain 5 996 86 10000 8.2 360 11:37 21.10.2019
5770 Rain 5 994 86 10000 6.2 50 11:18 21.10.2019
5771 Rain 5 994 86 10000 8.2 340 10:55 21.10.2019
5772 Rain 5 994 86 10000 8.2 340 10:37 21.10.2019
5773 Rain 5 993 87 10000 4.6 320 10:18 21.10.2019
5774 Drizzle 5 994 93 10000 6.2 340 09:43 21.10.2019
5775 Drizzle 5 993 81 9000 4.6 270 09:23 21.10.2019
5776 Rain 5 994 93 10000 7.2 300 08:43 21.10.2019
5777 Rain 5 993 86 7000 5.7 280 08:23 21.10.2019
5778 Rain 6 994 93 10000 7.2 290 07:59 21.10.2019
5779 Rain 6 994 93 10000 7.2 290 07:37 21.10.2019
5780 Rain 6 993 87 10000 6.7 270 07:19 21.10.2019
5781 Drizzle 6 994 93 10000 7.7 290 06:51 21.10.2019
5782 Drizzle 6 993 93 7000 7.2 270 06:32 21.10.2019
5783 Drizzle 6 994 100 10000 8.7 280 05:46 21.10.2019
5784 Drizzle 7 994 93 10000 8.7 260 04:42 21.10.2019
5785 Drizzle 8 994 93 10000 8.7 240 02:41 21.10.2019
5786 Drizzle 8 995 87 6000 7.2 220 02:21 21.10.2019
5787 Rain 8 995 93 10000 11.3 240 01:49 21.10.2019
5788 Rain 8 995 93 4000 8.7 220 01:22 21.10.2019
5789 Rain 9 995 93 10000 11.3 230 00:42 21.10.2019
5790 Rain 9 995 93 10000 11.3 230 00:42 21.10.2019
5791 Rain 9 996 87 5000 11.3 200 00:23 21.10.2019
5792 Rain 9 996 87 5000 11.3 200 00:23 21.10.2019
5793 Rain 9 995 100 2000 12.9 220 23:40 20.10.2019
5794 Rain 9 997 87 7000 12.9 190 23:22 20.10.2019
5795 Rain 9 996 100 3000 13.4 200 22:55 20.10.2019
5796 Rain 9 996 100 3000 13.4 200 22:36 20.10.2019
5797 Rain 9 998 87 6000 11.8 190 22:18 20.10.2019
5798 Drizzle 9 998 100 2500 13.9 200 21:56 20.10.2019
5799 Drizzle 9 998 100 2500 13.9 200 21:38 20.10.2019
5800 Drizzle 8 1000 81 5000 10.8 180 21:19 20.10.2019
5801 Drizzle 7 999 100 3000 13.4 190 20:39 20.10.2019
5802 Drizzle 7 1002 81 6000 10.3 160 20:18 20.10.2019
5803 Drizzle 7 1001 100 4000 13.4 170 19:56 20.10.2019
5804 Drizzle 7 1001 100 4000 13.4 170 19:56 20.10.2019
5805 Drizzle 7 1001 100 4000 13.4 170 19:37 20.10.2019
5806 Drizzle 7 1005 75 8000 6.2 140 19:19 20.10.2019
5807 Drizzle 6 1004 100 4000 11.3 150 18:42 20.10.2019
5808 Drizzle 6 1008 81 6000 6.2 160 18:24 20.10.2019
5809 Drizzle 6 1007 93 7000 10.8 160 17:59 20.10.2019
5810 Drizzle 6 1007 93 7000 10.8 160 17:59 20.10.2019
5811 Drizzle 6 1007 93 7000 10.8 160 17:41 20.10.2019
5812 Drizzle 6 1010 81 7000 7.7 170 17:22 20.10.2019
5813 Drizzle 6 1009 93 10000 10.3 170 16:56 20.10.2019
5814 Drizzle 6 1009 93 10000 10.3 170 16:38 20.10.2019
5815 Drizzle 6 1011 75 10000 5.7 160 16:19 20.10.2019
5816 Rain 6 1011 93 10000 7.7 170 15:55 20.10.2019
5817 Rain 6 1011 93 10000 7.7 170 15:36 20.10.2019
5818 Rain 5 1013 81 10000 5.1 130 15:18 20.10.2019
5819 Rain 5 1012 100 10000 6.7 170 14:41 20.10.2019
5820 Rain 5 1015 75 10000 4.1 150 14:23 20.10.2019
5821 Rain 5 1014 93 10000 7.2 150 13:56 20.10.2019
5822 Rain 5 1014 93 10000 7.2 150 13:37 20.10.2019
5823 Rain 5 1016 70 10000 3.6 140 13:19 20.10.2019
5824 Rain 5 1015 87 10000 7.7 180 12:58 20.10.2019
5825 Rain 5 1015 87 10000 7.7 180 12:39 20.10.2019
5826 Rain 5 1016 75 10000 3.6 140 12:21 20.10.2019
5827 Clouds 5 1016 86 10000 5.1 170 11:59 20.10.2019
5828 Clouds 4 1016 86 10000 5.1 170 11:40 20.10.2019
5829 Clouds 4 1017 75 10000 4.1 140 11:22 20.10.2019
5830 Clouds 4 1017 80 10000 4.1 190 10:58 20.10.2019
5831 Clouds 4 1017 80 10000 4.1 190 10:39 20.10.2019
5832 Clouds 4 1017 80 10000 4.1 190 10:39 20.10.2019
5833 Clouds 4 1018 75 10000 3.6 150 10:21 20.10.2019
5834 Clouds 4 1018 86 10000 3.6 170 09:56 20.10.2019
5835 Clouds 4 1018 86 10000 3.6 170 09:37 20.10.2019
5836 Clouds 4 1018 75 10000 3.6 180 09:18 20.10.2019
5837 Clouds 4 1018 81 10000 3.6 200 08:40 20.10.2019
5838 Clouds 4 1019 75 10000 3.1 150 08:21 20.10.2019
5839 Drizzle 4 1019 81 10000 4.1 250 07:47 20.10.2019
5840 Drizzle 4 1019 70 10000 4.6 190 07:26 20.10.2019
5841 Clouds 5 1020 70 10000 2.6 180 06:30 20.10.2019
5842 Clouds 5 1020 80 10000 2.6 170 04:30 20.10.2019
5843 Clouds 5 1020 75 10000 4.6 240 03:51 20.10.2019
5844 Clouds 4 1020 80 10000 3.1 150 03:22 20.10.2019
5845 Clouds 5 1020 75 10000 3.1 220 02:49 20.10.2019
5846 Clouds 4 1020 80 10000 3.6 170 02:22 20.10.2019
5847 Clouds 4 1020 80 10000 2.6 190 01:49 20.10.2019
5848 Clouds 4 1021 75 10000 3.6 190 01:21 20.10.2019
5849 Clouds 4 1021 75 10000 3.1 230 00:48 20.10.2019
5850 Clouds 4 1021 76 10000 4.1 220 00:20 20.10.2019
5851 Clouds 4 1021 75 10000 3.1 260 23:54 19.10.2019
5852 Clouds 4 1021 75 10000 3.1 260 23:54 19.10.2019
5853 Clouds 4 1021 75 10000 3.1 260 23:36 19.10.2019
5854 Clouds 4 1021 75 10000 2.6 180 23:18 19.10.2019
5855 Drizzle 4 1021 75 10000 3.6 250 22:40 19.10.2019
5856 Drizzle 4 1021 75 10000 1.5 280 22:21 19.10.2019
5857 Clouds 5 1021 80 10000 2.6 220 21:55 19.10.2019
5858 Clouds 5 1021 80 10000 2.6 220 21:37 19.10.2019
5859 Clouds 5 1021 80 10000 2.6 220 21:37 19.10.2019
5860 Clouds 5 1021 60 10000 3.1 250 21:19 19.10.2019
5861 Clouds 4 1021 86 10000 3.6 220 20:41 19.10.2019
5862 Clouds 5 1021 56 10000 3.1 240 20:20 19.10.2019
5863 Clouds 5 1021 75 10000 4.6 250 19:42 19.10.2019
5864 Clouds 5 1021 60 10000 3.1 230 19:24 19.10.2019
5865 Clouds 5 1021 71 10000 3.1 250 18:56 19.10.2019
5866 Clouds 5 1021 71 10000 3.1 250 18:37 19.10.2019
5867 Clouds 5 1021 71 10000 3.1 250 18:37 19.10.2019
5868 Clouds 5 1021 71 10000 3.1 250 18:37 19.10.2019
5869 Clouds 6 1021 60 10000 3.6 250 18:19 19.10.2019
5870 Clouds 6 1021 68 10000 3.6 240 17:41 19.10.2019
5871 Clouds 6 1021 60 10000 2.6 260 17:23 19.10.2019
5872 Rain 6 1020 68 10000 2.6 280 16:57 19.10.2019
5873 Rain 6 1020 68 10000 2.6 280 16:38 19.10.2019
5874 Rain 6 1020 56 10000 2.1 230 16:19 19.10.2019
5875 Rain 6 1021 68 10000 2.1 260 15:42 19.10.2019
5876 Clouds 5 1021 68 10000 3.1 250 15:24 19.10.2019
5877 Clouds 6 1021 68 10000 3.1 270 14:39 19.10.2019
5878 Clouds 6 1021 70 10000 1.5 190 14:21 19.10.2019
5879 Clouds 6 1021 70 10000 1.5 190 14:21 19.10.2019
5880 Rain 5 1021 75 10000 3.1 270 13:58 19.10.2019
5881 Rain 5 1021 75 10000 3.1 270 13:40 19.10.2019
5882 Rain 4 1020 80 10000 1.5 110 13:19 19.10.2019
5883 Rain 4 1020 80 10000 1.5 110 13:19 19.10.2019
5884 Rain 4 1020 75 10000 0.5 0 12:57 19.10.2019
5885 Rain 4 1020 75 10000 0.5 0 12:37 19.10.2019
5886 Rain 4 1020 80 10000 1.5 40 12:19 19.10.2019
5887 Rain 4 1020 75 10000 0.5 0 11:41 19.10.2019
5888 Rain 3 1020 80 10000 2.1 150 11:23 19.10.2019
5889 Clouds 3 1020 86 10000 1 170 10:56 19.10.2019
5890 Clouds 3 1020 86 10000 1 170 10:38 19.10.2019
5891 Clouds 3 1020 86 10000 1 120 10:20 19.10.2019
5892 Clouds 3 1020 77 10000 1 330 09:44 19.10.2019
5893 Clouds 3 1020 86 10000 1 120 09:26 19.10.2019
5894 Rain 4 1020 75 10000 0.5 350 09:00 19.10.2019
5895 Rain 4 1020 75 10000 0.5 350 08:59 19.10.2019
5896 Rain 4 1020 75 10000 0.5 350 08:40 19.10.2019
5897 Rain 3 1020 80 10000 2.1 300 08:21 19.10.2019
5898 Rain 3 1020 80 10000 2.1 320 07:44 19.10.2019
5899 Rain 3 1019 86 10000 1 0 07:25 19.10.2019
5900 Rain 3 1020 86 10000 2.6 310 06:47 19.10.2019
5901 Rain 3 1019 80 10000 1.5 120 06:28 19.10.2019
5902 Rain 3 1019 80 10000 1.5 120 06:28 19.10.2019
5903 Rain 3 1019 80 10000 3.1 90 05:34 19.10.2019
5904 Clouds 3 1019 75 10000 4.6 90 04:24 19.10.2019
5905 Rain 4 1019 86 10000 2.6 120 02:49 19.10.2019
5906 Clouds 3 1019 93 10000 2.6 100 01:54 19.10.2019
5907 Clouds 4 1019 75 10000 3.6 90 01:33 19.10.2019
5908 Rain 3 1019 86 10000 2.6 70 00:49 19.10.2019
5909 Rain 3 1019 65 10000 2.1 100 00:27 19.10.2019
5910 Rain 3 1019 93 10000 2.6 70 23:56 18.10.2019
5911 Rain 3 1019 93 10000 2.6 70 23:36 18.10.2019
5912 Rain 3 1019 69 10000 1.5 130 23:18 18.10.2019
5913 Rain 3 1019 80 10000 2.1 100 22:43 18.10.2019
5914 Rain 3 1019 60 10000 1.5 70 22:21 18.10.2019
5915 Rain 4 1019 61 10000 2.1 30 21:59 18.10.2019
5916 Rain 4 1019 61 10000 2.1 30 21:59 18.10.2019
5917 Rain 4 1019 61 10000 2.1 30 21:39 18.10.2019
5918 Clouds 4 1019 65 10000 1 0 21:20 18.10.2019
5919 Clouds 4 1019 65 10000 2.1 10 20:59 18.10.2019
5920 Clouds 4 1019 65 10000 2.1 10 20:41 18.10.2019
5921 Clouds 4 1018 65 10000 1.5 210 20:22 18.10.2019
5922 Clouds 5 1018 65 10000 0.5 10 19:58 18.10.2019
5923 Clouds 5 1018 65 10000 0.5 10 19:58 18.10.2019
5924 Clouds 5 1018 65 10000 0.5 10 19:39 18.10.2019
5925 Clouds 5 1018 65 10000 0.5 10 19:39 18.10.2019
5926 Clouds 5 1018 60 10000 1 210 19:21 18.10.2019
5927 Clouds 6 1018 65 10000 0.86 71.375 18:57 18.10.2019
5928 Clouds 6 1018 65 10000 0.86 71.375 18:39 18.10.2019
5929 Clouds 6 1018 48 10000 1.55 66.801 18:20 18.10.2019
5930 Clouds 6 1018 48 10000 1.55 66.801 18:20 18.10.2019
5931 Clouds 6 1018 56 10000 1.55 66.801 17:39 18.10.2019
5932 Clear 5 1018 48 10000 2.1 30 17:21 18.10.2019
5933 Clouds 5 1017 60 10000 0.5 40 16:59 18.10.2019
5934 Clouds 5 1017 60 10000 0.5 40 16:38 18.10.2019
5935 Clear 5 1017 45 10000 2.1 50 16:19 18.10.2019
5936 Clear 5 1017 60 10000 2.1 40 15:54 18.10.2019
5937 Clear 5 1017 60 10000 2.1 40 15:54 18.10.2019
5938 Clear 5 1017 60 10000 2.1 40 15:36 18.10.2019
5939 Clear 5 1017 48 10000 3.6 70 15:18 18.10.2019
5940 Clouds 4 1017 65 10000 2.6 60 14:56 18.10.2019
5941 Clouds 4 1017 65 10000 2.6 60 14:38 18.10.2019
5942 Clear 4 1017 44 10000 4.1 80 14:18 18.10.2019
5943 Clouds 3 1017 59 10000 3.1 60 13:41 18.10.2019
5944 Clear 3 1017 51 10000 1.5 90 13:23 18.10.2019
5945 Clouds 2 1016 74 10000 1.5 90 12:58 18.10.2019
5946 Clouds 1 1016 74 10000 1.5 90 12:39 18.10.2019
5947 Clear 1 1016 51 10000 2.6 80 12:21 18.10.2019
5948 Clouds 0 1016 80 10000 1 40 11:56 18.10.2019
5949 Clouds 0 1016 80 10000 1 40 11:38 18.10.2019
5950 Clear 0 1015 59 10000 1.5 0 11:19 18.10.2019
5951 Clear 0 1015 59 10000 1.5 0 11:19 18.10.2019
5952 -273 0 0 0 0 0 10:56 18.10.2019
5953 Clear 0 1015 68 10000 1.5 100 10:56 18.10.2019
5954 Clear 0 1015 68 10000 1.5 100 10:55 18.10.2019
5955 Clear 0 1015 68 10000 1.5 100 10:55 18.10.2019
5956 Clear 0 1015 68 10000 1.5 100 10:55 18.10.2019
5957 Clear 0 1015 68 10000 1.5 100 10:36 18.10.2019
5958 Clear 0 1015 68 10000 0.5 0 10:18 18.10.2019
5959 Clear 0 1015 74 10000 2.1 70 09:54 18.10.2019
5960 Clear 0 1015 74 10000 2.1 70 09:54 18.10.2019
5961 -273 0 0 0 0 0 09:54 18.10.2019
5962 Clear 0 1015 74 10000 2.1 70 09:36 18.10.2019
5963 Clear 0 1015 64 10000 1.5 40 09:18 18.10.2019
5964 Clear 1 1014 86 10000 2.1 30 08:42 18.10.2019
5965 Clear 0 1014 64 10000 1.5 50 08:21 18.10.2019
5966 Clear 0 1014 64 10000 1.5 50 08:21 18.10.2019
5967 Clear 0 1014 74 10000 3.1 50 07:42 18.10.2019
5968 -273 0 0 0 0 0 07:24 18.10.2019
5969 Clear 2 1013 64 10000 2.6 90 06:40 18.10.2019
5970 Clear 2 1013 59 10000 1.5 90 06:22 18.10.2019
5971 Clear 2 1013 68 10000 2.1 90 05:56 18.10.2019
5972 Clear 2 1013 68 10000 0.5 0 05:23 18.10.2019
5973 Clear 1 1013 74 10000 3.6 80 04:41 18.10.2019
5974 Clear 1 1012 68 10000 1 0 03:33 18.10.2019
5975 Clear 1 1012 69 10000 0.5 0 02:34 18.10.2019
5976 Clear 3 1012 80 10000 2.6 40 01:47 18.10.2019
5977 Clear 3 1012 55 10000 3.6 100 01:28 18.10.2019
5978 Clear 3 1011 70 10000 1.5 190 00:46 18.10.2019
5979 Clear 3 1011 59 10000 3.1 100 00:21 18.10.2019
5980 Clear 4 1011 80 10000 2.6 50 23:57 17.10.2019
5981 Clear 3 1011 80 10000 2.6 50 23:38 17.10.2019
5982 Clear 3 1011 64 10000 1 0 23:19 17.10.2019
5983 Clear 3 1010 70 10000 3.1 40 22:55 17.10.2019
5984 Clear 3 1010 70 10000 3.1 40 22:37 17.10.2019
5985 Clear 3 1010 69 10000 2.1 120 22:18 17.10.2019
5986 Clear 5 1010 70 10000 4.6 30 21:56 17.10.2019
5987 Clear 4 1010 70 10000 4.6 30 21:37 17.10.2019
5988 Clear 4 1010 52 10000 2.6 100 21:19 17.10.2019
5989 Clear 4 1010 63 10000 3.1 360 20:56 17.10.2019
5990 Clear 4 1010 63 10000 3.1 360 20:56 17.10.2019
5991 Clear 4 1010 63 10000 3.1 360 20:37 17.10.2019
5992 Clear 5 1009 63 10000 1 0 20:18 17.10.2019
5993 Clear 6 1010 63 10000 2.1 20 19:42 17.10.2019
5994 Clear 6 1010 63 10000 2.1 20 19:42 17.10.2019
5995 Clear 6 1009 63 10000 2.6 200 19:21 17.10.2019
5996 Clear 7 1009 61 10000 2.6 20 18:59 17.10.2019
5997 Clear 7 1009 61 10000 2.6 20 18:39 17.10.2019
5998 Clear 7 1009 45 10000 1.5 250 18:21 17.10.2019
5999 Clear 7 1009 45 10000 1.5 250 18:21 17.10.2019
6000 Clear 7 1009 61 10000 3.6 50 17:55 17.10.2019
6001 Clear 7 1009 61 10000 3.6 50 17:55 17.10.2019
6002 Clouds 7 1009 61 10000 3.6 50 17:36 17.10.2019
6003 Clouds 7 1009 45 10000 2.6 290 17:18 17.10.2019
6004 Clouds 7 1009 61 10000 2.6 80 16:41 17.10.2019
6005 Clouds 7 1009 49 10000 2.1 340 16:19 17.10.2019
6006 Clouds 7 1008 65 10000 2.1 60 15:59 17.10.2019
6007 Clouds 7 1008 65 10000 2.1 60 15:40 17.10.2019
6008 Clouds 7 1008 49 10000 1.5 100 15:20 17.10.2019
6009 Clouds 7 1008 70 10000 3.1 30 14:58 17.10.2019
6010 Clouds 7 1008 70 10000 3.1 30 14:39 17.10.2019
6011 Clouds 6 1008 48 10000 1.5 120 14:20 17.10.2019
6012 Clouds 5 1007 70 10000 3.6 10 13:41 17.10.2019
6013 Clouds 5 1007 70 10000 3.6 10 13:41 17.10.2019
6014 Clouds 5 1007 60 10000 1 0 13:21 17.10.2019
6015 Clouds 4 1007 70 10000 4.6 30 12:58 17.10.2019
6016 Clouds 4 1007 70 10000 4.6 30 12:39 17.10.2019
6017 Clouds 4 1007 64 10000 1 0 12:20 17.10.2019
6018 Clouds 4 1007 63 10000 4.6 40 11:56 17.10.2019
6019 Clouds 4 1007 63 10000 4.6 40 11:38 17.10.2019
6020 Clouds 3 1006 60 10000 1 0 11:18 17.10.2019
6021 Clouds 4 1006 80 10000 3.1 30 10:42 17.10.2019
6022 Clouds 4 1006 60 10000 0.683 11 10:20 17.10.2019
6023 Clouds 4 1005 80 10000 1.5 140 09:58 17.10.2019
6024 Clouds 5 1005 80 10000 1.5 140 09:39 17.10.2019
6025 Clouds 5 1005 52 10000 2.1 80 09:20 17.10.2019
6026 Clouds 5 1005 80 10000 2.1 30 08:58 17.10.2019
6027 Clouds 5 1005 80 10000 2.1 30 08:38 17.10.2019
6028 Clouds 5 1004 56 10000 1.5 90 08:19 17.10.2019
6029 Clouds 4 1004 80 10000 3.1 30 07:50 17.10.2019
6030 Clouds 5 1003 64 10000 1 0 07:21 17.10.2019
6031 Clouds 6 1003 70 10000 2.1 70 06:59 17.10.2019
6032 Clouds 5 1003 70 10000 2.1 70 06:39 17.10.2019
6033 Clouds 5 1003 70 10000 2.1 70 06:39 17.10.2019
6034 Clouds 5 1003 52 10000 1.5 70 06:19 17.10.2019
6035 Clouds 5 1003 80 10000 2.6 10 05:46 17.10.2019
6036 Clouds 5 1002 56 10000 1.5 130 05:28 17.10.2019
6037 Clouds 5 1002 93 10000 2.1 70 04:50 17.10.2019
6038 Clouds 5 1002 75 10000 5.1 40 03:50 17.10.2019
6039 Clouds 5 1002 87 10000 5.1 30 02:35 17.10.2019
6040 Clouds 7 1002 75 10000 5.7 30 00:54 17.10.2019
6041 Clouds 7 1002 75 10000 5.7 30 00:36 17.10.2019
6042 Clouds 7 1001 71 10000 2.6 70 00:18 17.10.2019
6043 Clouds 8 1001 75 10000 3.6 60 23:42 16.10.2019
6044 Clouds 8 1000 57 10000 3.1 10 23:20 16.10.2019
6045 Clouds 7 1001 81 10000 4.6 30 22:55 16.10.2019
6046 Clouds 8 1001 81 10000 4.6 30 22:36 16.10.2019
6047 Clouds 8 1000 61 10000 3.1 360 22:18 16.10.2019
6048 Clouds 8 1001 70 10000 5.7 30 21:55 16.10.2019
6049 Clouds 9 1001 70 10000 5.7 30 21:37 16.10.2019
6050 Clouds 9 1000 61 10000 2.1 330 21:18 16.10.2019
6051 Clouds 9 1000 76 10000 6.2 30 20:56 16.10.2019
6052 Clouds 9 1000 76 10000 6.2 30 20:56 16.10.2019
6053 Clouds 9 1000 76 10000 6.2 30 20:38 16.10.2019
6054 Clouds 9 1000 50 10000 2.1 320 20:20 16.10.2019
6055 Clouds 10 1000 57 10000 3.1 40 19:56 16.10.2019
6056 Clouds 10 1000 57 10000 3.1 40 19:38 16.10.2019
6057 Clouds 10 999 34 10000 3.1 50 19:19 16.10.2019
6058 Clouds 10 999 61 10000 8.2 70 18:39 16.10.2019
6059 Clouds 10 999 40 10000 6.7 60 18:19 16.10.2019
6060 Clouds 10 999 66 10000 8.2 70 17:56 16.10.2019
6061 Clouds 10 999 66 10000 8.2 70 17:38 16.10.2019
6062 Clouds 10 999 59 10000 8.2 70 17:20 16.10.2019
6063 Clouds 10 999 66 10000 7.2 60 16:58 16.10.2019
6064 Clouds 10 999 66 10000 7.2 60 16:40 16.10.2019
6065 Clouds 10 998 59 10000 7.2 80 16:20 16.10.2019
6066 Clouds 10 999 71 10000 9.3 70 15:56 16.10.2019
6067 Clouds 10 999 71 10000 9.3 70 15:37 16.10.2019
6068 Clouds 10 998 46 10000 6.7 60 15:18 16.10.2019
6069 Clouds 11 998 66 10000 9.3 70 14:56 16.10.2019
6070 Clouds 11 998 66 10000 9.3 70 14:38 16.10.2019
6071 Clouds 11 998 46 10000 6.7 80 14:18 16.10.2019
6072 Clouds 11 997 76 10000 8.2 60 13:56 16.10.2019
6073 Clouds 11 997 76 10000 8.2 60 13:37 16.10.2019
6074 Clouds 11 997 50 10000 9.3 90 13:18 16.10.2019
6075 Clouds 10 997 76 10000 10.3 90 12:41 16.10.2019
6076 Clouds 10 997 54 10000 8.2 70 12:18 16.10.2019
6077 Clouds 11 996 71 10000 13.9 70 11:43 16.10.2019
6078 Clouds 10 996 54 10000 9.8 70 11:18 16.10.2019
6079 Clouds 10 995 76 10000 11.3 70 10:40 16.10.2019
6080 Clouds 10 995 54 10000 9.3 70 10:22 16.10.2019
6081 Drizzle 10 994 76 10000 11.8 80 09:56 16.10.2019
6082 Drizzle 10 994 76 10000 11.8 80 09:38 16.10.2019
6083 Clouds 10 994 58 10000 10.3 70 09:19 16.10.2019
6084 Rain 11 994 76 10000 10.8 80 08:43 16.10.2019
6085 Clouds 10 993 54 10000 9.3 70 08:24 16.10.2019
6086 Rain 10 993 81 10000 9.3 70 07:55 16.10.2019
6087 Rain 10 993 81 10000 9.3 70 07:37 16.10.2019
6088 Clouds 10 993 57 10000 7.7 70 07:18 16.10.2019
6089 Rain 10 992 87 10000 8.2 70 06:40 16.10.2019
6090 Rain 10 992 87 10000 7.2 70 05:55 16.10.2019
6091 Rain 9 991 66 10000 7.2 80 03:27 16.10.2019
6092 Rain 9 991 93 10000 9.3 70 02:49 16.10.2019
6093 Rain 10 990 57 10000 8.7 70 01:20 16.10.2019
6094 Rain 10 991 81 10000 10.3 70 00:52 16.10.2019
6095 Clouds 10 990 53 10000 10.3 80 00:32 16.10.2019
6096 Rain 10 990 81 10000 13.4 70 23:42 15.10.2019
6097 Rain 10 990 81 10000 13.4 70 23:42 15.10.2019
6098 Rain 10 990 81 10000 13.4 70 23:41 15.10.2019
6099 Clouds 9 990 53 10000 11.8 70 23:22 15.10.2019
6100 Rain 9 990 81 10000 13.9 70 22:57 15.10.2019
6101 Rain 10 990 81 10000 13.9 70 22:38 15.10.2019
6102 Rain 10 989 53 10000 10.8 70 22:20 15.10.2019
6103 Rain 10 989 76 10000 15.9 70 21:56 15.10.2019
6104 Rain 10 989 76 10000 15.9 70 21:56 15.10.2019
6105 Rain 10 989 76 10000 15.9 70 21:56 15.10.2019
6106 Rain 10 989 76 10000 15.9 70 21:38 15.10.2019
6107 Clouds 10 989 50 10000 10.3 70 21:20 15.10.2019
6108 Rain 10 989 66 10000 15.4 60 20:57 15.10.2019
6109 Rain 10 989 66 10000 15.4 60 20:39 15.10.2019
6110 Clouds 10 989 50 10000 9.8 70 20:20 15.10.2019
6111 Rain 10 989 66 10000 16.5 70 19:59 15.10.2019
6112 Rain 10 989 66 10000 16.5 70 19:40 15.10.2019
6113 Rain 10 989 66 10000 16.5 70 19:40 15.10.2019
6114 Clouds 10 989 50 10000 11.8 70 19:20 15.10.2019
6115 Clouds 10 989 66 10000 15.9 70 18:48 15.10.2019
6116 Clouds 10 988 50 10000 11.3 70 18:30 15.10.2019
6117 Clouds 10 989 71 10000 13.4 60 17:59 15.10.2019
6118 Clouds 10 989 71 10000 13.4 60 17:41 15.10.2019
6119 Clouds 10 989 71 10000 13.4 60 17:41 15.10.2019
6120 Clouds 10 989 71 10000 13.4 60 17:41 15.10.2019
6121 Clouds 10 989 53 10000 10.3 70 17:20 15.10.2019
6122 Clouds 10 989 53 10000 10.3 70 17:20 15.10.2019
6123 Clouds 10 989 76 10000 10.8 60 16:58 15.10.2019
6124 Clouds 10 989 76 10000 10.8 60 16:39 15.10.2019
6125 Clouds 10 990 62 10000 11.8 80 16:20 15.10.2019
6126 Rain 10 990 87 10000 12.3 70 15:55 15.10.2019
6127 Rain 10 990 87 10000 12.3 70 15:55 15.10.2019
6128 Rain 10 990 87 10000 12.3 70 15:36 15.10.2019
6129 Clouds 10 990 62 10000 12.3 80 15:18 15.10.2019
6130 Rain 9 990 87 9000 10.3 70 14:38 15.10.2019
6131 Rain 10 990 71 10000 11.3 80 14:20 15.10.2019
6132 -273 0 0 0 0 0 13:58 15.10.2019
6133 Rain 9 989 76 10000 10.3 90 13:40 15.10.2019
6134 Clouds 9 990 66 10000 11.3 80 13:19 15.10.2019
6135 Clouds 9 989 76 10000 8.2 90 12:44 15.10.2019
6136 Clouds 9 989 76 10000 8.2 90 12:44 15.10.2019
6137 Clouds 9 990 66 10000 8.7 80 12:22 15.10.2019
6138 Clouds 9 990 66 10000 8.2 70 11:57 15.10.2019
6139 Clouds 9 990 66 10000 8.2 70 11:57 15.10.2019
6140 Clouds 9 990 66 10000 8.2 70 11:38 15.10.2019
6141 Clouds 9 990 66 10000 8.2 70 11:19 15.10.2019
6142 Clouds 9 989 76 10000 9.3 90 10:45 15.10.2019
6143 Clouds 9 989 61 10000 9.8 90 10:22 15.10.2019
6144 Clouds 9 988 76 10000 14.9 100 09:58 15.10.2019
6145 Clouds 9 988 76 10000 14.9 100 09:39 15.10.2019
6146 Clouds 9 989 57 10000 7.2 100 09:20 15.10.2019
6147 -273 0 0 0 0 0 08:57 15.10.2019
6148 Rain 9 989 57 10000 7.2 100 08:37 15.10.2019
6149 Rain 9 989 57 10000 7.2 100 08:18 15.10.2019
6150 Clouds 9 988 81 10000 13.9 110 07:42 15.10.2019
6151 Clouds 9 989 57 10000 8.2 100 07:21 15.10.2019
6152 -273 0 0 0 0 0 06:54 15.10.2019
6153 Drizzle 9 988 61 10000 14.4 120 06:36 15.10.2019
6154 Drizzle 9 988 87 10000 15.4 120 05:54 15.10.2019
6155 Drizzle 9 988 87 10000 15.4 120 05:35 15.10.2019
6156 Clouds 9 988 87 10000 14.4 120 04:40 15.10.2019
6157 Drizzle 9 987 81 10000 14.9 110 03:59 15.10.2019
6158 Drizzle 8 989 75 6000 13.4 90 03:30 15.10.2019
6159 Drizzle 8 987 87 10000 15.4 100 01:51 15.10.2019
6160 Drizzle 8 990 75 6000 10.8 100 01:24 15.10.2019
6161 Drizzle 8 988 81 10000 17.5 110 00:58 15.10.2019
6162 Drizzle 8 990 70 10000 11.3 100 00:24 15.10.2019
6163 Rain 8 989 87 9000 13.9 110 23:55 14.10.2019
6164 Rain 8 989 87 9000 13.9 110 23:36 14.10.2019
6165 Rain 8 990 65 10000 11.3 100 23:18 14.10.2019
6166 Rain 8 989 81 10000 14.4 100 22:39 14.10.2019
6167 Rain 8 990 65 10000 9.3 90 22:19 14.10.2019
6168 Rain 8 990 81 10000 14.4 90 21:57 14.10.2019
6169 Rain 8 990 81 10000 14.4 90 21:39 14.10.2019
6170 Rain 8 991 61 10000 8.2 80 21:20 14.10.2019
6171 Rain 8 990 75 10000 13.9 90 20:56 14.10.2019
6172 Rain 8 992 61 10000 8.2 80 20:38 14.10.2019
6173 Rain 7 990 75 10000 13.9 90 20:38 14.10.2019
6174 Rain 8 992 61 10000 8.2 80 20:18 14.10.2019
6175 Rain 8 991 75 10000 13.9 100 19:43 14.10.2019
6176 Clouds 8 993 61 10000 8.2 80 19:25 14.10.2019
6177 Rain 8 992 75 10000 14.4 100 18:59 14.10.2019
6178 Rain 8 992 75 10000 14.4 100 18:40 14.10.2019
6179 Rain 8 992 75 10000 14.4 100 18:40 14.10.2019
6180 Rain 8 993 61 10000 8.7 90 18:20 14.10.2019
6181 Rain 8 993 61 10000 8.7 90 18:20 14.10.2019
6182 Rain 8 992 75 10000 11.3 90 17:58 14.10.2019
6183 Rain 8 992 75 10000 11.3 90 17:40 14.10.2019
6184 Rain 8 994 65 10000 7.7 80 17:22 14.10.2019
6185 Rain 8 993 75 10000 12.3 100 16:44 14.10.2019
6186 Rain 7 995 70 10000 9.3 90 16:22 14.10.2019
6187 Clouds 8 994 75 10000 11.3 100 15:58 14.10.2019
6188 Clouds 8 994 75 10000 11.3 100 15:38 14.10.2019
6189 Clouds 8 995 61 10000 6.7 90 15:20 14.10.2019
6190 Clouds 7 994 75 10000 11.8 90 14:43 14.10.2019
6191 Clouds 7 995 52 10000 9.3 90 14:24 14.10.2019
6192 Clouds 7 995 70 10000 9.8 80 13:57 14.10.2019
6193 Clouds 6 995 70 10000 9.8 80 13:39 14.10.2019
6194 -273 0 0 0 0 0 13:20 14.10.2019
6195 -273 0 0 0 0 0 12:41 14.10.2019
6196 Clouds 5 997 56 10000 7.7 80 12:19 14.10.2019
6197 Clouds 5 997 75 10000 10.3 80 11:48 14.10.2019
6198 Clouds 5 998 60 10000 6.7 70 11:27 14.10.2019
6199 Clouds 5 997 75 10000 8.2 70 10:59 14.10.2019
6200 Clouds 4 997 75 10000 8.2 70 10:41 14.10.2019
6201 Clear 4 998 60 10000 8.7 80 10:21 14.10.2019
6202 Clear 4 998 60 10000 8.7 80 10:21 14.10.2019
6203 -273 0 0 0 0 0 09:57 14.10.2019
6204 Clear 4 999 60 10000 7.2 80 09:38 14.10.2019
6205 Clear 4 999 60 10000 7.2 80 09:19 14.10.2019
6206 Clouds 4 998 75 10000 8.2 80 08:46 14.10.2019
6207 Clear 4 999 60 10000 4.1 70 08:23 14.10.2019
6208 Clouds 4 999 75 10000 9.3 100 07:44 14.10.2019
6209 Clear 4 1000 69 10000 4.6 70 07:21 14.10.2019
6210 Clouds 4 999 75 10000 8.7 100 06:55 14.10.2019
6211 Clouds 4 1001 64 10000 4.1 90 06:27 14.10.2019
6212 Clouds 4 1000 86 10000 8.2 110 05:51 14.10.2019
6213 Rain 5 1000 81 10000 6.7 110 04:50 14.10.2019
6214 Rain 5 1001 93 10000 7.7 140 03:48 14.10.2019
6215 Rain 4 1002 65 10000 6.2 100 03:22 14.10.2019
6216 Drizzle 5 1002 93 10000 5.1 100 01:46 14.10.2019
6217 Clouds 5 1003 60 10000 6.2 90 01:18 14.10.2019
6218 Clouds 5 1002 87 10000 5.1 110 00:36 14.10.2019
6219 Clouds 5 1004 72 10000 5.7 90 00:18 14.10.2019
6220 Clouds 5 1003 87 10000 6.7 120 23:40 13.10.2019
6221 Rain 5 1004 70 10000 4.6 90 23:19 13.10.2019
6222 Rain 5 1003 93 10000 8.7 130 22:54 13.10.2019
6223 Rain 5 1004 70 10000 4.6 80 22:36 13.10.2019
6224 Rain 5 1004 70 10000 4.6 80 22:18 13.10.2019
6225 Rain 5 1004 70 10000 4.6 80 22:18 13.10.2019
6226 Rain 6 1004 93 6000 6.2 130 21:55 13.10.2019
6227 Rain 6 1004 93 6000 6.2 130 21:36 13.10.2019
6228 Drizzle 6 1004 70 10000 5.7 100 21:18 13.10.2019
6229 Drizzle 6 1004 93 10000 5.7 160 20:55 13.10.2019
6230 Rain 6 1004 65 10000 5.1 110 20:36 13.10.2019
6231 Rain 6 1004 65 10000 5.1 110 20:18 13.10.2019
6232 Rain 6 1004 70 10000 6.2 120 19:40 13.10.2019
6233 Rain 6 1004 70 10000 6.2 120 19:22 13.10.2019
6234 Rain 7 1004 93 7000 4.6 170 18:59 13.10.2019
6235 Rain 7 1004 65 10000 5.7 110 18:38 13.10.2019
6236 Rain 7 1004 65 10000 5.7 110 18:20 13.10.2019
6237 Rain 7 1004 93 10000 7.2 150 17:59 13.10.2019
6238 Rain 7 1004 93 10000 7.2 150 17:40 13.10.2019
6239 Rain 7 1005 70 10000 5.1 110 17:22 13.10.2019
6240 Rain 7 1005 70 10000 5.1 110 17:22 13.10.2019
6241 Rain 7 1004 100 5000 7.2 160 16:43 13.10.2019
6242 Rain 7 1005 65 10000 6.2 90 16:19 13.10.2019
6243 Rain 7 1004 87 10000 9.3 130 15:57 13.10.2019
6244 Rain 7 1004 87 10000 9.3 130 15:57 13.10.2019
6245 Rain 7 1004 87 10000 9.3 130 15:39 13.10.2019
6246 Rain 7 1005 65 10000 6.2 110 15:20 13.10.2019
6247 Rain 7 1005 65 10000 6.2 110 15:20 13.10.2019
6248 Rain 7 1004 87 10000 9.3 130 14:57 13.10.2019
6249 Rain 6 1004 87 10000 9.3 130 14:39 13.10.2019
6250 Rain 6 1005 78 10000 7.2 110 14:20 13.10.2019
6251 Rain 6 1004 87 10000 9.8 130 13:43 13.10.2019
6252 Clouds 6 1005 70 10000 7.7 120 13:24 13.10.2019
6253 Drizzle 6 1004 81 10000 8.7 140 12:59 13.10.2019
6254 Drizzle 6 1004 81 10000 8.7 140 12:59 13.10.2019
6255 Drizzle 6 1004 81 10000 8.7 140 12:40 13.10.2019
6256 Drizzle 5 1005 70 10000 7.2 110 12:21 13.10.2019
6257 Drizzle 6 1003 81 10000 10.8 140 11:59 13.10.2019
6258 Drizzle 5 1003 81 10000 10.8 140 11:40 13.10.2019
6259 Clouds 7 1005 70 10000 5.1 90 11:21 13.10.2019
6260 Drizzle 5 1003 93 10000 9.8 140 10:59 13.10.2019
6261 Drizzle 4 1003 93 10000 9.8 140 10:40 13.10.2019
6262 Drizzle 5 1005 75 10000 4.6 80 10:22 13.10.2019
6263 Drizzle 5 1005 75 10000 4.6 80 10:22 13.10.2019
6264 Rain 5 1003 93 9000 9.3 150 09:40 13.10.2019
6265 Rain 5 1004 80 10000 5.1 80 09:21 13.10.2019
6266 Rain 5 1003 100 10000 9.3 140 08:57 13.10.2019
6267 Rain 5 1004 80 10000 4.6 90 08:37 13.10.2019
6268 Rain 5 1004 80 10000 4.6 90 08:18 13.10.2019
6269 Rain 5 1003 100 10000 8.7 140 07:45 13.10.2019
6270 Rain 5 1003 100 10000 8.7 140 07:45 13.10.2019
6271 Clouds 5 1003 100 10000 9.3 140 06:58 13.10.2019
6272 Clouds 6 1004 75 10000 4.6 100 06:31 13.10.2019
6273 Drizzle 5 1004 75 10000 5.7 110 05:34 13.10.2019
6274 Drizzle 5 1004 75 10000 5.7 110 05:34 13.10.2019
6275 Clouds 5 1003 100 10000 8.7 130 04:46 13.10.2019
6276 Clouds 6 1004 93 10000 7.2 140 03:39 13.10.2019
6277 Rain 5 1004 93 7000 9.3 130 02:39 13.10.2019
6278 Rain 5 1004 100 10000 6.7 140 01:53 13.10.2019
6279 Clouds 5 1004 75 10000 4.6 100 01:26 13.10.2019
6280 Clouds 5 1004 93 10000 6.2 120 00:46 13.10.2019
6281 Clouds 5 1005 75 10000 3.6 100 00:21 13.10.2019
6282 Drizzle 5 1004 93 10000 5.1 130 23:55 12.10.2019
6283 Clouds 5 1004 70 10000 4.6 100 23:36 12.10.2019
6284 Clouds 6 1004 70 10000 4.6 100 23:18 12.10.2019
6285 Clouds 5 1004 93 10000 5.7 120 22:56 12.10.2019
6286 Clouds 5 1004 93 10000 5.7 120 22:37 12.10.2019
6287 Clouds 5 1004 75 10000 3.6 90 22:19 12.10.2019
6288 Clouds 5 1003 93 10000 6.7 120 21:42 12.10.2019
6289 Clouds 5 1004 70 10000 4.1 80 21:24 12.10.2019
6290 Clouds 6 1003 87 10000 6.2 130 20:58 12.10.2019
6291 Clouds 6 1003 87 10000 6.2 130 20:58 12.10.2019
6292 Clouds 6 1003 87 10000 6.2 130 20:39 12.10.2019
6293 Clouds 6 1003 70 10000 2.6 110 20:20 12.10.2019
6294 Clouds 6 1003 61 10000 3.6 140 19:37 12.10.2019
6295 Clouds 6 1003 61 10000 3.6 140 19:19 12.10.2019
6296 Clouds 6 1003 75 10000 6.2 140 18:56 12.10.2019
6297 Clouds 6 1003 75 10000 6.2 140 18:36 12.10.2019
6298 Clouds 6 1003 52 10000 3.6 50 18:18 12.10.2019
6299 Clouds 6 1003 75 10000 4.6 120 17:42 12.10.2019
6300 Clouds 6 1004 52 10000 4.1 70 17:19 12.10.2019
6301 Clouds 6 1003 70 10000 5.1 140 16:41 12.10.2019
6302 Clouds 6 1003 70 10000 5.1 140 16:41 12.10.2019
6303 Clouds 6 1004 52 10000 3.1 60 16:21 12.10.2019
6304 Clouds 6 1004 65 10000 3.1 90 15:59 12.10.2019
6305 Clouds 6 1004 65 10000 3.1 90 15:39 12.10.2019
6306 Clouds 6 1004 52 10000 4.1 80 15:21 12.10.2019
6307 Clouds 5 1004 70 10000 1.5 90 14:41 12.10.2019
6308 Clouds 5 1004 52 10000 5.1 70 14:22 12.10.2019
6309 Clouds 5 1004 52 10000 5.1 70 14:21 12.10.2019
6310 Clouds 5 1004 81 10000 1 100 13:53 12.10.2019
6311 Clouds 5 1004 81 10000 1 100 13:53 12.10.2019
6312 Clouds 5 1004 52 10000 4.6 90 13:33 12.10.2019
6313 Clouds 4 1004 75 10000 1 110 12:59 12.10.2019
6314 Clouds 4 1004 75 10000 1 110 12:59 12.10.2019
6315 Clouds 4 1004 75 10000 1 110 12:38 12.10.2019
6316 Clouds 4 1004 55 10000 4.6 70 12:20 12.10.2019
6317 Clouds 4 1004 80 10000 2.1 160 11:56 12.10.2019
6318 Clouds 4 1004 80 10000 2.1 160 11:38 12.10.2019
6319 Clouds 4 1004 55 10000 4.6 70 11:19 12.10.2019
6320 Clouds 3 1004 80 10000 2.1 160 10:41 12.10.2019
6321 Clouds 3 1004 60 10000 4.6 70 10:23 12.10.2019
6322 Clouds 3 1004 80 10000 1.5 140 09:58 12.10.2019
6323 Clouds 3 1004 80 10000 1.5 140 09:39 12.10.2019
6324 Clouds 3 1004 60 10000 4.6 80 09:21 12.10.2019
6325 -273 0 0 0 0 0 08:57 12.10.2019
6326 Clouds 4 1004 86 10000 1.5 150 08:57 12.10.2019
6327 Clouds 4 1004 86 10000 1.5 150 08:57 12.10.2019
6328 Clouds 4 1004 60 10000 5.1 70 08:37 12.10.2019
6329 Clouds 4 1004 60 10000 5.1 70 08:18 12.10.2019
6330 Clouds 4 1004 65 10000 5.1 80 07:33 12.10.2019
6331 Clouds 4 1004 80 10000 0.5 300 06:51 12.10.2019
6332 Clouds 4 1004 80 10000 1 300 05:47 12.10.2019
6333 Clouds 4 1005 83 10000 3.6 80 05:22 12.10.2019
6334 Drizzle 4 1005 75 10000 3.6 80 04:24 12.10.2019
6335 Drizzle 5 1005 83 10000 4.1 90 03:30 12.10.2019
6336 Clouds 6 1005 81 10000 0.5 20 01:38 12.10.2019
6337 Clouds 6 1005 65 10000 5.1 90 01:19 12.10.2019
6338 Clear 6 1005 87 10000 2.6 20 00:40 12.10.2019
6339 Clear 6 1005 87 10000 3.1 20 23:59 11.10.2019
6340 Clear 6 1005 87 10000 3.1 20 23:40 11.10.2019
6341 Clouds 6 1005 65 10000 3.97 25.221 23:20 11.10.2019
6342 Clear 7 1005 81 10000 4.1 30 22:41 11.10.2019
6343 Clear 7 1005 61 10000 2.1 120 22:21 11.10.2019
6344 Clear 8 1005 75 10000 4.6 30 21:57 11.10.2019
6345 Clear 8 1005 75 10000 4.6 30 21:39 11.10.2019
6346 Clear 8 1005 61 10000 1 0 21:20 11.10.2019
6347 Clear 8 1005 75 10000 3.6 30 20:44 11.10.2019
6348 Clear 8 1005 61 10000 1.5 30 20:26 11.10.2019
6349 Clouds 8 1005 75 10000 4.1 30 19:58 11.10.2019
6350 Clouds 9 1005 75 10000 4.1 30 19:39 11.10.2019
6351 Clear 9 1004 61 10000 2.6 360 19:18 11.10.2019
6352 Clouds 10 1005 70 10000 5.1 30 18:58 11.10.2019
6353 Clear 9 1004 57 10000 2.6 360 18:38 11.10.2019
6354 Clear 9 1004 57 10000 2.6 360 18:19 11.10.2019
6355 Clear 9 1004 70 10000 4.6 30 17:58 11.10.2019
6356 Clear 9 1004 70 10000 4.6 30 17:38 11.10.2019
6357 Clear 10 1004 53 10000 2.6 300 17:19 11.10.2019
6358 Clear 9 1004 66 10000 4.6 30 16:56 11.10.2019
6359 Clear 9 1004 66 10000 4.6 30 16:37 11.10.2019
6360 Clear 9 1004 61 10000 2.1 290 16:19 11.10.2019
6361 Clear 9 1004 70 10000 4.6 30 15:41 11.10.2019
6362 Clear 9 1004 70 10000 4.6 30 15:41 11.10.2019
6363 Clear 9 1004 71 10000 1 0 15:20 11.10.2019
6364 Clear 9 1004 76 10000 6.2 50 14:58 11.10.2019
6365 Clear 9 1004 76 10000 6.2 50 14:38 11.10.2019
6366 Clear 9 1003 57 10000 3.1 10 14:19 11.10.2019
6367 Clear 9 1003 57 10000 3.1 10 14:19 11.10.2019
6368 Clear 8 1003 75 10000 6.7 40 13:44 11.10.2019
6369 Clear 9 1003 71 10000 2.1 60 13:25 11.10.2019
6370 Clouds 9 1003 75 10000 6.7 50 12:57 11.10.2019
6371 Clouds 9 1003 75 10000 6.7 50 12:38 11.10.2019
6372 Clouds 8 1002 75 10000 6.7 50 12:20 11.10.2019
6373 Clouds 8 1002 75 10000 7.2 40 11:58 11.10.2019
6374 Clouds 8 1002 75 10000 7.2 40 11:38 11.10.2019
6375 Clear 7 1001 79 10000 0.5 0 11:20 11.10.2019
6376 Clouds 7 1001 75 10000 5.7 50 10:54 11.10.2019
6377 Clouds 7 1001 75 10000 5.7 50 10:36 11.10.2019
6378 Clear 7 1001 79 10000 0.5 0 10:18 11.10.2019
6379 Clouds 8 1000 75 10000 6.2 50 09:41 11.10.2019
6380 Clear 8 1000 61 10000 3.1 40 09:21 11.10.2019
6381 Clear 8 999 75 10000 4.6 50 08:56 11.10.2019
6382 Clear 8 999 75 10000 4.6 50 08:38 11.10.2019
6383 Drizzle 8 999 61 10000 1.5 20 08:20 11.10.2019
6384 Drizzle 7 999 81 10000 6.2 40 07:52 11.10.2019
6385 Rain 7 998 65 10000 1.5 40 07:33 11.10.2019
6386 Drizzle 7 998 81 10000 5.7 50 06:50 11.10.2019
6387 Drizzle 6 998 70 10000 2.1 10 06:25 11.10.2019
6388 Clouds 6 998 81 10000 7.2 40 05:47 11.10.2019
6389 Clouds 6 997 65 10000 1 360 05:29 11.10.2019
6390 Clouds 6 998 81 10000 7.7 40 04:50 11.10.2019
6391 Clouds 6 997 65 10000 6.7 60 03:21 11.10.2019
6392 Clouds 6 995 65 10000 7.7 30 01:18 11.10.2019
6393 Clear 6 995 70 10000 9.8 30 00:31 11.10.2019
6394 Clouds 5 996 81 10000 7.7 40 23:58 10.10.2019
6395 Clouds 5 996 81 10000 7.7 40 23:40 10.10.2019
6396 Clouds 6 995 70 10000 11.3 20 23:19 10.10.2019
6397 Clouds 6 996 75 10000 9.3 40 22:55 10.10.2019
6398 Clouds 6 995 82 10000 10.8 20 22:36 10.10.2019
6399 Clouds 6 995 82 10000 10.8 20 22:18 10.10.2019
6400 Clouds 6 997 75 10000 8.7 30 21:42 10.10.2019
6401 Clouds 6 995 79 10000 11.3 20 21:22 10.10.2019
6402 Clouds 6 997 75 10000 10.8 20 20:58 10.10.2019
6403 Clouds 6 997 75 10000 10.8 20 20:39 10.10.2019
6404 Clouds 6 996 73 10000 10.3 10 20:20 10.10.2019
6405 Clouds 6 995 84 0 10.73 360 19:57 10.10.2019
6406 Clouds 6 995 84 0 10.73 360 19:57 10.10.2019
6407 Clouds 6 995 85 0 10.28 5 19:39 10.10.2019
6408 Clouds 6 995 85 0 10.28 360 19:19 10.10.2019
6409 Rain 7 998 70 10000 11.8 30 18:42 10.10.2019
6410 Rain 7 998 70 10000 11.8 30 18:21 10.10.2019
6411 Rain 7 998 70 10000 11.8 30 17:59 10.10.2019
6412 Rain 7 998 70 10000 11.8 30 17:40 10.10.2019
6413 Rain 7 997 65 10000 9.8 40 17:18 10.10.2019
6414 Clouds 7 998 75 10000 9.8 30 16:56 10.10.2019
6415 Clouds 7 997 68 10000 8.2 40 16:37 10.10.2019
6416 Clouds 7 997 68 10000 8.2 40 16:18 10.10.2019
6417 Clouds 7 998 70 10000 7.7 30 15:40 10.10.2019
6418 Clouds 7 998 70 10000 11.3 10 15:22 10.10.2019
6419 Clouds 7 998 70 10000 11.3 10 15:22 10.10.2019
6420 Clouds 7 999 65 10000 7.7 30 14:57 10.10.2019
6421 Clouds 7 999 65 10000 7.7 30 14:37 10.10.2019
6422 Clouds 7 998 70 10000 11.3 30 14:19 10.10.2019
6423 Clouds 6 999 75 10000 10.8 40 13:57 10.10.2019
6424 Clouds 6 999 75 10000 10.8 40 13:39 10.10.2019
6425 Clouds 6 998 60 10000 6.7 30 13:18 10.10.2019
6426 Clouds 5 998 70 10000 12.3 30 12:42 10.10.2019
6427 Clouds 6 998 85 10000 2.1 160 12:21 10.10.2019
6428 Clouds 4 998 75 10000 11.3 40 11:58 10.10.2019
6429 Clouds 4 998 75 10000 11.3 40 11:40 10.10.2019
6430 Clouds 4 998 74 10000 1.5 270 11:19 10.10.2019
6431 Clear 4 998 80 10000 10.8 30 10:47 10.10.2019
6432 Clear 3 998 64 10000 2.1 180 10:28 10.10.2019
6433 Clear 3 998 64 10000 2.1 180 10:28 10.10.2019
6434 Clear 3 998 80 10000 9.3 40 09:59 10.10.2019
6435 Clear 3 998 80 10000 9.3 40 09:41 10.10.2019
6436 Clear 3 997 74 10000 1 0 09:23 10.10.2019
6437 Clear 4 998 75 10000 8.7 30 08:59 10.10.2019
6438 Clear 4 998 75 10000 8.7 30 08:40 10.10.2019
6439 Clear 3 998 80 10000 8.7 30 08:21 10.10.2019
6440 Clear 4 998 80 10000 8.7 30 07:47 10.10.2019
6441 Clear 3 998 74 10000 1.5 130 07:26 10.10.2019
6442 Clear 3 998 80 10000 8.2 30 06:56 10.10.2019
6443 Clear 3 998 80 10000 8.2 30 06:38 10.10.2019
6444 Clear 3 998 75 10000 8.7 30 05:50 10.10.2019
6445 Clear 3 998 69 10000 1.5 130 05:19 10.10.2019
6446 Clear 4 998 69 10000 1.5 90 04:35 10.10.2019
6447 Clear 4 998 75 10000 6.2 40 02:42 10.10.2019
6448 Clear 6 998 65 10000 1.5 120 01:37 10.10.2019
6449 Clear 6 998 65 10000 1.5 120 01:18 10.10.2019
6450 Clear 6 998 65 10000 1.5 120 01:18 10.10.2019
6451 Clear 5 998 81 10000 7.7 30 00:39 10.10.2019
6452 Clear 6 999 81 10000 7.7 40 23:55 09.10.2019
6453 Clear 6 998 78 10000 1.5 70 23:36 09.10.2019
6454 Clear 5 998 78 10000 1.5 70 23:18 09.10.2019
6455 Clear 5 998 78 10000 1.5 70 23:18 09.10.2019
6456 Clear 6 998 81 10000 6.7 40 22:41 09.10.2019
6457 Clear 6 998 65 10000 6.2 30 22:22 09.10.2019
6458 Clear 7 998 75 10000 7.7 30 21:58 09.10.2019
6459 Clear 7 998 75 10000 7.7 30 21:39 09.10.2019
6460 Clear 7 998 75 10000 7.7 30 21:39 09.10.2019
6461 Clear 7 998 75 10000 7.7 30 21:39 09.10.2019
6462 Clouds 7 998 61 10000 7.2 30 21:19 09.10.2019
6463 Clouds 7 998 75 10000 7.2 30 20:55 09.10.2019
6464 Clouds 7 998 75 10000 7.2 30 20:37 09.10.2019
6465 Clouds 8 997 57 10000 4.6 20 20:18 09.10.2019
6466 Clouds 8 997 57 10000 4.6 20 20:18 09.10.2019
6467 Clouds 8 998 70 10000 7.2 30 19:44 09.10.2019
6468 Clouds 8 997 57 10000 5.1 20 19:23 09.10.2019
6469 Clouds 9 998 70 10000 6.7 40 18:56 09.10.2019
6470 Clear 9 997 57 10000 3.1 20 18:37 09.10.2019
6471 Clear 9 997 57 10000 3.1 20 18:18 09.10.2019
6472 -273 0 0 0 0 0 17:54 09.10.2019
6473 Clear 9 998 70 10000 9.8 30 17:36 09.10.2019
6474 Clouds 9 997 53 10000 4.1 60 17:18 09.10.2019
6475 Clear 9 997 76 10000 9.3 30 16:40 09.10.2019
6476 Clouds 9 996 61 10000 4.1 360 16:21 09.10.2019
6477 Clouds 9 996 61 10000 4.1 360 16:21 09.10.2019
6478 Clear 10 997 76 10000 8.7 30 15:57 09.10.2019
6479 Clear 10 997 76 10000 8.7 30 15:57 09.10.2019
6480 Clear 9 997 76 10000 8.7 30 15:39 09.10.2019
6481 Clouds 10 996 57 10000 4.6 10 15:19 09.10.2019
6482 Clear 9 997 81 10000 8.2 30 14:56 09.10.2019
6483 Clear 9 997 81 10000 8.2 30 14:37 09.10.2019
6484 Clouds 9 996 61 10000 3.6 330 14:18 09.10.2019
6485 Clear 9 996 76 10000 8.7 40 13:39 09.10.2019
6486 Clear 9 996 76 10000 8.7 40 13:39 09.10.2019
6487 Clouds 9 996 66 10000 2.1 360 13:20 09.10.2019
6488 Clear 8 996 81 10000 8.7 30 12:57 09.10.2019
6489 Clear 8 996 81 10000 8.7 30 12:38 09.10.2019
6490 Clouds 8 995 70 10000 4.1 30 12:20 09.10.2019
6491 Clear 8 995 87 10000 10.3 40 11:55 09.10.2019
6492 Clear 8 995 87 10000 10.3 40 11:55 09.10.2019
6493 Clouds 8 994 75 10000 1.5 100 11:36 09.10.2019
6494 Clouds 8 994 75 10000 1.5 100 11:18 09.10.2019
6495 Clear 7 994 87 10000 6.7 30 10:42 09.10.2019
6496 Clouds 7 994 87 10000 1.5 260 10:20 09.10.2019
6497 Clear 7 994 87 10000 7.7 40 09:57 09.10.2019
6498 Clear 7 994 87 10000 7.7 40 09:38 09.10.2019
6499 Clear 7 994 87 10000 7.7 40 09:38 09.10.2019
6500 Clear 7 993 86 10000 4.54 33.928 09:18 09.10.2019
6501 Clear 8 994 87 10000 7.2 30 08:39 09.10.2019
6502 Clear 8 993 87 10000 4.02 32.122 08:21 09.10.2019
6503 Clear 8 993 87 10000 4.02 32.122 08:21 09.10.2019
6504 Clouds 8 993 93 10000 4.6 30 07:47 09.10.2019
6505 Clouds 8 993 93 10000 4.6 30 07:47 09.10.2019
6506 Clear 8 992 81 10000 1 0 07:26 09.10.2019
6507 Clear 7 992 100 10000 3.6 30 06:59 09.10.2019
6508 Clear 8 992 100 10000 3.6 30 06:41 09.10.2019
6509 Clouds 8 991 100 10000 2.1 30 05:53 09.10.2019
6510 Clear 8 990 87 10000 2.6 310 05:19 09.10.2019
6511 Clouds 8 990 100 10000 0.5 280 03:54 09.10.2019
6512 Rain 8 989 100 10000 1.5 250 02:42 09.10.2019
6513 Rain 9 989 93 10000 2.1 360 01:39 09.10.2019
6514 Rain 9 988 81 10000 1 0 01:19 09.10.2019
6515 Clouds 10 988 76 10000 1 90 00:56 09.10.2019
6516 Clouds 11 988 76 10000 1 90 00:37 09.10.2019
6517 Clear 10 987 71 10000 4.07 22.202 00:19 09.10.2019
6518 Rain 10 987 81 10000 2.1 90 23:39 08.10.2019
6519 Rain 10 986 66 10000 2.1 50 23:18 08.10.2019
6520 Rain 11 986 76 10000 2.1 80 22:56 08.10.2019
6521 Rain 11 986 76 10000 2.1 80 22:37 08.10.2019
6522 Rain 11 985 62 10000 3.1 110 22:18 08.10.2019
6523 Rain 10 985 87 10000 2.6 40 21:57 08.10.2019
6524 Rain 10 985 87 10000 2.6 40 21:38 08.10.2019
6525 Clear 10 984 81 10000 4.96 41.197 21:18 08.10.2019
6526 Clear 10 984 87 10000 3.1 10 20:55 08.10.2019
6527 Clear 10 984 87 10000 3.1 10 20:37 08.10.2019
6528 Clear 10 984 87 10000 3.1 10 20:37 08.10.2019
6529 Clouds 11 983 81 10000 4.6 34.394 20:19 08.10.2019
6530 Clear 11 983 81 10000 2.6 360 19:56 08.10.2019
6531 Clear 11 982 76 10000 1 0 19:36 08.10.2019
6532 Clear 12 982 76 10000 1 0 19:18 08.10.2019
6533 Clear 12 982 71 10000 2.1 60 18:45 08.10.2019
6534 Clear 12 981 71 10000 1.5 230 18:25 08.10.2019
6535 Rain 12 981 76 10000 2.6 50 17:58 08.10.2019
6536 Rain 12 981 76 10000 2.6 50 17:39 08.10.2019
6537 Rain 12 981 76 10000 2.6 50 17:39 08.10.2019
6538 Rain 12 981 66 10000 1 0 17:20 08.10.2019
6539 Rain 12 981 76 10000 4.1 40 16:56 08.10.2019
6540 Rain 12 981 76 10000 4.1 40 16:56 08.10.2019
6541 Clear 12 980 71 10000 1.5 260 16:37 08.10.2019
6542 Clear 12 980 71 10000 1.5 260 16:19 08.10.2019
6543 Clear 12 980 71 10000 4.6 40 15:40 08.10.2019
6544 Clear 12 979 71 10000 0.5 240 15:20 08.10.2019
6545 Clear 12 979 71 10000 0.5 240 15:20 08.10.2019
6546 Clear 11 979 76 10000 4.1 30 14:57 08.10.2019
6547 Clear 11 979 76 10000 4.1 30 14:38 08.10.2019
6548 Clear 11 979 71 10000 4.46 50.748 14:19 08.10.2019
6549 Clear 10 978 81 10000 3.6 40 13:55 08.10.2019
6550 Clear 10 978 76 10000 4.46 50.748 13:37 08.10.2019
6551 Clear 10 978 81 10000 3.6 40 13:37 08.10.2019
6552 Clear 10 978 76 10000 4.7 49.072 13:18 08.10.2019
6553 Clear 9 978 87 10000 3.1 30 12:41 08.10.2019
6554 Clear 8 977 87 10000 1.5 140 12:20 08.10.2019
6555 Clear 8 977 93 10000 3.6 10 11:58 08.10.2019
6556 Clear 8 977 93 10000 3.6 10 11:39 08.10.2019
6557 Clear 8 976 87 10000 2.1 150 11:21 08.10.2019
6558 Clouds 8 977 93 10000 4.1 10 10:54 08.10.2019
6559 Clouds 8 977 93 10000 4.1 10 10:54 08.10.2019
6560 Clouds 8 977 93 10000 4.1 10 10:36 08.10.2019
6561 Clear 8 976 81 10000 4.94 40.766 10:18 08.10.2019
6562 Rain 7 976 93 10000 3.6 10 09:40 08.10.2019
6563 Drizzle 7 975 87 10000 1 0 09:22 08.10.2019
6564 Rain 8 975 87 10000 4.1 20 08:45 08.10.2019
6565 Rain 8 975 87 10000 1.5 200 08:25 08.10.2019
6566 Rain 9 975 81 10000 5.7 30 07:58 08.10.2019
6567 Rain 9 975 81 10000 5.7 30 07:40 08.10.2019
6568 Rain 9 974 76 10000 1.5 30 07:19 08.10.2019
6569 Rain 8 974 93 10000 4.6 20 06:46 08.10.2019
6570 Rain 9 974 81 10000 2.6 10 06:23 08.10.2019
6571 Rain 9 974 87 10000 4.6 30 05:43 08.10.2019
6572 Rain 9 974 76 10000 2.1 360 05:21 08.10.2019
6573 Rain 9 973 66 10000 7.2 10 03:32 08.10.2019
6574 Drizzle 9 974 87 10000 8.2 360 02:44 08.10.2019
6575 Rain 9 973 66 10000 3.6 340 02:25 08.10.2019
6576 Rain 9 973 81 10000 7.7 10 01:42 08.10.2019
6577 Drizzle 10 973 87 10000 8.2 20 00:57 08.10.2019
6578 Drizzle 10 973 62 10000 6.7 10 00:25 08.10.2019
6579 Drizzle 10 973 87 10000 8.2 20 23:58 07.10.2019
6580 Rain 10 973 62 10000 7.7 10 23:38 07.10.2019
6581 Rain 10 973 62 10000 7.7 10 23:19 07.10.2019
6582 Rain 10 974 87 10000 8.2 20 22:55 07.10.2019
6583 Rain 10 973 62 10000 6.7 10 22:37 07.10.2019
6584 Rain 10 973 62 10000 6.7 10 22:18 07.10.2019
6585 Rain 10 973 87 10000 8.7 20 21:54 07.10.2019
6586 Rain 10 973 62 10000 5.1 30 21:36 07.10.2019
6587 Rain 10 973 62 10000 5.1 30 21:36 07.10.2019
6588 Rain 10 973 62 10000 5.1 30 21:18 07.10.2019
6589 Rain 10 974 81 10000 9.8 30 20:56 07.10.2019
6590 Rain 10 974 81 10000 9.8 30 20:56 07.10.2019
6591 Rain 10 973 54 10000 5.7 50 20:37 07.10.2019
6592 Rain 10 973 54 10000 5.7 50 20:18 07.10.2019
6593 Rain 10 974 76 10000 9.3 30 19:42 07.10.2019
6594 Rain 10 974 76 10000 9.3 30 19:42 07.10.2019
6595 Rain 11 973 58 10000 6.2 40 19:21 07.10.2019
6596 Clear 10 974 76 10000 9.3 20 19:00 07.10.2019
6597 Clear 10 974 76 10000 9.3 20 18:41 07.10.2019
6598 Clear 10 974 54 10000 6.2 30 18:19 07.10.2019
6599 Clear 11 975 76 10000 9.3 30 17:58 07.10.2019
6600 Clear 11 975 76 10000 9.3 30 17:40 07.10.2019
6601 Rain 12 975 47 10000 6.2 40 17:18 07.10.2019
6602 Rain 12 975 76 10000 10.8 30 16:44 07.10.2019
6603 Rain 12 976 43 10000 7.7 60 16:26 07.10.2019
6604 Clear 12 977 71 10000 10.3 30 15:57 07.10.2019
6605 Clear 12 977 71 10000 10.3 30 15:39 07.10.2019
6606 Clear 12 977 43 10000 6.7 60 15:21 07.10.2019
6607 Clear 11 978 71 10000 8.2 40 14:41 07.10.2019
6608 Clear 11 978 46 10000 6.7 50 14:23 07.10.2019
6609 Clear 11 979 71 10000 10.3 30 13:45 07.10.2019
6610 Clear 10 979 69 10000 6.2 40 13:21 07.10.2019
6611 Clear 10 980 76 10000 8.2 30 12:59 07.10.2019
6612 Clear 10 980 76 10000 8.2 30 12:40 07.10.2019
6613 Clear 10 980 76 10000 8.2 30 12:40 07.10.2019
6614 Clear 10 980 76 10000 5.7 60 12:21 07.10.2019
6615 Clear 10 980 76 10000 5.7 60 12:21 07.10.2019
6616 Clear 10 980 76 10000 5.7 60 12:21 07.10.2019
6617 Rain 10 981 71 10000 10.8 30 11:59 07.10.2019
6618 Rain 10 981 71 10000 10.8 30 11:59 07.10.2019
6619 Rain 10 981 71 10000 10.8 30 11:40 07.10.2019
6620 Clear 10 981 76 10000 6.2 60 11:21 07.10.2019
6621 Clear 10 982 66 10000 10.8 40 10:58 07.10.2019
6622 Clear 10 982 66 10000 10.8 40 10:39 07.10.2019
6623 Clear 10 983 53 10000 5.7 40 10:20 07.10.2019
6624 Clear 9 984 66 10000 11.3 60 09:40 07.10.2019
6625 Clear 9 985 57 10000 7.2 70 09:22 07.10.2019
6626 Clear 10 985 76 10000 9.8 50 08:55 07.10.2019
6627 Clear 9 985 76 10000 9.8 50 08:37 07.10.2019
6628 Clear 9 986 57 10000 9.3 80 08:18 07.10.2019
6629 Clear 10 986 76 10000 10.3 60 07:40 07.10.2019
6630 Clear 10 987 62 10000 8.2 70 07:20 07.10.2019
6631 Clear 10 987 76 10000 8.7 50 06:44 07.10.2019
6632 Clear 10 987 62 10000 9.8 80 06:23 07.10.2019
6633 Clear 10 988 62 10000 12.9 100 05:30 07.10.2019
6634 Clear 10 990 81 10000 6.7 60 04:58 07.10.2019
6635 Clear 9 990 62 10000 10.3 80 04:20 07.10.2019
6636 Clear 9 991 81 10000 6.2 70 03:44 07.10.2019
6637 Clear 9 991 81 10000 6.2 70 03:44 07.10.2019
6638 Clear 9 992 66 10000 7.7 70 03:19 07.10.2019
6639 Clear 9 994 66 10000 6.2 70 02:20 07.10.2019
6640 Clouds 9 994 87 10000 4.1 50 01:47 07.10.2019
6641 Clear 9 995 66 10000 6.2 80 01:19 07.10.2019
6642 Clouds 9 996 87 10000 5.1 80 00:38 07.10.2019
6643 Clear 9 996 66 10000 3.1 90 00:19 07.10.2019
6644 Clouds 9 997 87 10000 4.6 70 23:42 06.10.2019
6645 Clouds 9 997 87 10000 4.6 70 23:42 06.10.2019
6646 Clouds 9 997 87 10000 4.6 70 23:42 06.10.2019
6647 Clear 9 997 76 10000 2.1 60 23:21 06.10.2019
6648 Clouds 9 997 87 10000 6.2 70 22:59 06.10.2019
6649 Clouds 9 997 87 10000 6.2 70 22:41 06.10.2019
6650 Clouds 9 998 76 10000 3.1 60 22:21 06.10.2019
6651 Clouds 9 998 87 10000 7.7 100 21:57 06.10.2019
6652 Clouds 9 998 87 10000 7.7 100 21:37 06.10.2019
6653 Clouds 9 1000 76 10000 4.6 100 21:19 06.10.2019
6654 Clouds 9 999 87 10000 6.2 110 20:57 06.10.2019
6655 Clouds 9 999 87 10000 6.2 110 20:39 06.10.2019
6656 Clouds 9 999 87 10000 6.2 110 20:39 06.10.2019
6657 Clouds 9 1001 71 10000 5.7 110 20:20 06.10.2019
6658 Clouds 10 1000 87 10000 7.7 120 19:57 06.10.2019
6659 Clouds 10 1000 87 10000 7.7 120 19:57 06.10.2019
6660 Clouds 10 1001 71 10000 7.2 120 19:37 06.10.2019
6661 Clouds 10 1001 71 10000 7.2 120 19:19 06.10.2019
6662 Clouds 10 1001 71 10000 7.2 120 19:19 06.10.2019
6663 Rain 10 1001 87 10000 8.7 120 18:56 06.10.2019
6664 Rain 10 1002 71 10000 6.7 120 18:38 06.10.2019
6665 Rain 11 1002 71 10000 6.7 120 18:19 06.10.2019
6666 Rain 11 1002 87 10000 7.7 120 17:57 06.10.2019
6667 Rain 11 1003 71 10000 6.2 130 17:38 06.10.2019
6668 Rain 11 1003 71 10000 6.2 130 17:18 06.10.2019
6669 Rain 11 1003 81 10000 8.2 120 16:42 06.10.2019
6670 Rain 11 1004 71 10000 5.7 130 16:23 06.10.2019
6671 Rain 10 1003 87 10000 7.7 140 15:45 06.10.2019
6672 Rain 10 1004 81 10000 3.1 140 15:23 06.10.2019
6673 Rain 10 1003 87 10000 7.2 140 14:59 06.10.2019
6674 Rain 10 1003 87 10000 7.2 140 14:41 06.10.2019
6675 Rain 10 1004 81 7000 4.6 150 14:23 06.10.2019
6676 Rain 10 1003 93 10000 7.7 150 13:56 06.10.2019
6677 Rain 10 1003 93 10000 7.7 150 13:56 06.10.2019
6678 Rain 10 1004 76 9000 5.7 120 13:37 06.10.2019
6679 Rain 10 1004 76 9000 5.7 120 13:19 06.10.2019
6680 Drizzle 10 1003 93 10000 8.2 150 12:56 06.10.2019
6681 Drizzle 10 1003 93 10000 8.2 150 12:37 06.10.2019
6682 Drizzle 9 1004 76 10000 5.1 110 12:19 06.10.2019
6683 Rain 9 1003 100 10000 6.2 140 11:55 06.10.2019
6684 Rain 9 1004 81 10000 4.6 110 11:36 06.10.2019
6685 Rain 9 1004 81 10000 4.6 110 11:36 06.10.2019
6686 Rain 9 1004 81 10000 4.6 110 11:18 06.10.2019
6687 Drizzle 9 1003 100 10000 6.2 140 10:42 06.10.2019
6688 Drizzle 9 1003 81 10000 4.1 120 10:24 06.10.2019
6689 Drizzle 9 1002 93 10000 6.2 140 09:42 06.10.2019
6690 Drizzle 9 1003 76 10000 4.6 130 09:21 06.10.2019
6691 Drizzle 9 1003 76 10000 4.6 130 09:21 06.10.2019
6692 Drizzle 9 1002 93 10000 6.7 150 08:59 06.10.2019
6693 Drizzle 9 1002 93 10000 6.7 150 08:40 06.10.2019
6694 Drizzle 9 1003 76 10000 5.1 120 08:20 06.10.2019
6695 Rain 9 1002 100 10000 7.2 150 07:42 06.10.2019
6696 Rain 9 1002 76 10000 5.7 130 07:18 06.10.2019
6697 Drizzle 8 1002 81 10000 4.1 110 06:19 06.10.2019
6698 Drizzle 9 1001 81 10000 6.7 120 05:28 06.10.2019
6699 Clouds 8 1000 87 10000 4.1 90 03:35 06.10.2019
6700 Clouds 8 1000 100 10000 6.2 140 02:42 06.10.2019
6701 Clouds 8 1000 81 10000 3.6 80 02:19 06.10.2019
6702 Clouds 9 999 81 10000 4.1 100 01:38 06.10.2019
6703 Clouds 9 999 81 10000 4.1 100 01:20 06.10.2019
6704 Mist 9 998 93 9000 4.6 140 00:45 06.10.2019
6705 Mist 9 999 81 10000 4.6 110 00:24 06.10.2019
6706 Rain 8 998 100 4500 4.6 140 23:44 05.10.2019
6707 Rain 8 998 81 10000 5.1 140 23:22 05.10.2019
6708 Rain 9 997 100 250 4.1 150 22:58 05.10.2019
6709 Rain 9 997 81 10000 1.5 120 22:39 05.10.2019
6710 Rain 9 997 81 10000 1.5 120 22:20 05.10.2019
6711 Rain 9 997 81 10000 1.5 120 22:20 05.10.2019
6712 Rain 9 996 100 4000 3.6 150 21:56 05.10.2019
6713 Rain 9 996 81 10000 4.6 110 21:37 05.10.2019
6714 Rain 9 996 81 10000 4.6 110 21:18 05.10.2019
6715 Rain 9 995 93 10000 4.1 160 20:55 05.10.2019
6716 Rain 9 995 93 10000 4.1 160 20:36 05.10.2019
6717 Rain 9 995 81 10000 6.7 100 20:18 05.10.2019
6718 Rain 9 994 76 10000 7.7 100 19:37 05.10.2019
6719 Rain 9 994 76 10000 7.7 100 19:19 05.10.2019
6720 Rain 9 994 93 7000 10.3 140 18:55 05.10.2019
6721 Rain 9 994 76 10000 9.8 100 18:37 05.10.2019
6722 Rain 9 994 76 10000 9.8 100 18:19 05.10.2019
6723 Rain 9 993 93 5000 11.3 120 17:43 05.10.2019
6724 Rain 9 994 76 10000 9.3 100 17:23 05.10.2019
6725 Rain 9 994 93 4000 10.8 130 16:57 05.10.2019
6726 Rain 9 994 93 4000 10.8 130 16:39 05.10.2019
6727 Rain 9 994 76 9000 9.3 90 16:20 05.10.2019
6728 Rain 9 994 76 9000 9.3 90 16:20 05.10.2019
6729 Rain 9 994 93 10000 12.3 130 15:56 05.10.2019
6730 Rain 9 994 87 5000 9.3 100 15:38 05.10.2019
6731 Rain 9 994 87 5000 9.3 100 15:19 05.10.2019
6732 Rain 9 994 93 10000 12.3 130 14:43 05.10.2019
6733 Rain 9 994 81 6000 7.7 90 14:24 05.10.2019
6734 Rain 9 993 93 10000